# Wetter Temperatur Luftdruck Luftfeuchtigkeit Sichtweite Windgeschwindigkeit Windrichtung Zeit
1 Clouds 29 1013 70 10000 3.09 100 16:36 01.02.2023
2 Clouds 26 1013 83 10000 5.14 90 14:21 01.02.2023
3 Clouds 26 1013 83 10000 5.14 90 14:21 01.02.2023
4 Clouds 25 1013 88 10000 3.6 90 13:19 01.02.2023
5 Clouds 25 1013 88 10000 3.6 90 13:19 01.02.2023
6 Clear 24 1012 88 10000 3.6 90 12:26 01.02.2023
7 Clouds 24 1011 88 10000 3.09 80 10:46 01.02.2023
8 Clouds 24 1010 88 10000 4.63 110 08:26 01.02.2023
9 Rain 27 1009 74 10000 3.09 60 22:41 31.01.2023
10 Clouds 28 1009 78 10000 3.09 40 20:53 31.01.2023
11 Clouds 30 1010 70 10000 1.54 80 19:24 31.01.2023
12 Clouds 28 1012 74 10000 2.57 80 17:37 31.01.2023
13 Clouds 26 1013 89 10000 3.09 110 15:36 31.01.2023
14 Clouds 26 1013 89 10000 3.09 110 15:18 31.01.2023
15 Clouds 24 1013 94 10000 3.09 120 13:19 31.01.2023
16 Clouds 23 1010 94 10000 2.57 130 11:28 31.01.2023
17 Clouds 23 1010 94 10000 2.06 110 10:18 31.01.2023
18 Clouds 24 1010 94 10000 2.57 120 09:44 31.01.2023
19 Clouds 24 1010 94 10000 2.06 160 08:36 31.01.2023
20 Clouds 24 1011 94 10000 2.06 130 06:23 31.01.2023
21 Clouds 24 1009 94 10000 24.18 100 00:54 31.01.2023
22 Clouds 24 1008 94 10000 1.54 90 23:24 30.01.2023
23 Rain 25 1008 88 10000 1.54 50 22:47 30.01.2023
24 Rain 25 1008 88 10000 1.54 80 21:30 30.01.2023
25 Rain 25 1009 88 10000 1.03 0 20:43 30.01.2023
26 Rain 23 1011 94 10000 3.09 70 18:26 30.01.2023
27 Rain 22 1013 94 3000 4.63 70 16:58 30.01.2023
28 Clouds 26 1013 89 800 1.54 160 14:33 30.01.2023
29 Clouds 26 1012 89 10000 1.03 170 13:37 30.01.2023
30 Clouds 25 1010 94 10000 1.03 190 11:28 30.01.2023
31 Clouds 25 1009 94 10000 1.03 200 10:18 30.01.2023
32 Clouds 25 1009 94 10000 1.54 200 09:49 30.01.2023
33 Clouds 25 1009 94 10000 1.03 170 08:18 30.01.2023
34 Clear 27 1009 74 10000 1.54 60 01:46 30.01.2023
35 Clouds 28 1008 69 10000 2.06 40 23:35 29.01.2023
36 Clouds 30 1008 66 10000 1.54 60 22:37 29.01.2023
37 Clouds 30 1008 66 10000 3.09 40 21:41 29.01.2023
38 Clouds 31 1009 58 10000 2.57 360 20:50 29.01.2023
39 Clouds 29 1010 70 10000 2.06 70 19:50 29.01.2023
40 Clouds 29 1010 70 10000 2.06 70 19:27 29.01.2023
41 Clouds 28 1012 69 10000 2.06 40 17:50 29.01.2023
42 Rain 27 1013 78 10000 1.54 0 16:21 29.01.2023
43 Clouds 27 1013 74 10000 4.12 80 15:29 29.01.2023
44 Clouds 26 1013 83 10000 3.6 100 13:30 29.01.2023
45 Clouds 24 1012 94 10000 2.06 110 12:45 29.01.2023
46 Clouds 24 1012 94 10000 2.06 110 12:23 29.01.2023
47 Clouds 24 1011 94 10000 2.06 110 11:54 29.01.2023
48 Clouds 24 1011 94 10000 1.03 60 11:27 29.01.2023
49 Clouds 24 1010 94 10000 2.57 90 09:59 29.01.2023
50 Rain 24 1011 94 10000 2.57 60 07:20 29.01.2023
51 Clouds 25 1012 94 10000 3.09 130 03:40 29.01.2023
52 Rain 25 1010 94 10000 2.06 280 23:27 28.01.2023
53 Rain 26 1009 94 9000 3.09 180 20:38 28.01.2023
54 Rain 28 1010 78 10000 1.54 230 19:52 28.01.2023
55 Rain 29 1011 70 10000 1.03 0 18:35 28.01.2023
56 Clouds 29 1012 70 10000 3.09 50 17:20 28.01.2023
57 Clouds 29 1013 70 10000 3.09 30 16:25 28.01.2023
58 Clouds 27 1013 78 10000 3.09 50 15:49 28.01.2023
59 Clouds 26 1013 89 10000 3.6 80 14:35 28.01.2023
60 Clouds 25 1012 88 10000 3.6 20 12:57 28.01.2023
61 Clouds 24 1010 94 10000 1.54 100 11:55 28.01.2023
62 Clouds 24 1009 94 10000 1.03 120 10:34 28.01.2023
63 Clouds 23 1010 94 10000 2.06 60 08:22 28.01.2023
64 Rain 25 1011 94 10000 2.06 120 01:42 28.01.2023
65 Rain 25 1009 94 10000 1.54 90 00:25 28.01.2023
66 Rain 28 1008 78 10000 4.12 260 21:27 27.01.2023
67 Clouds 29 1011 79 10000 3.09 350 18:45 27.01.2023
68 Clouds 27 1011 83 10000 3.09 220 17:57 27.01.2023
69 Clouds 27 1011 83 10000 3.09 220 17:19 27.01.2023
70 Clouds 27 1012 83 10000 1.54 210 16:35 27.01.2023
71 Clouds 25 1013 100 2500 3.09 40 14:58 27.01.2023
72 Clouds 25 1013 94 1200 2.57 70 14:25 27.01.2023
73 Clouds 25 1012 94 10000 1.54 100 13:18 27.01.2023
74 Clouds 24 1009 100 10000 1.54 150 08:47 27.01.2023
75 Clouds 25 1010 94 10000 2.06 140 06:20 27.01.2023
76 Clouds 28 1008 78 10000 2.57 200 22:59 26.01.2023
77 Clouds 28 1007 78 10000 2.06 200 21:42 26.01.2023
78 Clouds 28 1008 74 10000 2.06 180 20:39 26.01.2023
79 Rain 28 1009 69 10000 3.6 300 19:26 26.01.2023
80 Clouds 28 1011 78 10000 2.06 190 17:42 26.01.2023
81 Clouds 27 1012 78 10000 1.54 170 16:27 26.01.2023
82 Clouds 27 1013 78 10000 2.06 210 15:56 26.01.2023
83 Clouds 27 1013 78 10000 2.06 210 15:32 26.01.2023
84 Clouds 27 1013 78 10000 2.06 210 14:58 26.01.2023
85 Clouds 25 1012 88 10000 1.54 140 13:30 26.01.2023
86 Clouds 24 1010 94 10000 1.03 0 11:38 26.01.2023
87 Clouds 24 1010 88 10000 1.54 170 10:31 26.01.2023
88 Clouds 24 1010 94 10000 1.03 160 09:44 26.01.2023
89 Clouds 24 1009 94 10000 1.54 150 08:26 26.01.2023
90 Clear 23 1010 100 10000 1.03 190 06:26 26.01.2023
91 Clouds 24 1009 94 10000 1.54 330 23:39 25.01.2023
92 Clouds 23 1008 94 10000 2.57 50 22:21 25.01.2023
93 Clouds 23 1009 94 4000 4.12 30 21:24 25.01.2023
94 Rain 26 1010 83 10000 3.6 270 19:50 25.01.2023
95 Clouds 27 1011 78 10000 1.54 30 18:24 25.01.2023
96 Clouds 27 1011 78 10000 1.54 30 18:24 25.01.2023
97 Clouds 24 1013 94 8000 2.57 300 15:55 25.01.2023
98 Clouds 25 1013 94 10000 2.06 280 13:46 25.01.2023
99 Clouds 24 1010 100 9000 1.03 170 11:25 25.01.2023
100 Clouds 24 1010 100 10000 1.03 130 09:52 25.01.2023
101 Clouds 25 1011 94 9000 1.03 80 07:59 25.01.2023
102 Rain 25 1011 94 10000 1.54 20 01:51 25.01.2023
103 Rain 25 1010 94 10000 2.06 350 00:25 25.01.2023
104 Clouds 27 1009 78 10000 3.6 330 21:35 24.01.2023
105 Rain 26 1009 89 10000 2.06 60 20:39 24.01.2023
106 Rain 24 1010 100 10000 2.57 260 19:18 24.01.2023
107 Clouds 29 1011 70 10000 2.06 260 18:29 24.01.2023
108 Clouds 24 1011 94 10000 4.12 300 17:18 24.01.2023
109 Clouds 28 1013 74 10000 2.57 260 16:43 24.01.2023
110 Clouds 26 1013 89 10000 1.54 170 13:50 24.01.2023
111 Clouds 25 1012 94 10000 1.54 20 11:59 24.01.2023
112 Clouds 24 1010 94 10000 1.03 310 08:43 24.01.2023
113 Rain 24 1010 94 10000 1.03 310 08:18 24.01.2023
114 Rain 24 1011 94 10000 0.51 60 07:48 24.01.2023
115 Clouds 27 1012 78 10000 3.6 20 02:48 24.01.2023
116 Clouds 27 1010 83 10000 3.09 360 00:41 24.01.2023
117 Clouds 29 1009 70 10000 2.57 140 22:38 23.01.2023
118 Clouds 30 1010 66 10000 3.09 40 20:45 23.01.2023
119 Clouds 27 1011 83 10000 3.09 40 19:23 23.01.2023
120 Clouds 29 1014 65 10000 4.12 50 17:20 23.01.2023
121 Clouds 26 1015 78 10000 3.6 60 15:32 23.01.2023
122 Clouds 25 1014 83 10000 2.57 50 13:56 23.01.2023
123 Clouds 23 1013 94 10000 1.54 40 12:56 23.01.2023
124 Clouds 23 1013 94 10000 1.54 40 12:21 23.01.2023
125 Rain 23 1012 94 10000 2.06 20 11:28 23.01.2023
126 Clear 23 1010 94 10000 2.06 10 08:25 23.01.2023
127 Clouds 24 1009 94 10000 1.03 110 00:24 23.01.2023
128 Clouds 25 1008 88 10000 1.03 60 22:19 22.01.2023
129 Rain 24 1008 88 10000 1.54 20 21:19 22.01.2023
130 Rain 24 1011 88 10000 2.06 50 19:58 22.01.2023
131 Rain 24 1011 88 10000 2.06 50 19:40 22.01.2023
132 Clouds 24 1012 88 10000 3.09 20 18:43 22.01.2023
133 Rain 24 1012 88 10000 3.6 40 17:55 22.01.2023
134 Clouds 23 1013 94 2000 4.63 40 17:24 22.01.2023
135 Clouds 29 1014 74 10000 2.57 60 15:29 22.01.2023
136 Clouds 27 1013 83 10000 1.54 80 14:41 22.01.2023
137 Clouds 25 1013 94 10000 1.54 100 13:27 22.01.2023
138 Clouds 24 1012 94 10000 1.54 80 12:31 22.01.2023
139 Clear 24 1011 88 10000 1.03 90 11:34 22.01.2023
140 Clear 23 1010 94 10000 1.03 50 09:35 22.01.2023
141 Clear 25 1012 83 10000 3.09 20 05:41 22.01.2023
142 Clouds 27 1009 74 10000 2.57 20 23:49 21.01.2023
143 Clouds 27 1009 74 10000 2.57 20 23:29 21.01.2023
144 Clouds 28 1009 78 10000 2.06 220 21:35 21.01.2023
145 Clouds 29 1011 65 10000 2.57 30 18:55 21.01.2023
146 Clouds 27 1015 78 10000 2.57 10 16:41 21.01.2023
147 Clouds 25 1015 88 10000 1.54 330 14:24 21.01.2023
148 Clouds 23 1013 94 10000 1.54 250 12:57 21.01.2023
149 Clouds 23 1012 94 10000 1.54 230 11:42 21.01.2023
150 Clouds 23 1011 100 10000 2.57 250 10:49 21.01.2023
151 Mist 23 1011 100 4000 2.06 240 08:50 21.01.2023
152 Clouds 24 1013 94 10000 2.57 240 04:31 21.01.2023
153 Rain 26 1010 83 10000 1.03 0 22:28 20.01.2023
154 Rain 26 1010 83 10000 1.54 240 21:38 20.01.2023
155 Rain 26 1011 83 10000 3.6 170 20:55 20.01.2023
156 Rain 26 1012 83 10000 2.06 170 19:20 20.01.2023
157 Clouds 24 1014 88 9000 3.6 90 16:37 20.01.2023
158 Clouds 22 1016 94 2000 6.69 90 14:46 20.01.2023
159 Clouds 23 1015 88 8000 9.26 90 13:37 20.01.2023
160 Clouds 24 1012 94 10000 1.54 180 10:24 20.01.2023
161 Clouds 24 1012 94 10000 0.51 220 08:51 20.01.2023
162 Clear 24 1013 94 10000 0.51 130 04:22 20.01.2023
163 Clouds 24 1013 94 10000 1.54 200 02:29 20.01.2023
164 Clouds 27 1010 69 10000 3.09 120 22:32 19.01.2023
165 Clouds 29 1011 65 10000 2.06 0 20:25 19.01.2023
166 Clouds 28 1012 69 10000 2.06 40 19:23 19.01.2023
167 Rain 27 1015 74 10000 3.09 110 16:29 19.01.2023
168 Clouds 23 1014 94 10000 2.57 80 12:50 19.01.2023
169 Rain 23 1012 88 10000 3.09 50 08:59 19.01.2023
170 Clouds 27 1011 69 10000 7.72 70 00:45 19.01.2023
171 Clouds 24 1010 90 10000 1.49 73 21:22 18.01.2023
172 Clouds 30 1010 66 10000 2.06 220 20:20 18.01.2023
173 Clouds 30 1012 70 10000 1.54 0 19:37 18.01.2023
174 Clouds 28 1014 74 10000 2.57 60 17:49 18.01.2023
175 Clouds 25 1015 88 10000 1.03 0 15:41 18.01.2023
176 Clouds 24 1015 94 10000 1.03 0 13:30 18.01.2023
177 Rain 23 1013 94 7000 1.03 0 11:25 18.01.2023
178 Rain 23 1011 100 10000 1.03 290 08:47 18.01.2023
179 Rain 25 1011 83 10000 2.57 340 01:28 18.01.2023
180 Clouds 25 1010 88 10000 1.54 60 23:54 17.01.2023
181 Clouds 26 1010 83 10000 3.09 130 20:38 17.01.2023
182 Clouds 25 1011 88 10000 2.06 100 19:34 17.01.2023
183 Rain 24 1012 94 10000 2.06 120 18:30 17.01.2023
184 Rain 23 1014 100 5000 2.06 240 16:34 17.01.2023
185 Clouds 24 1014 94 7000 2.06 10 14:57 17.01.2023
186 Clouds 24 1014 94 7000 2.06 10 14:20 17.01.2023
187 Clouds 24 1012 94 9000 1.54 340 12:48 17.01.2023
188 Clouds 24 1011 94 10000 2.06 340 11:42 17.01.2023
189 Clouds 23 1010 100 10000 2.06 30 09:34 17.01.2023
190 Clouds 23 1010 100 10000 1.54 360 07:54 17.01.2023
191 Thunderstorm 24 1012 94 9000 2.57 250 03:57 17.01.2023
192 Clouds 25 1010 83 8000 3.6 250 00:57 17.01.2023
193 Clouds 27 1008 78 10000 3.09 360 23:38 16.01.2023
194 Thunderstorm 29 1008 70 10000 3.09 260 21:52 16.01.2023
195 Clouds 30 1008 66 10000 3.09 240 20:46 16.01.2023
196 Rain 30 1009 66 10000 2.57 320 19:40 16.01.2023
197 Clouds 30 1009 66 10000 2.57 320 18:54 16.01.2023
198 Clouds 27 1011 78 10000 5.14 340 18:21 16.01.2023
199 Clouds 30 1011 70 10000 6.17 60 17:35 16.01.2023
200 Clouds 28 1013 78 10000 3.09 60 15:33 16.01.2023
201 Clouds 26 1013 89 10000 2.57 60 13:39 16.01.2023
202 Clear 25 1011 88 10000 1.54 30 10:53 16.01.2023
203 Clear 25 1011 88 10000 1.54 30 10:18 16.01.2023
204 Clouds 28 1009 65 10000 4.12 70 23:38 15.01.2023
205 Clouds 29 1009 65 10000 3.6 70 22:26 15.01.2023
206 Clouds 31 1010 62 10000 2.06 90 20:40 15.01.2023
207 Clouds 31 1011 66 10000 2.06 90 19:49 15.01.2023
208 Clouds 30 1014 70 10000 1.54 100 17:46 15.01.2023
209 Clouds 28 1016 78 10000 3.09 80 15:44 15.01.2023
210 Clouds 25 1014 94 10000 1.03 120 12:31 15.01.2023
211 Clouds 24 1013 100 10000 1.03 80 11:35 15.01.2023
212 Clouds 25 1012 94 10000 1.54 100 10:28 15.01.2023
213 Clouds 25 1012 94 10000 2.57 80 09:35 15.01.2023
214 Clear 25 1011 88 10000 1.54 80 01:48 15.01.2023
215 Clouds 27 1010 78 10000 1.54 80 22:57 14.01.2023
216 Clouds 29 1010 70 10000 2.57 320 21:58 14.01.2023
217 Clouds 29 1010 70 10000 2.57 320 21:36 14.01.2023
218 Clouds 29 1010 70 10000 2.57 320 21:18 14.01.2023
219 Clouds 29 1011 70 10000 3.09 110 20:38 14.01.2023
220 Clouds 27 1013 78 10000 3.09 90 18:40 14.01.2023
221 Clouds 27 1015 74 10000 3.09 60 16:19 14.01.2023
222 Clouds 25 1015 83 10000 2.57 60 15:27 14.01.2023
223 Clouds 24 1015 88 10000 3.09 70 14:25 14.01.2023
224 Clouds 23 1014 94 10000 2.06 90 13:33 14.01.2023
225 Rain 22 1012 94 10000 5.14 90 11:39 14.01.2023
226 Rain 22 1012 100 8000 5.14 120 10:46 14.01.2023
227 Rain 22 1012 100 8000 5.14 120 10:46 14.01.2023
228 Clouds 25 1013 94 10000 0.51 180 05:37 14.01.2023
229 Rain 25 1009 94 10000 2.57 240 23:23 13.01.2023
230 Rain 26 1009 89 10000 2.57 220 22:45 13.01.2023
231 Rain 26 1009 89 10000 2.57 220 22:20 13.01.2023
232 Rain 26 1009 83 10000 1.54 250 21:34 13.01.2023
233 Rain 26 1011 83 10000 2.06 260 19:38 13.01.2023
234 Rain 25 1012 83 10000 0.51 300 18:19 13.01.2023
235 Rain 23 1013 100 10000 1.54 20 16:24 13.01.2023
236 Clouds 25 1012 94 10000 2.06 240 13:19 13.01.2023
237 Thunderstorm 23 1011 94 10000 3.09 50 12:20 13.01.2023
238 Clouds 25 1010 94 10000 1.54 240 10:26 13.01.2023
239 Clouds 26 1009 89 10000 2.57 290 09:45 13.01.2023
240 Clouds 26 1009 89 10000 2.06 300 08:52 13.01.2023
241 Clouds 26 1009 89 10000 2.06 300 08:20 13.01.2023
242 Clouds 26 1010 94 10000 1.54 260 06:52 13.01.2023
243 Clear 27 1012 83 10000 1.54 300 03:56 13.01.2023
244 Clouds 28 1007 74 10000 2.06 20 23:47 12.01.2023
245 Clouds 27 1006 89 10000 3.09 360 22:41 12.01.2023
246 Clouds 31 1008 66 10000 4.12 350 20:55 12.01.2023
247 Clouds 29 1009 74 10000 3.6 40 19:38 12.01.2023
248 Clouds 31 1012 66 10000 4.12 60 17:34 12.01.2023
249 Clouds 30 1013 70 10000 4.63 70 16:18 12.01.2023
250 Clouds 27 1014 83 10000 2.06 80 14:44 12.01.2023
251 Clouds 27 1014 83 10000 2.06 80 14:22 12.01.2023
252 Clear 25 1012 88 10000 1.03 100 12:48 12.01.2023
253 Clear 25 1011 88 10000 1.03 10 10:36 12.01.2023
254 Clear 25 1011 88 10000 1.03 80 08:28 12.01.2023
255 Clouds 27 1010 74 10000 3.6 40 01:50 12.01.2023
256 Clouds 29 1008 65 10000 3.6 40 23:59 11.01.2023
257 Clouds 29 1008 65 10000 3.6 40 23:40 11.01.2023
258 Clouds 29 1008 65 10000 3.6 40 23:20 11.01.2023
259 Rain 30 1009 58 10000 6.69 60 21:45 11.01.2023
260 Clouds 32 1011 58 10000 2.57 0 19:59 11.01.2023
261 Clouds 32 1012 62 10000 4.12 80 18:35 11.01.2023
262 Clouds 29 1014 74 10000 5.14 90 16:47 11.01.2023
263 Clouds 28 1015 78 10000 4.12 110 14:47 11.01.2023
264 Clouds 25 1014 94 10000 1.03 110 12:43 11.01.2023
265 Clouds 24 1013 94 10000 1.03 110 11:54 11.01.2023
266 Clouds 24 1012 94 10000 0 0 10:20 11.01.2023
267 Clouds 24 1012 94 10000 0.51 30 07:59 11.01.2023
268 Clouds 24 1012 94 10000 0.51 30 07:22 11.01.2023
269 Clouds 24 1012 94 10000 0.51 30 07:22 11.01.2023
270 Clouds 26 1010 83 10000 1.54 20 00:34 11.01.2023
271 Clouds 28 1010 74 10000 1.54 50 22:45 10.01.2023
272 Clouds 28 1010 74 10000 1.54 50 21:32 10.01.2023
273 Clouds 27 1011 78 10000 1.54 150 20:39 10.01.2023
274 Clouds 27 1013 78 10000 1.54 150 19:38 10.01.2023
275 Clouds 25 1014 88 10000 1.03 160 18:47 10.01.2023
276 Clouds 25 1014 88 10000 1.03 160 17:58 10.01.2023
277 Clouds 24 1015 94 9000 3.6 40 16:39 10.01.2023
278 Clouds 24 1016 88 9000 6.69 70 15:24 10.01.2023
279 Clouds 23 1016 94 9000 5.14 120 14:30 10.01.2023
280 Clouds 24 1013 94 10000 1.03 0 12:21 10.01.2023
281 Clouds 23 1012 94 10000 1.54 320 08:58 10.01.2023
282 Clouds 23 1012 94 10000 1.03 330 08:29 10.01.2023
283 Clouds 24 1013 88 10000 1.54 200 07:26 10.01.2023
284 Clouds 24 1013 88 10000 1.03 200 04:53 10.01.2023
285 Rain 24 1010 88 10000 2.06 330 22:59 09.01.2023
286 Rain 24 1011 88 10000 4.12 320 21:49 09.01.2023
287 Rain 23 1011 94 10000 3.6 340 20:43 09.01.2023
288 Rain 23 1013 94 5000 4.12 50 18:44 09.01.2023
289 Clouds 23 1013 88 200 10.8 50 17:53 09.01.2023
290 Clouds 31 1012 66 10000 2.06 150 16:59 09.01.2023
291 Clouds 30 1013 70 10000 2.06 200 16:32 09.01.2023
292 Clouds 28 1014 78 10000 1.54 220 15:23 09.01.2023
293 Clouds 27 1014 78 10000 2.06 180 14:43 09.01.2023
294 Clouds 26 1013 89 10000 1.54 230 12:55 09.01.2023
295 Clouds 26 1012 89 10000 1.03 210 12:25 09.01.2023
296 Clouds 25 1011 94 10000 1.03 180 11:20 09.01.2023
297 Clouds 25 1011 94 10000 1.54 270 08:42 09.01.2023
298 Clear 25 1012 94 10000 1.03 120 06:34 09.01.2023
299 Clear 25 1012 88 10000 1.03 190 02:53 09.01.2023
300 Thunderstorm 28 1009 69 10000 1.54 20 22:43 08.01.2023
301 Clouds 29 1009 70 10000 8.75 130 21:23 08.01.2023
302 Clouds 29 1009 70 10000 8.75 130 20:57 08.01.2023
303 Rain 31 1011 62 10000 2.06 160 19:43 08.01.2023
304 Clouds 30 1014 70 10000 2.06 240 17:40 08.01.2023
305 Clouds 30 1014 70 10000 2.06 240 17:18 08.01.2023
306 Clouds 28 1016 74 10000 1.03 170 15:38 08.01.2023
307 Clouds 28 1015 78 10000 1.03 100 14:18 08.01.2023
308 Clouds 26 1015 89 10000 1.54 330 13:32 08.01.2023
309 Clouds 26 1015 89 10000 1.54 330 12:59 08.01.2023
310 Clouds 25 1012 88 10000 1.03 330 11:23 08.01.2023
311 Clouds 25 1012 88 10000 0 0 09:37 08.01.2023
312 Clouds 25 1012 88 10000 1.54 330 08:31 08.01.2023
313 Rain 25 1013 88 10000 1.54 360 02:43 08.01.2023
314 Clouds 28 1010 74 10000 3.09 170 22:55 07.01.2023
315 Rain 31 1010 62 10000 3.09 140 22:34 07.01.2023
316 Rain 32 1009 55 10000 3.09 100 21:51 07.01.2023
317 Rain 32 1009 55 10000 3.09 100 20:58 07.01.2023
318 Rain 33 1010 58 10000 4.63 90 20:25 07.01.2023
319 Clouds 32 1011 58 10000 1.54 140 19:19 07.01.2023
320 Clouds 31 1013 58 10000 3.09 260 18:18 07.01.2023
321 Clouds 30 1014 66 10000 3.09 220 17:39 07.01.2023
322 Clouds 29 1015 70 10000 2.57 190 16:39 07.01.2023
323 Clouds 29 1015 70 10000 3.09 150 15:52 07.01.2023
324 Clouds 29 1015 70 10000 3.09 150 15:31 07.01.2023
325 Clear 28 1014 74 10000 2.57 210 14:50 07.01.2023
326 Clear 28 1014 74 10000 2.57 210 13:58 07.01.2023
327 Clouds 26 1014 83 10000 2.57 200 13:39 07.01.2023
328 Clouds 25 1014 94 10000 1.03 190 12:35 07.01.2023
329 Clouds 25 1014 94 10000 1.54 210 11:58 07.01.2023
330 Clouds 25 1013 94 10000 1.54 220 10:26 07.01.2023
331 Clouds 25 1012 94 10000 1.54 210 08:46 07.01.2023
332 Clouds 25 1012 94 10000 1.03 220 07:47 07.01.2023
333 Clouds 25 1012 94 10000 1.03 220 07:20 07.01.2023
334 Clouds 26 1013 89 10000 1.03 190 04:51 07.01.2023
335 Clouds 27 1009 78 10000 2.06 80 22:44 06.01.2023
336 Clouds 27 1009 78 10000 2.06 80 22:19 06.01.2023
337 Rain 27 1009 78 10000 2.06 80 21:28 06.01.2023
338 Rain 27 1010 83 10000 2.06 80 19:58 06.01.2023
339 Rain 27 1012 78 10000 2.06 80 19:40 06.01.2023
340 Rain 27 1012 78 10000 2.06 80 19:22 06.01.2023
341 Rain 27 1013 78 10000 2.06 90 18:50 06.01.2023
342 Rain 26 1014 83 10000 2.06 100 17:31 06.01.2023
343 Clouds 25 1015 88 10000 1.54 0 16:50 06.01.2023
344 Rain 25 1015 88 10000 1.54 0 16:20 06.01.2023
345 Rain 24 1016 94 8000 1.03 0 15:50 06.01.2023
346 Rain 24 1016 94 8000 2.57 230 14:54 06.01.2023
347 Rain 23 1015 94 2000 3.09 360 12:42 06.01.2023
348 Rain 23 1012 94 10000 2.06 170 10:58 06.01.2023
349 Rain 23 1012 100 10000 1.54 80 09:27 06.01.2023
350 Rain 23 1012 94 10000 1.54 170 07:46 06.01.2023
351 Thunderstorm 26 1012 89 10000 4.12 130 01:45 06.01.2023
352 Rain 27 1009 89 10000 2.06 230 22:55 05.01.2023
353 Clouds 27 1009 89 7000 2.06 270 21:54 05.01.2023
354 Rain 27 1010 89 10000 2.57 360 19:46 05.01.2023
355 Clouds 30 1013 66 10000 4.12 20 17:28 05.01.2023
356 Clouds 30 1014 62 10000 5.14 20 16:28 05.01.2023
357 Clouds 29 1014 65 10000 5.14 360 15:46 05.01.2023
358 Clouds 29 1014 65 10000 4.12 20 14:47 05.01.2023
359 Clear 26 1012 78 10000 2.06 340 12:43 05.01.2023
360 Clear 25 1012 83 10000 2.57 350 11:51 05.01.2023
361 Clear 27 1010 74 10000 2.06 50 09:54 05.01.2023
362 Clear 26 1010 78 10000 2.06 360 08:29 05.01.2023
363 Clear 27 1011 78 10000 2.06 350 07:19 05.01.2023
364 Clear 27 1012 74 10000 2.57 20 04:57 05.01.2023
365 Rain 29 1008 65 10000 2.57 70 22:55 04.01.2023
366 Clouds 31 1008 58 10000 3.6 60 21:33 04.01.2023
367 Clouds 32 1009 55 10000 4.63 100 20:36 04.01.2023
368 Clouds 32 1009 55 10000 4.63 100 19:56 04.01.2023
369 Clouds 32 1010 51 10000 3.6 40 19:32 04.01.2023
370 Clouds 31 1011 62 10000 3.6 40 18:30 04.01.2023
371 Clouds 29 1013 74 10000 4.63 70 16:32 04.01.2023
372 Clouds 28 1014 83 10000 4.12 70 15:40 04.01.2023
373 Clouds 25 1013 94 10000 2.57 90 13:53 04.01.2023
374 Clear 24 1011 94 10000 1.03 70 11:40 04.01.2023
375 Clear 24 1011 94 10000 1.03 70 11:19 04.01.2023
376 Clear 24 1011 94 10000 2.06 110 10:42 04.01.2023
377 Clear 24 1011 94 10000 2.06 110 10:21 04.01.2023
378 Clear 24 1010 94 10000 1.03 180 07:19 04.01.2023
379 Clear 26 1010 83 10000 2.06 220 01:43 04.01.2023
380 Clouds 26 1009 83 10000 1.54 220 23:58 03.01.2023
381 Clouds 26 1009 83 10000 1.54 220 23:32 03.01.2023
382 Clouds 27 1009 78 10000 3.6 220 22:26 03.01.2023
383 Clouds 26 1010 89 10000 3.09 210 20:51 03.01.2023
384 Clouds 27 1011 78 10000 2.06 230 19:20 03.01.2023
385 Clouds 26 1014 78 10000 4.12 20 16:47 03.01.2023
386 Clouds 25 1015 88 10000 3.09 20 15:47 03.01.2023
387 Drizzle 24 1014 94 10000 2.06 300 13:51 03.01.2023
388 Drizzle 24 1014 94 10000 2.06 300 13:29 03.01.2023
389 Rain 24 1013 88 10000 3.09 100 12:57 03.01.2023
390 Rain 24 1013 88 10000 3.09 100 12:29 03.01.2023
391 Clouds 24 1011 88 10000 1.54 30 10:25 03.01.2023
392 Clouds 24 1011 94 10000 1.03 210 06:20 03.01.2023
393 Clouds 24 1012 94 10000 2.57 230 03:56 03.01.2023
394 Clouds 24 1012 94 10000 2.57 230 03:35 03.01.2023
395 Clouds 24 1010 94 10000 4.12 260 23:36 02.01.2023
396 Clouds 25 1009 88 10000 6.17 240 22:41 02.01.2023
397 Clouds 25 1009 88 10000 7.2 240 21:34 02.01.2023
398 Rain 25 1010 94 10000 7.2 260 20:38 02.01.2023
399 Rain 32 1009 55 10000 4.12 230 19:26 02.01.2023
400 Clouds 30 1012 70 10000 2.57 50 16:54 02.01.2023
401 Clouds 27 1014 78 10000 2.57 50 14:29 02.01.2023
402 Clouds 25 1013 94 10000 1.54 20 12:57 02.01.2023
403 Rain 24 1012 94 10000 1.54 20 11:39 02.01.2023
404 Clouds 25 1010 88 10000 1.54 30 09:42 02.01.2023
405 Clouds 25 1011 88 10000 0.51 60 07:29 02.01.2023
406 Clouds 26 1010 83 10000 3.09 50 00:38 02.01.2023
407 Rain 27 1008 78 10000 1.54 50 21:55 01.01.2023
408 Clouds 27 1008 78 10000 3.6 70 20:56 01.01.2023
409 Rain 27 1009 78 10000 3.6 80 20:37 01.01.2023
410 Rain 27 1010 74 10000 5.14 50 19:34 01.01.2023
411 Clouds 30 1013 70 10000 2.06 90 17:39 01.01.2023
412 Clouds 30 1013 70 10000 2.06 90 17:19 01.01.2023
413 Clouds 27 1014 83 10000 3.09 100 15:53 01.01.2023
414 Clouds 26 1014 89 10000 3.09 70 14:18 01.01.2023
415 Clouds 25 1013 94 10000 1.54 80 13:18 01.01.2023
416 Clouds 23 1011 94 10000 1.54 30 11:45 01.01.2023
417 Rain 23 1011 94 10000 1.54 30 11:21 01.01.2023
418 Clouds 23 1011 94 10000 2.06 40 09:38 01.01.2023
419 Clouds 23 1010 94 10000 1.54 20 08:42 01.01.2023
420 Clouds 23 1010 94 10000 1.54 20 08:18 01.01.2023
421 Clouds 23 1011 100 10000 2.06 30 06:50 01.01.2023
422 Rain 23 1011 100 10000 2.57 80 23:58 31.12.2022
423 Rain 23 1011 100 10000 4.12 100 23:38 31.12.2022
424 Rain 23 1010 94 3000 6.17 100 22:29 31.12.2022
425 Clouds 28 1009 78 10000 5.14 100 21:24 31.12.2022
426 Clouds 28 1010 78 10000 3.6 150 20:31 31.12.2022
427 Rain 28 1011 74 10000 2.57 160 18:57 31.12.2022
428 Rain 27 1012 78 10000 3.6 230 18:38 31.12.2022
429 Clouds 28 1013 74 10000 3.09 170 17:57 31.12.2022
430 Clouds 28 1013 74 10000 3.09 170 17:32 31.12.2022
431 Clouds 28 1013 78 10000 3.09 80 16:32 31.12.2022
432 Clouds 27 1014 83 10000 3.09 100 15:36 31.12.2022
433 Clouds 27 1014 83 10000 2.06 130 13:56 31.12.2022
434 Clouds 26 1013 89 10000 1.03 120 13:27 31.12.2022
435 Clouds 25 1012 94 10000 1.03 80 12:24 31.12.2022
436 Clouds 25 1011 94 10000 1.54 110 11:52 31.12.2022
437 Clouds 25 1011 94 10000 1.54 110 11:25 31.12.2022
438 Clouds 25 1010 94 10000 1.03 120 09:56 31.12.2022
439 Clouds 25 1010 88 10000 1.54 120 09:37 31.12.2022
440 Clouds 25 1010 88 10000 2.06 80 08:22 31.12.2022
441 Clouds 27 1009 83 10000 1.54 80 00:59 31.12.2022
442 Clouds 27 1009 83 10000 1.54 80 00:32 31.12.2022
443 Clouds 29 1008 70 10000 1.54 110 22:55 30.12.2022
444 Clouds 29 1008 70 10000 3.6 120 22:18 30.12.2022
445 Clouds 26 1008 83 10000 2.06 190 21:37 30.12.2022
446 Clouds 31 1009 66 10000 2.57 0 20:55 30.12.2022
447 Clouds 29 1011 70 10000 2.06 80 18:28 30.12.2022
448 Clouds 30 1013 66 10000 2.57 50 17:34 30.12.2022
449 Clouds 29 1014 70 10000 4.12 80 16:41 30.12.2022
450 Clouds 28 1014 74 10000 3.09 40 14:54 30.12.2022
451 Clouds 25 1013 88 10000 2.06 110 12:52 30.12.2022
452 Clouds 24 1010 94 10000 1.54 120 08:23 30.12.2022
453 Clouds 24 1013 88 10000 2.06 100 03:47 30.12.2022
454 Clouds 25 1012 83 10000 2.57 90 02:25 30.12.2022
455 Clouds 27 1010 74 10000 3.09 60 23:41 29.12.2022
456 Clouds 28 1010 65 10000 5.14 20 21:46 29.12.2022
457 Clouds 28 1010 65 10000 5.14 20 20:54 29.12.2022
458 Clouds 28 1011 65 10000 6.17 40 20:30 29.12.2022
459 Clouds 27 1014 74 10000 4.12 40 18:37 29.12.2022
460 Clouds 27 1015 78 10000 3.09 30 17:51 29.12.2022
461 Clouds 27 1015 78 10000 3.09 30 17:18 29.12.2022
462 Clouds 26 1015 78 10000 4.63 10 16:44 29.12.2022
463 Clouds 27 1016 78 10000 3.09 30 15:44 29.12.2022
464 Clouds 24 1015 88 10000 4.12 350 13:34 29.12.2022
465 Clouds 24 1013 94 10000 3.6 360 11:48 29.12.2022
466 Clouds 25 1012 83 10000 4.63 350 09:20 29.12.2022
467 Clouds 26 1010 83 10000 2.06 110 00:37 29.12.2022
468 Clouds 27 1010 78 10000 2.06 170 23:28 28.12.2022
469 Clouds 29 1010 70 10000 3.09 170 21:49 28.12.2022
470 Clouds 29 1010 70 10000 3.09 170 21:19 28.12.2022
471 Clouds 28 1011 74 10000 2.57 200 19:47 28.12.2022
472 Clouds 27 1014 78 10000 1.54 120 16:58 28.12.2022
473 Clouds 27 1014 74 10000 1.03 80 15:38 28.12.2022
474 Clouds 24 1014 94 10000 1.03 360 12:59 28.12.2022
475 Mist 24 1014 94 10000 1.03 360 12:24 28.12.2022
476 Fog 24 1013 94 10000 1.03 330 11:32 28.12.2022
477 Clouds 23 1012 94 10000 1.54 280 09:19 28.12.2022
478 Clouds 23 1013 94 10000 1.54 210 07:28 28.12.2022
479 Clouds 23 1014 94 10000 2.06 220 06:43 28.12.2022
480 Rain 23 1012 100 10000 1.54 20 00:24 28.12.2022
481 Rain 26 1009 88 6783 1.46 75 20:31 27.12.2022
482 Thunderstorm 25 1012 94 10000 3.6 90 19:40 27.12.2022
483 Rain 29 1013 70 10000 2.57 260 17:47 27.12.2022
484 Rain 29 1013 74 10000 2.06 200 16:43 27.12.2022
485 Clouds 28 1014 78 10000 2.06 210 15:31 27.12.2022
486 Clouds 25 1012 94 10000 1.54 200 12:36 27.12.2022
487 Rain 25 1011 94 10000 1.54 190 11:30 27.12.2022
488 Clouds 24 1010 94 10000 1.03 50 09:47 27.12.2022
489 Clouds 24 1010 94 10000 1.03 50 09:23 27.12.2022
490 Clouds 24 1011 94 10000 1.03 100 06:51 27.12.2022
491 Clouds 24 1012 94 10000 1.03 50 04:32 27.12.2022
492 Clouds 24 1008 94 10000 3.09 40 22:28 26.12.2022
493 Clouds 24 1009 94 1000 6.69 40 21:24 26.12.2022
494 Clouds 26 1007 83 3000 6.69 50 20:39 26.12.2022
495 Clouds 31 1010 62 10000 3.09 270 18:44 26.12.2022
496 Clouds 29 1011 74 10000 4.12 260 17:46 26.12.2022
497 Clouds 29 1011 74 10000 2.57 0 16:21 26.12.2022
498 Clouds 28 1012 78 10000 1.03 210 14:30 26.12.2022
499 Rain 27 1011 83 10000 1.03 200 12:47 26.12.2022
500 Clear 27 1009 74 10000 1.54 350 07:59 26.12.2022
501 Clouds 29 1008 65 10000 2.06 10 23:56 25.12.2022
502 Clouds 30 1007 62 10000 2.57 10 23:38 25.12.2022
503 Clouds 30 1007 62 10000 3.09 320 22:27 25.12.2022
504 Clouds 31 1007 58 10000 2.57 40 21:48 25.12.2022
505 Clouds 32 1009 51 10000 3.6 40 18:50 25.12.2022
506 Clouds 31 1010 58 10000 4.12 40 17:52 25.12.2022
507 Clouds 31 1010 58 10000 4.12 40 17:34 25.12.2022
508 Clouds 31 1011 58 10000 3.09 30 15:21 25.12.2022
509 Clear 26 1010 73 10000 2.06 20 12:26 25.12.2022
510 Clear 26 1009 78 10000 1.54 20 08:39 25.12.2022
511 Clouds 31 1007 51 10000 3.09 30 23:40 24.12.2022
512 Clouds 32 1007 48 10000 3.09 30 21:41 24.12.2022
513 Clouds 32 1010 48 10000 3.09 360 18:18 24.12.2022
514 Clouds 31 1011 48 10000 3.6 10 16:38 24.12.2022
515 Clouds 28 1012 65 10000 4.12 20 14:52 24.12.2022
516 Clouds 26 1011 78 10000 2.57 30 12:42 24.12.2022
517 Clouds 25 1009 83 10000 3.09 30 10:39 24.12.2022
518 Clouds 25 1009 83 10000 3.09 30 10:20 24.12.2022
519 Rain 25 1009 83 10000 3.09 40 09:36 24.12.2022
520 Clear 26 1011 78 10000 3.09 40 05:46 24.12.2022
521 Clear 26 1011 78 10000 3.09 40 05:46 24.12.2022
522 Clear 27 1010 78 10000 2.06 70 02:20 24.12.2022
523 Clouds 29 1008 65 10000 3.09 50 23:35 23.12.2022
524 Clouds 30 1008 66 10000 3.6 50 21:58 23.12.2022
525 Clouds 30 1008 66 10000 3.09 350 20:31 23.12.2022
526 Clouds 30 1009 62 10000 3.6 60 19:39 23.12.2022
527 Clouds 30 1009 62 10000 3.6 60 19:21 23.12.2022
528 Clouds 31 1011 58 10000 3.09 40 18:38 23.12.2022
529 Clouds 31 1011 58 10000 3.09 40 18:19 23.12.2022
530 Clouds 31 1013 62 10000 4.12 60 16:32 23.12.2022
531 Clouds 28 1014 74 10000 3.09 60 14:44 23.12.2022
532 Clouds 24 1012 88 10000 2.57 40 11:42 23.12.2022
533 Clear 25 1010 83 10000 3.09 30 09:37 23.12.2022
534 Clear 25 1010 88 10000 2.57 20 07:52 23.12.2022
535 Clear 25 1011 88 10000 2.57 20 06:51 23.12.2022
536 Clear 25 1012 88 10000 1.54 340 05:27 23.12.2022
537 Clouds 26 1009 78 10000 2.57 360 23:21 22.12.2022
538 Clouds 26 1009 83 10000 2.57 350 22:34 22.12.2022
539 Rain 25 1009 88 10000 2.57 340 20:25 22.12.2022
540 Thunderstorm 24 1011 94 4000 5.14 100 19:23 22.12.2022
541 Clouds 29 1012 70 10000 4.63 130 18:37 22.12.2022
542 Clouds 28 1014 74 10000 3.6 240 16:58 22.12.2022
543 Clouds 28 1014 74 10000 3.6 240 16:37 22.12.2022
544 Clouds 27 1014 78 10000 2.57 290 15:32 22.12.2022
545 Clouds 27 1014 74 10000 2.06 330 14:45 22.12.2022
546 Clouds 26 1013 83 10000 1.03 90 13:32 22.12.2022
547 Clouds 24 1012 94 10000 1.03 50 12:32 22.12.2022
548 Clouds 23 1010 94 10000 1.03 20 10:32 22.12.2022
549 Clouds 23 1010 100 10000 2.06 30 09:59 22.12.2022
550 Clouds 23 1010 100 10000 2.06 30 09:19 22.12.2022
551 Clouds 23 1010 100 10000 2.06 30 09:19 22.12.2022
552 Clouds 23 1011 100 10000 2.57 20 07:54 22.12.2022
553 Clouds 23 1013 100 10000 2.57 40 04:19 22.12.2022
554 Clouds 23 1012 100 10000 1.54 190 00:51 22.12.2022
555 Rain 24 1011 94 6000 2.57 230 22:42 21.12.2022
556 Rain 24 1010 94 5000 2.57 190 21:51 21.12.2022
557 Rain 24 1010 94 5000 2.57 190 21:20 21.12.2022
558 Rain 24 1010 94 5000 1.03 0 20:40 21.12.2022
559 Rain 23 1011 100 3000 1.03 0 19:56 21.12.2022
560 Thunderstorm 23 1011 100 3000 1.03 0 19:38 21.12.2022
561 Rain 23 1012 94 1000 2.06 320 19:19 21.12.2022
562 Rain 26 1011 83 5000 4.63 310 18:42 21.12.2022
563 Clouds 27 1013 89 5000 2.57 30 16:19 21.12.2022
564 Clouds 28 1013 83 10000 2.57 260 14:24 21.12.2022
565 Clouds 26 1011 94 10000 2.06 240 12:30 21.12.2022
566 Clouds 25 1010 94 10000 2.06 220 11:21 21.12.2022
567 Clear 26 1010 89 10000 1.54 250 10:50 21.12.2022
568 Clear 26 1010 89 10000 1.54 250 08:50 21.12.2022
569 Clear 26 1011 89 10000 1.54 220 06:35 21.12.2022
570 Clear 27 1009 78 10000 1.54 10 00:27 21.12.2022
571 Clouds 28 1009 74 10000 2.06 50 21:58 20.12.2022
572 Rain 28 1009 74 10000 2.57 70 20:58 20.12.2022
573 Clouds 29 1010 70 10000 2.57 30 19:59 20.12.2022
574 Clouds 30 1011 74 10000 2.57 50 18:48 20.12.2022
575 Clouds 30 1011 74 10000 2.57 50 18:23 20.12.2022
576 Clouds 28 1012 69 10000 4.12 70 17:50 20.12.2022
577 Clouds 28 1012 69 10000 4.12 70 17:25 20.12.2022
578 Clouds 27 1014 78 10000 5.66 70 15:59 20.12.2022
579 Clouds 28 1014 78 10000 1.54 50 14:56 20.12.2022
580 Clouds 28 1014 78 10000 1.54 50 14:36 20.12.2022
581 Clouds 28 1013 74 10000 1.03 100 13:26 20.12.2022
582 Clouds 26 1012 83 10000 1.03 300 12:34 20.12.2022
583 Clouds 26 1012 83 10000 1.03 300 11:54 20.12.2022
584 Clear 25 1010 83 10000 2.06 20 09:57 20.12.2022
585 Clear 25 1010 83 10000 2.06 20 07:25 20.12.2022
586 Clouds 28 1009 74 10000 3.09 60 00:20 20.12.2022
587 Clouds 30 1008 66 10000 1.54 330 22:22 19.12.2022
588 Clouds 30 1008 66 10000 2.57 360 21:22 19.12.2022
589 Clouds 30 1010 62 10000 3.09 360 19:41 19.12.2022
590 Clouds 29 1011 70 10000 4.12 20 18:44 19.12.2022
591 Clouds 29 1013 61 10000 4.12 70 17:38 19.12.2022
592 Clouds 26 1014 78 10000 5.14 50 15:52 19.12.2022
593 Clouds 24 1012 94 10000 2.57 60 12:35 19.12.2022
594 Rain 24 1011 94 5000 3.6 70 11:36 19.12.2022
595 Clear 23 1010 94 10000 1.03 60 07:49 19.12.2022
596 Clear 24 1011 94 10000 1.54 40 06:32 19.12.2022
597 Rain 27 1008 83 10000 2.06 80 00:20 19.12.2022
598 Rain 30 1006 70 10000 4.63 20 21:48 18.12.2022
599 Rain 30 1006 70 10000 4.63 20 21:26 18.12.2022
600 Rain 31 1006 58 10000 4.12 60 20:53 18.12.2022
601 Clouds 30 1007 58 10000 7.2 40 19:43 18.12.2022
602 Clouds 31 1009 62 10000 3.6 50 18:57 18.12.2022
603 Clouds 32 1010 62 10000 3.09 20 17:52 18.12.2022
604 Clouds 29 1011 70 10000 2.57 70 15:41 18.12.2022
605 Clouds 29 1011 70 10000 2.57 70 15:23 18.12.2022
606 Clouds 28 1011 78 10000 2.57 40 14:29 18.12.2022
607 Clouds 26 1011 89 10000 3.09 50 12:58 18.12.2022
608 Clouds 26 1010 89 10000 2.06 70 12:32 18.12.2022
609 Clouds 24 1009 94 10000 2.57 70 11:49 18.12.2022
610 Clouds 24 1008 100 10000 1.54 100 09:24 18.12.2022
611 Clouds 25 1008 94 10000 1.54 70 08:46 18.12.2022
612 Clouds 25 1009 94 10000 2.57 60 06:24 18.12.2022
613 Clouds 24 1010 100 10000 2.57 60 04:41 18.12.2022
614 Clouds 25 1009 94 10000 1.54 140 01:49 18.12.2022
615 Clouds 27 1006 74 10000 2.57 200 22:30 17.12.2022
616 Rain 28 1006 78 10000 2.06 270 20:36 17.12.2022
617 Rain 25 1010 94 10000 3.09 300 17:20 17.12.2022
618 Rain 24 1011 94 10000 1.03 320 15:18 17.12.2022
619 Rain 25 1009 94 10000 3.09 90 12:33 17.12.2022
620 Rain 25 1008 94 10000 1.03 0 11:18 17.12.2022
621 Rain 25 1007 94 10000 1.54 180 10:39 17.12.2022
622 Rain 25 1007 94 1200 4.12 120 08:36 17.12.2022
623 Clouds 26 1008 94 10000 1.03 0 06:47 17.12.2022
624 Clouds 28 1006 78 10000 2.06 330 00:32 17.12.2022
625 Clouds 26 1006 83 10000 2.57 310 22:22 16.12.2022
626 Clouds 27 1006 83 8000 5.14 210 20:25 16.12.2022
627 Clouds 32 1009 62 10000 2.57 0 17:47 16.12.2022
628 Clear 30 1011 66 10000 3.09 20 14:52 16.12.2022
629 Clear 30 1011 66 10000 3.09 20 14:27 16.12.2022
630 Clouds 26 1010 100 10000 0.51 110 12:22 16.12.2022
631 Clouds 25 1009 94 10000 0 0 11:35 16.12.2022
632 Clear 25 1008 94 10000 1.03 110 09:39 16.12.2022
633 Clear 25 1008 100 10000 0 0 08:27 16.12.2022
634 Clear 25 1008 100 10000 0 0 07:54 16.12.2022
635 Clouds 26 1007 83 10000 1.54 30 00:18 16.12.2022
636 Clouds 31 1006 62 10000 2.57 300 22:33 15.12.2022
637 Clouds 32 1006 55 10000 3.09 30 21:24 15.12.2022
638 Clouds 32 1008 66 10000 3.6 310 19:41 15.12.2022
639 Clouds 31 1010 70 10000 3.09 350 18:34 15.12.2022
640 Clouds 30 1011 70 10000 3.09 300 17:27 15.12.2022
641 Clouds 30 1012 70 10000 2.57 10 15:45 15.12.2022
642 Clouds 28 1013 78 10000 2.06 260 14:38 15.12.2022
643 Rain 25 1012 94 9000 2.06 170 12:48 15.12.2022
644 Clouds 26 1010 89 10000 2.06 240 11:41 15.12.2022
645 Clear 26 1009 89 10000 1.03 50 08:55 15.12.2022
646 Clear 26 1009 89 10000 1.54 40 07:58 15.12.2022
647 Clear 27 1010 83 10000 1.54 10 05:36 15.12.2022
648 Rain 31 1007 58 10000 2.57 80 22:35 14.12.2022
649 Clouds 32 1007 55 10000 1.54 70 21:23 14.12.2022
650 Clouds 32 1008 62 10000 1.54 140 20:35 14.12.2022
651 Clouds 31 1009 66 10000 2.06 360 19:34 14.12.2022
652 Clouds 29 1012 74 10000 2.06 190 16:58 14.12.2022
653 Clouds 29 1012 74 10000 1.54 170 16:19 14.12.2022
654 Clouds 27 1013 89 10000 1.03 0 14:50 14.12.2022
655 Mist 25 1012 94 10000 0 0 12:56 14.12.2022
656 Fog 24 1010 94 10000 0.51 30 10:45 14.12.2022
657 Fog 24 1010 94 10000 0.51 30 10:21 14.12.2022
658 Clouds 23 1010 100 10000 1.54 80 06:28 14.12.2022
659 Rain 23 1009 100 9000 2.57 100 21:57 13.12.2022
660 Thunderstorm 23 1010 94 8000 2.57 100 21:36 13.12.2022
661 Thunderstorm 23 1010 94 6000 2.57 220 20:47 13.12.2022
662 Rain 27 1010 74 10000 5.14 260 18:49 13.12.2022
663 Rain 28 1012 74 10000 1.54 0 16:31 13.12.2022
664 Clouds 28 1012 74 10000 3.09 350 14:54 13.12.2022
665 Clouds 28 1012 78 10000 2.06 300 13:31 13.12.2022
666 Clear 26 1009 89 10000 1.03 330 10:41 13.12.2022
667 Clear 26 1009 89 10000 1.03 250 09:47 13.12.2022
668 Clear 26 1009 83 10000 1.03 40 07:52 13.12.2022
669 Rain 30 1006 70 10000 3.09 10 22:35 12.12.2022
670 Clouds 30 1006 70 10000 3.6 40 21:57 12.12.2022
671 Rain 32 1008 62 10000 2.57 80 19:33 12.12.2022
672 Clouds 32 1011 58 10000 1.54 90 17:50 12.12.2022
673 Clouds 30 1012 74 10000 2.57 240 15:29 12.12.2022
674 Clouds 27 1012 94 10000 1.03 0 13:20 12.12.2022
675 Clouds 25 1009 94 8000 1.03 10 09:20 12.12.2022
676 Clouds 25 1009 94 10000 1.03 100 08:54 12.12.2022
677 Clouds 26 1011 94 10000 1.03 190 03:53 12.12.2022
678 Clouds 26 1009 94 10000 0 0 00:18 12.12.2022
679 Clouds 28 1007 83 10000 2.57 80 22:18 11.12.2022
680 Rain 28 1009 83 10000 4.12 50 20:33 11.12.2022
681 Rain 28 1010 78 10000 3.09 10 19:38 11.12.2022
682 Thunderstorm 29 1011 74 10000 4.12 50 18:30 11.12.2022
683 Clouds 30 1011 70 10000 4.12 360 17:33 11.12.2022
684 Clouds 30 1012 70 7000 3.6 60 16:52 11.12.2022
685 Clouds 31 1012 66 10000 2.06 0 15:56 11.12.2022
686 Clouds 31 1013 66 10000 2.06 80 15:35 11.12.2022
687 Clouds 30 1013 70 10000 1.03 0 13:33 11.12.2022
688 Clouds 28 1013 83 10000 1.03 0 12:40 11.12.2022
689 Clear 26 1009 89 10000 1.03 50 09:47 11.12.2022
690 Clouds 28 1008 78 10000 2.06 80 00:49 11.12.2022
691 Clouds 28 1008 78 10000 2.06 80 00:21 11.12.2022
692 Clouds 32 1007 58 10000 2.06 10 22:33 10.12.2022
693 Clouds 33 1007 55 10000 3.6 20 21:29 10.12.2022
694 Clouds 33 1008 55 10000 2.57 360 20:41 10.12.2022
695 Clouds 33 1008 55 10000 2.57 360 19:55 10.12.2022
696 Clouds 33 1008 55 10000 2.57 360 19:55 10.12.2022
697 Clouds 32 1011 62 10000 3.09 180 17:33 10.12.2022
698 Clouds 32 1012 58 10000 2.06 10 16:37 10.12.2022
699 Clouds 29 1013 79 10000 1.54 220 15:40 10.12.2022
700 Clouds 29 1013 79 10000 1.54 220 15:40 10.12.2022
701 Clouds 29 1013 79 10000 1.54 220 14:59 10.12.2022
702 Clear 28 1011 78 10000 1.54 300 12:55 10.12.2022
703 Clear 28 1011 78 10000 1.03 0 11:55 10.12.2022
704 Clear 24 1009 94 10000 1.03 300 10:46 10.12.2022
705 Clear 26 1009 89 10000 1.03 20 09:38 10.12.2022
706 Clear 27 1009 78 10000 1.54 360 07:21 10.12.2022
707 Clear 28 1010 78 10000 2.57 70 03:18 10.12.2022
708 Clouds 30 1006 70 10000 1.54 220 23:20 09.12.2022
709 Clouds 31 1006 62 10000 2.06 190 22:41 09.12.2022
710 Clouds 32 1006 55 10000 2.06 170 21:26 09.12.2022
711 Clouds 31 1008 58 10000 3.09 170 20:44 09.12.2022
712 Clouds 31 1009 62 10000 3.09 170 19:28 09.12.2022
713 Clouds 29 1011 70 10000 2.57 260 17:55 09.12.2022
714 Clouds 28 1012 69 10000 1.54 240 16:36 09.12.2022
715 Clouds 28 1012 69 10000 1.54 240 16:18 09.12.2022
716 Clouds 28 1012 74 10000 2.57 270 15:19 09.12.2022
717 Clouds 25 1010 94 10000 1.54 230 11:36 09.12.2022
718 Clouds 25 1009 94 10000 2.06 250 10:37 09.12.2022
719 Clouds 26 1009 94 10000 3.09 250 08:55 09.12.2022
720 Clouds 28 1010 83 10000 1.54 50 03:19 09.12.2022
721 Clouds 29 1007 70 10000 3.6 310 00:32 09.12.2022
722 Thunderstorm 31 1006 62 10000 4.12 20 22:19 08.12.2022
723 Clouds 33 1006 52 10000 2.06 180 20:30 08.12.2022
724 Clouds 31 1011 62 10000 2.06 240 17:38 08.12.2022
725 Clouds 30 1011 74 10000 4.12 260 15:36 08.12.2022
726 Clouds 28 1011 83 10000 4.12 280 14:25 08.12.2022
727 Clouds 26 1010 94 10000 1.03 300 11:32 08.12.2022
728 Clear 26 1008 94 10000 1.03 310 09:51 08.12.2022
729 Clear 26 1008 94 10000 1.03 310 09:23 08.12.2022
730 Rain 27 1010 89 10000 0 0 02:26 08.12.2022
731 Clouds 30 1007 66 10000 3.6 30 22:19 07.12.2022
732 Clouds 32 1007 58 10000 3.6 40 21:49 07.12.2022
733 Clouds 32 1007 58 10000 3.6 40 21:29 07.12.2022
734 Thunderstorm 30 1009 70 10000 5.66 20 19:35 07.12.2022
735 Clouds 32 1011 62 10000 3.6 80 17:22 07.12.2022
736 Clouds 29 1013 79 10000 4.63 50 14:41 07.12.2022
737 Clouds 26 1011 94 10000 1.03 220 11:41 07.12.2022
738 Clouds 25 1010 100 10000 0.51 150 10:39 07.12.2022
739 Clouds 26 1010 94 10000 1.03 180 09:41 07.12.2022
740 Clear 24 1009 94 10000 0 0 08:46 07.12.2022
741 Clear 25 1010 94 10000 1.03 50 06:46 07.12.2022
742 Clear 26 1011 89 10000 0 0 04:44 07.12.2022
743 Clouds 30 1007 70 10000 2.06 30 22:39 06.12.2022
744 Clouds 32 1007 62 10000 3.6 40 20:24 06.12.2022
745 Clouds 31 1011 66 10000 4.12 40 17:52 06.12.2022
746 Clouds 31 1012 66 10000 3.6 100 16:41 06.12.2022
747 Clouds 30 1012 70 10000 4.63 60 15:49 06.12.2022
748 Clouds 29 1012 79 10000 4.63 60 14:55 06.12.2022
749 Clouds 29 1012 79 10000 5.14 50 14:24 06.12.2022
750 Clear 26 1011 89 10000 2.57 40 12:51 06.12.2022
751 Clear 26 1011 89 10000 2.57 40 12:28 06.12.2022
752 Clear 25 1009 88 10000 2.06 60 07:59 06.12.2022
753 Clear 25 1010 88 10000 2.57 40 05:55 06.12.2022
754 Clear 26 1008 83 10000 1.54 30 01:25 06.12.2022
755 Clouds 29 1006 61 10000 2.06 30 22:26 05.12.2022
756 Clouds 29 1006 65 10000 2.06 340 20:55 05.12.2022
757 Rain 28 1007 69 10000 2.06 340 20:25 05.12.2022
758 Rain 28 1008 69 10000 1.54 20 19:43 05.12.2022
759 Rain 26 1010 83 10000 3.09 60 16:57 05.12.2022
760 Rain 26 1010 83 10000 3.09 60 16:26 05.12.2022
761 Clouds 25 1011 88 10000 4.12 50 15:22 05.12.2022
762 Rain 24 1009 88 10000 2.06 350 12:59 05.12.2022
763 Rain 24 1009 88 10000 2.06 350 12:40 05.12.2022
764 Clear 24 1009 83 10000 1.54 320 11:46 05.12.2022
765 Clouds 23 1009 88 10000 1.54 310 10:53 05.12.2022
766 Thunderstorm 31 1006 62 10000 2.57 280 00:19 05.12.2022
767 Clouds 33 1004 46 10000 3.6 260 22:44 04.12.2022
768 Clouds 33 1004 46 10000 3.6 260 22:20 04.12.2022
769 Clouds 33 1004 52 10000 3.09 270 21:41 04.12.2022
770 Clouds 33 1004 52 10000 3.09 270 20:27 04.12.2022
771 Clouds 32 1005 58 10000 2.57 270 19:26 04.12.2022
772 Clouds 32 1007 55 10000 2.57 250 18:40 04.12.2022
773 Clouds 31 1009 58 10000 3.09 260 17:23 04.12.2022
774 Clouds 31 1009 62 10000 2.06 240 16:37 04.12.2022
775 Clouds 31 1009 62 10000 2.06 240 16:19 04.12.2022
776 Clouds 31 1009 62 10000 2.06 240 15:54 04.12.2022
777 Clouds 29 1010 74 10000 2.06 240 14:43 04.12.2022
778 Clear 28 1009 78 10000 2.06 300 13:18 04.12.2022
779 Clear 27 1009 83 10000 1.54 320 12:42 04.12.2022
780 Clouds 25 1008 100 10000 1.54 330 11:46 04.12.2022
781 Clouds 25 1008 100 10000 1.54 330 11:46 04.12.2022
782 Clear 25 1007 94 10000 2.06 300 09:20 04.12.2022
783 Clear 26 1007 94 10000 1.03 90 07:21 04.12.2022
784 Clouds 28 1006 74 10000 2.06 60 00:44 04.12.2022
785 Clouds 28 1005 74 10000 1.54 0 23:30 03.12.2022
786 Clouds 31 1005 62 10000 2.06 0 21:55 03.12.2022
787 Clouds 31 1005 62 10000 2.06 0 21:19 03.12.2022
788 Clouds 30 1007 62 10000 3.09 190 19:28 03.12.2022
789 Clouds 28 1009 74 10000 2.57 200 18:39 03.12.2022
790 Clouds 27 1011 78 10000 3.09 150 15:53 03.12.2022
791 Clouds 27 1012 83 10000 3.09 190 14:23 03.12.2022
792 Clouds 25 1011 88 10000 1.54 220 12:54 03.12.2022
793 Clouds 25 1011 88 10000 1.54 220 12:22 03.12.2022
794 Clouds 24 1010 100 10000 2.57 240 10:20 03.12.2022
795 Rain 24 1009 94 10000 2.06 230 06:53 03.12.2022
796 Rain 25 1007 94 10000 1.03 80 00:23 03.12.2022
797 Rain 25 1006 94 10000 3.09 60 22:22 02.12.2022
798 Rain 26 1007 78 10000 1.54 20 20:53 02.12.2022
799 Clouds 26 1008 89 10000 6.17 250 18:21 02.12.2022
800 Rain 28 1010 74 10000 1.54 300 15:58 02.12.2022
801 Rain 27 1010 83 10000 2.57 80 14:38 02.12.2022
802 Rain 27 1010 83 10000 2.57 80 14:19 02.12.2022
803 Clouds 25 1008 83 10000 2.06 10 12:55 02.12.2022
804 Clouds 25 1007 88 10000 2.06 50 11:31 02.12.2022
805 Clouds 25 1007 88 10000 2.06 50 11:31 02.12.2022
806 Clear 25 1007 88 10000 3.6 50 08:35 02.12.2022
807 Clear 25 1007 88 10000 2.57 40 07:23 02.12.2022
808 Clouds 30 1003 66 10000 4.63 50 22:54 01.12.2022
809 Clouds 30 1003 66 10000 4.63 50 22:54 01.12.2022
810 Clouds 29 1003 74 10000 4.63 10 21:44 01.12.2022
811 Clouds 29 1003 74 10000 4.63 10 21:26 01.12.2022
812 Rain 30 1004 70 10000 4.63 70 19:22 01.12.2022
813 Clouds 29 1008 79 10000 4.63 40 17:46 01.12.2022
814 Rain 27 1009 89 10000 3.6 40 15:38 01.12.2022
815 Thunderstorm 24 1007 94 3000 2.06 10 11:23 01.12.2022
816 Thunderstorm 24 1006 94 5000 4.63 90 09:55 01.12.2022
817 Thunderstorm 24 1005 94 1000 5.14 310 09:37 01.12.2022
818 Thunderstorm 25 1004 100 8000 1.03 100 08:18 01.12.2022
819 Clouds 29 1004 65 10000 2.57 20 23:59 30.11.2022
820 Clouds 33 1002 55 10000 2.57 240 22:28 30.11.2022
821 Clouds 33 1002 58 10000 2.06 80 21:19 30.11.2022
822 Clouds 32 1003 58 10000 2.06 80 20:25 30.11.2022
823 Clouds 33 1004 55 10000 2.06 170 19:35 30.11.2022
824 Clouds 33 1005 55 10000 3.09 240 18:33 30.11.2022
825 Clouds 32 1007 62 10000 2.06 160 17:33 30.11.2022
826 Clouds 30 1009 70 10000 2.06 360 14:46 30.11.2022
827 Clouds 30 1009 70 10000 2.06 360 14:27 30.11.2022
828 Clear 27 1008 78 10000 2.57 350 12:32 30.11.2022
829 Clouds 27 1006 74 10000 2.57 360 10:24 30.11.2022
830 Clouds 26 1005 83 10000 1.54 20 08:38 30.11.2022
831 Clouds 26 1005 83 10000 2.06 20 07:25 30.11.2022
832 Clouds 29 1004 70 10000 1.54 230 23:33 29.11.2022
833 Clouds 30 1004 66 10000 2.57 260 22:25 29.11.2022
834 Clouds 31 1005 62 10000 4.63 260 20:53 29.11.2022
835 Clouds 31 1005 62 10000 4.63 260 20:33 29.11.2022
836 Clouds 31 1006 62 10000 4.12 250 18:57 29.11.2022
837 Rain 28 1009 74 10000 3.6 250 16:58 29.11.2022
838 Rain 28 1010 74 10000 3.09 260 16:20 29.11.2022
839 Rain 27 1010 78 10000 2.57 320 14:49 29.11.2022
840 Clouds 25 1009 88 10000 3.09 310 12:45 29.11.2022
841 Mist 25 1008 88 10000 2.06 340 11:32 29.11.2022
842 Mist 25 1007 88 10000 3.09 320 10:41 29.11.2022
843 Clouds 25 1006 88 10000 3.09 330 09:28 29.11.2022
844 Clouds 25 1006 88 10000 2.06 360 07:46 29.11.2022
845 Rain 26 1007 83 10000 2.06 300 00:35 29.11.2022
846 Rain 26 1007 83 10000 2.06 300 00:35 29.11.2022
847 Rain 26 1006 78 10000 4.12 280 23:29 28.11.2022
848 Rain 27 1006 74 10000 6.17 280 22:28 28.11.2022
849 Clouds 29 1006 70 10000 6.17 240 21:43 28.11.2022
850 Clouds 31 1006 62 10000 5.66 230 20:33 28.11.2022
851 Clouds 32 1006 58 10000 7.72 230 19:37 28.11.2022
852 Clouds 32 1007 55 10000 4.63 250 18:29 28.11.2022
853 Clouds 32 1008 58 10000 4.12 250 17:35 28.11.2022
854 Clouds 30 1010 66 10000 2.06 240 15:22 28.11.2022
855 Clear 29 1010 65 10000 1.54 10 13:59 28.11.2022
856 Clear 28 1011 74 10000 2.06 20 13:37 28.11.2022
857 Clouds 25 1009 88 10000 2.06 20 11:49 28.11.2022
858 Clouds 26 1009 89 10000 2.06 130 09:27 28.11.2022
859 Clouds 26 1010 83 10000 2.06 10 04:58 28.11.2022
860 Clear 26 1010 83 10000 2.06 30 04:40 28.11.2022
861 Clouds 26 1010 83 10000 2.06 60 03:23 28.11.2022
862 Clouds 29 1008 65 10000 2.06 280 00:42 28.11.2022
863 Clouds 29 1007 74 10000 3.09 260 22:24 27.11.2022
864 Clouds 30 1008 66 10000 2.06 220 20:49 27.11.2022
865 Clouds 31 1011 62 10000 3.09 230 18:52 27.11.2022
866 Clouds 29 1013 70 10000 2.06 220 16:39 27.11.2022
867 Clouds 28 1013 74 10000 2.06 260 14:22 27.11.2022
868 Clear 25 1012 88 10000 2.06 350 12:27 27.11.2022
869 Clear 24 1011 94 10000 1.54 300 10:36 27.11.2022
870 Clear 24 1010 88 10000 1.54 40 07:55 27.11.2022
871 Clouds 26 1009 83 10000 2.06 50 23:39 26.11.2022
872 Clouds 28 1009 74 10000 1.54 0 21:44 26.11.2022
873 Rain 26 1010 83 10000 1.54 0 20:20 26.11.2022
874 Rain 26 1011 89 10000 2.57 30 18:57 26.11.2022
875 Clouds 24 1013 100 10000 2.57 50 16:47 26.11.2022
876 Clouds 24 1015 100 10000 2.06 40 15:37 26.11.2022
877 Thunderstorm 24 1013 94 5000 3.6 50 12:54 26.11.2022
878 Rain 26 1011 83 10000 2.57 350 10:54 26.11.2022
879 Clouds 26 1010 83 10000 1.54 300 09:43 26.11.2022
880 Clouds 26 1010 83 10000 2.06 20 08:21 26.11.2022
881 Clouds 30 1007 70 10000 2.06 180 22:59 25.11.2022
882 Clouds 32 1007 51 10000 2.06 0 21:38 25.11.2022
883 Clouds 31 1008 62 10000 4.12 30 20:33 25.11.2022
884 Clouds 30 1012 66 10000 2.06 0 16:59 25.11.2022
885 Clouds 30 1013 66 10000 3.09 30 15:40 25.11.2022
886 Rain 25 1010 94 10000 2.57 30 10:29 25.11.2022
887 Clouds 25 1010 100 10000 2.06 40 08:44 25.11.2022
888 Clouds 25 1010 94 10000 1.03 0 07:27 25.11.2022
889 Clear 25 1010 94 10000 0.51 0 06:42 25.11.2022
890 Clouds 26 1010 83 10000 1.54 60 01:25 25.11.2022
891 Clouds 27 1009 78 10000 3.09 40 23:22 24.11.2022
892 Clouds 28 1008 74 10000 2.57 40 22:29 24.11.2022
893 Rain 28 1008 74 10000 3.6 50 21:35 24.11.2022
894 Thunderstorm 26 1009 73 10000 3.6 40 19:40 24.11.2022
895 Clouds 29 1011 70 10000 3.09 190 17:47 24.11.2022
896 Clouds 29 1011 70 10000 3.09 190 17:23 24.11.2022
897 Clouds 29 1012 74 10000 2.06 190 16:27 24.11.2022
898 Clouds 28 1011 65 10000 1.03 0 14:23 24.11.2022
899 Clouds 25 1010 88 10000 1.03 40 12:39 24.11.2022
900 Clouds 23 1009 100 10000 1.03 40 10:50 24.11.2022
901 Clouds 24 1009 94 10000 2.06 220 08:32 24.11.2022
902 Rain 24 1013 94 10000 3.09 280 04:42 24.11.2022
903 Thunderstorm 24 1009 94 1200 3.09 80 23:47 23.11.2022
904 Rain 30 1007 70 10000 6.17 330 22:45 23.11.2022
905 Clouds 31 1006 66 10000 5.66 190 21:43 23.11.2022
906 Clouds 31 1006 62 10000 5.14 240 20:49 23.11.2022
907 Clouds 31 1007 66 10000 5.14 190 19:31 23.11.2022
908 Clouds 31 1009 66 10000 4.12 230 18:42 23.11.2022
909 Rain 31 1010 62 10000 3.6 190 16:59 23.11.2022
910 Clouds 25 1011 88 10000 2.57 160 13:41 23.11.2022
911 Clouds 25 1011 88 10000 2.57 160 13:21 23.11.2022
912 Clouds 24 1009 94 10000 1.03 0 12:21 23.11.2022
913 Clouds 24 1008 94 10000 0 0 11:42 23.11.2022
914 Clouds 24 1008 94 10000 1.54 220 10:45 23.11.2022
915 Clouds 24 1007 94 10000 1.54 130 09:44 23.11.2022
916 Clouds 24 1007 94 10000 1.54 130 09:26 23.11.2022
917 Clouds 24 1007 88 10000 1.54 170 08:37 23.11.2022
918 Clouds 24 1008 94 10000 1.03 120 06:59 23.11.2022
919 Clouds 24 1009 88 10000 2.57 240 05:18 23.11.2022
920 Rain 28 1007 74 10000 3.09 170 23:24 22.11.2022
921 Rain 28 1007 74 10000 2.06 250 22:34 22.11.2022
922 Rain 28 1006 74 10000 2.57 240 21:34 22.11.2022
923 Rain 30 1006 66 10000 3.6 320 20:50 22.11.2022
924 Rain 30 1006 66 10000 3.6 320 20:18 22.11.2022
925 Rain 32 1008 55 10000 4.12 60 17:56 22.11.2022
926 Rain 32 1008 55 10000 5.14 20 17:28 22.11.2022
927 Clouds 31 1009 58 10000 5.14 40 16:23 22.11.2022
928 Clouds 29 1009 65 10000 4.12 300 13:48 22.11.2022
929 Clear 27 1008 74 10000 3.6 40 11:57 22.11.2022
930 Rain 27 1008 74 10000 1.54 60 09:26 22.11.2022
931 Clear 27 1007 74 10000 2.57 30 07:55 22.11.2022
932 Clear 29 1008 65 10000 3.09 40 03:47 22.11.2022
933 Clouds 32 1004 55 10000 2.57 40 23:41 21.11.2022
934 Clouds 33 1004 49 10000 2.06 80 22:49 21.11.2022
935 Clouds 33 1004 49 10000 2.06 80 21:59 21.11.2022
936 Clouds 35 1004 46 10000 2.06 310 20:56 21.11.2022
937 Clouds 35 1004 46 10000 2.06 310 20:56 21.11.2022
938 Clouds 35 1006 46 10000 5.14 10 19:42 21.11.2022
939 Clouds 35 1007 46 10000 4.12 70 18:54 21.11.2022
940 Clouds 35 1007 46 10000 4.12 70 18:34 21.11.2022
941 Clouds 33 1009 52 10000 4.63 60 16:56 21.11.2022
942 Clouds 33 1009 52 10000 4.63 60 16:37 21.11.2022
943 Clear 32 1010 55 10000 5.66 30 15:50 21.11.2022
944 Clear 32 1010 55 10000 6.69 40 14:55 21.11.2022
945 Clear 29 1010 65 10000 3.6 70 13:44 21.11.2022
946 Clear 26 1008 83 10000 1.54 30 11:39 21.11.2022
947 Clear 26 1007 83 10000 2.06 60 09:19 21.11.2022
948 Clear 27 1007 78 10000 2.57 80 07:42 21.11.2022
949 Clouds 33 1006 52 10000 3.09 50 22:43 20.11.2022
950 Clouds 34 1006 46 10000 2.57 80 21:36 20.11.2022
951 Clouds 34 1006 46 10000 2.57 80 21:36 20.11.2022
952 Clouds 33 1007 52 10000 2.57 130 20:32 20.11.2022
953 Clouds 31 1009 62 10000 3.09 320 18:39 20.11.2022
954 Clouds 32 1010 58 10000 4.12 260 16:32 20.11.2022
955 Clouds 31 1011 66 10000 3.09 0 15:30 20.11.2022
956 Clouds 31 1011 66 10000 4.63 50 14:54 20.11.2022
957 Clouds 28 1010 78 10000 4.12 60 13:34 20.11.2022
958 Clear 27 1009 89 10000 2.06 30 12:42 20.11.2022
959 Clear 25 1009 94 10000 2.06 80 11:30 20.11.2022
960 Clear 25 1008 94 10000 2.06 60 10:49 20.11.2022
961 Clear 26 1017 89 10000 2.06 70 09:29 20.11.2022
962 Clear 26 1008 89 10000 1.54 60 08:41 20.11.2022
963 Clear 26 1008 83 10000 1.54 80 07:30 20.11.2022
964 Clear 28 1010 69 10000 2.06 50 04:26 20.11.2022
965 Clear 29 1009 70 10000 2.06 70 01:22 20.11.2022
966 Clear 29 1008 65 10000 2.57 30 00:42 20.11.2022
967 Clear 29 1008 65 10000 2.57 30 00:23 20.11.2022
968 Clouds 30 1007 62 10000 2.57 30 23:51 19.11.2022
969 Clouds 30 1007 62 10000 2.57 30 23:25 19.11.2022
970 Clouds 31 1007 58 10000 3.09 40 22:40 19.11.2022
971 Clouds 31 1007 58 10000 2.06 80 21:32 19.11.2022
972 Clouds 33 1008 55 10000 1.54 10 20:57 19.11.2022
973 Clouds 33 1008 55 10000 2.57 350 20:33 19.11.2022
974 Clouds 32 1009 62 10000 2.06 0 19:22 19.11.2022
975 Clouds 32 1012 58 10000 1.54 190 17:41 19.11.2022
976 Clouds 32 1012 58 10000 1.54 190 17:20 19.11.2022
977 Clouds 29 1013 70 10000 2.57 160 15:59 19.11.2022
978 Clouds 27 1013 83 10000 1.03 130 14:38 19.11.2022
979 Clouds 24 1012 100 6000 1.03 110 12:18 19.11.2022
980 Clouds 25 1010 94 10000 1.03 350 10:56 19.11.2022
981 Clouds 25 1009 94 9000 1.54 150 08:40 19.11.2022
982 Clear 25 1010 88 10000 1.54 10 04:55 19.11.2022
983 Clouds 25 1011 88 10000 3.6 110 02:51 19.11.2022
984 Clouds 27 1009 78 10000 1.54 240 23:46 18.11.2022
985 Clouds 27 1008 78 10000 2.06 210 22:38 18.11.2022
986 Rain 28 1008 78 10000 2.06 200 21:37 18.11.2022
987 Rain 28 1008 78 10000 2.06 200 20:59 18.11.2022
988 Clouds 29 1009 79 10000 2.57 160 20:30 18.11.2022
989 Rain 30 1009 74 10000 2.57 100 19:46 18.11.2022
990 Rain 30 1010 66 10000 3.09 240 18:36 18.11.2022
991 Clouds 30 1011 66 10000 3.6 270 17:42 18.11.2022
992 Clouds 27 1012 89 10000 4.12 250 13:57 18.11.2022
993 Fog 27 1010 89 10000 2.57 300 11:31 18.11.2022
994 Clouds 27 1009 89 10000 3.09 320 08:46 18.11.2022
995 Clear 27 1009 89 10000 2.57 300 07:51 18.11.2022
996 Clear 28 1010 78 10000 2.06 310 05:18 18.11.2022
997 Clear 30 1008 74 10000 1.54 290 00:46 18.11.2022
998 Clouds 32 1006 58 10000 2.57 230 21:30 17.11.2022
999 Clouds 33 1007 55 10000 2.57 290 20:45 17.11.2022
1000 Clouds 33 1008 55 10000 2.06 30 19:51 17.11.2022
1001 Clouds 33 1009 55 10000 3.6 170 18:35 17.11.2022
1002 Clouds 32 1011 62 10000 2.57 70 17:32 17.11.2022
1003 Clouds 32 1011 66 10000 2.06 310 16:48 17.11.2022
1004 Clear 28 1012 83 10000 3.09 70 13:33 17.11.2022
1005 Clear 25 1010 100 10000 1.03 0 11:21 17.11.2022
1006 Clear 25 1009 100 10000 1.54 70 08:23 17.11.2022
1007 Clear 26 1011 94 10000 1.54 80 03:51 17.11.2022
1008 Clear 27 1009 83 10000 2.06 100 00:21 17.11.2022
1009 Clouds 31 1008 66 10000 2.06 210 22:29 16.11.2022
1010 Clouds 31 1009 70 10000 1.54 170 20:36 16.11.2022
1011 Clouds 31 1010 66 10000 2.06 130 19:49 16.11.2022
1012 Clouds 29 1011 74 10000 2.06 260 18:40 16.11.2022
1013 Clouds 29 1012 79 10000 1.03 130 17:19 16.11.2022
1014 Clouds 25 1014 94 10000 2.06 140 13:54 16.11.2022
1015 Rain 25 1010 94 10000 2.06 120 09:38 16.11.2022
1016 Clouds 25 1011 94 10000 2.57 70 02:32 16.11.2022
1017 Clouds 25 1011 94 10000 1.03 40 01:25 16.11.2022
1018 Clouds 29 1008 79 10000 3.6 90 22:22 15.11.2022
1019 Clouds 33 1008 62 10000 5.14 50 20:32 15.11.2022
1020 Clouds 32 1009 66 10000 1.54 350 19:33 15.11.2022
1021 Rain 32 1011 62 10000 3.6 50 17:39 15.11.2022
1022 Clouds 32 1011 62 10000 3.6 50 16:53 15.11.2022
1023 Clouds 32 1012 66 10000 4.12 20 16:18 15.11.2022
1024 Rain 29 1013 79 10000 3.6 40 14:42 15.11.2022
1025 Clear 29 1012 79 10000 2.06 10 12:59 15.11.2022
1026 Clear 27 1010 83 10000 2.57 20 11:42 15.11.2022
1027 Clear 27 1009 83 10000 2.57 30 10:35 15.11.2022
1028 Clear 28 1009 78 10000 2.57 20 06:33 15.11.2022
1029 Clear 30 1007 70 10000 2.57 30 00:32 15.11.2022
1030 Clouds 33 1006 55 10000 4.12 10 22:54 14.11.2022
1031 Clouds 34 1006 55 10000 3.09 80 21:18 14.11.2022
1032 Rain 34 1007 52 10000 3.09 80 20:37 14.11.2022
1033 Clouds 33 1009 62 10000 4.63 30 18:29 14.11.2022
1034 Clouds 31 1012 66 10000 4.63 30 15:40 14.11.2022
1035 Clouds 26 1009 83 10000 2.57 40 11:50 14.11.2022
1036 Clouds 26 1009 83 10000 2.57 40 11:28 14.11.2022
1037 Clouds 26 1009 83 10000 2.57 40 11:28 14.11.2022
1038 Clouds 26 1009 83 10000 2.57 40 11:28 14.11.2022
1039 Clouds 27 1008 83 10000 2.57 360 08:48 14.11.2022
1040 Clouds 27 1008 83 10000 2.57 360 07:53 14.11.2022
1041 Clear 28 1010 78 10000 1.54 340 05:59 14.11.2022
1042 Thunderstorm 30 1006 66 10000 2.57 330 23:51 13.11.2022
1043 Rain 31 1006 66 10000 3.09 10 21:43 13.11.2022
1044 Clouds 31 1006 66 10000 3.09 10 20:55 13.11.2022
1045 Rain 32 1007 62 10000 2.06 0 19:24 13.11.2022
1046 Clouds 31 1009 62 10000 2.57 50 17:51 13.11.2022
1047 Clouds 31 1009 62 10000 2.57 50 16:56 13.11.2022
1048 Clear 30 1010 70 10000 4.12 30 14:54 13.11.2022
1049 Clear 27 1010 78 10000 4.12 10 13:24 13.11.2022
1050 Clear 26 1010 83 10000 4.12 10 12:34 13.11.2022
1051 Clear 26 1010 83 10000 4.12 10 12:34 13.11.2022
1052 Clear 26 1010 83 10000 4.12 10 12:34 13.11.2022
1053 Clear 26 1010 83 10000 4.12 10 12:34 13.11.2022
1054 Clouds 25 1008 88 10000 2.57 20 10:48 13.11.2022
1055 Clear 27 1009 94 10000 1.03 320 06:31 13.11.2022
1056 Clouds 29 1007 84 10000 1.03 330 00:34 13.11.2022
1057 Clouds 32 1006 58 10000 3.09 290 21:59 12.11.2022
1058 Clouds 32 1006 58 10000 3.09 290 21:23 12.11.2022
1059 Thunderstorm 29 1008 74 10000 4.12 310 19:53 12.11.2022
1060 Clouds 32 1010 66 10000 3.6 260 17:53 12.11.2022
1061 Clouds 32 1011 62 10000 3.6 220 16:21 12.11.2022
1062 Clouds 29 1012 79 10000 3.09 240 14:50 12.11.2022
1063 Clouds 27 1010 89 10000 3.09 300 11:23 12.11.2022
1064 Clear 27 1009 83 10000 1.03 270 08:28 12.11.2022
1065 Clouds 29 1008 74 10000 1.54 240 00:41 12.11.2022
1066 Clouds 33 1007 55 10000 3.09 30 21:35 11.11.2022
1067 Clouds 33 1007 55 10000 3.09 20 20:45 11.11.2022
1068 Clouds 33 1008 55 10000 3.6 20 19:29 11.11.2022
1069 Clouds 33 1010 55 10000 4.63 70 18:41 11.11.2022
1070 Clouds 33 1011 52 10000 2.06 70 17:41 11.11.2022
1071 Clouds 33 1011 52 10000 2.06 70 17:41 11.11.2022
1072 Clouds 32 1013 58 10000 4.12 10 15:30 11.11.2022
1073 Clear 31 1013 62 10000 5.14 50 14:20 11.11.2022
1074 Clear 28 1011 74 10000 5.14 30 12:46 11.11.2022
1075 Clear 27 1009 78 10000 3.09 30 09:36 11.11.2022
1076 Clear 27 1009 78 10000 3.09 30 08:27 11.11.2022
1077 Clear 27 1009 78 10000 3.09 30 08:27 11.11.2022
1078 Clear 29 1010 70 10000 3.09 20 03:48 11.11.2022
1079 Clouds 31 1007 58 10000 2.57 30 22:55 10.11.2022
1080 Clouds 34 1007 52 10000 4.63 30 21:51 10.11.2022
1081 Clouds 34 1007 52 10000 4.63 30 21:30 10.11.2022
1082 Rain 34 1008 52 10000 2.57 20 20:48 10.11.2022
1083 Clouds 34 1008 52 10000 2.57 20 20:20 10.11.2022
1084 Clouds 34 1009 52 10000 3.09 30 18:59 10.11.2022
1085 Clouds 33 1010 55 10000 3.09 70 17:59 10.11.2022
1086 Clouds 33 1010 55 10000 3.09 70 17:59 10.11.2022
1087 Clouds 33 1012 55 10000 3.6 60 16:25 10.11.2022
1088 Clouds 29 1012 70 10000 3.6 30 13:41 10.11.2022
1089 Clouds 26 1011 83 10000 2.06 20 11:29 10.11.2022
1090 Clear 27 1009 74 10000 2.06 30 08:21 10.11.2022
1091 Clear 30 1009 62 10000 1.54 50 01:27 10.11.2022
1092 Clouds 29 1008 70 10000 1.54 80 23:21 09.11.2022
1093 Clouds 33 1007 52 10000 2.06 80 21:59 09.11.2022
1094 Clouds 34 1008 46 10000 2.57 240 20:47 09.11.2022
1095 Clouds 34 1008 46 10000 2.57 240 20:29 09.11.2022
1096 Clouds 35 1010 46 10000 1.54 60 19:30 09.11.2022
1097 Clouds 33 1011 52 10000 2.06 90 18:39 09.11.2022
1098 Rain 30 1014 70 10000 4.12 40 15:53 09.11.2022
1099 Clouds 29 1014 70 10000 3.6 60 14:42 09.11.2022
1100 Clouds 29 1014 70 10000 3.6 60 14:23 09.11.2022
1101 Clear 27 1012 74 10000 2.57 40 12:58 09.11.2022
1102 Clear 26 1010 83 10000 2.57 30 09:52 09.11.2022
1103 Clear 27 1010 78 10000 2.57 50 07:47 09.11.2022
1104 Clear 27 1011 78 10000 2.06 50 06:55 09.11.2022
1105 Clouds 30 1009 70 10000 1.03 210 23:27 08.11.2022
1106 Clouds 32 1009 58 10000 2.06 350 21:44 08.11.2022
1107 Clouds 32 1009 58 10000 2.06 350 21:22 08.11.2022
1108 Clouds 32 1009 58 10000 3.09 270 20:39 08.11.2022
1109 Clouds 33 1010 55 10000 3.09 290 19:35 08.11.2022
1110 Clouds 32 1011 66 10000 3.6 260 18:20 08.11.2022
1111 Clouds 31 1013 66 10000 3.09 230 16:19 08.11.2022
1112 Clouds 29 1014 65 10000 3.09 30 14:52 08.11.2022
1113 Clouds 27 1013 78 10000 2.57 30 13:35 08.11.2022
1114 Clouds 26 1012 83 10000 1.54 50 12:38 08.11.2022
1115 Clouds 25 1011 94 10000 4.63 320 08:32 08.11.2022
1116 Clouds 25 1011 94 10000 2.06 60 06:53 08.11.2022
1117 Clouds 27 1011 83 10000 2.06 80 23:52 07.11.2022
1118 Clouds 28 1010 78 10000 1.54 280 22:23 07.11.2022
1119 Clouds 29 1010 74 10000 2.06 280 21:20 07.11.2022
1120 Clouds 29 1011 74 10000 2.57 70 19:59 07.11.2022
1121 Clouds 28 1014 74 10000 3.09 350 17:51 07.11.2022
1122 Clouds 27 1014 78 10000 3.6 20 16:27 07.11.2022
1123 Clouds 27 1014 78 10000 3.6 360 15:34 07.11.2022
1124 Rain 26 1014 83 10000 3.09 20 14:18 07.11.2022
1125 Rain 24 1013 94 10000 4.12 20 12:33 07.11.2022
1126 Clouds 25 1011 94 10000 2.57 10 10:48 07.11.2022
1127 Clouds 26 1010 78 10000 1.54 270 09:25 07.11.2022
1128 Clouds 26 1011 89 10000 5.14 260 07:29 07.11.2022
1129 Clear 26 1012 89 10000 2.06 20 03:27 07.11.2022
1130 Clouds 26 1011 78 10000 3.6 60 01:18 07.11.2022
1131 Rain 34 1008 49 10000 3.6 230 21:53 06.11.2022
1132 Clouds 34 1008 49 10000 3.6 230 21:19 06.11.2022
1133 Clouds 34 1009 49 10000 4.63 220 19:59 06.11.2022
1134 Clouds 34 1009 49 10000 3.6 180 19:30 06.11.2022
1135 Clouds 33 1010 52 10000 3.6 170 18:21 06.11.2022
1136 Clouds 32 1012 55 10000 2.57 140 17:46 06.11.2022
1137 Clouds 32 1012 55 10000 2.57 140 17:19 06.11.2022
1138 Clouds 32 1013 51 10000 1.54 200 16:30 06.11.2022
1139 Clouds 31 1013 66 10000 2.06 210 15:39 06.11.2022
1140 Clear 28 1012 69 10000 2.57 360 12:48 06.11.2022
1141 Clouds 27 1011 74 10000 2.06 360 11:42 06.11.2022
1142 Clear 27 1010 74 10000 20.58 340 10:34 06.11.2022
1143 Clear 28 1010 69 10000 1.03 10 07:44 06.11.2022
1144 Clear 28 1010 74 10000 0.51 90 00:46 06.11.2022
1145 Clouds 31 1009 51 10000 1.03 180 22:35 05.11.2022
1146 Clouds 32 1010 51 10000 3.09 250 19:18 05.11.2022
1147 Clouds 30 1013 58 10000 3.09 220 16:57 05.11.2022
1148 Clouds 29 1014 65 10000 4.63 210 15:20 05.11.2022
1149 Clear 28 1014 74 10000 2.57 270 13:51 05.11.2022
1150 Clear 26 1013 78 10000 3.09 310 12:30 05.11.2022
1151 Clear 25 1011 83 10000 2.57 300 09:33 05.11.2022
1152 Clear 26 1011 83 10000 2.06 280 07:23 05.11.2022
1153 Clear 26 1011 83 10000 2.06 280 06:56 05.11.2022
1154 Clouds 28 1011 74 10000 2.57 270 00:45 05.11.2022
1155 Clouds 28 1011 69 10000 3.09 270 23:29 04.11.2022
1156 Clouds 29 1010 65 10000 2.06 260 21:40 04.11.2022
1157 Clouds 29 1011 65 10000 2.06 250 19:39 04.11.2022
1158 Clouds 28 1014 69 10000 3.6 270 17:44 04.11.2022
1159 Clouds 27 1015 69 10000 5.14 270 14:38 04.11.2022
1160 Clouds 26 1014 61 10000 2.3 254 13:19 04.11.2022
1161 Clear 25 1013 78 10000 3.09 280 11:58 04.11.2022
1162 Clouds 22 1012 85 10000 1.85 250 09:31 04.11.2022
1163 Clouds 22 1011 83 10000 2.03 260 08:20 04.11.2022
1164 Clear 25 1012 78 10000 1.54 250 06:40 04.11.2022
1165 Clear 27 1013 69 10000 2.57 230 00:56 04.11.2022
1166 Clouds 28 1012 61 10000 3.6 180 21:48 03.11.2022
1167 Clouds 28 1012 61 10000 3.6 210 20:46 03.11.2022
1168 Clouds 28 1012 61 10000 3.6 170 19:41 03.11.2022
1169 Clouds 28 1013 61 10000 3.6 190 18:27 03.11.2022
1170 Clouds 28 1014 61 10000 3.6 190 17:37 03.11.2022
1171 Clouds 27 1016 65 10000 2.06 0 15:20 03.11.2022
1172 Clear 24 1016 78 10000 3.09 210 13:33 03.11.2022
1173 Clouds 24 1016 78 10000 3.09 240 12:34 03.11.2022
1174 Clouds 23 1015 83 10000 2.57 250 11:36 03.11.2022
1175 Clouds 23 1014 83 10000 2.57 220 07:48 03.11.2022
1176 Clouds 25 1013 73 10000 3.6 150 22:20 02.11.2022
1177 Clouds 26 1013 73 10000 3.09 140 20:55 02.11.2022
1178 Clouds 26 1013 69 10000 3.09 160 20:23 02.11.2022
1179 Clouds 26 1014 69 10000 3.6 140 18:23 02.11.2022
1180 Clouds 26 1016 69 10000 4.63 170 16:26 02.11.2022
1181 Clouds 25 1016 78 10000 3.6 140 15:30 02.11.2022
1182 Drizzle 24 1015 88 6000 3.09 180 12:51 02.11.2022
1183 Drizzle 24 1015 88 6000 3.09 180 12:20 02.11.2022
1184 Clouds 25 1013 88 10000 3.6 140 09:32 02.11.2022
1185 Clouds 25 1012 100 10000 1.54 160 08:18 02.11.2022
1186 Clouds 26 1013 94 10000 3.6 120 01:46 02.11.2022
1187 Clouds 27 1010 89 10000 2.06 100 22:21 01.11.2022
1188 Clouds 26 1010 89 10000 2.06 90 21:42 01.11.2022
1189 Rain 25 1010 83 10000 3.6 70 20:28 01.11.2022
1190 Thunderstorm 23 1011 94 10000 3.6 40 19:58 01.11.2022
1191 Thunderstorm 23 1011 94 10000 3.6 40 19:40 01.11.2022
1192 Clouds 31 1011 70 10000 3.6 80 18:21 01.11.2022
1193 Clouds 29 1013 79 10000 2.57 160 16:23 01.11.2022
1194 Clouds 29 1013 79 10000 2.57 160 16:23 01.11.2022
1195 Rain 27 1013 89 10000 2.57 170 14:34 01.11.2022
1196 Rain 26 1011 94 9000 1.54 140 12:33 01.11.2022
1197 Rain 26 1011 94 10000 2.06 180 11:38 01.11.2022
1198 Rain 26 1011 94 10000 2.06 180 11:20 01.11.2022
1199 Rain 26 1011 94 10000 2.06 180 11:20 01.11.2022
1200 Rain 28 1009 78 10000 2.06 50 08:51 01.11.2022
1201 Rain 28 1009 78 10000 3.09 30 07:48 01.11.2022
1202 Rain 28 1009 78 10000 3.09 30 07:26 01.11.2022
1203 Rain 29 1009 74 10000 2.57 50 06:45 01.11.2022
1204 Rain 30 1009 70 10000 2.57 60 03:57 01.11.2022
1205 Clouds 33 1005 58 10000 3.09 20 22:24 31.10.2022
1206 Clouds 33 1006 55 10000 3.09 80 21:26 31.10.2022
1207 Clouds 36 1006 49 10000 3.6 0 19:56 31.10.2022
1208 Clouds 33 1008 58 10000 1.54 0 18:35 31.10.2022
1209 Clouds 31 1010 70 10000 3.09 10 16:44 31.10.2022
1210 Clouds 30 1011 79 10000 2.57 320 14:20 31.10.2022
1211 Clouds 27 1009 94 10000 1.54 290 11:57 31.10.2022
1212 Clear 26 1008 94 10000 1.03 10 09:28 31.10.2022
1213 Clear 29 1009 79 10000 1.54 310 05:39 31.10.2022
1214 Clear 29 1008 74 10000 1.03 20 02:34 31.10.2022
1215 Clouds 29 1005 74 10000 1.03 90 00:34 31.10.2022
1216 Clouds 33 1005 55 10000 2.57 250 21:45 30.10.2022
1217 Clouds 33 1006 55 10000 2.06 180 20:37 30.10.2022
1218 Rain 32 1006 58 10000 3.09 240 18:56 30.10.2022
1219 Clouds 31 1009 66 10000 3.09 240 16:19 30.10.2022
1220 Clouds 29 1010 79 10000 2.57 270 14:23 30.10.2022
1221 Clear 28 1010 83 10000 2.57 260 13:23 30.10.2022
1222 Clear 27 1008 83 10000 2.06 310 11:48 30.10.2022
1223 Clear 26 1007 83 10000 1.03 340 09:40 30.10.2022
1224 Clear 27 1007 78 10000 1.03 10 08:39 30.10.2022
1225 Clear 29 1010 70 10000 2.57 10 04:30 30.10.2022
1226 Clouds 30 1007 66 10000 1.54 260 00:28 30.10.2022
1227 Rain 29 1007 74 10000 2.06 210 23:45 29.10.2022
1228 Clouds 33 1007 55 10000 2.06 90 21:29 29.10.2022
1229 Clouds 31 1010 66 10000 2.06 0 18:34 29.10.2022
1230 Clouds 30 1011 70 10000 2.06 70 17:21 29.10.2022
1231 Clouds 28 1011 74 10000 1.54 0 15:38 29.10.2022
1232 Clouds 27 1011 83 10000 2.57 80 14:51 29.10.2022
1233 Clouds 25 1010 88 10000 1.03 0 12:36 29.10.2022
1234 Rain 25 1009 94 10000 2.06 220 11:54 29.10.2022
1235 Rain 25 1010 94 10000 2.06 170 07:38 29.10.2022
1236 Rain 25 1010 94 10000 2.57 170 06:45 29.10.2022
1237 Rain 26 1011 89 10000 3.09 150 05:53 29.10.2022
1238 Rain 32 1006 58 10000 3.09 10 23:43 28.10.2022
1239 Clouds 33 1005 58 10000 4.12 70 20:56 28.10.2022
1240 Clouds 33 1008 58 10000 4.12 20 19:34 28.10.2022
1241 Clouds 33 1009 62 10000 3.6 10 18:32 28.10.2022
1242 Clouds 32 1010 62 10000 4.12 30 16:46 28.10.2022
1243 Clear 30 1010 70 10000 2.57 60 14:45 28.10.2022
1244 Clear 28 1009 78 10000 2.06 60 13:19 28.10.2022
1245 Clear 27 1007 78 10000 3.09 40 11:53 28.10.2022
1246 Clear 27 1007 78 10000 3.09 40 11:31 28.10.2022
1247 Clear 27 1007 78 10000 2.06 20 10:28 28.10.2022
1248 Clear 28 1008 78 10000 1.03 40 08:40 28.10.2022
1249 Clear 29 1009 74 10000 2.06 50 05:40 28.10.2022
1250 Clouds 32 1005 62 10000 2.06 0 23:50 27.10.2022
1251 Clouds 32 1005 62 10000 2.06 0 23:22 27.10.2022
1252 Clouds 33 1006 58 10000 4.12 40 21:56 27.10.2022
1253 Clouds 34 1007 55 10000 3.09 30 20:32 27.10.2022
1254 Clouds 33 1009 55 10000 4.12 60 18:23 27.10.2022
1255 Clouds 29 1011 79 10000 4.12 10 15:42 27.10.2022
1256 Clear 26 1008 83 10000 2.57 50 11:33 27.10.2022
1257 Clear 27 1008 83 10000 1.54 50 07:31 27.10.2022
1258 Rain 30 1007 66 10000 2.06 80 00:22 27.10.2022
1259 Rain 31 1006 62 10000 3.09 20 23:49 26.10.2022
1260 Rain 31 1006 66 10000 1.54 80 22:38 26.10.2022
1261 Clouds 32 1007 58 10000 3.09 40 20:46 26.10.2022
1262 Clouds 32 1011 58 10000 2.06 0 17:36 26.10.2022
1263 Clouds 27 1011 89 10000 1.03 70 14:53 26.10.2022
1264 Clouds 24 1009 100 10000 1.54 80 12:52 26.10.2022
1265 Clouds 24 1009 100 10000 1.54 80 12:18 26.10.2022
1266 Clouds 24 1009 94 10000 1.03 150 09:19 26.10.2022
1267 Clouds 24 1009 100 10000 1.54 90 08:51 26.10.2022
1268 Clouds 26 1007 89 9000 2.06 70 00:51 26.10.2022
1269 Clouds 26 1007 89 9000 2.06 70 00:30 26.10.2022
1270 Rain 27 1007 89 10000 1.03 340 22:23 25.10.2022
1271 Rain 26 1007 94 10000 2.06 240 21:44 25.10.2022
1272 Clouds 26 1010 94 10000 1.03 0 20:27 25.10.2022
1273 Thunderstorm 25 1012 94 1000 6.17 110 18:52 25.10.2022
1274 Clouds 28 1014 78 10000 4.12 260 16:30 25.10.2022
1275 Clouds 27 1010 89 10000 3.6 280 11:41 25.10.2022
1276 Clouds 26 1009 89 10000 4.12 280 10:46 25.10.2022
1277 Clouds 26 1009 89 10000 4.12 280 10:46 25.10.2022
1278 Clouds 26 1009 89 10000 4.12 280 10:28 25.10.2022
1279 Rain 27 1010 78 10000 2.57 290 08:38 25.10.2022
1280 Clear 27 1010 78 10000 2.57 290 08:18 25.10.2022
1281 Clear 24 1010 100 10000 1.03 290 07:44 25.10.2022
1282 Clear 28 1010 69 10000 2.57 300 06:41 25.10.2022
1283 Clear 28 1010 74 10000 2.06 300 03:25 25.10.2022
1284 Rain 28 1008 74 10000 2.57 320 00:32 25.10.2022
1285 Thunderstorm 29 1007 74 10000 3.09 340 22:26 24.10.2022
1286 Thunderstorm 32 1007 66 10000 9.77 50 21:34 24.10.2022
1287 Clouds 32 1008 62 10000 3.09 260 20:44 24.10.2022
1288 Clouds 32 1008 62 10000 3.09 260 20:19 24.10.2022
1289 Rain 32 1012 66 10000 2.57 190 17:53 24.10.2022
1290 Clouds 31 1013 70 9000 2.06 200 16:54 24.10.2022
1291 Clouds 29 1012 79 8000 1.03 0 14:50 24.10.2022
1292 Clear 27 1012 89 10000 1.03 210 13:53 24.10.2022
1293 Clouds 25 1010 82 10000 0.93 134 12:18 24.10.2022
1294 Clear 26 1010 94 10000 0 0 08:51 24.10.2022
1295 Clouds 30 1007 70 10000 3.09 80 00:58 24.10.2022
1296 Clouds 32 1008 62 10000 5.14 70 21:43 23.10.2022
1297 Clouds 32 1007 55 10000 0.93 212 20:21 23.10.2022
1298 Clouds 31 1010 59 10000 1.05 132 18:26 23.10.2022
1299 Clouds 31 1011 59 10000 1.86 131 17:27 23.10.2022
1300 Clouds 29 1012 67 10000 2.08 120 15:22 23.10.2022
1301 Clouds 26 1011 80 10000 1.77 122 13:24 23.10.2022
1302 Clouds 24 1009 89 10000 1.46 134 11:21 23.10.2022
1303 Clouds 25 1009 94 10000 1.54 190 08:59 23.10.2022
1304 Clouds 26 1009 89 10000 2.57 70 00:33 23.10.2022
1305 Clouds 31 1006 62 10000 1.19 74 22:32 22.10.2022
1306 Rain 27 1009 83 10000 1.54 160 21:42 22.10.2022
1307 Rain 27 1010 83 10000 0.51 0 20:55 22.10.2022
1308 Rain 26 1010 89 10000 1.03 180 19:45 22.10.2022
1309 Rain 31 1008 58 10000 1.08 303 19:24 22.10.2022
1310 Rain 25 1014 88 10000 1.54 100 17:37 22.10.2022
1311 Rain 25 1014 88 10000 1.54 100 17:37 22.10.2022
1312 Thunderstorm 24 1013 94 10000 1.54 220 15:57 22.10.2022
1313 Rain 25 1012 88 10000 3.6 150 14:42 22.10.2022
1314 Rain 26 1011 94 10000 1.54 200 13:45 22.10.2022
1315 Rain 25 1007 81 10000 1.23 149 10:25 22.10.2022
1316 Clouds 26 1009 94 10000 1.03 150 09:36 22.10.2022
1317 Clouds 27 1009 89 10000 1.54 240 07:58 22.10.2022
1318 Clear 29 1007 79 10000 1.54 250 02:59 22.10.2022
1319 Clouds 31 1005 66 10000 3.09 280 23:49 21.10.2022
1320 Clouds 34 1005 49 10000 2.06 200 21:35 21.10.2022
1321 Clouds 33 1007 52 10000 2.06 0 20:57 21.10.2022
1322 Clouds 32 1007 52 10000 1.2 86 19:26 21.10.2022
1323 Clouds 31 1012 70 10000 2.57 30 16:51 21.10.2022
1324 Clouds 26 1011 89 10000 1.54 230 13:57 21.10.2022
1325 Clouds 25 1010 94 10000 1.03 200 12:57 21.10.2022
1326 Rain 26 1009 89 10000 1.03 220 10:59 21.10.2022
1327 Rain 25 1008 94 10000 0.51 210 09:49 21.10.2022
1328 Clear 26 1009 83 10000 0.51 90 08:38 21.10.2022
1329 Clouds 25 1008 87 10000 1.21 26 07:26 21.10.2022
1330 Clouds 29 1007 66 10000 1.66 58 00:28 21.10.2022
1331 Rain 31 1006 57 10000 2.23 89 22:23 20.10.2022
1332 Clouds 32 1008 62 10000 4.12 10 20:37 20.10.2022
1333 Clouds 33 1009 58 10000 4.12 360 19:35 20.10.2022
1334 Clouds 31 1012 66 10000 3.6 30 17:52 20.10.2022
1335 Clouds 29 1012 74 10000 3.09 330 16:56 20.10.2022
1336 Clouds 25 1010 88 10000 1.54 290 12:36 20.10.2022
1337 Clouds 25 1010 88 10000 1.54 290 12:18 20.10.2022
1338 Fog 26 1009 83 10000 1.54 340 10:59 20.10.2022
1339 Fog 26 1009 83 10000 1.54 340 10:27 20.10.2022
1340 Clouds 25 1011 88 10000 2.06 210 07:45 20.10.2022
1341 Rain 26 1013 89 10000 2.06 140 05:18 20.10.2022
1342 Rain 27 1009 78 10000 1.54 300 00:58 20.10.2022
1343 Rain 27 1008 78 10000 5.14 360 22:45 19.10.2022
1344 Rain 26 1008 83 10000 4.12 360 21:55 19.10.2022
1345 Clouds 33 1008 58 10000 3.6 60 20:52 19.10.2022
1346 Clouds 33 1011 55 10000 3.09 0 18:36 19.10.2022
1347 Clouds 32 1013 62 10000 2.06 0 17:37 19.10.2022
1348 Clouds 29 1014 74 10000 2.57 50 15:23 19.10.2022
1349 Clouds 26 1012 89 10000 1.54 160 12:49 19.10.2022
1350 Clear 26 1010 94 10000 0 0 09:34 19.10.2022
1351 Clear 27 1011 89 10000 0.51 330 08:28 19.10.2022
1352 Clear 27 1012 83 10000 2.06 180 04:56 19.10.2022
1353 Thunderstorm 30 1008 66 10000 4.63 70 00:59 19.10.2022
1354 Clouds 31 1007 66 10000 2.57 170 22:53 18.10.2022
1355 Clouds 32 1008 62 10000 3.6 160 21:38 18.10.2022
1356 Clouds 34 1009 55 10000 2.57 0 20:44 18.10.2022
1357 Clouds 33 1010 58 10000 3.09 10 19:28 18.10.2022
1358 Clouds 31 1012 70 10000 2.57 20 17:31 18.10.2022
1359 Clouds 29 1013 79 10000 1.54 50 16:20 18.10.2022
1360 Clouds 26 1013 89 10000 1.03 0 14:19 18.10.2022
1361 Clouds 24 1011 100 10000 0 0 12:30 18.10.2022
1362 Clouds 24 1011 94 10000 1.03 40 11:20 18.10.2022
1363 Rain 24 1010 100 10000 0 0 09:27 18.10.2022
1364 Rain 25 1011 94 10000 1.03 230 07:43 18.10.2022
1365 Rain 24 1010 94 10000 1.03 80 01:57 18.10.2022
1366 Rain 25 1009 94 9000 2.06 80 22:19 17.10.2022
1367 Thunderstorm 25 1010 88 9000 2.06 300 20:51 17.10.2022
1368 Thunderstorm 25 1010 88 9000 2.06 300 20:30 17.10.2022
1369 Thunderstorm 25 1010 88 9000 2.06 300 20:30 17.10.2022
1370 Thunderstorm 24 1010 94 5000 3.6 30 19:51 17.10.2022
1371 Clouds 28 1011 74 9000 6.69 360 18:42 17.10.2022
1372 Clouds 29 1012 74 10000 2.57 240 16:39 17.10.2022
1373 Clouds 27 1012 83 10000 1.54 220 15:29 17.10.2022
1374 Clouds 27 1012 83 10000 2.57 190 14:34 17.10.2022
1375 Clouds 26 1009 94 10000 2.57 230 10:29 17.10.2022
1376 Clouds 28 1011 78 10000 1.03 360 03:58 17.10.2022
1377 Clouds 31 1007 62 10000 2.06 70 23:30 16.10.2022
1378 Clouds 31 1007 62 10000 2.06 170 21:47 16.10.2022
1379 Clouds 31 1008 62 10000 2.57 70 20:41 16.10.2022
1380 Rain 31 1010 66 10000 4.12 60 19:46 16.10.2022
1381 Clouds 29 1012 74 10000 3.09 80 17:51 16.10.2022
1382 Rain 27 1013 83 10000 2.57 60 16:33 16.10.2022
1383 Clouds 27 1013 78 10000 2.57 60 15:57 16.10.2022
1384 Clouds 26 1012 83 10000 2.06 120 14:26 16.10.2022
1385 Clouds 24 1011 94 10000 0.51 160 12:21 16.10.2022
1386 Clouds 24 1010 94 10000 1.03 160 10:27 16.10.2022
1387 Clouds 24 1011 94 10000 0.51 160 08:36 16.10.2022
1388 Clouds 24 1009 83 10000 1.54 260 00:48 16.10.2022
1389 Rain 24 1010 83 10000 3.09 10 22:42 15.10.2022
1390 Rain 24 1011 88 10000 4.63 10 21:25 15.10.2022
1391 Thunderstorm 24 1012 94 7000 5.14 230 20:43 15.10.2022
1392 Rain 28 1012 78 5000 4.12 0 18:44 15.10.2022
1393 Clouds 30 1013 70 10000 1.54 190 15:49 15.10.2022
1394 Clouds 29 1013 67 10000 1.47 117 14:39 15.10.2022
1395 Clear 25 1011 88 10000 0 0 11:57 15.10.2022
1396 Clear 25 1010 94 10000 1.03 90 10:32 15.10.2022
1397 Clear 26 1011 94 10000 1.03 170 08:34 15.10.2022
1398 Clouds 29 1009 74 10000 1.03 50 02:35 15.10.2022
1399 Clouds 31 1008 66 10000 1.03 80 23:31 14.10.2022
1400 Clouds 30 1009 70 10000 1.54 310 22:23 14.10.2022
1401 Clouds 31 1010 62 10000 1.54 70 21:28 14.10.2022
1402 Clouds 30 1012 66 10000 3.09 100 19:44 14.10.2022
1403 Clouds 27 1014 78 10000 3.6 50 16:38 14.10.2022
1404 Clouds 24 1013 94 10000 2.06 170 13:27 14.10.2022
1405 Clouds 24 1012 94 10000 1.03 160 12:18 14.10.2022
1406 Clouds 24 1011 94 10000 2.06 160 09:31 14.10.2022
1407 Clouds 24 1012 94 10000 2.57 170 06:55 14.10.2022
1408 Clouds 24 1012 94 10000 2.57 170 06:18 14.10.2022
1409 Clouds 25 1012 94 10000 2.06 180 05:42 14.10.2022
1410 Rain 26 1010 83 10000 3.09 30 03:44 14.10.2022
1411 Rain 25 1010 83 10000 5.66 70 23:54 13.10.2022
1412 Rain 25 1009 83 10000 7.72 80 22:22 13.10.2022
1413 Rain 28 1009 69 10000 2.57 30 21:25 13.10.2022
1414 Thunderstorm 33 1009 55 10000 5.66 30 19:43 13.10.2022
1415 Clouds 33 1009 55 10000 2.57 170 19:18 13.10.2022
1416 Clouds 33 1010 55 10000 3.6 180 18:41 13.10.2022
1417 Clouds 30 1012 70 10000 2.06 0 16:31 13.10.2022
1418 Clear 28 1013 74 10000 2.06 0 15:43 13.10.2022
1419 Clear 28 1012 74 10000 1.54 180 14:18 13.10.2022
1420 Clear 25 1010 94 10000 1.03 0 12:45 13.10.2022
1421 Clear 25 1010 94 10000 0.51 160 11:34 13.10.2022
1422 Clear 26 1010 83 10000 1.03 100 09:21 13.10.2022
1423 Clear 26 1011 83 10000 2.57 90 07:39 13.10.2022
1424 Clouds 28 1011 78 10000 1.54 170 06:28 13.10.2022
1425 Clouds 29 1008 70 10000 3.6 270 01:47 13.10.2022
1426 Clouds 32 1007 55 10000 3.09 280 00:45 13.10.2022
1427 Thunderstorm 33 1007 52 10000 2.57 240 22:46 12.10.2022
1428 Clouds 33 1007 52 10000 2.06 210 21:51 12.10.2022
1429 Clouds 33 1007 52 10000 2.06 210 21:51 12.10.2022
1430 Clouds 33 1007 52 10000 2.06 210 21:20 12.10.2022
1431 Clouds 33 1008 52 10000 3.09 240 20:39 12.10.2022
1432 Clouds 33 1010 52 10000 3.09 200 19:24 12.10.2022
1433 Clouds 33 1011 55 10000 3.09 180 18:19 12.10.2022
1434 Clouds 32 1013 58 10000 2.57 160 17:43 12.10.2022
1435 Clouds 29 1013 74 10000 1.03 240 14:51 12.10.2022
1436 Clouds 29 1013 74 10000 1.03 240 13:54 12.10.2022
1437 Clear 25 1011 94 10000 1.03 250 11:56 12.10.2022
1438 Clear 25 1011 94 10000 1.03 220 09:36 12.10.2022
1439 Clouds 26 1011 89 10000 1.03 220 07:42 12.10.2022
1440 Rain 26 1012 89 10000 1.03 210 06:44 12.10.2022
1441 Rain 27 1012 83 10000 2.06 230 05:32 12.10.2022
1442 Clouds 28 1008 78 10000 1.54 260 00:32 12.10.2022
1443 Clouds 32 1011 58 10000 2.06 0 21:26 11.10.2022
1444 Clouds 33 1011 52 10000 2.57 320 20:32 11.10.2022
1445 Clouds 31 1013 62 10000 2.06 100 18:27 11.10.2022
1446 Clouds 28 1015 74 10000 3.09 60 16:27 11.10.2022
1447 Clouds 25 1014 88 10000 2.06 80 13:52 11.10.2022
1448 Clouds 24 1012 88 10000 3.09 40 11:32 11.10.2022
1449 Clear 24 1011 94 10000 3.09 30 10:27 11.10.2022
1450 Clear 25 1012 88 10000 2.57 10 08:46 11.10.2022
1451 Clear 26 1013 78 10000 1.54 40 05:25 11.10.2022
1452 Rain 26 1010 89 10000 3.6 50 01:52 11.10.2022
1453 Rain 26 1010 83 10000 5.14 60 00:23 11.10.2022
1454 Clouds 30 1010 70 10000 2.57 80 21:21 10.10.2022
1455 Rain 31 1012 58 10000 5.14 40 19:45 10.10.2022
1456 Rain 32 1012 55 10000 4.12 30 18:18 10.10.2022
1457 Clouds 30 1014 62 10000 5.66 60 16:39 10.10.2022
1458 Clouds 29 1013 65 10000 5.66 60 14:46 10.10.2022
1459 Clear 28 1010 65 10000 2.06 360 12:24 10.10.2022
1460 Clear 29 1009 65 10000 1.54 310 10:57 10.10.2022
1461 Clear 29 1010 61 10000 1.54 310 07:47 10.10.2022
1462 Clear 29 1011 61 10000 1.03 10 05:38 10.10.2022
1463 Clear 31 1008 55 10000 1.54 20 02:42 10.10.2022
1464 Clear 32 1007 48 10000 2.06 80 00:24 10.10.2022
1465 Clouds 35 1007 41 10000 2.57 350 22:27 09.10.2022
1466 Clouds 35 1007 41 10000 2.06 10 21:49 09.10.2022
1467 Clouds 36 1008 38 10000 3.09 20 20:50 09.10.2022
1468 Clouds 36 1008 38 10000 3.09 20 19:53 09.10.2022
1469 Clouds 36 1009 41 10000 3.09 40 19:20 09.10.2022
1470 Clouds 35 1010 43 10000 3.09 40 18:27 09.10.2022
1471 Clouds 34 1011 52 10000 3.09 50 16:56 09.10.2022
1472 Clear 34 1012 52 10000 3.6 40 16:24 09.10.2022
1473 Clouds 32 1012 51 10000 4.12 60 15:33 09.10.2022
1474 Clouds 30 1012 58 10000 2.57 60 14:28 09.10.2022
1475 Clouds 27 1010 65 10000 1.54 30 12:54 09.10.2022
1476 Clear 27 1009 65 10000 1.54 360 11:32 09.10.2022
1477 Clear 28 1008 61 10000 2.57 40 09:40 09.10.2022
1478 Clear 29 1008 65 10000 2.57 70 07:52 09.10.2022
1479 Clear 30 1008 62 10000 2.06 80 03:32 09.10.2022
1480 Clear 31 1007 55 10000 3.09 70 02:23 09.10.2022
1481 Clouds 31 1006 58 10000 2.06 30 23:56 08.10.2022
1482 Clouds 36 1006 38 10000 3.09 10 22:52 08.10.2022
1483 Clouds 36 1006 38 10000 3.6 50 21:18 08.10.2022
1484 Clouds 35 1007 43 10000 2.57 0 19:56 08.10.2022
1485 Clouds 35 1009 46 10000 4.63 360 18:22 08.10.2022
1486 Clouds 32 1011 58 10000 7.72 60 15:50 08.10.2022
1487 Clear 30 1011 62 10000 4.63 50 14:24 08.10.2022
1488 Clouds 27 1009 78 10000 2.57 80 12:31 08.10.2022
1489 Clear 28 1008 65 10000 2.06 60 10:36 08.10.2022
1490 Clear 28 1008 65 10000 1.54 60 09:50 08.10.2022
1491 Clear 29 1009 65 10000 3.6 50 07:50 08.10.2022
1492 Clouds 31 1009 58 10000 3.6 60 02:53 08.10.2022
1493 Clouds 32 1007 58 10000 3.09 80 00:32 08.10.2022
1494 Clouds 34 1015 49 10000 4.63 40 23:20 07.10.2022
1495 Clouds 35 1006 43 10000 4.12 30 22:24 07.10.2022
1496 Clouds 35 1008 43 10000 2.57 0 20:42 07.10.2022
1497 Clouds 36 1009 44 10000 3.6 30 19:18 07.10.2022
1498 Clouds 34 1012 52 10000 5.14 40 16:59 07.10.2022
1499 Clouds 33 1012 55 10000 4.12 30 15:56 07.10.2022
1500 Clear 30 1012 62 10000 2.57 70 14:44 07.10.2022
1501 Clear 27 1010 65 10000 2.57 50 12:25 07.10.2022
1502 Clear 28 1008 65 10000 2.06 60 09:28 07.10.2022
1503 Clear 28 1008 65 10000 2.06 60 08:56 07.10.2022
1504 Clear 30 1010 54 10000 3.09 70 06:23 07.10.2022
1505 Clouds 33 1006 43 10000 2.57 30 00:46 07.10.2022
1506 Clouds 36 1006 36 10000 4.63 40 22:50 06.10.2022
1507 Clouds 36 1007 44 10000 4.63 20 21:44 06.10.2022
1508 Clouds 36 1007 44 10000 4.63 20 21:22 06.10.2022
1509 Clouds 35 1009 49 10000 4.12 20 19:50 06.10.2022
1510 Clouds 35 1010 49 10000 4.12 0 18:37 06.10.2022
1511 Clouds 34 1011 52 10000 4.12 50 17:50 06.10.2022
1512 Clear 30 1011 66 10000 3.09 70 14:24 06.10.2022
1513 Clear 27 1009 74 10000 1.54 70 11:30 06.10.2022
1514 Clear 28 1009 74 10000 2.06 70 06:53 06.10.2022
1515 Clouds 29 1009 74 10000 2.06 80 03:34 06.10.2022
1516 Clouds 33 1007 55 10000 3.6 60 23:20 05.10.2022
1517 Clouds 34 1009 52 10000 5.14 50 19:58 05.10.2022
1518 Clouds 33 1010 55 10000 3.6 0 18:42 05.10.2022
1519 Clouds 33 1011 52 10000 3.6 30 17:34 05.10.2022
1520 Clear 32 1012 55 10000 2.57 50 15:54 05.10.2022
1521 Clear 29 1011 65 10000 3.09 50 14:47 05.10.2022
1522 Clear 29 1011 65 10000 3.09 50 13:54 05.10.2022
1523 Clear 25 1009 83 10000 2.06 40 12:20 05.10.2022
1524 Clear 27 1008 78 10000 2.06 70 08:53 05.10.2022
1525 Clear 27 1009 78 10000 2.06 60 07:35 05.10.2022
1526 Clear 28 1010 69 10000 2.06 60 05:35 05.10.2022
1527 Clouds 29 1009 74 10000 1.54 80 02:47 05.10.2022
1528 Clouds 30 1008 66 10000 2.06 80 00:41 05.10.2022
1529 Clouds 30 1008 66 10000 2.06 80 00:23 05.10.2022
1530 Clouds 33 1008 55 10000 2.57 180 22:22 04.10.2022
1531 Clouds 33 1009 55 10000 3.09 180 20:31 04.10.2022
1532 Clouds 32 1011 58 10000 2.57 180 18:58 04.10.2022
1533 Clouds 32 1012 55 10000 1.54 150 18:35 04.10.2022
1534 Clouds 30 1013 66 10000 2.57 210 17:43 04.10.2022
1535 Clouds 29 1014 70 10000 2.06 210 16:28 04.10.2022
1536 Mist 23 1011 94 10000 1.03 10 12:41 04.10.2022
1537 Clouds 24 1011 88 10000 1.03 250 08:52 04.10.2022
1538 Rain 24 1012 94 10000 1.03 210 06:28 04.10.2022
1539 Clouds 24 1011 88 10000 1.54 320 01:28 04.10.2022
1540 Rain 25 1010 83 10000 1.54 260 23:37 03.10.2022
1541 Rain 25 1011 83 10000 2.57 290 21:52 03.10.2022
1542 Drizzle 24 1012 94 10000 3.09 280 20:52 03.10.2022
1543 Thunderstorm 23 1015 94 8000 2.06 280 18:57 03.10.2022
1544 Thunderstorm 23 1017 94 8000 2.06 40 17:48 03.10.2022
1545 Rain 22 1017 94 3000 5.66 10 16:41 03.10.2022
1546 Thunderstorm 25 1017 94 2000 6.17 340 15:27 03.10.2022
1547 Thunderstorm 26 1014 94 10000 3.09 310 13:44 03.10.2022
1548 Thunderstorm 26 1013 94 9000 3.09 300 12:20 03.10.2022
1549 Thunderstorm 27 1012 83 5000 3.09 270 10:38 03.10.2022
1550 Clouds 27 1012 89 10000 3.09 250 09:33 03.10.2022
1551 Rain 28 1014 83 10000 1.54 250 04:51 03.10.2022
1552 Rain 28 1012 78 10000 1.03 200 02:27 03.10.2022
1553 Clouds 32 1010 55 10000 4.12 270 22:24 02.10.2022
1554 Clouds 32 1012 55 10000 4.12 260 20:32 02.10.2022
1555 Clouds 31 1014 62 10000 3.6 270 18:30 02.10.2022
1556 Clouds 30 1015 62 10000 4.63 260 17:32 02.10.2022
1557 Clear 28 1016 69 10000 4.63 250 16:33 02.10.2022
1558 Clouds 28 1016 69 10000 3.6 260 15:40 02.10.2022
1559 Clouds 25 1015 83 10000 2.57 350 13:51 02.10.2022
1560 Clouds 25 1013 88 10000 1.03 290 12:48 02.10.2022
1561 Clouds 25 1013 88 10000 1.03 290 12:24 02.10.2022
1562 Clouds 25 1013 88 10000 1.54 330 11:35 02.10.2022
1563 Clouds 25 1012 88 10000 3.09 260 10:36 02.10.2022
1564 Rain 25 1012 88 10000 3.09 290 08:40 02.10.2022
1565 Clouds 25 1013 88 10000 3.09 190 06:38 02.10.2022
1566 Clouds 25 1013 94 10000 3.6 180 02:54 02.10.2022
1567 Clouds 28 1010 78 10000 4.12 180 00:45 02.10.2022
1568 Rain 30 1008 66 10000 3.6 40 23:42 01.10.2022
1569 Rain 33 1009 55 10000 4.63 60 22:31 01.10.2022
1570 Rain 33 1010 55 10000 2.57 80 19:58 01.10.2022
1571 Clouds 31 1013 66 10000 3.09 80 17:46 01.10.2022
1572 Clear 30 1013 74 9000 4.12 90 16:28 01.10.2022
1573 Clear 28 1012 78 8000 1.54 90 14:19 01.10.2022
1574 Clear 25 1011 88 6000 1.03 90 12:35 01.10.2022
1575 Clear 24 1010 94 10000 1.03 170 11:57 01.10.2022
1576 Clear 24 1010 94 10000 1.54 110 11:18 01.10.2022
1577 Clear 24 1010 94 10000 1.03 170 10:30 01.10.2022
1578 Clear 24 1010 94 10000 1.03 170 10:30 01.10.2022
1579 Clear 24 1009 94 10000 2.57 80 09:26 01.10.2022
1580 Clear 24 1010 94 10000 1.54 100 08:40 01.10.2022
1581 Thunderstorm 25 1010 88 10000 2.06 80 03:52 01.10.2022
1582 Thunderstorm 25 1010 88 10000 2.06 80 03:24 01.10.2022
1583 Clouds 34 1006 46 10000 2.57 350 23:30 30.09.2022
1584 Clouds 35 1007 43 10000 4.12 70 22:19 30.09.2022
1585 Clouds 35 1007 43 10000 4.12 80 21:22 30.09.2022
1586 Clouds 35 1008 46 10000 4.12 50 20:42 30.09.2022
1587 Clouds 34 1009 49 10000 4.63 40 19:30 30.09.2022
1588 Clouds 32 1011 62 8000 3.09 70 16:58 30.09.2022
1589 Clouds 28 1012 74 8000 1.54 160 14:49 30.09.2022
1590 Clouds 27 1012 78 8000 2.06 160 13:24 30.09.2022
1591 Clouds 26 1010 83 6000 1.54 170 11:56 30.09.2022
1592 Clear 27 1009 78 8000 1.03 100 09:45 30.09.2022
1593 Clear 28 1008 74 10000 2.06 70 08:19 30.09.2022
1594 Clear 30 1010 66 10000 2.57 60 04:21 30.09.2022
1595 Clear 31 1008 58 10000 4.12 70 02:22 30.09.2022
1596 Clouds 36 1006 38 10000 3.09 30 22:23 29.09.2022
1597 Clouds 36 1006 38 10000 3.09 30 21:25 29.09.2022
1598 Clouds 36 1008 38 10000 3.6 30 19:58 29.09.2022
1599 Clouds 36 1010 41 10000 3.6 20 18:30 29.09.2022
1600 Clouds 36 1010 41 10000 3.6 20 18:30 29.09.2022
1601 Clear 34 1011 46 10000 3.6 60 16:29 29.09.2022
1602 Clear 33 1011 49 10000 3.09 50 15:37 29.09.2022
1603 Clear 33 1011 49 10000 3.09 50 14:59 29.09.2022
1604 Clear 28 1010 74 10000 1.54 360 12:45 29.09.2022
1605 Clear 29 1008 61 10000 2.06 10 08:51 29.09.2022
1606 Clear 29 1010 70 10000 1.54 80 05:35 29.09.2022
1607 Clear 31 1008 58 10000 1.03 80 02:37 29.09.2022
1608 Clouds 34 1007 49 10000 2.06 20 23:29 28.09.2022
1609 Clouds 36 1006 41 10000 2.57 10 22:22 28.09.2022
1610 Clouds 36 1007 38 10000 3.6 50 21:25 28.09.2022
1611 Clouds 36 1009 38 10000 3.6 20 19:57 28.09.2022
1612 Clouds 33 1012 52 10000 4.63 60 16:52 28.09.2022
1613 Clear 31 1011 58 10000 3.6 60 14:35 28.09.2022
1614 Clear 27 1009 78 10000 2.06 40 11:49 28.09.2022
1615 Clear 28 1009 69 10000 2.06 60 09:49 28.09.2022
1616 Clear 28 1011 78 10000 1.03 30 07:53 28.09.2022
1617 Clear 28 1011 78 10000 2.06 70 06:27 28.09.2022
1618 Clear 31 1008 58 10000 1.54 80 01:47 28.09.2022
1619 Clear 31 1008 58 10000 1.54 80 01:25 28.09.2022
1620 Clouds 35 1008 46 10000 1.54 0 22:49 27.09.2022
1621 Clouds 35 1009 49 10000 3.6 50 21:20 27.09.2022
1622 Clouds 35 1010 49 10000 3.09 40 20:35 27.09.2022
1623 Clouds 34 1011 49 10000 3.6 70 19:45 27.09.2022
1624 Clouds 33 1013 52 10000 4.63 70 17:47 27.09.2022
1625 Clouds 33 1013 52 10000 4.63 70 17:29 27.09.2022
1626 Clouds 32 1014 55 10000 3.6 40 15:18 27.09.2022
1627 Clear 30 1013 66 10000 2.57 30 14:21 27.09.2022
1628 Clear 26 1012 83 10000 2.06 30 12:39 27.09.2022
1629 Clear 26 1012 83 10000 2.06 30 12:39 27.09.2022
1630 Clear 27 1011 78 10000 1.54 20 10:45 27.09.2022
1631 Clear 27 1010 78 10000 2.06 30 08:36 27.09.2022
1632 Clear 28 1011 74 10000 2.06 280 05:22 27.09.2022
1633 Clouds 30 1008 62 10000 2.06 30 01:40 27.09.2022
1634 Clouds 30 1008 58 10000 3.09 30 00:23 27.09.2022
1635 Clouds 33 1008 52 10000 3.09 70 23:24 26.09.2022
1636 Clouds 35 1008 49 10000 3.6 10 21:35 26.09.2022
1637 Clouds 35 1009 46 10000 4.12 30 20:18 26.09.2022
1638 Clear 34 1010 49 10000 4.63 20 19:19 26.09.2022
1639 Clear 31 1012 58 10000 5.14 50 17:26 26.09.2022
1640 Clear 29 1013 61 10000 4.63 90 15:25 26.09.2022
1641 Clear 24 1011 83 10000 2.57 80 12:31 26.09.2022
1642 Clear 26 1010 78 10000 3.6 100 10:44 26.09.2022
1643 Clear 26 1010 78 10000 3.6 100 10:23 26.09.2022
1644 Clear 26 1010 78 10000 3.6 100 09:59 26.09.2022
1645 Clear 26 1010 78 10000 4.63 100 09:41 26.09.2022
1646 Clear 26 1010 78 10000 4.63 100 09:20 26.09.2022
1647 Clear 28 1011 69 10000 2.06 40 05:30 26.09.2022
1648 Clear 29 1009 74 10000 1.54 90 02:35 26.09.2022
1649 Clouds 34 1007 52 10000 2.06 180 23:24 25.09.2022
1650 Clouds 35 1007 41 10000 2.57 150 21:47 25.09.2022
1651 Clouds 35 1007 41 10000 2.57 150 21:25 25.09.2022
1652 Clouds 35 1008 46 10000 3.09 160 20:36 25.09.2022
1653 Clouds 35 1010 49 10000 3.6 230 18:55 25.09.2022
1654 Clouds 35 1011 49 10000 3.6 230 18:24 25.09.2022
1655 Clouds 34 1011 49 9000 1.54 160 17:24 25.09.2022
1656 Clouds 31 1012 62 8000 1.54 170 16:21 25.09.2022
1657 Clear 30 1011 70 6000 1.54 250 14:49 25.09.2022
1658 Clouds 30 1011 70 6000 1.54 250 14:18 25.09.2022
1659 Clear 25 1010 88 10000 0 0 11:34 25.09.2022
1660 Clear 26 1009 94 10000 1.03 310 09:44 25.09.2022
1661 Clear 26 1009 89 10000 1.03 300 07:42 25.09.2022
1662 Clear 28 1010 74 10000 1.03 290 05:22 25.09.2022
1663 Clouds 34 1007 46 10000 1.03 90 23:37 24.09.2022
1664 Clouds 36 1008 44 10000 2.06 80 21:20 24.09.2022
1665 Clouds 35 1010 43 10000 2.57 190 19:45 24.09.2022
1666 Clouds 35 1010 43 10000 2.57 190 19:20 24.09.2022
1667 Clouds 31 1013 66 9000 3.09 180 16:51 24.09.2022
1668 Clear 31 1013 70 8000 1.54 170 15:23 24.09.2022
1669 Clear 31 1013 70 8000 1.54 170 15:23 24.09.2022
1670 Clear 29 1012 79 6000 2.06 170 14:36 24.09.2022
1671 Mist 28 1011 83 5000 1.03 170 13:18 24.09.2022
1672 Mist 27 1010 94 10000 1.03 180 12:22 24.09.2022
1673 Clear 26 1009 94 10000 0.51 150 09:59 24.09.2022
1674 Clear 27 1010 89 10000 0 0 08:56 24.09.2022
1675 Clear 28 1010 83 10000 0.51 30 07:41 24.09.2022
1676 Clear 27 1011 89 10000 1.03 60 04:52 24.09.2022
1677 Clear 27 1011 89 10000 1.03 60 04:19 24.09.2022
1678 Clouds 32 1008 62 10000 3.09 40 22:54 23.09.2022
1679 Clouds 33 1009 55 10000 3.09 10 21:33 23.09.2022
1680 Clouds 33 1009 55 10000 3.09 360 20:57 23.09.2022
1681 Clouds 34 1010 49 10000 3.09 80 20:37 23.09.2022
1682 Clouds 33 1011 58 10000 3.09 20 19:19 23.09.2022
1683 Clouds 29 1014 74 10000 2.57 230 15:31 23.09.2022
1684 Clouds 25 1011 94 10000 0 0 12:39 23.09.2022
1685 Clear 24 1010 94 10000 1.03 40 09:36 23.09.2022
1686 Clear 25 1011 94 10000 0 0 06:51 23.09.2022
1687 Clouds 29 1008 65 10000 1.54 360 00:42 23.09.2022
1688 Rain 29 1008 65 10000 2.06 30 23:23 22.09.2022
1689 Rain 31 1007 58 10000 3.6 30 22:27 22.09.2022
1690 Clouds 34 1007 52 10000 1.03 0 21:19 22.09.2022
1691 Clouds 34 1009 55 10000 2.06 30 19:58 22.09.2022
1692 Clouds 33 1012 55 10000 3.6 80 17:41 22.09.2022
1693 Clear 28 1011 74 10000 1.03 360 13:38 22.09.2022
1694 Clear 27 1009 78 10000 2.57 10 10:37 22.09.2022
1695 Clear 27 1009 78 10000 2.57 10 10:37 22.09.2022
1696 Clear 28 1009 74 10000 3.09 20 08:58 22.09.2022
1697 Clear 29 1009 70 10000 2.06 330 07:27 22.09.2022
1698 Clear 31 1010 66 10000 2.06 290 04:36 22.09.2022
1699 Clouds 34 1006 46 10000 1.54 160 23:33 21.09.2022
1700 Clouds 33 1007 49 10000 2.06 0 21:52 21.09.2022
1701 Clouds 35 1008 46 10000 2.57 80 20:53 21.09.2022
1702 Clouds 31 1011 62 10000 2.06 230 17:51 21.09.2022
1703 Clouds 31 1011 62 10000 2.06 230 17:21 21.09.2022
1704 Clear 27 1011 69 10000 3.6 300 14:52 21.09.2022
1705 Clear 26 1011 69 10000 5.14 320 13:24 21.09.2022
1706 Clear 26 1009 69 10000 3.09 320 11:30 21.09.2022
1707 Clear 26 1008 69 10000 2.57 330 10:34 21.09.2022
1708 Clear 27 1009 74 10000 1.03 300 09:36 21.09.2022
1709 Clouds 27 1010 74 10000 3.09 320 07:58 21.09.2022
1710 Clouds 30 1009 66 10000 2.57 20 02:51 21.09.2022
1711 Clouds 30 1009 66 10000 2.57 20 02:32 21.09.2022
1712 Clouds 31 1008 66 10000 3.09 340 01:49 21.09.2022
1713 Clouds 34 1006 49 10000 3.09 170 23:19 20.09.2022
1714 Clouds 35 1007 46 10000 2.57 0 21:33 20.09.2022
1715 Clouds 35 1008 49 10000 2.57 160 19:57 20.09.2022
1716 Clouds 33 1011 58 10000 2.06 90 17:38 20.09.2022
1717 Clear 30 1011 70 10000 1.03 160 14:53 20.09.2022
1718 Clear 30 1011 70 10000 1.03 160 13:58 20.09.2022
1719 Clear 25 1009 94 10000 1.54 70 10:41 20.09.2022
1720 Clear 29 1009 74 10000 0 0 08:29 20.09.2022
1721 Clear 26 1009 94 10000 0.51 270 07:27 20.09.2022
1722 Clear 26 1010 94 10000 0 0 04:29 20.09.2022
1723 Clouds 30 1008 62 10000 2.57 70 23:49 19.09.2022
1724 Rain 34 1008 55 10000 2.57 190 22:29 19.09.2022
1725 Clouds 33 1009 58 10000 3.09 90 20:59 19.09.2022
1726 Clouds 33 1009 58 10000 3.09 90 20:39 19.09.2022
1727 Clouds 32 1011 58 10000 2.06 50 18:41 19.09.2022
1728 Clouds 29 1012 79 10000 2.06 150 15:56 19.09.2022
1729 Clouds 25 1011 94 10000 0.51 350 13:39 19.09.2022
1730 Clear 24 1009 94 10000 1.54 300 11:30 19.09.2022
1731 Clear 24 1009 94 10000 1.03 0 09:20 19.09.2022
1732 Clouds 24 1010 94 10000 1.03 0 08:20 19.09.2022
1733 Clouds 25 1011 88 10000 2.57 260 02:31 19.09.2022
1734 Rain 25 1009 83 10000 2.06 150 23:24 18.09.2022
1735 Rain 25 1010 83 10000 2.06 140 21:47 18.09.2022
1736 Rain 24 1010 94 9000 4.63 130 20:34 18.09.2022
1737 Clouds 29 1011 79 10000 5.14 250 18:41 18.09.2022
1738 Clouds 30 1012 70 10000 5.14 260 17:43 18.09.2022
1739 Clouds 30 1013 70 10000 4.63 270 16:31 18.09.2022
1740 Clouds 27 1011 83 10000 3.09 310 14:35 18.09.2022
1741 Clouds 26 1011 83 10000 2.57 330 12:55 18.09.2022
1742 Clouds 23 1010 94 10000 3.09 310 11:46 18.09.2022
1743 Clear 28 1010 83 10000 2.57 320 06:30 18.09.2022
1744 Rain 28 1009 78 10000 2.06 300 01:30 18.09.2022
1745 Rain 28 1008 74 10000 3.6 260 00:42 18.09.2022
1746 Rain 30 1007 70 10000 2.06 310 21:54 17.09.2022
1747 Thunderstorm 30 1008 66 10000 3.09 0 20:48 17.09.2022
1748 Clouds 34 1009 59 10000 3.6 180 19:19 17.09.2022
1749 Clouds 33 1012 62 10000 3.6 0 17:19 17.09.2022
1750 Clear 29 1012 79 10000 1.54 170 13:59 17.09.2022
1751 Rain 26 1010 89 10000 1.03 80 12:29 17.09.2022
1752 Rain 26 1010 94 10000 1.03 190 10:28 17.09.2022
1753 Clear 27 1011 83 10000 1.03 160 06:28 17.09.2022
1754 Clear 30 1010 70 10000 2.06 280 02:43 17.09.2022
1755 Clear 32 1009 58 10000 1.03 0 23:23 16.09.2022
1756 Clouds 33 1009 55 10000 2.57 200 21:33 16.09.2022
1757 Clouds 33 1010 55 10000 2.57 200 20:41 16.09.2022
1758 Clouds 31 1012 66 10000 3.09 80 18:18 16.09.2022
1759 Clear 28 1013 78 10000 2.06 180 15:57 16.09.2022
1760 Clear 27 1013 83 10000 2.06 180 14:32 16.09.2022
1761 Clear 27 1011 83 10000 1.03 200 12:31 16.09.2022
1762 Clouds 28 1011 74 10000 2.06 210 09:34 16.09.2022
1763 Clear 27 1011 83 10000 1.03 230 07:21 16.09.2022
1764 Clear 28 1012 83 10000 1.54 250 06:47 16.09.2022
1765 Clear 28 1012 83 10000 1.03 240 04:42 16.09.2022
1766 Clouds 33 1009 52 10000 2.57 70 23:50 15.09.2022
1767 Clouds 36 1009 41 10000 5.14 350 21:24 15.09.2022
1768 Clouds 35 1010 46 10000 5.14 70 20:25 15.09.2022
1769 Clouds 34 1012 52 10000 3.6 80 18:53 15.09.2022
1770 Clouds 34 1013 59 10000 5.66 70 17:33 15.09.2022
1771 Clouds 34 1013 59 10000 5.66 70 16:54 15.09.2022
1772 Clouds 29 1013 79 10000 1.54 100 14:42 15.09.2022
1773 Clear 25 1012 94 10000 0 0 12:48 15.09.2022
1774 Clear 25 1011 94 10000 0 0 10:34 15.09.2022
1775 Clear 25 1011 94 10000 0 0 08:57 15.09.2022
1776 Clear 29 1011 74 10000 3.09 60 04:24 15.09.2022
1777 Clouds 30 1009 70 10000 1.54 80 01:57 15.09.2022
1778 Clouds 34 1008 52 10000 2.57 360 22:26 14.09.2022
1779 Clouds 33 1011 58 10000 4.12 360 19:59 14.09.2022
1780 Clouds 33 1011 58 10000 3.09 360 19:26 14.09.2022
1781 Clouds 33 1013 55 10000 2.57 20 17:25 14.09.2022
1782 Clouds 32 1013 58 10000 2.06 0 15:56 14.09.2022
1783 Clear 28 1013 78 10000 2.06 50 14:34 14.09.2022
1784 Clear 24 1011 88 10000 0.51 130 11:40 14.09.2022
1785 Clear 24 1010 94 10000 1.54 300 09:48 14.09.2022
1786 Clear 25 1011 94 10000 1.03 0 07:39 14.09.2022
1787 Clear 25 1012 88 10000 0 0 06:47 14.09.2022
1788 Clear 27 1012 78 10000 2.06 70 04:33 14.09.2022
1789 Clouds 28 1010 74 10000 2.06 50 01:48 14.09.2022
1790 Clouds 28 1010 74 10000 2.06 50 01:27 14.09.2022
1791 Clouds 28 1009 74 10000 1.54 90 00:50 14.09.2022
1792 Clouds 30 1008 66 10000 1.54 80 23:54 13.09.2022
1793 Clouds 30 1008 66 10000 1.54 80 23:36 13.09.2022
1794 Clouds 30 1008 66 10000 1.54 80 23:18 13.09.2022
1795 Clouds 30 1008 62 10000 1.54 90 22:20 13.09.2022
1796 Clouds 29 1012 65 10000 1.54 360 19:52 13.09.2022
1797 Clouds 30 1013 58 10000 2.06 230 18:18 13.09.2022
1798 Clouds 28 1014 61 10000 2.57 310 15:55 13.09.2022
1799 Clouds 24 1013 83 10000 3.6 340 14:36 13.09.2022
1800 Clouds 24 1013 83 10000 3.6 340 14:36 13.09.2022
1801 Clouds 24 1012 83 10000 3.6 340 13:20 13.09.2022
1802 Rain 23 1011 94 10000 2.06 140 09:23 13.09.2022
1803 Rain 27 1011 74 10000 3.09 60 06:24 13.09.2022
1804 Clouds 30 1008 66 10000 3.09 320 00:22 13.09.2022
1805 Rain 30 1007 70 10000 3.6 260 22:50 12.09.2022
1806 Clouds 30 1007 70 10000 3.6 260 21:55 12.09.2022
1807 Clouds 31 1008 58 10000 2.06 360 20:25 12.09.2022
1808 Rain 32 1011 51 10000 3.09 310 18:44 12.09.2022
1809 Clouds 30 1012 74 10000 4.63 300 16:38 12.09.2022
1810 Clear 31 1012 62 10000 1.03 220 14:37 12.09.2022
1811 Clear 27 1010 83 10000 0 0 11:30 12.09.2022
1812 Clear 27 1010 83 10000 1.54 30 09:56 12.09.2022
1813 Clear 31 1012 55 10000 2.57 350 04:51 12.09.2022
1814 Clear 31 1012 55 10000 2.57 350 04:24 12.09.2022
1815 Clouds 34 1008 46 10000 2.57 220 23:34 11.09.2022
1816 Clouds 35 1009 43 10000 2.57 180 22:18 11.09.2022
1817 Clouds 36 1010 41 10000 3.09 0 20:48 11.09.2022
1818 Clouds 36 1010 41 10000 3.09 0 19:56 11.09.2022
1819 Clouds 36 1012 38 10000 3.09 180 19:23 11.09.2022
1820 Clouds 34 1013 43 10000 2.57 230 18:21 11.09.2022
1821 Clear 33 1014 52 10000 1.54 0 16:36 11.09.2022
1822 Clear 31 1014 62 10000 1.03 0 14:33 11.09.2022
1823 Clear 26 1013 83 10000 0.51 290 12:42 11.09.2022
1824 Clear 27 1013 89 10000 1.03 260 08:59 11.09.2022
1825 Clear 25 1013 94 10000 0 0 07:18 11.09.2022
1826 Clouds 31 1011 58 10000 1.54 70 00:50 11.09.2022
1827 Clouds 33 1011 52 10000 1.03 140 22:55 10.09.2022
1828 Clouds 35 1011 49 10000 2.06 10 21:25 10.09.2022
1829 Clouds 35 1013 49 10000 4.12 10 19:47 10.09.2022
1830 Clouds 35 1013 49 10000 4.12 10 19:29 10.09.2022
1831 Clouds 35 1014 49 10000 4.12 10 18:54 10.09.2022
1832 Clear 32 1015 58 10000 5.14 20 16:39 10.09.2022
1833 Clear 28 1014 74 10000 2.06 200 14:42 10.09.2022
1834 Clear 24 1012 88 10000 1.03 100 12:52 10.09.2022
1835 Clear 25 1011 83 10000 1.54 30 10:58 10.09.2022
1836 Clear 26 1011 78 10000 1.54 10 09:37 10.09.2022
1837 Clear 25 1012 88 10000 1.03 320 08:36 10.09.2022
1838 Clear 25 1013 83 10000 0.51 150 06:43 10.09.2022
1839 Clouds 28 1010 61 10000 4.63 40 00:40 10.09.2022
1840 Clouds 30 1010 58 10000 3.09 50 23:33 09.09.2022
1841 Thunderstorm 31 1009 55 10000 5.66 70 22:18 09.09.2022
1842 Clouds 33 1010 58 10000 3.6 50 20:46 09.09.2022
1843 Clouds 34 1012 55 10000 2.57 50 19:24 09.09.2022
1844 Clouds 33 1013 55 10000 4.63 40 18:46 09.09.2022
1845 Clouds 31 1014 66 10000 1.54 180 16:23 09.09.2022
1846 Clear 26 1012 83 10000 2.06 320 13:49 09.09.2022
1847 Clear 26 1011 83 10000 1.54 300 12:30 09.09.2022
1848 Clear 26 1010 83 10000 1.54 330 09:53 09.09.2022
1849 Rain 26 1012 83 10000 0 0 04:57 09.09.2022
1850 Clear 26 1011 89 10000 2.06 300 02:54 09.09.2022
1851 Rain 26 1009 78 10000 1.54 20 21:52 08.09.2022
1852 Rain 27 1010 78 10000 2.57 60 20:51 08.09.2022
1853 Clouds 27 1010 78 10000 2.57 60 20:31 08.09.2022
1854 Rain 26 1010 83 7000 3.6 40 19:49 08.09.2022
1855 Clouds 33 1013 55 10000 2.06 0 17:48 08.09.2022
1856 Clouds 30 1013 66 10000 2.06 200 16:19 08.09.2022
1857 Clear 29 1012 65 10000 1.54 320 14:40 08.09.2022
1858 Clear 27 1012 74 10000 2.57 340 13:23 08.09.2022
1859 Clear 26 1010 78 10000 3.09 320 11:37 08.09.2022
1860 Clear 26 1010 83 10000 3.09 340 10:48 08.09.2022
1861 Clear 27 1011 78 10000 3.09 320 07:57 08.09.2022
1862 Rain 28 1012 69 10000 2.06 340 06:41 08.09.2022
1863 Clouds 29 1011 74 10000 2.57 350 02:36 08.09.2022
1864 Clouds 29 1011 74 10000 2.57 350 02:18 08.09.2022
1865 Clouds 30 1010 70 10000 1.54 280 00:27 08.09.2022
1866 Clouds 32 1009 58 10000 2.06 270 22:36 07.09.2022
1867 Clouds 33 1010 58 10000 2.06 0 21:41 07.09.2022
1868 Clouds 32 1011 62 10000 1.54 0 20:38 07.09.2022
1869 Clouds 32 1012 62 10000 2.57 10 19:30 07.09.2022
1870 Clouds 30 1015 66 10000 4.12 40 17:22 07.09.2022
1871 Clear 24 1014 83 10000 1.03 130 12:41 07.09.2022
1872 Clear 24 1013 88 10000 1.03 110 10:45 07.09.2022
1873 Clear 26 1013 78 10000 1.54 350 08:33 07.09.2022
1874 Clear 25 1015 78 10000 2.06 70 06:51 07.09.2022
1875 Clouds 26 1014 78 10000 2.57 0 01:50 07.09.2022
1876 Clouds 31 1011 58 10000 5.14 350 22:35 06.09.2022
1877 Clouds 34 1011 55 10000 2.57 160 21:38 06.09.2022
1878 Clouds 33 1011 58 10000 2.06 180 19:57 06.09.2022
1879 Clouds 32 1014 66 10000 3.09 160 18:42 06.09.2022
1880 Clouds 32 1015 58 10000 2.06 220 17:51 06.09.2022
1881 Clouds 30 1016 70 10000 3.09 210 16:53 06.09.2022
1882 Clouds 30 1016 70 10000 3.09 210 16:26 06.09.2022
1883 Clouds 28 1015 78 9000 2.57 270 14:54 06.09.2022
1884 Clouds 26 1014 89 9000 2.57 240 13:44 06.09.2022
1885 Clouds 26 1014 89 9000 2.57 240 13:44 06.09.2022
1886 Clouds 26 1014 89 9000 2.57 240 13:20 06.09.2022
1887 Clear 26 1013 83 10000 1.54 270 10:57 06.09.2022
1888 Clear 27 1013 78 10000 2.57 250 09:56 06.09.2022
1889 Clear 26 1010 83 10000 1.03 150 08:27 06.09.2022
1890 Clouds 26 1014 83 10000 1.03 270 06:22 06.09.2022
1891 Clouds 28 1011 74 10000 2.57 220 01:23 06.09.2022
1892 Rain 30 1010 66 9000 2.06 160 23:19 05.09.2022
1893 Rain 35 1010 49 10000 2.57 190 21:39 05.09.2022
1894 Clouds 35 1011 49 10000 2.57 0 20:32 05.09.2022
1895 Clouds 34 1012 55 10000 2.57 0 18:53 05.09.2022
1896 Clouds 34 1013 55 10000 2.06 170 18:26 05.09.2022
1897 Clouds 34 1013 55 10000 2.06 170 17:57 05.09.2022
1898 Clouds 31 1014 66 9000 1.54 150 15:54 05.09.2022
1899 Clouds 29 1014 70 8000 1.54 250 14:48 05.09.2022
1900 Clear 26 1012 83 10000 1.54 20 12:53 05.09.2022
1901 Clear 28 1012 74 10000 1.54 330 11:21 05.09.2022
1902 Clear 27 1011 78 10000 1.54 340 08:58 05.09.2022
1903 Clear 28 1012 78 10000 0.51 260 05:20 05.09.2022
1904 Clear 29 1010 70 10000 1.03 70 01:19 05.09.2022
1905 Clouds 33 1008 52 10000 4.12 70 22:29 04.09.2022
1906 Clouds 33 1008 52 10000 4.12 70 21:59 04.09.2022
1907 Clouds 35 1010 52 10000 2.06 210 20:35 04.09.2022
1908 Clouds 34 1012 55 8000 2.06 330 18:39 04.09.2022
1909 Clouds 32 1013 58 8000 3.09 60 17:43 04.09.2022
1910 Clouds 30 1014 62 8000 3.09 30 16:24 04.09.2022
1911 Clouds 27 1013 78 8000 3.6 40 14:25 04.09.2022
1912 Mist 26 1011 83 10000 2.06 20 12:52 04.09.2022
1913 Clear 26 1010 83 10000 2.06 30 11:28 04.09.2022
1914 Clear 28 1010 74 10000 1.03 20 09:38 04.09.2022
1915 Clear 28 1011 83 10000 2.06 70 06:35 04.09.2022
1916 Clear 29 1010 74 10000 2.06 80 03:18 04.09.2022
1917 Clouds 33 1008 55 10000 3.6 70 22:56 03.09.2022
1918 Clouds 34 1009 52 10000 3.09 70 21:42 03.09.2022
1919 Clouds 34 1009 52 10000 3.09 70 21:22 03.09.2022
1920 Clouds 34 1012 49 10000 3.6 70 18:49 03.09.2022
1921 Clouds 33 1013 55 10000 4.12 40 17:22 03.09.2022
1922 Clear 31 1013 66 10000 2.06 40 15:54 03.09.2022
1923 Clouds 29 1013 74 10000 2.57 70 14:42 03.09.2022
1924 Clouds 28 1012 78 8000 1.54 70 13:50 03.09.2022
1925 Clear 26 1011 89 10000 0.51 70 11:33 03.09.2022
1926 Clear 27 1011 83 10000 1.03 350 09:36 03.09.2022
1927 Clear 27 1012 89 10000 1.54 30 07:53 03.09.2022
1928 Clear 27 1012 83 10000 1.03 140 04:51 03.09.2022
1929 Clouds 29 1011 70 10000 1.03 80 02:40 03.09.2022
1930 Clouds 30 1008 66 10000 2.06 70 23:44 02.09.2022
1931 Clouds 33 1008 58 10000 4.12 10 22:21 02.09.2022
1932 Clouds 34 1009 55 10000 2.06 0 20:42 02.09.2022
1933 Clouds 33 1011 58 10000 2.57 190 19:47 02.09.2022
1934 Clouds 32 1012 62 10000 3.09 150 18:50 02.09.2022
1935 Clouds 32 1012 62 10000 3.09 150 18:25 02.09.2022
1936 Clouds 30 1012 66 9000 2.06 210 17:24 02.09.2022
1937 Clouds 29 1012 74 9000 3.09 240 16:31 02.09.2022
1938 Clouds 27 1011 78 9000 1.54 10 13:32 02.09.2022
1939 Clear 25 1010 88 10000 1.54 20 10:43 02.09.2022
1940 Clear 26 1010 89 10000 2.57 20 09:42 02.09.2022
1941 Clear 26 1009 83 10000 1.54 360 08:45 02.09.2022
1942 Clear 35 1011 52 10000 3.09 340 06:46 02.09.2022
1943 Clear 35 1011 52 10000 3.09 340 06:18 02.09.2022
1944 Rain 28 1008 74 10000 1.03 0 23:19 01.09.2022
1945 Clouds 27 1009 78 10000 2.06 180 21:47 01.09.2022
1946 Thunderstorm 29 1008 70 10000 2.57 230 21:27 01.09.2022
1947 Rain 29 1009 70 10000 3.6 280 20:52 01.09.2022
1948 Rain 31 1010 55 10000 2.06 0 19:25 01.09.2022
1949 Clouds 32 1011 58 10000 2.06 0 18:18 01.09.2022
1950 Clouds 30 1012 70 10000 3.6 250 16:51 01.09.2022
1951 Clouds 28 1012 78 8000 3.09 320 14:51 01.09.2022
1952 Mist 27 1011 78 8000 2.57 330 13:21 01.09.2022
1953 Mist 27 1010 78 10000 3.09 320 12:42 01.09.2022
1954 Clear 27 1010 78 10000 1.54 340 11:50 01.09.2022
1955 Clear 27 1010 78 10000 1.54 340 11:19 01.09.2022
1956 Clear 26 1009 94 10000 1.03 170 09:20 01.09.2022
1957 Clear 28 1011 69 10000 1.03 10 06:28 01.09.2022
1958 Clouds 28 1010 69 10000 1.54 170 01:45 01.09.2022
1959 Clouds 29 1009 70 10000 3.09 170 00:33 01.09.2022
1960 Clouds 33 1009 49 10000 4.12 280 22:22 31.08.2022
1961 Clouds 32 1011 58 10000 4.63 260 20:27 31.08.2022
1962 Clouds 31 1013 66 10000 4.12 260 18:19 31.08.2022
1963 Clouds 30 1015 74 10000 4.63 270 16:32 31.08.2022
1964 Clouds 29 1015 74 10000 3.6 280 14:58 31.08.2022
1965 Clouds 26 1013 94 7000 2.06 240 12:25 31.08.2022
1966 Clear 27 1012 83 10000 2.06 230 11:38 31.08.2022
1967 Clear 28 1012 78 10000 2.06 250 09:25 31.08.2022
1968 Clear 28 1013 78 10000 2.06 260 06:19 31.08.2022
1969 Clouds 33 1009 52 10000 1.03 150 23:25 30.08.2022
1970 Clouds 34 1009 49 10000 3.6 180 21:49 30.08.2022
1971 Clouds 34 1010 52 10000 2.57 220 20:59 30.08.2022
1972 Clouds 32 1013 62 10000 2.06 0 18:52 30.08.2022
1973 Clear 29 1014 79 10000 3.6 260 15:29 30.08.2022
1974 Clear 27 1013 83 10000 2.06 300 13:25 30.08.2022
1975 Clear 27 1012 83 10000 2.06 320 11:22 30.08.2022
1976 Clear 27 1012 83 10000 2.06 320 10:57 30.08.2022
1977 Clear 26 1013 83 10000 1.03 300 07:50 30.08.2022
1978 Clear 28 1012 74 10000 1.03 90 02:55 30.08.2022
1979 Clouds 32 1010 58 10000 1.54 270 23:22 29.08.2022
1980 Clouds 33 1010 55 10000 2.57 280 22:28 29.08.2022
1981 Clouds 33 1010 55 10000 2.57 190 21:26 29.08.2022
1982 Clouds 32 1012 58 10000 2.57 270 19:54 29.08.2022
1983 Clouds 29 1014 70 10000 2.57 240 17:54 29.08.2022
1984 Clouds 29 1014 70 10000 2.57 240 17:25 29.08.2022
1985 Clouds 28 1014 78 10000 2.57 280 16:40 29.08.2022
1986 Clouds 27 1014 83 10000 1.54 270 14:47 29.08.2022
1987 Clear 25 1013 94 10000 1.54 340 13:23 29.08.2022
1988 Clear 23 1011 100 10000 1.54 240 11:20 29.08.2022
1989 Clear 23 1011 100 10000 1.54 240 11:20 29.08.2022
1990 Clouds 23 1011 94 10000 0 0 10:19 29.08.2022
1991 Clear 23 1012 94 10000 1.54 60 08:37 29.08.2022
1992 Clouds 26 1014 83 10000 3.09 340 05:35 29.08.2022
1993 Rain 27 1010 74 10000 2.06 360 00:22 29.08.2022
1994 Rain 28 1010 74 10000 2.06 30 22:41 28.08.2022
1995 Clouds 27 1010 74 10000 2.57 270 21:44 28.08.2022
1996 Clouds 24 1013 94 7000 2.57 170 20:55 28.08.2022
1997 Rain 30 1013 70 10000 1.54 280 19:26 28.08.2022
1998 Clouds 31 1014 70 10000 2.57 220 18:20 28.08.2022
1999 Clouds 30 1015 70 10000 2.57 210 17:22 28.08.2022
2000 Clouds 29 1015 70 10000 2.06 220 16:27 28.08.2022
2001 Clouds 27 1014 78 10000 2.06 260 14:41 28.08.2022
2002 Clouds 26 1012 89 10000 2.06 240 12:32 28.08.2022
2003 Clear 26 1011 83 10000 1.03 220 10:43 28.08.2022
2004 Clear 26 1011 83 10000 2.06 260 09:49 28.08.2022
2005 Clear 26 1011 83 10000 2.06 250 08:37 28.08.2022
2006 Clear 27 1012 78 10000 2.57 260 07:43 28.08.2022
2007 Clouds 30 1009 66 10000 3.6 50 02:39 28.08.2022
2008 Clouds 30 1008 66 10000 1.54 0 00:26 28.08.2022
2009 Clouds 33 1007 55 10000 2.57 210 22:34 27.08.2022
2010 Clouds 33 1008 55 10000 5.14 210 21:28 27.08.2022
2011 Clouds 33 1011 52 10000 3.09 30 19:44 27.08.2022
2012 Clouds 32 1014 58 10000 3.09 30 17:29 27.08.2022
2013 Clear 30 1014 66 10000 2.57 50 15:53 27.08.2022
2014 Clear 30 1014 66 10000 2.57 50 15:24 27.08.2022
2015 Clear 25 1012 83 10000 1.54 10 12:23 27.08.2022
2016 Clear 26 1012 83 10000 1.54 360 11:25 27.08.2022
2017 Clear 25 1011 83 10000 1.54 20 09:48 27.08.2022
2018 Clear 26 1012 83 10000 1.03 10 07:37 27.08.2022
2019 Clouds 27 1011 74 10000 2.57 30 02:34 27.08.2022
2020 Clouds 28 1009 69 10000 6.17 70 23:57 26.08.2022
2021 Clouds 30 1009 66 10000 4.12 100 22:37 26.08.2022
2022 Clouds 33 1011 55 10000 2.57 80 20:42 26.08.2022
2023 Clouds 33 1012 55 10000 2.57 0 19:23 26.08.2022
2024 Clouds 31 1015 66 10000 2.06 360 16:46 26.08.2022
2025 Clouds 30 1015 74 10000 1.03 90 15:27 26.08.2022
2026 Clouds 29 1015 79 10000 1.03 0 14:29 26.08.2022
2027 Clouds 25 1013 94 9000 0.51 20 12:47 26.08.2022
2028 Clear 26 1013 89 10000 1.03 320 11:27 26.08.2022
2029 Clear 25 1013 94 10000 1.54 70 10:25 26.08.2022
2030 Clear 26 1013 89 10000 0.51 320 07:28 26.08.2022
2031 Clouds 29 1012 65 10000 4.12 340 01:28 26.08.2022
2032 Clouds 30 1011 70 10000 1.54 290 23:30 25.08.2022
2033 Clouds 31 1011 58 10000 2.06 120 21:27 25.08.2022
2034 Rain 31 1012 62 10000 5.66 290 20:26 25.08.2022
2035 Clouds 29 1014 74 10000 2.57 250 18:49 25.08.2022
2036 Clouds 29 1015 70 10000 3.6 250 17:44 25.08.2022
2037 Clouds 29 1015 70 10000 3.6 250 17:24 25.08.2022
2038 Clouds 28 1015 74 10000 3.6 310 15:39 25.08.2022
2039 Mist 27 1015 78 10000 3.6 320 14:33 25.08.2022
2040 Clouds 26 1013 89 10000 2.57 330 11:52 25.08.2022
2041 Clouds 26 1012 89 10000 2.57 320 10:46 25.08.2022
2042 Thunderstorm 26 1013 83 10000 2.06 340 08:52 25.08.2022
2043 Clear 28 1014 74 10000 3.09 340 05:19 25.08.2022
2044 Clouds 30 1011 70 10000 3.09 270 00:30 25.08.2022
2045 Clouds 31 1010 58 10000 3.6 220 23:25 24.08.2022
2046 Clouds 32 1011 55 10000 3.09 240 22:21 24.08.2022
2047 Clouds 32 1011 58 9000 3.09 200 21:33 24.08.2022
2048 Clouds 31 1012 55 9000 3.6 250 20:24 24.08.2022
2049 Clouds 30 1015 58 10000 2.06 0 18:39 24.08.2022
2050 Clouds 30 1016 70 9000 2.06 340 16:23 24.08.2022
2051 Clouds 26 1016 89 8000 2.06 320 15:48 24.08.2022
2052 Mist 26 1014 78 5000 2.06 20 12:55 24.08.2022
2053 Clear 26 1013 78 10000 3.09 350 11:22 24.08.2022
2054 Clear 27 1012 78 10000 1.54 310 09:20 24.08.2022
2055 Clear 28 1013 69 10000 1.54 250 07:43 24.08.2022
2056 Clear 29 1011 65 10000 2.57 250 01:43 24.08.2022
2057 Clouds 31 1010 58 10000 3.6 280 22:53 23.08.2022
2058 Clouds 31 1010 58 10000 3.6 280 22:24 23.08.2022
2059 Clouds 32 1010 55 10000 3.09 270 21:22 23.08.2022
2060 Clouds 32 1012 51 9000 4.12 260 19:43 23.08.2022
2061 Clouds 31 1014 62 8000 4.12 270 18:30 23.08.2022
2062 Clouds 29 1014 65 7000 4.12 260 17:46 23.08.2022
2063 Clouds 29 1014 65 7000 2.57 300 16:33 23.08.2022
2064 Clouds 28 1015 69 6000 2.06 20 15:20 23.08.2022
2065 Mist 25 1014 88 5000 2.06 30 13:25 23.08.2022
2066 Clear 26 1012 78 10000 2.06 320 11:21 23.08.2022
2067 Clear 26 1012 83 10000 2.57 310 10:35 23.08.2022
2068 Clear 27 1012 78 10000 2.57 320 09:46 23.08.2022
2069 Clear 27 1012 78 10000 2.06 300 08:48 23.08.2022
2070 Clear 27 1012 78 10000 2.06 300 08:20 23.08.2022
2071 Clear 28 1013 74 10000 2.57 300 07:33 23.08.2022
2072 Clear 28 1011 69 10000 2.57 290 06:26 23.08.2022
2073 Clouds 29 1012 65 8000 2.57 250 01:55 23.08.2022
2074 Clouds 29 1012 65 8000 2.57 250 01:55 23.08.2022
2075 Clouds 29 1011 65 8000 2.06 250 00:27 23.08.2022
2076 Clouds 30 1010 58 8000 3.09 260 23:32 22.08.2022
2077 Clouds 31 1010 55 10000 4.12 240 22:29 22.08.2022
2078 Clouds 31 1011 55 10000 3.6 270 20:58 22.08.2022
2079 Clouds 31 1012 58 10000 4.12 230 19:47 22.08.2022
2080 Clouds 31 1013 58 10000 4.63 240 18:38 22.08.2022
2081 Clouds 31 1013 58 10000 4.63 240 18:38 22.08.2022
2082 Clouds 28 1015 69 8000 5.14 270 16:26 22.08.2022
2083 Clouds 27 1015 74 8000 4.63 280 15:38 22.08.2022
2084 Clear 25 1013 83 10000 3.09 310 12:57 22.08.2022
2085 Clear 27 1013 74 10000 3.09 280 10:20 22.08.2022
2086 Clear 27 1013 74 10000 2.57 270 07:40 22.08.2022
2087 Clear 28 1014 69 10000 3.09 270 02:50 22.08.2022
2088 Clear 28 1012 65 10000 2.57 250 00:37 22.08.2022
2089 Clear 29 1012 58 10000 2.06 260 23:43 21.08.2022
2090 Clear 29 1012 58 10000 2.57 280 21:57 21.08.2022
2091 Clear 30 1012 54 10000 2.57 200 21:21 21.08.2022
2092 Clear 29 1013 58 9000 2.57 200 20:21 21.08.2022
2093 Clouds 27 1015 61 8000 3.09 180 18:59 21.08.2022
2094 Clouds 26 1016 69 8000 3.09 170 16:52 21.08.2022
2095 Clouds 25 1016 73 10000 3.6 160 15:52 21.08.2022
2096 Clouds 24 1016 78 10000 3.6 160 14:57 21.08.2022
2097 Clouds 24 1015 78 10000 3.6 170 13:51 21.08.2022
2098 Clouds 24 1014 83 10000 3.6 180 12:56 21.08.2022
2099 Clear 25 1013 83 10000 4.12 190 10:41 21.08.2022
2100 Clear 25 1013 83 10000 4.12 190 09:21 21.08.2022
2101 Clear 25 1013 83 10000 2.57 230 08:46 21.08.2022
2102 Clear 25 1013 83 10000 2.57 230 08:28 21.08.2022
2103 Clouds 25 1014 83 10000 3.6 170 06:37 21.08.2022
2104 Clouds 27 1012 78 9000 3.09 190 01:50 21.08.2022
2105 Clouds 28 1011 74 6000 3.09 190 23:35 20.08.2022
2106 Clouds 28 1011 74 6000 3.6 240 21:57 20.08.2022
2107 Clouds 29 1012 65 6000 3.6 210 20:56 20.08.2022
2108 Clouds 28 1012 69 7000 2.06 0 19:44 20.08.2022
2109 Clouds 29 1013 65 7000 3.09 190 18:50 20.08.2022
2110 Clouds 29 1013 65 7000 3.09 190 18:26 20.08.2022
2111 Clouds 28 1014 69 6000 2.57 170 17:21 20.08.2022
2112 Clouds 27 1015 74 6000 4.12 160 16:20 20.08.2022
2113 Mist 26 1014 78 5000 3.6 160 14:26 20.08.2022
2114 Clouds 25 1013 94 10000 3.09 210 11:58 20.08.2022
2115 Clouds 25 1013 94 10000 3.09 210 11:58 20.08.2022
2116 Clouds 25 1012 94 3000 3.09 210 11:37 20.08.2022
2117 Clouds 26 1011 83 10000 3.09 140 09:20 20.08.2022
2118 Clouds 27 1012 78 10000 3.6 140 07:31 20.08.2022
2119 Clouds 28 1012 78 10000 2.06 130 05:22 20.08.2022
2120 Clear 30 1009 66 10000 3.09 70 00:58 20.08.2022
2121 Clouds 31 1008 62 10000 5.14 70 23:45 19.08.2022
2122 Clouds 32 1009 58 10000 5.66 80 22:45 19.08.2022
2123 Clouds 33 1009 55 10000 4.63 80 21:20 19.08.2022
2124 Clouds 33 1011 55 10000 5.66 60 19:22 19.08.2022
2125 Clear 31 1013 66 10000 4.12 20 16:23 19.08.2022
2126 Clear 27 1012 78 10000 2.06 50 13:56 19.08.2022
2127 Clear 27 1011 83 10000 1.54 50 11:51 19.08.2022
2128 Clear 27 1010 78 10000 2.06 30 10:33 19.08.2022
2129 Clear 28 1011 78 10000 2.06 40 08:43 19.08.2022
2130 Clear 28 1012 78 10000 2.06 80 04:43 19.08.2022
2131 Clouds 31 1009 62 10000 3.09 80 00:42 19.08.2022
2132 Clouds 31 1009 62 10000 3.09 80 00:19 19.08.2022
2133 Clouds 34 1008 52 10000 4.63 70 22:57 18.08.2022
2134 Clouds 34 1008 52 10000 4.12 50 22:23 18.08.2022
2135 Clouds 34 1008 52 10000 4.12 60 21:49 18.08.2022
2136 Clouds 34 1009 52 10000 3.6 50 20:47 18.08.2022
2137 Clouds 34 1010 52 10000 3.09 70 19:35 18.08.2022
2138 Clouds 34 1011 52 10000 3.09 70 18:43 18.08.2022
2139 Clouds 32 1011 62 10000 2.06 190 17:32 18.08.2022
2140 Clear 31 1012 62 10000 2.57 310 15:51 18.08.2022
2141 Clear 29 1012 70 10000 1.54 330 14:21 18.08.2022
2142 Clear 27 1011 78 10000 2.06 310 13:44 18.08.2022
2143 Clear 27 1010 78 10000 2.57 340 12:28 18.08.2022
2144 Clear 27 1010 78 10000 3.09 330 11:18 18.08.2022
2145 Clear 29 1010 70 10000 2.06 340 09:43 18.08.2022
2146 Clear 28 1011 83 10000 1.03 270 07:27 18.08.2022
2147 Clear 28 1011 78 10000 2.06 300 05:33 18.08.2022
2148 Clear 31 1008 62 10000 2.06 90 00:45 18.08.2022
2149 Clouds 34 1008 49 10000 1.54 140 22:28 17.08.2022
2150 Clouds 34 1009 46 10000 2.57 0 20:21 17.08.2022
2151 Clouds 34 1009 46 10000 2.57 0 20:21 17.08.2022
2152 Clouds 35 1011 46 10000 2.06 0 19:33 17.08.2022
2153 Clouds 34 1012 49 10000 3.6 80 18:32 17.08.2022
2154 Clear 30 1013 66 10000 2.06 220 16:50 17.08.2022
2155 Clear 30 1013 66 10000 2.06 250 15:31 17.08.2022
2156 Clear 29 1012 65 10000 1.03 280 14:18 17.08.2022
2157 Clear 25 1010 88 10000 0.51 240 11:45 17.08.2022
2158 Clear 26 1010 78 10000 0 0 10:25 17.08.2022
2159 Clear 26 1010 78 10000 0 0 10:25 17.08.2022
2160 Clear 27 1011 78 10000 1.03 30 08:25 17.08.2022
2161 Clear 29 1011 65 10000 2.06 330 04:20 17.08.2022
2162 Clouds 31 1009 62 10000 3.6 70 00:46 17.08.2022
2163 Clouds 32 1008 55 10000 4.63 70 22:53 16.08.2022
2164 Clouds 32 1009 58 10000 2.57 0 20:59 16.08.2022
2165 Clouds 34 1010 55 10000 2.06 80 19:55 16.08.2022
2166 Clouds 33 1011 55 10000 1.54 80 19:22 16.08.2022
2167 Clouds 33 1013 55 10000 3.09 10 17:54 16.08.2022
2168 Clouds 31 1013 62 10000 3.6 0 16:35 16.08.2022
2169 Clear 30 1013 66 10000 2.57 60 15:39 16.08.2022
2170 Clear 28 1012 69 10000 2.06 80 14:43 16.08.2022
2171 Clear 28 1012 69 10000 2.06 80 14:25 16.08.2022
2172 Clear 26 1010 73 10000 1.54 40 11:39 16.08.2022
2173 Clear 25 1010 83 10000 2.06 360 09:58 16.08.2022
2174 Clear 25 1011 83 10000 1.03 10 08:49 16.08.2022
2175 Clear 25 1011 83 10000 1.03 10 08:19 16.08.2022
2176 Clouds 26 1012 89 10000 0.51 40 05:28 16.08.2022
2177 Clouds 29 1009 65 10000 2.57 240 23:18 15.08.2022
2178 Thunderstorm 29 1010 61 10000 5.14 360 22:18 15.08.2022
2179 Clouds 32 1010 58 10000 3.09 340 21:41 15.08.2022
2180 Clouds 32 1011 58 10000 3.09 340 20:30 15.08.2022
2181 Clouds 31 1012 62 10000 4.12 360 18:56 15.08.2022
2182 Clouds 32 1012 58 10000 3.6 360 17:56 15.08.2022
2183 Clouds 30 1013 66 10000 3.6 20 16:23 15.08.2022
2184 Clear 28 1012 74 10000 1.03 60 14:40 15.08.2022
2185 Clear 25 1012 88 10000 1.54 30 13:19 15.08.2022
2186 Clear 25 1012 83 10000 10.8 220 10:36 15.08.2022
2187 Clear 25 1012 78 10000 1.03 30 08:53 15.08.2022
2188 Clear 24 1014 83 10000 0.51 180 06:49 15.08.2022
2189 Clear 25 1014 83 10000 1.03 320 03:56 15.08.2022
2190 Rain 27 1011 74 10000 1.54 90 23:38 14.08.2022
2191 Rain 26 1011 73 10000 4.63 40 21:48 14.08.2022
2192 Rain 32 1012 62 10000 3.09 190 20:41 14.08.2022
2193 Clouds 31 1013 62 10000 2.57 0 19:45 14.08.2022
2194 Rain 31 1014 62 10000 2.57 0 18:32 14.08.2022
2195 Clouds 28 1015 69 10000 1.54 360 17:37 14.08.2022
2196 Clouds 28 1015 69 10000 3.6 60 16:23 14.08.2022
2197 Clouds 29 1015 65 10000 2.57 70 15:34 14.08.2022
2198 Clouds 26 1014 83 10000 1.54 280 13:51 14.08.2022
2199 Clouds 26 1014 83 10000 1.54 280 13:31 14.08.2022
2200 Clear 25 1013 94 10000 2.06 240 12:45 14.08.2022
2201 Clear 25 1013 94 10000 1.03 250 11:30 14.08.2022
2202 Clouds 26 1013 78 10000 1.03 30 09:34 14.08.2022
2203 Clear 27 1014 74 10000 2.06 10 06:53 14.08.2022
2204 Clouds 27 1014 74 10000 2.06 20 05:45 14.08.2022
2205 Clouds 29 1012 70 10000 1.03 0 01:43 14.08.2022
2206 Clouds 30 1011 66 10000 2.57 70 23:22 13.08.2022
2207 Clouds 32 1011 58 10000 4.12 70 22:28 13.08.2022
2208 Clouds 31 1013 62 10000 2.57 210 20:51 13.08.2022
2209 Clouds 30 1014 66 10000 2.57 0 19:49 13.08.2022
2210 Clouds 30 1014 66 10000 2.57 0 19:18 13.08.2022
2211 Clouds 29 1016 65 10000 2.06 50 17:21 13.08.2022
2212 Rain 25 1016 78 10000 1.54 0 14:50 13.08.2022
2213 Clear 26 1014 89 10000 1.54 310 13:50 13.08.2022
2214 Clear 26 1014 89 10000 1.54 310 13:50 13.08.2022
2215 Clear 26 1014 89 10000 1.54 310 13:28 13.08.2022
2216 Clear 26 1013 94 10000 1.03 30 11:33 13.08.2022
2217 Clear 27 1012 89 10000 2.06 250 09:26 13.08.2022
2218 Clear 26 1014 83 10000 1.03 130 06:54 13.08.2022
2219 Clouds 28 1012 69 10000 1.03 140 01:52 13.08.2022
2220 Clouds 30 1011 62 10000 3.09 130 23:32 12.08.2022
2221 Clouds 31 1011 58 10000 5.14 130 21:39 12.08.2022
2222 Clouds 32 1013 58 10000 2.57 190 19:48 12.08.2022
2223 Clouds 32 1013 58 10000 2.57 190 19:23 12.08.2022
2224 Clouds 31 1014 58 10000 3.6 150 18:26 12.08.2022
2225 Clouds 30 1015 70 10000 3.6 160 16:27 12.08.2022
2226 Clear 29 1015 70 10000 3.09 160 15:19 12.08.2022
2227 Clear 27 1014 83 10000 1.54 230 13:43 12.08.2022
2228 Clear 26 1014 83 10000 1.54 160 12:32 12.08.2022
2229 Clear 27 1013 83 10000 1.54 180 08:52 12.08.2022
2230 Clear 27 1014 83 10000 1.54 160 07:45 12.08.2022
2231 Clear 27 1014 83 10000 1.54 160 06:21 12.08.2022
2232 Clouds 30 1011 66 10000 2.06 110 00:32 12.08.2022
2233 Clouds 30 1011 66 10000 3.09 170 23:55 11.08.2022
2234 Clouds 32 1011 55 10000 3.09 170 23:22 11.08.2022
2235 Clouds 33 1011 55 10000 2.57 190 21:53 11.08.2022
2236 Clouds 33 1011 55 10000 2.57 190 21:28 11.08.2022
2237 Clouds 32 1012 58 10000 2.57 0 20:30 11.08.2022
2238 Clouds 31 1013 62 10000 3.6 200 19:33 11.08.2022
2239 Clouds 31 1013 62 10000 2.06 170 18:56 11.08.2022
2240 Clear 29 1015 65 10000 3.6 130 16:47 11.08.2022
2241 Clouds 28 1015 74 10000 3.6 140 15:43 11.08.2022
2242 Clouds 27 1015 78 10000 3.09 160 14:36 11.08.2022
2243 Clear 25 1013 88 10000 2.06 180 11:56 11.08.2022
2244 Clear 26 1013 83 10000 2.06 120 09:22 11.08.2022
2245 Clouds 28 1014 78 10000 3.09 170 06:49 11.08.2022
2246 Clouds 28 1012 65 10000 1.54 80 02:38 11.08.2022
2247 Clouds 33 1011 49 10000 3.6 70 23:41 10.08.2022
2248 Clouds 33 1011 55 10000 5.14 90 21:47 10.08.2022
2249 Clouds 33 1012 55 10000 5.66 70 20:56 10.08.2022
2250 Clouds 33 1012 55 10000 5.66 70 20:27 10.08.2022
2251 Clouds 32 1014 62 10000 3.09 80 18:48 10.08.2022
2252 Clouds 30 1015 70 10000 3.6 60 17:27 10.08.2022
2253 Clear 27 1016 78 10000 2.06 90 14:36 10.08.2022
2254 Clear 26 1015 83 10000 1.03 160 13:32 10.08.2022
2255 Clear 24 1013 88 10000 2.06 90 10:47 10.08.2022
2256 Clouds 25 1013 83 10000 1.54 80 08:37 10.08.2022
2257 Clouds 26 1013 78 10000 4.12 120 07:23 10.08.2022
2258 Clouds 29 1013 70 10000 2.06 80 04:50 10.08.2022
2259 Clouds 31 1011 58 10000 3.6 70 00:50 10.08.2022
2260 Clouds 33 1010 52 10000 4.12 70 23:29 09.08.2022
2261 Clouds 34 1010 55 10000 5.14 70 21:41 09.08.2022
2262 Clouds 34 1010 55 10000 5.14 70 21:22 09.08.2022
2263 Clouds 33 1013 62 10000 4.63 80 18:56 09.08.2022
2264 Clouds 31 1014 66 10000 3.6 70 17:31 09.08.2022
2265 Clouds 30 1014 74 10000 3.09 80 16:46 09.08.2022
2266 Clouds 30 1014 74 10000 3.09 80 15:59 09.08.2022
2267 Clear 30 1013 66 10000 1.54 360 14:43 09.08.2022
2268 Clear 26 1011 83 10000 1.54 80 11:29 09.08.2022
2269 Clear 27 1011 74 10000 1.54 40 08:52 09.08.2022
2270 Clear 27 1011 74 10000 1.54 40 07:57 09.08.2022
2271 Clear 27 1011 78 10000 1.03 80 04:49 09.08.2022
2272 Clouds 31 1009 58 10000 4.63 70 00:36 09.08.2022
2273 Clouds 33 1008 52 10000 4.12 90 23:24 08.08.2022
2274 Clouds 34 1008 49 10000 3.6 70 22:38 08.08.2022
2275 Clouds 34 1009 52 10000 3.6 80 21:40 08.08.2022
2276 Clouds 33 1011 55 10000 4.12 40 19:58 08.08.2022
2277 Clouds 33 1011 55 10000 4.12 40 19:31 08.08.2022
2278 Clouds 32 1012 62 10000 4.63 30 17:56 08.08.2022
2279 Clear 30 1013 70 10000 4.63 40 15:47 08.08.2022
2280 Clear 28 1012 78 10000 2.57 50 14:46 08.08.2022
2281 Clear 24 1011 88 10000 1.03 100 12:30 08.08.2022
2282 Clear 27 1010 69 10000 2.06 80 10:25 08.08.2022
2283 Clear 27 1011 74 10000 2.57 70 07:49 08.08.2022
2284 Clear 28 1011 74 10000 1.54 80 03:39 08.08.2022
2285 Clouds 33 1008 52 10000 2.06 80 22:52 07.08.2022
2286 Clouds 34 1008 49 10000 3.6 30 21:41 07.08.2022
2287 Clouds 34 1008 49 10000 3.6 10 20:55 07.08.2022
2288 Rain 34 1009 49 10000 3.6 10 20:18 07.08.2022
2289 Rain 34 1010 49 10000 3.6 350 19:50 07.08.2022
2290 Clouds 33 1012 52 10000 4.63 10 18:41 07.08.2022
2291 Clouds 33 1012 49 10000 5.14 30 17:21 07.08.2022
2292 Clear 31 1013 58 10000 4.12 10 16:41 07.08.2022
2293 Clear 30 1013 62 10000 3.6 50 15:26 07.08.2022
2294 Clear 27 1011 74 10000 3.09 60 13:47 07.08.2022
2295 Clear 26 1011 78 10000 2.57 40 12:19 07.08.2022
2296 Clear 26 1010 78 10000 1.54 10 10:42 07.08.2022
2297 Clear 26 1010 78 10000 2.57 40 09:35 07.08.2022
2298 Clear 28 1011 78 10000 1.54 80 04:33 07.08.2022
2299 Clear 30 1009 70 10000 2.06 80 01:58 07.08.2022
2300 Clouds 33 1008 55 10000 3.6 40 22:30 06.08.2022
2301 Clouds 34 1008 52 10000 2.57 10 21:43 06.08.2022
2302 Clouds 33 1010 55 10000 3.6 20 19:42 06.08.2022
2303 Clouds 33 1011 55 10000 4.12 30 18:33 06.08.2022
2304 Clouds 32 1012 58 10000 6.17 40 17:39 06.08.2022
2305 Clear 30 1012 62 10000 3.6 60 15:21 06.08.2022
2306 Clear 27 1011 74 10000 2.06 50 13:50 06.08.2022
2307 Clear 26 1011 78 10000 1.54 40 12:21 06.08.2022
2308 Clear 26 1009 78 10000 1.54 70 10:37 06.08.2022
2309 Clear 26 1010 78 10000 1.54 50 09:21 06.08.2022
2310 Clear 28 1010 74 10000 2.06 80 03:55 06.08.2022
2311 Clouds 31 1007 62 10000 4.63 10 23:56 05.08.2022
2312 Clouds 32 1007 58 10000 2.06 10 22:34 05.08.2022
2313 Clouds 34 1009 52 10000 3.6 30 20:30 05.08.2022
2314 Clouds 33 1010 55 10000 3.6 40 18:53 05.08.2022
2315 Clouds 33 1011 58 10000 3.6 40 18:35 05.08.2022
2316 Clear 32 1012 55 10000 4.63 10 16:51 05.08.2022
2317 Clear 30 1012 62 10000 3.6 70 15:23 05.08.2022
2318 Clear 29 1012 65 10000 2.57 50 14:34 05.08.2022
2319 Clear 27 1011 74 10000 2.57 40 13:26 05.08.2022
2320 Clear 25 1010 83 10000 2.06 50 12:45 05.08.2022
2321 Clear 25 1010 83 10000 2.06 50 10:59 05.08.2022
2322 Clear 26 1010 83 10000 1.54 50 08:45 05.08.2022
2323 Clear 27 1011 74 10000 2.06 80 07:28 05.08.2022
2324 Clouds 27 1008 78 10000 3.09 70 01:52 05.08.2022
2325 Clouds 33 1008 55 10000 3.6 10 22:40 04.08.2022
2326 Clouds 32 1009 55 10000 3.09 30 21:27 04.08.2022
2327 Clouds 34 1009 49 10000 4.12 360 20:45 04.08.2022
2328 Clouds 34 1009 49 10000 4.12 30 19:58 04.08.2022
2329 Clouds 33 1011 52 10000 5.66 40 18:52 04.08.2022
2330 Clouds 33 1011 52 10000 5.66 40 18:32 04.08.2022
2331 Clouds 28 1012 74 10000 2.06 30 14:45 04.08.2022
2332 Clear 26 1011 83 10000 1.03 20 13:22 04.08.2022
2333 Clear 25 1010 88 10000 1.03 360 11:37 04.08.2022
2334 Clear 26 1011 83 10000 2.06 10 07:56 04.08.2022
2335 Clear 26 1011 83 10000 2.06 10 07:31 04.08.2022
2336 Clear 28 1010 74 10000 2.06 40 02:42 04.08.2022
2337 Clouds 30 1008 70 10000 1.54 350 23:52 03.08.2022
2338 Clouds 30 1008 70 10000 1.54 350 23:33 03.08.2022
2339 Clouds 32 1008 58 10000 4.12 60 21:26 03.08.2022
2340 Clouds 32 1009 62 10000 3.6 30 19:56 03.08.2022
2341 Clouds 33 1012 62 10000 3.6 40 18:40 03.08.2022
2342 Clear 30 1013 70 10000 3.09 40 16:27 03.08.2022
2343 Clear 30 1013 70 10000 3.09 60 15:53 03.08.2022
2344 Clouds 25 1011 83 10000 1.54 40 13:32 03.08.2022
2345 Clear 25 1010 83 10000 2.06 30 09:55 03.08.2022
2346 Rain 27 1011 78 10000 2.06 70 06:46 03.08.2022
2347 Clear 28 1011 78 10000 3.09 80 04:22 03.08.2022
2348 Clouds 28 1010 74 10000 2.57 70 02:35 03.08.2022
2349 Clouds 30 1008 66 10000 4.12 80 23:54 02.08.2022
2350 Clouds 30 1009 66 10000 2.57 120 21:59 02.08.2022
2351 Clouds 30 1009 66 10000 2.57 120 21:41 02.08.2022
2352 Rain 31 1010 62 10000 2.06 80 20:27 02.08.2022
2353 Clouds 29 1013 74 10000 2.06 70 16:52 02.08.2022
2354 Clouds 26 1012 83 10000 2.06 60 14:33 02.08.2022
2355 Clouds 25 1011 88 10000 0 0 10:44 02.08.2022
2356 Clouds 25 1011 88 10000 1.03 320 08:36 02.08.2022
2357 Clouds 26 1012 83 10000 2.06 350 07:51 02.08.2022
2358 Clouds 26 1012 89 10000 5.14 10 04:56 02.08.2022
2359 Clouds 27 1010 83 10000 1.03 340 02:30 02.08.2022
2360 Clouds 30 1009 70 10000 2.57 50 23:25 01.08.2022
2361 Clouds 32 1009 62 10000 1.03 90 21:42 01.08.2022
2362 Rain 32 1010 58 10000 2.57 340 20:19 01.08.2022
2363 Clouds 31 1013 66 10000 4.12 60 18:55 01.08.2022
2364 Clouds 29 1014 70 10000 2.06 70 16:58 01.08.2022
2365 Clouds 29 1014 70 10000 2.06 70 16:39 01.08.2022
2366 Clouds 28 1014 78 10000 2.57 50 15:44 01.08.2022
2367 Clouds 28 1014 78 10000 2.57 50 14:57 01.08.2022
2368 Clouds 26 1013 83 10000 1.54 70 13:32 01.08.2022
2369 Clear 25 1012 88 10000 1.54 40 11:18 01.08.2022
2370 Clear 26 1011 83 10000 1.54 60 08:55 01.08.2022
2371 Clear 26 1012 83 10000 3.09 30 07:23 01.08.2022
2372 Clear 27 1012 83 10000 2.06 50 04:32 01.08.2022
2373 Clouds 28 1010 74 10000 1.54 70 01:33 01.08.2022
2374 Rain 30 1010 70 10000 1.54 220 22:47 31.07.2022
2375 Clouds 30 1010 70 10000 1.54 220 22:29 31.07.2022
2376 Rain 29 1012 74 10000 1.54 80 20:39 31.07.2022
2377 Clouds 32 1014 66 10000 3.6 350 18:40 31.07.2022
2378 Clouds 31 1014 58 10000 2.06 20 16:55 31.07.2022
2379 Clear 27 1014 78 10000 3.09 30 14:38 31.07.2022
2380 Rain 25 1013 88 10000 3.09 20 12:58 31.07.2022
2381 Clear 25 1012 94 10000 2.57 40 11:39 31.07.2022
2382 Clear 25 1013 94 10000 1.54 360 08:47 31.07.2022
2383 Clouds 26 1014 89 10000 2.06 90 05:38 31.07.2022
2384 Clouds 28 1012 65 7000 2.06 320 01:21 31.07.2022
2385 Clouds 29 1011 70 7000 4.12 260 22:46 30.07.2022
2386 Clouds 30 1011 62 6000 4.63 260 21:52 30.07.2022
2387 Clouds 30 1011 62 6000 4.63 260 21:33 30.07.2022
2388 Haze 30 1012 62 5000 4.12 250 20:33 30.07.2022
2389 Clouds 29 1013 70 7000 2.57 240 19:50 30.07.2022
2390 Clouds 27 1014 78 6000 2.57 240 17:53 30.07.2022
2391 Clouds 26 1015 83 8000 2.57 10 16:38 30.07.2022
2392 Clouds 25 1014 88 9000 0 0 15:30 30.07.2022
2393 Clouds 23 1013 94 4000 4.12 360 13:23 30.07.2022
2394 Clouds 23 1013 94 5000 3.09 20 12:22 30.07.2022
2395 Clouds 23 1013 100 6000 3.09 40 11:51 30.07.2022
2396 Clouds 23 1013 100 3000 2.06 0 10:19 30.07.2022
2397 Clear 26 1012 83 10000 2.06 300 08:54 30.07.2022
2398 Clear 26 1013 83 10000 3.6 350 06:58 30.07.2022
2399 Clouds 27 1012 78 10000 3.09 30 02:33 30.07.2022
2400 Clouds 27 1011 78 10000 1.54 360 23:57 29.07.2022
2401 Clouds 27 1011 74 10000 2.06 0 21:37 29.07.2022
2402 Clouds 28 1011 65 10000 2.57 250 20:50 29.07.2022
2403 Clouds 27 1013 69 10000 3.6 250 19:45 29.07.2022
2404 Clouds 30 1014 66 10000 1.54 190 16:59 29.07.2022
2405 Clouds 28 1013 78 10000 0 0 14:48 29.07.2022
2406 Clouds 26 1012 89 10000 1.03 20 12:42 29.07.2022
2407 Clear 28 1011 69 10000 1.54 360 08:52 29.07.2022
2408 Clear 28 1011 69 10000 1.54 360 08:23 29.07.2022
2409 Clear 29 1012 61 10000 2.06 40 05:19 29.07.2022
2410 Clouds 31 1009 62 10000 1.03 160 23:59 28.07.2022
2411 Clouds 33 1010 49 10000 2.57 130 21:39 28.07.2022
2412 Clouds 33 1011 52 10000 2.57 60 20:54 28.07.2022
2413 Clouds 33 1011 52 10000 2.57 60 20:18 28.07.2022
2414 Clouds 33 1012 55 10000 3.09 210 19:40 28.07.2022
2415 Clouds 32 1013 58 10000 2.57 180 18:19 28.07.2022
2416 Clouds 30 1013 70 10000 2.06 0 17:36 28.07.2022
2417 Clear 29 1013 74 10000 3.09 240 16:41 28.07.2022
2418 Clear 26 1012 83 10000 3.09 350 13:57 28.07.2022
2419 Clear 26 1011 78 10000 3.09 340 12:40 28.07.2022
2420 Clear 26 1011 78 10000 1.54 360 09:21 28.07.2022
2421 Clear 27 1013 78 10000 1.54 20 05:41 28.07.2022
2422 Clear 27 1013 78 10000 1.54 20 05:21 28.07.2022
2423 Clouds 31 1009 62 10000 3.6 110 23:41 27.07.2022
2424 Clouds 33 1010 58 10000 5.66 80 21:31 27.07.2022
2425 Clouds 33 1011 55 10000 4.12 70 20:19 27.07.2022
2426 Clouds 33 1012 55 10000 4.63 70 19:26 27.07.2022
2427 Clear 30 1014 70 10000 2.57 240 16:32 27.07.2022
2428 Clear 29 1014 74 10000 2.06 240 15:51 27.07.2022
2429 Clear 28 1013 74 10000 2.57 360 14:42 27.07.2022
2430 Clear 27 1013 78 10000 2.06 320 13:45 27.07.2022
2431 Clear 26 1012 83 10000 1.54 260 10:39 27.07.2022
2432 Clouds 28 1013 74 10000 1.03 320 07:53 27.07.2022
2433 Clouds 29 1013 70 10000 1.54 30 04:54 27.07.2022
2434 Clouds 33 1009 55 10000 4.12 80 23:25 26.07.2022
2435 Clouds 33 1009 55 10000 4.63 90 21:52 26.07.2022
2436 Clouds 33 1009 55 10000 4.12 80 20:58 26.07.2022
2437 Clouds 33 1012 55 10000 2.57 190 19:32 26.07.2022
2438 Clouds 34 1013 55 10000 2.57 210 18:40 26.07.2022
2439 Clouds 34 1013 55 10000 2.57 210 17:54 26.07.2022
2440 Clear 30 1014 66 10000 1.54 300 15:43 26.07.2022
2441 Clear 30 1013 66 10000 2.06 300 14:43 26.07.2022
2442 Clear 26 1012 83 10000 0.51 30 12:32 26.07.2022
2443 Clear 28 1011 74 10000 2.06 340 09:59 26.07.2022
2444 Clear 27 1011 78 10000 2.06 20 08:27 26.07.2022
2445 Clouds 28 1009 74 10000 1.03 70 01:52 26.07.2022
2446 Clouds 28 1009 74 10000 1.03 70 01:52 26.07.2022
2447 Clouds 30 1009 70 10000 2.57 80 00:19 26.07.2022
2448 Clouds 33 1009 55 10000 2.06 140 22:40 25.07.2022
2449 Clouds 33 1009 55 10000 2.06 140 22:40 25.07.2022
2450 Clouds 32 1010 58 10000 4.63 80 21:43 25.07.2022
2451 Clouds 34 1011 52 10000 3.09 90 20:43 25.07.2022
2452 Clouds 34 1011 52 10000 3.09 90 20:23 25.07.2022
2453 Clouds 33 1012 52 10000 2.06 230 19:24 25.07.2022
2454 Clouds 32 1014 58 10000 1.54 0 17:37 25.07.2022
2455 Clouds 32 1014 62 10000 1.54 0 16:44 25.07.2022
2456 Clear 27 1013 78 10000 1.03 20 13:22 25.07.2022
2457 Clear 26 1011 83 10000 0.51 40 10:48 25.07.2022
2458 Clear 27 1012 78 10000 0.51 10 07:32 25.07.2022
2459 Clouds 30 1009 62 10000 3.09 80 00:38 25.07.2022
2460 Clouds 31 1009 58 10000 4.63 70 23:45 24.07.2022
2461 Clouds 33 1009 52 10000 3.09 70 22:44 24.07.2022
2462 Clouds 33 1009 55 10000 2.57 80 21:41 24.07.2022
2463 Clouds 33 1011 55 10000 2.06 70 20:58 24.07.2022
2464 Clouds 33 1011 55 10000 2.06 70 20:37 24.07.2022
2465 Clouds 33 1011 55 10000 2.57 60 19:18 24.07.2022
2466 Clouds 33 1012 52 10000 2.57 20 17:56 24.07.2022
2467 Clear 32 1013 58 10000 3.09 360 15:54 24.07.2022
2468 Clear 27 1012 78 10000 2.57 20 14:41 24.07.2022
2469 Clear 26 1011 83 10000 2.57 10 13:47 24.07.2022
2470 Clear 26 1011 83 10000 2.06 350 12:27 24.07.2022
2471 Clear 26 1010 83 10000 1.03 340 11:30 24.07.2022
2472 Clear 27 1010 83 10000 1.03 10 09:44 24.07.2022
2473 Clear 26 1011 89 10000 1.03 270 07:53 24.07.2022
2474 Clear 26 1011 89 10000 1.03 270 07:26 24.07.2022
2475 Clear 27 1010 78 10000 1.03 80 02:52 24.07.2022
2476 Clouds 30 1009 62 10000 3.09 90 22:45 23.07.2022
2477 Clouds 32 1010 66 10000 3.6 90 20:47 23.07.2022
2478 Clouds 30 1011 70 10000 3.09 50 18:59 23.07.2022
2479 Clouds 30 1012 66 10000 2.57 120 17:58 23.07.2022
2480 Clouds 29 1013 74 10000 2.06 10 17:25 23.07.2022
2481 Clear 29 1013 74 10000 1.03 0 16:21 23.07.2022
2482 Clear 28 1013 78 10000 1.03 0 15:21 23.07.2022
2483 Clear 27 1012 78 10000 1.03 0 14:50 23.07.2022
2484 Clear 25 1011 88 10000 1.54 20 13:58 23.07.2022
2485 Clear 25 1010 83 10000 1.03 360 11:48 23.07.2022
2486 Clear 26 1010 83 10000 1.03 320 10:36 23.07.2022
2487 Clear 25 1010 83 10000 1.54 20 09:34 23.07.2022
2488 Clear 25 1011 94 10000 1.03 20 06:46 23.07.2022
2489 Clear 26 1011 83 10000 2.06 50 03:37 23.07.2022
2490 Clouds 27 1009 78 10000 3.09 60 00:27 23.07.2022
2491 Clouds 31 1009 66 10000 3.09 0 21:28 22.07.2022
2492 Clouds 31 1010 62 10000 2.57 220 20:29 22.07.2022
2493 Rain 33 1010 48 10000 1.3 108 18:42 22.07.2022
2494 Clouds 30 1013 70 10000 2.06 230 17:39 22.07.2022
2495 Clouds 29 1013 70 10000 2.06 360 15:46 22.07.2022
2496 Clear 24 1011 94 10000 1.54 360 12:47 22.07.2022
2497 Clear 25 1010 94 10000 2.06 350 09:56 22.07.2022
2498 Clear 25 1010 94 10000 1.03 10 09:21 22.07.2022
2499 Clear 24 1011 100 10000 1.03 250 07:51 22.07.2022
2500 Clear 25 1011 94 10000 0.51 140 04:23 22.07.2022
2501 Rain 27 1009 83 10000 0.51 210 23:36 21.07.2022
2502 Rain 27 1010 78 10000 2.57 180 21:41 21.07.2022
2503 Clouds 29 1011 74 10000 4.63 210 19:42 21.07.2022
2504 Clouds 30 1012 74 10000 2.06 210 18:30 21.07.2022
2505 Clouds 30 1013 74 10000 2.57 340 17:21 21.07.2022
2506 Clouds 28 1013 78 10000 1.54 340 15:58 21.07.2022
2507 Clouds 26 1013 83 10000 2.06 360 14:46 21.07.2022
2508 Clouds 26 1013 83 10000 2.06 360 13:53 21.07.2022
2509 Clear 26 1011 83 10000 2.06 350 11:54 21.07.2022
2510 Clear 26 1011 83 10000 3.09 350 09:54 21.07.2022
2511 Clear 26 1011 83 10000 2.57 350 08:53 21.07.2022
2512 Clear 26 1012 78 10000 2.57 340 07:50 21.07.2022
2513 Rain 26 1013 83 10000 2.57 320 06:27 21.07.2022
2514 Clouds 26 1011 89 10000 2.06 270 02:35 21.07.2022
2515 Clouds 29 1009 65 10000 2.06 250 22:46 20.07.2022
2516 Clouds 29 1009 65 10000 2.06 250 22:18 20.07.2022
2517 Rain 28 1011 78 10000 1.03 0 20:46 20.07.2022
2518 Clouds 28 1012 74 10000 4.12 20 19:46 20.07.2022
2519 Clouds 28 1013 74 10000 5.66 70 18:53 20.07.2022
2520 Clouds 28 1013 74 10000 7.72 40 18:30 20.07.2022
2521 Clouds 30 1014 74 10000 4.12 10 17:25 20.07.2022
2522 Clouds 29 1013 79 10000 3.6 70 15:33 20.07.2022
2523 Clear 28 1013 83 10000 2.57 60 14:36 20.07.2022
2524 Clear 26 1012 89 10000 2.06 40 12:51 20.07.2022
2525 Clear 26 1011 89 10000 1.54 40 10:57 20.07.2022
2526 Clear 27 1013 83 10000 1.54 360 06:21 20.07.2022
2527 Rain 29 1011 70 10000 2.57 60 01:40 20.07.2022
2528 Clouds 30 1010 66 10000 3.6 70 00:41 20.07.2022
2529 Clouds 32 1010 62 10000 4.63 80 22:35 19.07.2022
2530 Clouds 32 1010 62 10000 4.63 80 21:54 19.07.2022
2531 Clouds 33 1011 58 10000 5.66 90 20:49 19.07.2022
2532 Clouds 32 1012 62 10000 5.14 70 19:22 19.07.2022
2533 Clouds 32 1013 66 10000 3.6 90 18:41 19.07.2022
2534 Clouds 32 1013 66 10000 4.12 80 17:53 19.07.2022
2535 Clouds 29 1014 79 10000 4.63 30 15:27 19.07.2022
2536 Clear 27 1013 83 10000 2.06 60 13:33 19.07.2022
2537 Clear 27 1012 83 10000 2.57 50 11:32 19.07.2022
2538 Clear 27 1011 89 10000 4.12 20 09:51 19.07.2022
2539 Clear 28 1012 83 10000 2.06 70 08:46 19.07.2022
2540 Clear 27 1012 83 10000 1.03 90 07:19 19.07.2022
2541 Clear 29 1012 74 10000 1.54 80 06:27 19.07.2022
2542 Clear 29 1013 70 10000 1.54 80 05:18 19.07.2022
2543 Clouds 29 1011 70 10000 2.57 70 02:37 19.07.2022
2544 Clouds 32 1010 55 10000 4.12 70 23:52 18.07.2022
2545 Clouds 32 1010 55 10000 4.12 70 23:19 18.07.2022
2546 Clouds 32 1010 58 10000 5.66 70 22:26 18.07.2022
2547 Clouds 33 1011 55 10000 5.14 60 21:20 18.07.2022
2548 Clouds 32 1011 58 10000 6.69 80 20:22 18.07.2022
2549 Clouds 32 1013 62 10000 3.6 90 18:29 18.07.2022
2550 Clouds 31 1014 62 10000 3.09 360 16:30 18.07.2022
2551 Clear 30 1014 70 10000 2.06 360 15:26 18.07.2022
2552 Clear 28 1013 74 10000 1.03 40 13:31 18.07.2022
2553 Clear 26 1012 83 10000 1.54 80 11:43 18.07.2022
2554 Clear 27 1012 74 10000 1.54 70 09:55 18.07.2022
2555 Clear 27 1012 83 10000 1.54 60 07:54 18.07.2022
2556 Clear 26 1011 89 10000 3.09 80 03:32 18.07.2022
2557 Clouds 33 1010 55 10000 4.12 70 22:56 17.07.2022
2558 Clouds 33 1010 55 10000 4.12 70 22:29 17.07.2022
2559 Clouds 32 1011 62 10000 4.12 70 21:35 17.07.2022
2560 Clouds 31 1011 66 10000 3.09 30 20:45 17.07.2022
2561 Clouds 32 1012 62 10000 3.09 60 19:50 17.07.2022
2562 Clouds 32 1012 62 10000 3.09 60 19:21 17.07.2022
2563 Clear 32 1014 62 10000 3.6 50 17:43 17.07.2022
2564 Clear 32 1014 62 10000 3.6 50 17:25 17.07.2022
2565 Clear 31 1014 66 10000 4.63 40 16:32 17.07.2022
2566 Clear 30 1014 70 10000 4.63 30 15:49 17.07.2022
2567 Clear 27 1013 83 10000 1.54 80 13:51 17.07.2022
2568 Clear 26 1012 83 10000 2.06 70 12:42 17.07.2022
2569 Clear 26 1012 78 10000 2.06 60 10:19 17.07.2022
2570 Clear 27 1012 89 10000 2.06 80 06:59 17.07.2022
2571 Clear 28 1010 78 10000 2.06 300 02:34 17.07.2022
2572 Clear 28 1010 78 10000 2.06 300 02:34 17.07.2022
2573 Clouds 31 1009 62 10000 3.6 50 23:23 16.07.2022
2574 Clouds 33 1009 58 10000 2.06 80 21:59 16.07.2022
2575 Clouds 32 1010 62 10000 2.57 0 20:29 16.07.2022
2576 Clouds 32 1012 66 10000 3.09 30 18:54 16.07.2022
2577 Clouds 31 1013 66 10000 3.6 30 17:25 16.07.2022
2578 Clear 30 1013 70 10000 2.57 70 15:50 16.07.2022
2579 Clear 26 1012 83 10000 1.54 20 12:26 16.07.2022
2580 Clear 26 1011 89 10000 0.51 70 10:18 16.07.2022
2581 Clear 26 1011 94 10000 1.03 300 09:25 16.07.2022
2582 Clear 26 1011 89 10000 0 0 08:40 16.07.2022
2583 Clear 26 1012 83 10000 1.03 80 06:57 16.07.2022
2584 Clouds 28 1011 74 10000 1.03 20 03:32 16.07.2022
2585 Clouds 29 1009 74 10000 2.57 360 23:54 15.07.2022
2586 Clouds 31 1009 66 10000 2.57 50 22:46 15.07.2022
2587 Clouds 32 1010 62 10000 3.09 340 21:52 15.07.2022
2588 Clouds 32 1011 58 10000 2.06 210 20:35 15.07.2022
2589 Clouds 32 1013 55 10000 3.09 60 18:46 15.07.2022
2590 Clouds 31 1013 66 10000 3.09 70 17:51 15.07.2022
2591 Clear 30 1013 70 10000 2.57 10 16:23 15.07.2022
2592 Clear 25 1012 83 10000 2.06 30 13:58 15.07.2022
2593 Clear 25 1012 83 10000 1.03 10 12:22 15.07.2022
2594 Clear 26 1011 78 10000 3.09 10 10:52 15.07.2022
2595 Clear 27 1012 78 10000 2.57 10 07:47 15.07.2022
2596 Clouds 28 1011 78 10000 1.03 0 02:47 15.07.2022
2597 Clouds 28 1010 78 10000 1.03 90 00:39 15.07.2022
2598 Rain 31 1010 62 10000 2.06 180 22:54 14.07.2022
2599 Rain 30 1010 70 10000 2.06 180 21:59 14.07.2022
2600 Rain 30 1010 70 10000 1.54 280 21:33 14.07.2022
2601 Rain 30 1011 74 10000 2.06 240 20:57 14.07.2022
2602 Rain 30 1011 74 10000 2.06 240 20:37 14.07.2022
2603 Clouds 30 1011 74 10000 2.06 240 20:18 14.07.2022
2604 Clouds 28 1014 78 10000 2.06 210 16:42 14.07.2022
2605 Clouds 28 1014 78 10000 2.06 210 16:18 14.07.2022
2606 Clear 27 1013 78 10000 3.09 10 14:44 14.07.2022
2607 Clear 26 1012 78 10000 2.06 200 13:33 14.07.2022
2608 Clear 26 1012 73 10000 2.57 360 12:19 14.07.2022
2609 Clear 26 1011 78 10000 1.54 20 11:25 14.07.2022
2610 Clear 27 1011 69 10000 2.57 350 10:39 14.07.2022
2611 Clouds 27 1011 69 10000 3.09 350 08:22 14.07.2022
2612 Clear 29 1012 70 10000 3.09 10 03:36 14.07.2022
2613 Clouds 29 1010 61 10000 2.06 70 00:55 14.07.2022
2614 Rain 29 1010 61 10000 4.12 70 23:41 13.07.2022
2615 Clouds 30 1010 66 10000 3.6 70 22:27 13.07.2022
2616 Clouds 32 1010 58 10000 4.63 90 21:32 13.07.2022
2617 Clouds 32 1011 55 10000 4.12 70 20:38 13.07.2022
2618 Clouds 31 1014 62 10000 3.09 60 17:59 13.07.2022
2619 Clouds 31 1014 62 10000 3.09 60 17:20 13.07.2022
2620 Clear 30 1014 70 10000 3.6 80 15:59 13.07.2022
2621 Clear 27 1012 83 10000 1.03 20 13:50 13.07.2022
2622 Clouds 26 1012 89 10000 1.03 300 11:24 13.07.2022
2623 Clouds 27 1011 83 10000 1.03 30 10:40 13.07.2022
2624 Clear 26 1011 89 10000 1.54 300 09:28 13.07.2022
2625 Clear 27 1012 89 10000 1.03 60 08:21 13.07.2022
2626 Clear 28 1012 78 10000 2.06 80 04:36 13.07.2022
2627 Clouds 30 1010 66 10000 3.6 70 00:47 13.07.2022
2628 Clouds 32 1010 58 10000 4.63 60 22:46 12.07.2022
2629 Clouds 32 1010 58 10000 4.12 90 21:46 12.07.2022
2630 Clouds 32 1012 55 10000 4.63 80 20:53 12.07.2022
2631 Clouds 32 1013 55 10000 5.14 80 19:48 12.07.2022
2632 Clouds 32 1013 58 10000 3.6 110 18:35 12.07.2022
2633 Clear 31 1014 66 10000 2.57 200 16:24 12.07.2022
2634 Clear 29 1013 74 10000 1.03 0 14:32 12.07.2022
2635 Clear 27 1012 78 10000 1.03 30 13:35 12.07.2022
2636 Clear 26 1012 83 10000 1.03 360 11:54 12.07.2022
2637 Clear 25 1011 88 10000 1.03 340 10:26 12.07.2022
2638 Clear 26 1011 89 10000 1.54 360 08:57 12.07.2022
2639 Clear 27 1011 83 10000 1.54 50 07:48 12.07.2022
2640 Clear 26 1012 83 10000 1.54 80 05:45 12.07.2022
2641 Clouds 26 1012 89 10000 1.03 140 04:57 12.07.2022
2642 Clouds 27 1009 78 10000 2.57 80 00:54 12.07.2022
2643 Clouds 32 1008 62 10000 3.6 90 22:43 11.07.2022
2644 Clouds 32 1009 58 10000 1.54 70 21:34 11.07.2022
2645 Clouds 33 1010 58 10000 3.09 190 20:32 11.07.2022
2646 Clouds 33 1010 58 10000 3.09 190 20:32 11.07.2022
2647 Clouds 32 1011 62 10000 2.57 220 19:18 11.07.2022
2648 Clouds 31 1012 66 10000 2.06 190 18:28 11.07.2022
2649 Clouds 30 1013 70 10000 1.54 230 16:30 11.07.2022
2650 Clouds 29 1013 74 10000 1.54 240 15:28 11.07.2022
2651 Clouds 27 1012 78 10000 1.54 300 13:19 11.07.2022
2652 Clouds 25 1011 88 10000 1.03 330 11:23 11.07.2022
2653 Clear 26 1010 83 10000 1.03 10 09:55 11.07.2022
2654 Clear 26 1010 83 10000 1.03 10 09:27 11.07.2022
2655 Clear 26 1011 89 10000 1.03 230 08:31 11.07.2022
2656 Clear 28 1010 74 10000 2.06 50 00:59 11.07.2022
2657 Clouds 30 1009 70 10000 4.63 60 23:54 10.07.2022
2658 Clouds 32 1010 58 10000 3.6 80 22:45 10.07.2022
2659 Clouds 31 1010 62 10000 3.09 220 20:56 10.07.2022
2660 Clouds 31 1012 58 10000 3.09 220 20:36 10.07.2022
2661 Clouds 31 1012 66 10000 2.06 180 19:30 10.07.2022
2662 Clouds 31 1012 66 10000 2.06 180 19:30 10.07.2022
2663 Clouds 30 1013 66 10000 3.09 170 18:25 10.07.2022
2664 Clouds 29 1014 74 10000 2.57 240 17:33 10.07.2022
2665 Clouds 28 1015 78 10000 3.6 240 16:21 10.07.2022
2666 Clouds 27 1014 83 10000 1.54 290 14:47 10.07.2022
2667 Clouds 26 1013 89 10000 1.54 290 13:30 10.07.2022
2668 Clear 26 1013 83 10000 2.06 320 11:44 10.07.2022
2669 Clear 25 1012 88 10000 1.03 250 09:45 10.07.2022
2670 Clear 27 1013 83 10000 2.06 330 08:43 10.07.2022
2671 Clear 27 1013 83 10000 2.57 350 07:19 10.07.2022
2672 Clouds 29 1010 74 10000 4.12 70 23:50 09.07.2022
2673 Clouds 29 1011 74 10000 4.12 60 22:26 09.07.2022
2674 Clouds 29 1011 74 10000 4.12 60 22:26 09.07.2022
2675 Clouds 29 1011 70 10000 4.12 60 21:41 09.07.2022
2676 Thunderstorm 28 1014 78 8000 6.17 20 19:50 09.07.2022
2677 Clouds 30 1014 70 10000 3.09 30 18:28 09.07.2022
2678 Clouds 30 1015 70 10000 3.09 20 17:32 09.07.2022
2679 Clouds 29 1016 74 10000 5.66 50 16:36 09.07.2022
2680 Clear 29 1015 74 10000 2.57 60 15:39 09.07.2022
2681 Clear 26 1015 83 10000 2.06 50 14:24 09.07.2022
2682 Clouds 25 1014 88 10000 2.06 50 13:48 09.07.2022
2683 Clouds 25 1014 88 10000 2.06 50 12:22 09.07.2022
2684 Clear 25 1013 88 10000 4.12 20 10:27 09.07.2022
2685 Clear 25 1013 88 10000 4.12 20 09:57 09.07.2022
2686 Clear 25 1014 88 10000 2.06 30 07:44 09.07.2022
2687 Clear 26 1014 89 10000 4.12 40 04:50 09.07.2022
2688 Rain 27 1011 78 10000 4.63 50 00:38 09.07.2022
2689 Clouds 31 1011 62 10000 7.72 80 22:41 08.07.2022
2690 Clouds 32 1011 58 10000 5.66 70 21:27 08.07.2022
2691 Clouds 32 1012 58 10000 5.66 80 20:40 08.07.2022
2692 Clouds 31 1013 62 10000 6.17 70 19:48 08.07.2022
2693 Clouds 31 1014 66 10000 6.69 70 17:57 08.07.2022
2694 Clear 29 1015 74 10000 5.66 50 16:37 08.07.2022
2695 Clear 28 1015 78 10000 3.6 30 14:51 08.07.2022
2696 Clear 26 1013 83 10000 2.06 60 12:42 08.07.2022
2697 Clear 26 1013 83 10000 2.06 70 11:24 08.07.2022
2698 Clear 26 1013 89 10000 2.06 70 10:21 08.07.2022
2699 Clear 26 1013 83 10000 2.57 250 07:55 08.07.2022
2700 Clear 26 1013 83 10000 2.06 50 06:47 08.07.2022
2701 Clouds 28 1011 74 10000 2.57 30 01:19 08.07.2022
2702 Clouds 31 1009 66 10000 4.63 70 22:57 07.07.2022
2703 Clouds 31 1010 66 10000 5.14 80 21:52 07.07.2022
2704 Clouds 29 1012 74 10000 4.12 10 19:47 07.07.2022
2705 Clouds 32 1013 62 10000 3.6 80 17:56 07.07.2022
2706 Clouds 30 1014 70 10000 3.6 70 16:32 07.07.2022
2707 Clouds 28 1013 78 10000 2.57 30 14:21 07.07.2022
2708 Clouds 25 1012 94 10000 1.03 70 12:46 07.07.2022
2709 Clouds 25 1012 94 10000 1.03 70 12:23 07.07.2022
2710 Clear 25 1011 88 10000 1.03 60 11:34 07.07.2022
2711 Clear 25 1011 88 10000 0.51 30 10:46 07.07.2022
2712 Clear 25 1011 88 10000 0.51 30 10:27 07.07.2022
2713 Clear 25 1011 88 10000 0.51 280 09:32 07.07.2022
2714 Clear 26 1012 83 10000 1.54 20 06:31 07.07.2022
2715 Clouds 25 1009 83 10000 1.29 338 00:28 07.07.2022
2716 Clouds 25 1009 83 10000 1.29 338 23:36 06.07.2022
2717 Clouds 26 1009 79 10000 1.71 347 23:18 06.07.2022
2718 Clouds 30 1010 66 10000 3.6 60 22:51 06.07.2022
2719 Clouds 30 1010 66 10000 3.6 60 22:33 06.07.2022
2720 Clouds 28 1011 78 10000 3.6 120 20:23 06.07.2022
2721 Rain 28 1012 69 10000 4.63 70 19:22 06.07.2022
2722 Clouds 31 1014 66 10000 4.12 70 17:21 06.07.2022
2723 Clouds 29 1014 79 10000 1.54 70 15:55 06.07.2022
2724 Clear 25 1013 94 10000 0.51 60 12:44 06.07.2022
2725 Clear 25 1012 94 10000 1.54 310 11:52 06.07.2022
2726 Clear 25 1012 94 10000 0 0 10:54 06.07.2022
2727 Clear 26 1012 83 10000 1.03 40 09:25 06.07.2022
2728 Clear 25 1013 94 10000 0 0 07:44 06.07.2022
2729 Clear 26 1013 89 10000 0 0 06:44 06.07.2022
2730 Clouds 30 1010 66 10000 2.06 80 23:42 05.07.2022
2731 Clouds 31 1011 62 10000 3.6 80 22:42 05.07.2022
2732 Clouds 30 1012 70 10000 2.57 20 20:49 05.07.2022
2733 Clouds 30 1012 70 10000 2.57 20 20:21 05.07.2022
2734 Clouds 31 1013 66 10000 2.57 10 19:37 05.07.2022
2735 Clouds 30 1014 70 10000 4.63 50 17:50 05.07.2022
2736 Clouds 30 1014 70 10000 4.63 50 17:19 05.07.2022
2737 Clouds 29 1014 74 10000 3.09 50 16:18 05.07.2022
2738 Clouds 28 1014 78 10000 4.12 50 14:54 05.07.2022
2739 Clouds 24 1013 94 10000 1.03 60 12:59 05.07.2022
2740 Clouds 24 1013 94 10000 1.03 60 12:22 05.07.2022
2741 Clouds 25 1013 94 10000 1.03 20 10:45 05.07.2022
2742 Clear 25 1013 94 10000 1.54 70 09:52 05.07.2022
2743 Clear 25 1013 94 10000 1.03 40 08:21 05.07.2022
2744 Clouds 26 1014 89 10000 2.06 70 06:48 05.07.2022
2745 Clouds 26 1014 89 10000 1.03 70 04:30 05.07.2022
2746 Clouds 27 1011 83 10000 2.06 80 00:47 05.07.2022
2747 Clouds 28 1011 78 10000 3.09 50 23:37 04.07.2022
2748 Clouds 28 1011 78 10000 3.09 50 22:54 04.07.2022
2749 Rain 28 1011 78 10000 3.09 10 21:56 04.07.2022
2750 Rain 28 1013 74 10000 3.09 80 20:55 04.07.2022
2751 Rain 28 1013 74 10000 3.09 80 20:35 04.07.2022
2752 Rain 29 1014 74 10000 2.57 70 19:56 04.07.2022
2753 Rain 29 1014 74 10000 2.57 70 19:36 04.07.2022
2754 Clouds 28 1014 74 10000 3.09 340 18:34 04.07.2022
2755 Rain 26 1016 83 10000 3.09 10 16:36 04.07.2022
2756 Clouds 25 1016 88 10000 4.12 30 15:34 04.07.2022
2757 Clouds 24 1014 88 10000 4.63 40 13:35 04.07.2022
2758 Clouds 25 1013 88 10000 3.6 30 12:38 04.07.2022
2759 Clear 25 1012 94 10000 1.03 30 10:39 04.07.2022
2760 Clear 25 1012 94 10000 1.03 30 10:18 04.07.2022
2761 Rain 25 1013 94 10000 1.54 30 08:31 04.07.2022
2762 Rain 25 1014 94 10000 1.54 20 05:34 04.07.2022
2763 Rain 25 1012 94 10000 3.09 120 00:43 04.07.2022
2764 Rain 25 1011 88 10000 2.57 80 23:25 03.07.2022
2765 Thunderstorm 27 1012 74 10000 3.09 280 21:58 03.07.2022
2766 Clouds 30 1012 74 10000 2.06 10 20:41 03.07.2022
2767 Clouds 30 1013 70 10000 3.09 360 19:42 03.07.2022
2768 Clouds 30 1013 70 10000 3.09 360 19:23 03.07.2022
2769 Clouds 29 1015 74 10000 3.09 40 17:45 03.07.2022
2770 Clouds 29 1015 74 10000 3.09 40 16:58 03.07.2022
2771 Clouds 26 1015 89 10000 3.6 60 15:25 03.07.2022
2772 Clouds 25 1014 88 10000 3.09 70 14:37 03.07.2022
2773 Clouds 24 1013 94 10000 2.57 70 13:49 03.07.2022
2774 Clouds 23 1014 100 5000 6.17 70 12:41 03.07.2022
2775 Clear 27 1012 78 10000 2.06 70 11:39 03.07.2022
2776 Clear 27 1012 78 10000 2.57 70 10:39 03.07.2022
2777 Clear 27 1012 83 10000 2.06 70 09:59 03.07.2022
2778 Clear 27 1013 89 10000 2.06 60 07:36 03.07.2022
2779 Clear 27 1013 83 10000 2.06 70 05:18 03.07.2022
2780 Clouds 28 1010 78 10000 2.57 70 00:23 03.07.2022
2781 Clouds 30 1010 70 10000 3.6 60 22:35 02.07.2022
2782 Clouds 31 1011 66 10000 5.66 90 21:38 02.07.2022
2783 Clouds 31 1013 66 10000 4.12 70 19:52 02.07.2022
2784 Clouds 31 1013 66 10000 4.12 70 19:23 02.07.2022
2785 Clouds 30 1014 70 10000 5.66 60 17:51 02.07.2022
2786 Clouds 30 1014 70 10000 5.66 60 17:33 02.07.2022
2787 Clouds 27 1014 83 10000 2.06 60 14:52 02.07.2022
2788 Clouds 24 1012 100 10000 1.03 70 12:22 02.07.2022
2789 Clear 24 1012 94 10000 0.51 0 11:27 02.07.2022
2790 Rain 25 1012 94 10000 1.03 170 10:46 02.07.2022
2791 Rain 25 1012 94 10000 1.03 350 09:37 02.07.2022
2792 Clouds 26 1012 94 10000 1.54 310 08:36 02.07.2022
2793 Clouds 26 1012 94 10000 1.54 310 08:18 02.07.2022
2794 Clear 27 1010 74 10000 1.54 80 02:51 02.07.2022
2795 Clouds 29 1009 65 10000 3.09 70 00:26 02.07.2022
2796 Rain 30 1009 62 10000 6.17 80 22:58 01.07.2022
2797 Clouds 31 1010 58 10000 5.14 70 21:49 01.07.2022
2798 Clouds 31 1010 58 10000 5.14 70 21:29 01.07.2022
2799 Clouds 31 1011 62 10000 4.12 70 20:43 01.07.2022
2800 Clouds 31 1012 66 10000 4.63 60 19:47 01.07.2022
2801 Clouds 31 1013 66 10000 3.09 90 17:58 01.07.2022
2802 Clouds 28 1013 83 10000 2.57 60 16:24 01.07.2022
2803 Clear 26 1012 83 10000 1.54 40 13:55 01.07.2022
2804 Clouds 25 1012 83 10000 2.06 50 12:55 01.07.2022
2805 Clear 25 1011 83 10000 1.03 30 10:45 01.07.2022
2806 Clear 25 1011 83 10000 1.03 30 10:18 01.07.2022
2807 Clear 27 1013 74 10000 1.54 20 05:27 01.07.2022
2808 Clear 28 1010 78 10000 2.06 70 01:27 01.07.2022
2809 Rain 29 1010 65 10000 2.06 80 23:26 30.06.2022
2810 Rain 31 1010 58 10000 3.09 90 22:44 30.06.2022
2811 Rain 31 1010 58 10000 3.09 90 22:26 30.06.2022
2812 Clouds 29 1010 74 10000 3.6 80 21:48 30.06.2022
2813 Clouds 31 1011 58 10000 2.06 0 20:30 30.06.2022
2814 Clouds 31 1011 58 10000 3.09 220 19:55 30.06.2022
2815 Rain 31 1012 62 10000 3.09 220 19:26 30.06.2022
2816 Clouds 30 1013 70 10000 2.06 0 18:42 30.06.2022
2817 Clouds 30 1014 74 10000 1.54 90 17:44 30.06.2022
2818 Clouds 29 1014 74 10000 1.54 0 16:55 30.06.2022
2819 Clouds 28 1014 74 10000 2.06 40 15:42 30.06.2022
2820 Clouds 26 1013 78 10000 2.06 20 13:36 30.06.2022
2821 Clouds 26 1013 78 10000 2.06 40 12:35 30.06.2022
2822 Clear 25 1012 83 10000 1.03 290 11:43 30.06.2022
2823 Clear 26 1012 73 10000 1.03 10 09:55 30.06.2022
2824 Clear 27 1012 74 10000 1.03 40 09:35 30.06.2022
2825 Rain 27 1012 74 10000 2.06 20 08:19 30.06.2022
2826 Clear 27 1013 78 10000 2.06 100 07:23 30.06.2022
2827 Clear 27 1012 78 10000 2.06 70 01:47 30.06.2022
2828 Clouds 31 1011 58 10000 4.12 130 23:35 29.06.2022
2829 Clouds 32 1011 55 10000 3.09 130 22:41 29.06.2022
2830 Clouds 31 1011 58 10000 3.6 140 21:43 29.06.2022
2831 Clouds 32 1013 58 10000 2.57 120 20:34 29.06.2022
2832 Clouds 31 1014 66 10000 3.6 110 19:48 29.06.2022
2833 Clouds 31 1015 66 10000 4.12 130 17:54 29.06.2022
2834 Clouds 29 1015 70 10000 1.03 0 16:48 29.06.2022
2835 Clear 28 1015 78 10000 1.54 200 15:32 29.06.2022
2836 Clear 26 1014 83 10000 0.51 40 13:20 29.06.2022
2837 Clear 25 1014 88 10000 1.03 30 11:57 29.06.2022
2838 Clear 25 1014 88 10000 1.54 10 09:35 29.06.2022
2839 Clear 25 1014 94 10000 1.54 10 08:46 29.06.2022
2840 Clear 26 1015 89 10000 1.54 50 05:42 29.06.2022
2841 Clear 25 1013 94 10000 0.51 140 02:21 29.06.2022
2842 Clouds 27 1012 78 10000 1.54 90 00:38 29.06.2022
2843 Clouds 29 1011 70 10000 1.03 100 23:26 28.06.2022
2844 Clouds 29 1012 74 10000 2.57 280 22:48 28.06.2022
2845 Clouds 29 1012 74 10000 2.57 280 21:55 28.06.2022
2846 Clouds 29 1012 79 10000 2.57 170 21:33 28.06.2022
2847 Clouds 28 1013 78 10000 1.54 90 20:55 28.06.2022
2848 Clouds 29 1014 74 10000 2.06 230 19:48 28.06.2022
2849 Clouds 29 1014 74 10000 2.06 230 19:24 28.06.2022
2850 Clouds 28 1015 74 10000 3.09 310 17:49 28.06.2022
2851 Clouds 27 1015 78 10000 2.57 340 16:29 28.06.2022
2852 Clouds 27 1015 78 10000 2.57 340 15:53 28.06.2022
2853 Clouds 24 1015 94 10000 1.54 30 14:21 28.06.2022
2854 Clouds 25 1014 83 10000 2.06 310 13:55 28.06.2022
2855 Clouds 25 1014 83 10000 2.06 310 13:26 28.06.2022
2856 Clouds 24 1013 88 10000 3.6 300 11:37 28.06.2022
2857 Clouds 25 1013 83 10000 5.14 320 09:41 28.06.2022
2858 Clouds 25 1013 83 10000 5.14 310 08:45 28.06.2022
2859 Clouds 25 1013 83 10000 5.14 310 07:58 28.06.2022
2860 Clouds 26 1013 83 10000 4.12 320 07:19 28.06.2022
2861 Rain 28 1011 69 10000 1.54 30 01:33 28.06.2022
2862 Clouds 29 1009 70 10000 1.54 130 23:45 27.06.2022
2863 Rain 30 1009 66 10000 1.54 80 22:55 27.06.2022
2864 Clouds 31 1010 62 10000 3.09 140 21:38 27.06.2022
2865 Clouds 31 1010 62 10000 3.09 140 20:54 27.06.2022
2866 Clouds 30 1012 66 10000 3.6 150 19:40 27.06.2022
2867 Rain 30 1013 70 10000 1.54 190 18:33 27.06.2022
2868 Clouds 27 1014 89 10000 3.09 250 16:44 27.06.2022
2869 Clouds 26 1014 89 10000 3.09 260 15:42 27.06.2022
2870 Fog 24 1012 100 3000 2.57 310 13:39 27.06.2022
2871 Fog 24 1012 100 800 2.57 310 12:57 27.06.2022
2872 Fog 25 1011 94 10000 1.03 300 10:41 27.06.2022
2873 Fog 26 1011 94 10000 1.03 230 09:23 27.06.2022
2874 Clouds 26 1011 94 10000 1.54 300 08:31 27.06.2022
2875 Fog 26 1012 94 10000 2.06 290 07:38 27.06.2022
2876 Clouds 27 1013 83 10000 2.06 240 04:21 27.06.2022
2877 Clouds 27 1011 78 10000 1.54 310 01:18 27.06.2022
2878 Clouds 30 1010 66 10000 2.06 190 22:27 26.06.2022
2879 Rain 30 1010 66 10000 1.54 0 20:53 26.06.2022
2880 Clouds 28 1012 78 10000 1.03 290 19:44 26.06.2022
2881 Clouds 25 1013 88 10000 2.06 360 18:32 26.06.2022
2882 Thunderstorm 25 1014 94 2000 1.54 110 17:22 26.06.2022
2883 Clouds 27 1014 89 10000 2.06 260 15:27 26.06.2022
2884 Clouds 27 1014 89 10000 2.06 280 13:53 26.06.2022
2885 Clouds 27 1013 83 10000 2.06 300 13:20 26.06.2022
2886 Clear 25 1012 100 10000 1.03 270 11:27 26.06.2022
2887 Clear 25 1011 100 10000 1.03 290 10:28 26.06.2022
2888 Clear 26 1011 94 10000 1.54 240 09:39 26.06.2022
2889 Clear 26 1012 94 10000 1.03 250 07:45 26.06.2022
2890 Clear 28 1012 78 10000 2.06 70 02:52 26.06.2022
2891 Clouds 28 1011 78 10000 2.06 90 00:21 26.06.2022
2892 Clouds 31 1010 66 10000 3.09 80 23:51 25.06.2022
2893 Clouds 31 1010 66 10000 3.09 80 23:23 25.06.2022
2894 Clouds 31 1010 70 10000 4.12 100 22:27 25.06.2022
2895 Clouds 31 1011 66 10000 3.09 80 21:41 25.06.2022
2896 Clouds 31 1011 66 10000 3.09 80 21:18 25.06.2022
2897 Clouds 31 1012 66 10000 4.12 90 20:28 25.06.2022
2898 Clouds 31 1013 66 10000 4.12 90 19:42 25.06.2022
2899 Clouds 31 1013 66 10000 4.12 70 17:57 25.06.2022
2900 Clouds 29 1014 74 10000 3.6 60 17:22 25.06.2022
2901 Clear 29 1014 74 10000 2.57 40 15:36 25.06.2022
2902 Clear 25 1013 94 10000 1.03 60 13:34 25.06.2022
2903 Clear 24 1012 88 10000 1.03 90 12:38 25.06.2022
2904 Clear 25 1010 83 10000 1.54 40 10:35 25.06.2022
2905 Clear 25 1011 83 10000 1.54 50 08:59 25.06.2022
2906 Clear 25 1011 83 10000 1.54 50 08:36 25.06.2022
2907 Clear 26 1011 83 10000 1.54 20 07:54 25.06.2022
2908 Clear 27 1012 78 10000 2.06 80 03:34 25.06.2022
2909 Clouds 29 1010 70 10000 4.63 70 00:35 25.06.2022
2910 Clouds 30 1009 66 10000 6.69 70 22:54 24.06.2022
2911 Clouds 31 1009 62 10000 7.2 80 21:41 24.06.2022
2912 Clouds 31 1010 66 10000 9.26 60 20:45 24.06.2022
2913 Clouds 31 1010 66 10000 9.26 60 20:18 24.06.2022
2914 Clouds 31 1012 70 10000 6.69 80 19:21 24.06.2022
2915 Clouds 30 1012 74 10000 6.17 70 18:48 24.06.2022
2916 Clouds 30 1012 74 10000 6.17 70 18:30 24.06.2022
2917 Clouds 30 1013 74 10000 4.63 70 17:19 24.06.2022
2918 Clouds 29 1013 74 10000 1.54 70 15:29 24.06.2022
2919 Clouds 27 1013 89 10000 1.03 30 14:26 24.06.2022
2920 Clouds 27 1013 89 10000 1.03 30 13:54 24.06.2022
2921 Clouds 25 1011 94 10000 1.03 220 11:43 24.06.2022
2922 Clouds 24 1011 100 10000 1.03 230 10:47 24.06.2022
2923 Clouds 24 1010 100 10000 4.63 300 09:42 24.06.2022
2924 Clouds 24 1010 100 10000 4.63 300 09:19 24.06.2022
2925 Clouds 25 1011 94 8000 1.54 170 08:42 24.06.2022
2926 Rain 25 1012 94 10000 2.06 100 06:47 24.06.2022
2927 Clouds 25 1012 94 10000 2.06 100 06:29 24.06.2022
2928 Rain 26 1012 94 10000 3.09 50 05:52 24.06.2022
2929 Clouds 25 1010 88 10000 2.06 70 00:57 24.06.2022
2930 Clouds 29 1009 74 10000 2.57 110 22:44 23.06.2022
2931 Clouds 30 1009 70 10000 3.09 120 21:52 23.06.2022
2932 Clouds 30 1010 70 10000 3.09 100 20:53 23.06.2022
2933 Clouds 30 1010 70 10000 3.09 100 20:31 23.06.2022
2934 Clouds 29 1013 74 10000 4.12 40 18:43 23.06.2022
2935 Clouds 29 1013 74 10000 2.57 70 17:37 23.06.2022
2936 Clouds 28 1014 83 10000 3.6 70 16:34 23.06.2022
2937 Clouds 28 1013 78 10000 2.57 80 15:27 23.06.2022
2938 Clouds 26 1013 89 10000 1.03 70 14:51 23.06.2022
2939 Clear 25 1011 88 10000 1.03 50 11:54 23.06.2022
2940 Clear 25 1011 88 10000 1.54 50 10:56 23.06.2022
2941 Clear 25 1010 94 10000 1.54 40 09:20 23.06.2022
2942 Clear 26 1012 89 10000 1.03 30 05:48 23.06.2022
2943 Clouds 26 1010 89 10000 0 0 01:21 23.06.2022
2944 Clouds 27 1010 78 10000 2.06 90 00:18 23.06.2022
2945 Clouds 29 1009 70 10000 2.57 80 23:22 22.06.2022
2946 Clouds 29 1010 65 10000 2.57 170 21:44 22.06.2022
2947 Clouds 30 1011 66 10000 1.54 0 20:52 22.06.2022
2948 Clouds 30 1011 66 10000 1.54 0 20:20 22.06.2022
2949 Clouds 29 1012 74 10000 2.57 240 19:43 22.06.2022
2950 Clouds 27 1013 83 10000 3.09 260 17:40 22.06.2022
2951 Clouds 26 1014 89 10000 3.09 240 16:43 22.06.2022
2952 Clouds 26 1013 83 10000 1.54 310 15:29 22.06.2022
2953 Fog 26 1013 83 10000 2.06 360 14:51 22.06.2022
2954 Fog 24 1012 100 10000 2.06 360 13:48 22.06.2022
2955 Fog 24 1012 100 10000 2.06 360 13:24 22.06.2022
2956 Fog 24 1012 100 10000 1.54 290 12:18 22.06.2022
2957 Fog 24 1012 100 10000 1.54 340 11:45 22.06.2022
2958 Fog 25 1012 94 10000 1.54 320 10:46 22.06.2022
2959 Fog 25 1012 94 10000 1.54 310 09:40 22.06.2022
2960 Clouds 26 1013 83 10000 2.57 300 06:55 22.06.2022
2961 Clouds 26 1012 89 10000 3.09 260 02:26 22.06.2022
2962 Clouds 26 1011 83 10000 2.06 250 00:57 22.06.2022
2963 Clouds 26 1011 83 10000 2.06 250 00:57 22.06.2022
2964 Rain 28 1011 83 10000 3.6 80 22:53 21.06.2022
2965 Clouds 31 1011 70 10000 3.09 180 20:58 21.06.2022
2966 Clouds 30 1012 70 10000 3.09 190 19:24 21.06.2022
2967 Clouds 28 1013 78 10000 2.06 240 17:56 21.06.2022
2968 Clouds 27 1014 83 10000 1.03 200 16:47 21.06.2022
2969 Clouds 25 1012 88 10000 1.03 310 11:59 21.06.2022
2970 Clouds 25 1011 88 10000 2.06 340 10:46 21.06.2022
2971 Clear 25 1011 88 10000 2.57 340 09:24 21.06.2022
2972 Clear 25 1012 88 10000 1.54 10 07:49 21.06.2022
2973 Thunderstorm 26 1013 89 10000 3.09 310 04:57 21.06.2022
2974 Clouds 27 1010 83 10000 1.03 0 00:23 21.06.2022
2975 Rain 28 1010 74 10000 1.54 160 22:21 20.06.2022
2976 Rain 28 1010 74 10000 1.54 160 22:21 20.06.2022
2977 Clouds 30 1010 70 10000 2.57 200 21:37 20.06.2022
2978 Clouds 30 1011 70 10000 2.57 180 20:28 20.06.2022
2979 Clouds 30 1012 74 10000 2.57 190 19:36 20.06.2022
2980 Clouds 29 1013 74 10000 2.06 360 18:26 20.06.2022
2981 Clouds 29 1014 79 10000 1.54 340 17:49 20.06.2022
2982 Clouds 28 1014 78 10000 1.03 200 16:26 20.06.2022
2983 Rain 27 1015 78 10000 1.03 20 15:20 20.06.2022
2984 Fog 24 1013 94 10000 1.54 330 12:18 20.06.2022
2985 Clear 24 1012 88 10000 1.03 220 09:57 20.06.2022
2986 Clear 23 1012 94 10000 0 0 08:54 20.06.2022
2987 Clouds 24 1013 88 10000 1.03 340 07:51 20.06.2022
2988 Clouds 23 1013 94 10000 4.12 10 05:18 20.06.2022
2989 Clear 27 1011 78 10000 1.54 10 01:32 20.06.2022
2990 Clouds 29 1010 74 10000 1.54 280 23:49 19.06.2022
2991 Clouds 30 1010 66 10000 2.57 60 22:25 19.06.2022
2992 Clouds 30 1010 70 10000 2.06 320 21:43 19.06.2022
2993 Clouds 29 1011 74 10000 3.6 70 20:55 19.06.2022
2994 Clouds 29 1011 74 10000 3.6 70 20:25 19.06.2022
2995 Clouds 28 1012 74 10000 4.12 40 19:45 19.06.2022
2996 Clouds 28 1013 74 10000 5.14 90 18:33 19.06.2022
2997 Clouds 30 1013 66 10000 3.6 70 17:48 19.06.2022
2998 Clouds 30 1013 66 10000 3.6 70 17:20 19.06.2022
2999 Clouds 26 1014 89 10000 3.09 100 16:34 19.06.2022
3000 Clouds 26 1014 94 10000 4.63 80 15:35 19.06.2022
3001 Clouds 24 1014 100 5000 1.03 130 14:43 19.06.2022
3002 Clouds 26 1012 89 10000 1.03 180 13:54 19.06.2022
3003 Clear 25 1011 88 10000 1.03 0 12:26 19.06.2022
3004 Clear 25 1011 94 10000 1.54 140 10:53 19.06.2022
3005 Clear 26 1011 89 10000 2.06 160 09:31 19.06.2022
3006 Clear 26 1012 83 10000 2.57 150 08:35 19.06.2022
3007 Clear 27 1012 83 10000 1.03 0 07:30 19.06.2022
3008 Clear 26 1012 83 10000 1.03 220 04:27 19.06.2022
3009 Clouds 28 1011 74 10000 1.03 200 01:28 19.06.2022
3010 Clouds 29 1010 65 10000 1.54 140 00:23 19.06.2022
3011 Clouds 30 1010 62 10000 2.57 130 23:35 18.06.2022
3012 Clouds 30 1010 66 10000 3.6 140 22:33 18.06.2022
3013 Clouds 32 1012 58 10000 3.09 90 20:54 18.06.2022
3014 Clouds 32 1012 58 10000 3.09 90 20:24 18.06.2022
3015 Clouds 31 1013 62 10000 3.6 90 19:21 18.06.2022
3016 Clouds 30 1013 66 10000 3.6 110 18:42 18.06.2022
3017 Clouds 30 1013 70 10000 3.6 90 17:30 18.06.2022
3018 Clouds 29 1014 74 10000 3.6 80 16:20 18.06.2022
3019 Clear 29 1014 74 10000 1.54 70 15:18 18.06.2022
3020 Clear 28 1013 83 10000 1.54 170 14:41 18.06.2022
3021 Clear 23 1012 94 10000 0.51 290 12:46 18.06.2022
3022 Clear 24 1011 88 10000 1.03 20 11:29 18.06.2022
3023 Clear 24 1011 94 10000 1.03 80 10:23 18.06.2022
3024 Clear 26 1011 83 10000 2.06 80 09:19 18.06.2022
3025 Clear 26 1011 83 10000 2.06 70 07:58 18.06.2022
3026 Clear 25 1012 88 10000 1.54 80 06:24 18.06.2022
3027 Clear 24 1011 83 10000 1.03 80 02:53 18.06.2022
3028 Clear 24 1010 83 10000 1.54 90 01:23 18.06.2022
3029 Clouds 27 1010 78 10000 2.06 100 00:39 18.06.2022
3030 Clouds 31 1010 55 10000 3.6 100 23:42 17.06.2022
3031 Clouds 31 1010 58 10000 4.12 80 22:49 17.06.2022
3032 Clouds 30 1011 58 10000 3.6 90 20:33 17.06.2022
3033 Clouds 30 1012 70 10000 2.57 70 19:24 17.06.2022
3034 Clouds 30 1013 66 10000 3.09 200 18:24 17.06.2022
3035 Clouds 29 1013 70 10000 3.09 170 17:22 17.06.2022
3036 Clouds 29 1014 70 10000 1.54 40 16:37 17.06.2022
3037 Clouds 28 1014 74 10000 1.03 0 15:41 17.06.2022
3038 Clear 28 1013 74 10000 0.51 0 14:37 17.06.2022
3039 Clear 28 1013 74 10000 0.51 0 14:18 17.06.2022
3040 Clear 25 1013 83 10000 1.03 340 13:41 17.06.2022
3041 Clear 23 1012 94 10000 1.54 360 12:42 17.06.2022
3042 Clear 24 1012 88 10000 1.03 360 11:56 17.06.2022
3043 Clear 24 1012 88 10000 1.03 360 11:34 17.06.2022
3044 Clear 25 1012 88 10000 1.03 10 09:49 17.06.2022
3045 Clear 24 1012 100 10000 0.51 30 08:27 17.06.2022
3046 Clear 24 1013 94 10000 1.03 80 06:51 17.06.2022
3047 Clear 24 1013 94 10000 1.03 30 04:49 17.06.2022
3048 Clouds 25 1011 88 10000 2.57 90 01:57 17.06.2022
3049 Clouds 28 1010 74 10000 3.6 70 00:26 17.06.2022
3050 Clouds 30 1010 66 10000 3.09 80 22:42 16.06.2022
3051 Rain 31 1011 62 10000 4.12 50 21:23 16.06.2022
3052 Rain 30 1012 70 10000 4.63 60 20:56 16.06.2022
3053 Clouds 30 1012 70 10000 4.63 60 20:36 16.06.2022
3054 Clouds 30 1012 70 10000 4.63 60 20:36 16.06.2022
3055 Clouds 30 1013 70 10000 3.09 50 19:45 16.06.2022
3056 Clouds 30 1014 74 10000 2.57 200 18:26 16.06.2022
3057 Clouds 29 1015 74 10000 2.06 360 17:43 16.06.2022
3058 Clouds 29 1015 74 10000 1.03 150 16:39 16.06.2022
3059 Clouds 27 1015 83 10000 1.54 200 15:22 16.06.2022
3060 Clouds 27 1015 83 10000 1.03 280 14:37 16.06.2022
3061 Clouds 25 1014 94 10000 1.54 270 13:22 16.06.2022
3062 Clouds 24 1014 94 10000 1.03 260 12:36 16.06.2022
3063 Clouds 24 1013 100 10000 1.03 260 11:51 16.06.2022
3064 Clouds 25 1013 94 10000 1.54 250 10:56 16.06.2022
3065 Clouds 25 1013 94 10000 1.54 250 10:20 16.06.2022
3066 Fog 25 1013 94 10000 1.03 240 09:21 16.06.2022
3067 Clouds 24 1013 94 10000 1.54 260 08:30 16.06.2022
3068 Clear 25 1014 88 10000 1.03 260 07:26 16.06.2022
3069 Clear 26 1014 83 10000 1.03 320 04:50 16.06.2022
3070 Rain 26 1013 78 10000 1.03 0 02:20 16.06.2022
3071 Clouds 26 1012 78 10000 1.54 30 01:35 16.06.2022
3072 Clouds 26 1011 83 10000 1.54 40 00:56 16.06.2022
3073 Clouds 27 1011 83 10000 2.06 20 23:43 15.06.2022
3074 Rain 28 1011 74 10000 3.6 320 22:35 15.06.2022
3075 Clouds 30 1011 66 10000 2.57 310 21:22 15.06.2022
3076 Clouds 30 1011 66 10000 3.09 90 20:42 15.06.2022
3077 Clouds 30 1011 66 10000 3.09 90 20:23 15.06.2022
3078 Clouds 29 1013 70 10000 3.6 90 19:20 15.06.2022
3079 Clouds 29 1014 70 10000 1.54 0 17:56 15.06.2022
3080 Clouds 27 1015 83 10000 2.57 70 16:55 15.06.2022
3081 Clouds 25 1015 88 10000 3.6 30 15:37 15.06.2022
3082 Clouds 25 1014 94 10000 3.09 60 14:18 15.06.2022
3083 Clouds 23 1013 100 10000 1.03 80 12:54 15.06.2022
3084 Clouds 24 1013 94 10000 1.54 90 11:53 15.06.2022
3085 Clouds 24 1012 100 10000 1.54 100 10:24 15.06.2022
3086 Clouds 24 1012 100 10000 1.54 170 09:42 15.06.2022
3087 Clouds 24 1013 94 10000 2.06 130 08:37 15.06.2022
3088 Clouds 25 1014 88 10000 2.06 150 06:34 15.06.2022
3089 Clouds 25 1014 88 10000 1.03 260 04:34 15.06.2022
3090 Clear 27 1012 78 10000 2.57 250 01:54 15.06.2022
3091 Clouds 28 1011 74 10000 2.57 190 00:50 15.06.2022
3092 Clouds 28 1010 74 10000 3.6 190 23:39 14.06.2022
3093 Clouds 28 1010 74 10000 3.6 190 23:19 14.06.2022
3094 Clouds 29 1010 70 10000 4.12 280 22:21 14.06.2022
3095 Clouds 29 1011 70 10000 4.12 200 21:36 14.06.2022
3096 Clouds 29 1012 70 10000 4.12 200 20:54 14.06.2022
3097 Clouds 29 1012 70 10000 3.09 160 20:28 14.06.2022
3098 Clouds 29 1013 70 10000 2.57 0 19:18 14.06.2022
3099 Clouds 27 1015 74 10000 2.06 210 17:54 14.06.2022
3100 Clouds 27 1015 78 10000 2.06 190 16:43 14.06.2022
3101 Clouds 26 1015 83 10000 2.06 180 15:50 14.06.2022
3102 Clouds 26 1015 83 10000 2.06 180 15:24 14.06.2022
3103 Clouds 25 1014 88 10000 1.54 180 14:33 14.06.2022
3104 Fog 24 1014 94 10000 1.03 0 13:42 14.06.2022
3105 Clouds 24 1013 100 10000 1.03 210 12:44 14.06.2022
3106 Clouds 23 1013 100 6000 1.03 20 11:32 14.06.2022
3107 Clouds 24 1013 88 10000 1.03 360 10:47 14.06.2022
3108 Clouds 24 1013 88 10000 1.03 360 10:20 14.06.2022
3109 Clouds 24 1014 94 10000 1.03 340 08:47 14.06.2022
3110 Clouds 24 1014 94 10000 1.54 40 07:33 14.06.2022
3111 Clouds 24 1015 94 10000 1.03 60 05:21 14.06.2022
3112 Clouds 25 1014 88 10000 1.54 150 02:57 14.06.2022
3113 Clouds 26 1013 83 10000 2.06 130 00:32 14.06.2022
3114 Rain 26 1013 83 10000 2.06 170 23:27 13.06.2022
3115 Clouds 27 1013 74 10000 2.57 140 22:26 13.06.2022
3116 Clouds 27 1013 74 10000 3.09 160 21:49 13.06.2022
3117 Clouds 27 1014 74 10000 2.06 160 20:31 13.06.2022
3118 Clouds 26 1015 78 10000 2.06 130 19:34 13.06.2022
3119 Clouds 25 1016 83 10000 2.06 130 18:25 13.06.2022
3120 Clouds 25 1017 83 10000 2.57 140 17:46 13.06.2022
3121 Rain 24 1017 88 10000 3.09 140 16:52 13.06.2022
3122 Rain 24 1017 88 10000 2.57 170 15:38 13.06.2022
3123 Rain 23 1016 94 10000 2.57 190 14:43 13.06.2022
3124 Rain 23 1016 100 10000 3.09 150 13:53 13.06.2022
3125 Clouds 23 1015 94 1800 3.09 170 12:47 13.06.2022
3126 Clouds 24 1014 94 5000 2.57 140 11:26 13.06.2022
3127 Rain 24 1014 94 4000 3.09 250 10:27 13.06.2022
3128 Clouds 24 1014 94 4000 2.06 180 09:38 13.06.2022
3129 Clouds 24 1015 88 10000 3.09 170 07:51 13.06.2022
3130 Rain 24 1016 88 10000 3.6 180 05:49 13.06.2022
3131 Clouds 25 1014 83 10000 5.14 180 02:55 13.06.2022
3132 Clouds 26 1014 83 10000 3.09 240 01:37 13.06.2022
3133 Clouds 26 1013 83 10000 3.09 210 00:21 13.06.2022
3134 Clouds 27 1012 78 10000 3.09 200 23:25 12.06.2022
3135 Clouds 28 1012 78 10000 4.12 270 22:22 12.06.2022
3136 Clouds 27 1012 78 10000 2.57 230 21:22 12.06.2022
3137 Clouds 28 1013 74 10000 2.57 230 20:33 12.06.2022
3138 Clouds 28 1014 69 10000 1.54 190 19:30 12.06.2022
3139 Clouds 27 1015 74 10000 2.06 160 17:53 12.06.2022
3140 Clouds 27 1016 74 10000 2.06 170 16:34 12.06.2022
3141 Clouds 25 1016 83 10000 1.54 170 15:18 12.06.2022
3142 Clouds 24 1016 88 10000 1.54 180 14:29 12.06.2022
3143 Clouds 24 1016 88 10000 2.06 170 13:55 12.06.2022
3144 Clouds 24 1014 88 9000 1.54 200 12:43 12.06.2022
3145 Clouds 24 1013 88 9000 1.54 170 11:40 12.06.2022
3146 Clouds 24 1013 88 10000 2.06 190 10:38 12.06.2022
3147 Clouds 24 1013 88 10000 1.54 20 09:19 12.06.2022
3148 Clouds 24 1013 88 10000 1.54 170 08:45 12.06.2022
3149 Rain 24 1013 83 10000 2.06 170 07:33 12.06.2022
3150 Clouds 24 1014 88 10000 2.06 120 04:52 12.06.2022
3151 Clouds 24 1014 88 10000 2.57 180 03:24 12.06.2022
3152 Clouds 24 1013 94 10000 1.54 210 01:42 12.06.2022
3153 Clouds 24 1012 94 10000 3.09 240 00:58 12.06.2022
3154 Clouds 24 1012 94 10000 3.09 240 00:20 12.06.2022
3155 Rain 24 1012 94 10000 3.09 240 23:44 11.06.2022
3156 Clouds 24 1012 94 10000 3.09 250 22:38 11.06.2022
3157 Rain 24 1013 88 10000 2.57 250 21:52 11.06.2022
3158 Rain 24 1013 94 10000 2.06 230 20:36 11.06.2022
3159 Rain 25 1014 88 10000 1.54 190 19:46 11.06.2022
3160 Clouds 25 1014 88 10000 1.54 190 19:25 11.06.2022
3161 Rain 25 1014 88 10000 2.06 180 18:33 11.06.2022
3162 Rain 25 1015 88 10000 2.06 150 17:51 11.06.2022
3163 Rain 25 1015 88 10000 2.06 150 17:26 11.06.2022
3164 Rain 25 1015 88 10000 2.06 150 16:55 11.06.2022
3165 Clouds 24 1015 94 10000 2.06 130 16:27 11.06.2022
3166 Rain 24 1015 94 8000 2.06 170 15:30 11.06.2022
3167 Rain 23 1014 100 6000 3.09 130 13:53 11.06.2022
3168 Rain 24 1013 94 10000 3.6 140 12:51 11.06.2022
3169 Rain 24 1012 100 10000 3.09 140 10:46 11.06.2022
3170 Rain 24 1011 100 10000 3.09 130 09:48 11.06.2022
3171 Thunderstorm 23 1012 100 5000 2.57 110 08:51 11.06.2022
3172 Thunderstorm 23 1012 100 1000 5.14 90 07:40 11.06.2022
3173 Rain 24 1012 94 10000 3.09 80 06:25 11.06.2022
3174 Clouds 27 1012 83 10000 2.06 80 04:23 11.06.2022
3175 Clear 26 1010 89 10000 1.54 60 01:52 11.06.2022
3176 Clear 26 1010 89 10000 1.54 60 01:27 11.06.2022
3177 Clouds 30 1008 70 10000 3.09 80 23:34 10.06.2022
3178 Clouds 30 1008 70 10000 4.63 80 22:31 10.06.2022
3179 Clouds 31 1009 66 10000 4.63 80 21:50 10.06.2022
3180 Clouds 30 1010 70 10000 4.12 70 20:40 10.06.2022
3181 Clouds 30 1010 70 10000 4.12 70 20:21 10.06.2022
3182 Clouds 30 1010 70 10000 4.12 70 20:21 10.06.2022
3183 Clouds 30 1011 62 10000 4.12 70 19:19 10.06.2022
3184 Clouds 30 1011 62 10000 4.12 70 18:55 10.06.2022
3185 Clouds 29 1013 70 10000 4.12 80 17:55 10.06.2022
3186 Clouds 29 1013 70 10000 3.09 60 17:33 10.06.2022
3187 Clouds 29 1014 70 10000 3.6 70 16:47 10.06.2022
3188 Clouds 28 1014 78 10000 2.06 60 15:40 10.06.2022
3189 Clouds 27 1014 83 10000 2.57 30 14:34 10.06.2022
3190 Clouds 25 1013 94 10000 1.54 30 13:23 10.06.2022
3191 Clear 25 1012 88 10000 1.03 50 11:59 10.06.2022
3192 Clear 25 1012 94 10000 1.54 50 11:25 10.06.2022
3193 Clear 25 1011 94 10000 1.03 40 10:35 10.06.2022
3194 Clear 25 1011 94 10000 1.54 20 09:21 10.06.2022
3195 Clear 26 1012 89 10000 1.54 0 07:51 10.06.2022
3196 Clear 26 1012 89 10000 2.57 70 06:47 10.06.2022
3197 Clear 26 1012 89 10000 2.57 70 06:28 10.06.2022
3198 Clear 26 1012 89 10000 2.57 50 04:55 10.06.2022
3199 Rain 26 1011 83 10000 1.54 70 02:31 10.06.2022
3200 Clouds 26 1010 83 10000 5.14 70 01:37 10.06.2022
3201 Clouds 31 1009 66 10000 2.06 180 23:58 09.06.2022
3202 Clouds 31 1008 62 10000 2.57 170 22:30 09.06.2022
3203 Clouds 31 1009 66 10000 3.09 210 21:43 09.06.2022
3204 Clouds 31 1009 66 10000 3.09 210 21:24 09.06.2022
3205 Clouds 31 1010 66 10000 2.06 200 20:38 09.06.2022
3206 Clouds 30 1011 70 10000 2.06 0 19:43 09.06.2022
3207 Clouds 31 1013 62 10000 2.57 360 18:37 09.06.2022
3208 Clouds 29 1014 74 10000 3.09 20 17:31 09.06.2022
3209 Clouds 29 1014 74 10000 3.09 350 16:28 09.06.2022
3210 Clouds 25 1013 94 10000 2.57 10 14:52 09.06.2022
3211 Clouds 25 1013 94 10000 2.06 60 14:27 09.06.2022
3212 Clouds 25 1012 94 10000 1.03 10 13:30 09.06.2022
3213 Clouds 25 1012 94 10000 1.03 10 12:55 09.06.2022
3214 Clouds 24 1011 94 10000 1.54 70 11:33 09.06.2022
3215 Clouds 23 1011 25 10000 1.03 70 09:55 09.06.2022
3216 Clouds 23 1011 25 10000 1.03 70 09:55 09.06.2022
3217 Clouds 23 1011 100 10000 0 0 09:37 09.06.2022
3218 Clouds 24 1011 100 10000 1.03 90 08:33 09.06.2022
3219 Clouds 24 1011 100 10000 1.54 70 07:24 09.06.2022
3220 Clouds 24 1011 94 10000 2.06 70 03:29 09.06.2022
3221 Rain 25 1009 88 10000 2.06 80 00:32 09.06.2022
3222 Clouds 26 1009 89 10000 2.06 50 22:59 08.06.2022
3223 Rain 26 1009 89 10000 2.06 50 22:30 08.06.2022
3224 Clouds 26 1010 83 10000 2.06 80 21:59 08.06.2022
3225 Rain 26 1010 83 10000 2.06 80 21:31 08.06.2022
3226 Rain 26 1011 83 10000 4.63 60 20:24 08.06.2022
3227 Clouds 27 1012 83 10000 2.57 80 19:40 08.06.2022
3228 Clouds 31 1013 66 10000 2.57 160 18:48 08.06.2022
3229 Clouds 30 1013 62 10000 2.06 80 17:35 08.06.2022
3230 Clouds 29 1014 70 10000 2.06 360 15:52 08.06.2022
3231 Clouds 26 1013 83 10000 1.54 20 14:31 08.06.2022
3232 Clear 24 1011 94 10000 1.03 30 12:46 08.06.2022
3233 Clear 25 1011 88 10000 1.03 20 11:35 08.06.2022
3234 Clear 25 1010 94 10000 1.03 60 10:37 08.06.2022
3235 Clear 24 1011 100 10000 1.03 90 09:28 08.06.2022
3236 Clear 25 1011 88 10000 0.51 80 08:49 08.06.2022
3237 Clear 26 1012 83 10000 1.54 10 06:43 08.06.2022
3238 Clear 26 1012 89 10000 1.54 60 04:35 08.06.2022
3239 Clouds 27 1009 78 10000 1.03 320 00:57 08.06.2022
3240 Clouds 30 1009 66 10000 2.06 130 23:31 07.06.2022
3241 Clouds 30 1009 62 10000 2.57 180 22:50 07.06.2022
3242 Clouds 30 1009 62 10000 2.57 180 22:31 07.06.2022
3243 Clouds 30 1010 62 10000 2.57 180 21:35 07.06.2022
3244 Clouds 30 1010 62 10000 3.09 190 20:59 07.06.2022
3245 Clouds 30 1010 62 10000 3.09 190 20:33 07.06.2022
3246 Clouds 30 1011 70 10000 2.06 200 19:48 07.06.2022
3247 Clouds 28 1012 74 10000 2.06 170 18:25 07.06.2022
3248 Clouds 28 1013 78 10000 3.09 210 17:31 07.06.2022
3249 Clouds 27 1014 83 10000 1.54 60 16:43 07.06.2022
3250 Clouds 26 1014 83 10000 1.54 60 15:57 07.06.2022
3251 Clouds 26 1014 83 10000 1.54 60 15:27 07.06.2022
3252 Clouds 25 1013 88 10000 2.57 50 14:52 07.06.2022
3253 Clouds 25 1013 88 10000 2.57 50 14:34 07.06.2022
3254 Clear 23 1013 94 10000 2.57 60 13:32 07.06.2022
3255 Clear 23 1012 94 10000 1.54 20 12:52 07.06.2022
3256 Clear 23 1011 94 10000 2.06 40 11:48 07.06.2022
3257 Clear 23 1011 94 10000 1.03 30 10:27 07.06.2022
3258 Clear 23 1012 94 10000 2.06 40 08:51 07.06.2022
3259 Clouds 24 1012 94 10000 4.63 20 07:34 07.06.2022
3260 Rain 24 1012 94 10000 1.54 10 06:38 07.06.2022
3261 Rain 24 1012 94 10000 1.54 10 06:38 07.06.2022
3262 Rain 24 1012 94 10000 1.03 320 04:20 07.06.2022
3263 Clouds 24 1011 94 10000 2.06 90 01:27 07.06.2022
3264 Rain 24 1012 88 10000 2.06 30 23:46 06.06.2022
3265 Rain 24 1012 88 8000 3.6 40 22:54 06.06.2022
3266 Rain 24 1012 88 8000 3.6 40 22:28 06.06.2022
3267 Rain 25 1012 88 9000 2.57 30 20:42 06.06.2022
3268 Clouds 29 1013 74 10000 1.54 80 19:24 06.06.2022
3269 Clouds 28 1014 78 10000 2.57 70 18:48 06.06.2022
3270 Clouds 27 1015 83 10000 2.57 50 17:59 06.06.2022
3271 Clouds 27 1015 83 10000 2.06 360 16:57 06.06.2022
3272 Clouds 27 1015 83 10000 2.06 360 15:57 06.06.2022
3273 Mist 26 1015 89 10000 1.54 50 14:59 06.06.2022
3274 Mist 26 1015 89 10000 1.54 50 14:59 06.06.2022
3275 Fog 24 1014 94 9000 1.54 360 14:26 06.06.2022
3276 Fog 24 1013 94 8000 1.54 360 13:20 06.06.2022
3277 Fog 23 1013 94 10000 1.54 350 12:35 06.06.2022
3278 Fog 23 1012 100 10000 1.03 350 11:49 06.06.2022
3279 Fog 24 1012 94 10000 1.54 340 09:53 06.06.2022
3280 Fog 24 1012 94 10000 1.54 320 09:18 06.06.2022
3281 Clouds 23 1012 100 10000 1.03 10 08:31 06.06.2022
3282 Clear 23 1012 100 10000 1.54 70 07:20 06.06.2022
3283 Clear 23 1013 94 10000 0.51 150 04:39 06.06.2022
3284 Clouds 24 1011 88 10000 2.06 170 01:57 06.06.2022
3285 Clouds 24 1011 88 10000 2.06 130 00:57 06.06.2022
3286 Clouds 24 1011 88 10000 2.06 130 00:34 06.06.2022
3287 Clouds 25 1011 83 10000 2.06 130 23:20 05.06.2022
3288 Clouds 25 1011 88 10000 2.57 40 22:26 05.06.2022
3289 Clouds 23 1012 94 10000 2.57 50 20:29 05.06.2022
3290 Clouds 22 1014 100 5000 4.63 80 19:26 05.06.2022
3291 Rain 22 1016 100 1000 7.72 110 18:19 05.06.2022
3292 Rain 26 1015 83 10000 3.09 170 17:39 05.06.2022
3293 Clouds 27 1015 83 10000 3.09 170 17:21 05.06.2022
3294 Rain 27 1015 83 10000 2.57 180 16:47 05.06.2022
3295 Clouds 26 1015 89 10000 3.09 270 15:28 05.06.2022
3296 Clouds 26 1013 89 10000 2.57 270 14:21 05.06.2022
3297 Clouds 25 1012 94 10000 2.06 320 11:59 05.06.2022
3298 Clouds 25 1012 94 10000 2.57 340 10:45 05.06.2022
3299 Clouds 25 1012 94 10000 2.57 340 10:24 05.06.2022
3300 Clouds 25 1012 94 10000 2.06 310 09:42 05.06.2022
3301 Clouds 25 1012 94 10000 2.06 310 08:25 05.06.2022
3302 Clouds 26 1012 94 10000 3.09 290 06:25 05.06.2022
3303 Clouds 25 1013 94 10000 2.06 300 05:19 05.06.2022
3304 Clouds 25 1011 100 10000 2.57 250 02:48 05.06.2022
3305 Clouds 26 1011 89 10000 2.06 290 01:24 05.06.2022
3306 Rain 26 1010 89 10000 3.6 260 23:36 04.06.2022
3307 Rain 25 1010 100 8000 3.6 300 21:30 04.06.2022
3308 Rain 27 1012 83 10000 3.09 250 19:36 04.06.2022
3309 Clouds 26 1013 89 10000 1.03 180 17:21 04.06.2022
3310 Thunderstorm 26 1014 89 10000 2.06 160 16:20 04.06.2022
3311 Clouds 26 1014 94 10000 2.57 220 15:45 04.06.2022
3312 Clouds 25 1013 94 10000 2.06 250 14:18 04.06.2022
3313 Clouds 25 1012 94 7000 1.54 240 11:43 04.06.2022
3314 Clouds 25 1012 94 10000 1.54 250 10:55 04.06.2022
3315 Clouds 25 1012 100 10000 1.54 290 09:59 04.06.2022
3316 Clouds 25 1012 100 10000 1.54 290 09:38 04.06.2022
3317 Rain 25 1012 100 10000 1.54 320 08:39 04.06.2022
3318 Rain 23 1012 95 10000 0.9 122 07:00 04.06.2022
3319 Clouds 27 1012 89 6000 4.12 110 04:29 04.06.2022
3320 Clouds 27 1009 83 10000 2.57 70 00:24 04.06.2022
3321 Clouds 28 1009 78 10000 3.09 90 23:19 03.06.2022
3322 Clouds 29 1009 74 10000 4.12 70 22:20 03.06.2022
3323 Clouds 31 1011 70 10000 3.6 80 20:42 03.06.2022
3324 Clouds 31 1011 70 10000 3.6 80 20:42 03.06.2022
3325 Clouds 31 1011 70 10000 3.6 80 19:58 03.06.2022
3326 Clouds 30 1013 74 10000 1.54 100 16:59 03.06.2022
3327 Clouds 29 1014 79 10000 3.6 70 16:30 03.06.2022
3328 Clouds 27 1013 89 10000 1.54 70 14:47 03.06.2022
3329 Clear 25 1012 94 10000 0.51 90 12:26 03.06.2022
3330 Clear 25 1011 88 10000 0.51 300 09:58 03.06.2022
3331 Clear 25 1011 88 10000 0.51 300 09:29 03.06.2022
3332 Clear 24 1012 94 10000 1.03 220 07:50 03.06.2022
3333 Clear 24 1012 94 10000 1.03 220 07:19 03.06.2022
3334 Clear 26 1012 83 10000 2.06 250 06:30 03.06.2022
3335 Clear 26 1012 83 10000 2.06 10 04:35 03.06.2022
3336 Clouds 27 1010 74 10000 3.09 360 00:21 03.06.2022
3337 Rain 29 1009 74 10000 2.57 110 22:34 02.06.2022
3338 Clouds 30 1009 70 10000 3.6 170 20:58 02.06.2022
3339 Clouds 30 1010 70 10000 3.6 180 19:59 02.06.2022
3340 Clouds 30 1011 70 10000 3.6 180 19:40 02.06.2022
3341 Clouds 30 1012 74 10000 2.06 150 18:59 02.06.2022
3342 Clouds 27 1014 78 10000 1.54 180 16:30 02.06.2022
3343 Clouds 27 1014 83 10000 1.54 120 15:47 02.06.2022
3344 Clouds 25 1013 94 10000 1.54 170 13:32 02.06.2022
3345 Clouds 25 1012 94 10000 1.03 0 12:51 02.06.2022
3346 Clouds 24 1011 100 10000 1.03 0 10:48 02.06.2022
3347 Clouds 24 1011 100 10000 0 0 09:45 02.06.2022
3348 Clouds 24 1011 100 10000 0 0 09:26 02.06.2022
3349 Clouds 25 1011 94 10000 1.54 170 08:23 02.06.2022
3350 Clouds 24 1012 100 10000 0.51 0 06:21 02.06.2022
3351 Clouds 24 1011 94 10000 0.51 100 03:51 02.06.2022
3352 Clouds 24 1009 94 10000 1.03 120 01:33 02.06.2022
3353 Clouds 25 1009 88 10000 1.54 60 23:22 01.06.2022
3354 Clouds 25 1010 88 10000 3.09 70 22:18 01.06.2022
3355 Clouds 25 1010 88 10000 3.09 80 21:24 01.06.2022
3356 Clouds 25 1012 88 10000 4.12 80 20:39 01.06.2022
3357 Rain 24 1013 94 10000 3.09 100 19:52 01.06.2022
3358 Clouds 23 1013 94 8000 3.6 110 18:41 01.06.2022
3359 Clouds 27 1014 78 10000 3.09 230 16:58 01.06.2022
3360 Clouds 27 1014 78 10000 3.09 300 15:45 01.06.2022
3361 Clouds 25 1013 88 10000 3.09 310 14:50 01.06.2022
3362 Drizzle 24 1012 94 10000 2.57 360 13:26 01.06.2022
3363 Clouds 24 1011 94 10000 2.57 300 11:23 01.06.2022
3364 Clouds 24 1010 94 10000 2.57 330 09:30 01.06.2022
3365 Clouds 25 1010 88 10000 2.57 340 08:19 01.06.2022
3366 Clouds 25 1010 88 10000 3.09 320 07:20 01.06.2022
3367 Rain 26 1011 83 10000 2.06 360 04:41 01.06.2022
3368 Clouds 28 1008 78 10000 2.06 170 23:50 31.05.2022
3369 Rain 29 1009 74 10000 2.06 260 22:43 31.05.2022
3370 Rain 29 1009 74 10000 2.06 260 22:24 31.05.2022
3371 Clouds 28 1009 78 10000 1.54 0 21:39 31.05.2022
3372 Clouds 28 1009 78 10000 2.57 240 20:44 31.05.2022
3373 Clouds 27 1010 83 10000 2.57 320 19:46 31.05.2022
3374 Clouds 28 1011 78 10000 2.57 350 18:32 31.05.2022
3375 Clouds 28 1012 74 10000 1.54 0 17:38 31.05.2022
3376 Rain 25 1012 88 10000 1.54 190 15:55 31.05.2022
3377 Rain 25 1012 88 10000 1.54 190 15:34 31.05.2022
3378 Rain 24 1010 94 10000 2.06 310 12:56 31.05.2022
3379 Clouds 24 1010 94 10000 2.06 310 12:18 31.05.2022
3380 Clouds 25 1009 94 10000 1.03 20 10:25 31.05.2022
3381 Clouds 26 1010 94 10000 1.03 70 08:26 31.05.2022
3382 Clouds 26 1011 94 10000 2.06 250 06:21 31.05.2022
3383 Clouds 27 1011 83 10000 2.06 20 04:31 31.05.2022
3384 Clouds 28 1008 74 10000 3.6 80 23:45 30.05.2022
3385 Clouds 28 1008 74 10000 3.6 80 23:24 30.05.2022
3386 Clouds 29 1007 70 10000 4.12 60 22:37 30.05.2022
3387 Rain 31 1007 66 10000 5.66 70 21:40 30.05.2022
3388 Clouds 31 1009 70 10000 2.06 190 20:51 30.05.2022
3389 Clouds 31 1010 70 10000 3.09 170 19:43 30.05.2022
3390 Clouds 29 1013 74 10000 2.06 210 17:53 30.05.2022
3391 Clouds 29 1013 74 10000 2.06 210 17:21 30.05.2022
3392 Clouds 28 1013 78 10000 1.54 310 15:54 30.05.2022
3393 Clouds 26 1011 83 10000 1.03 350 13:32 30.05.2022
3394 Clear 24 1010 100 10000 1.03 350 11:40 30.05.2022
3395 Clouds 25 1010 94 10000 2.06 320 09:52 30.05.2022
3396 Thunderstorm 26 1011 89 10000 1.54 290 07:51 30.05.2022
3397 Clouds 26 1012 89 10000 1.54 300 06:22 30.05.2022
3398 Clouds 26 1011 94 10000 1.54 310 04:46 30.05.2022
3399 Clouds 26 1009 89 10000 1.03 0 00:18 30.05.2022
3400 Clouds 28 1009 78 10000 2.06 140 22:40 29.05.2022
3401 Clouds 27 1009 78 10000 1.54 70 21:44 29.05.2022
3402 Rain 26 1009 78 10000 1.54 0 20:21 29.05.2022
3403 Rain 25 1011 94 10000 2.57 70 19:28 29.05.2022
3404 Rain 25 1013 94 3000 2.06 150 17:56 29.05.2022
3405 Clouds 28 1013 83 10000 1.54 200 16:22 29.05.2022
3406 Clouds 26 1013 94 8000 2.57 240 15:43 29.05.2022
3407 Clouds 26 1012 94 10000 2.57 250 14:54 29.05.2022
3408 Clouds 26 1011 94 10000 2.06 320 12:33 29.05.2022
3409 Clouds 26 1010 94 10000 1.54 300 11:19 29.05.2022
3410 Clear 27 1010 89 10000 2.06 290 09:54 29.05.2022
3411 Clear 27 1011 89 10000 1.54 310 07:59 29.05.2022
3412 Clear 28 1012 83 10000 2.06 280 04:58 29.05.2022
3413 Clear 26 1012 89 10000 0 0 04:33 29.05.2022
3414 Clouds 27 1009 83 10000 1.03 80 01:23 29.05.2022
3415 Clouds 31 1008 66 10000 3.09 80 23:47 28.05.2022
3416 Clouds 31 1008 66 10000 3.09 80 23:19 28.05.2022
3417 Clouds 30 1008 66 10000 2.06 20 21:53 28.05.2022
3418 Rain 32 1009 58 10000 2.06 90 20:53 28.05.2022
3419 Clouds 31 1011 66 10000 4.12 60 19:20 28.05.2022
3420 Clouds 32 1012 66 10000 4.12 60 18:23 28.05.2022
3421 Clouds 29 1013 79 10000 4.12 30 17:32 28.05.2022
3422 Clouds 29 1014 74 10000 3.6 60 15:49 28.05.2022
3423 Clouds 29 1014 74 10000 3.6 60 15:20 28.05.2022
3424 Rain 27 1013 83 10000 0 0 13:36 28.05.2022
3425 Rain 25 1012 94 10000 1.03 0 12:42 28.05.2022
3426 Clouds 26 1011 89 10000 2.06 80 11:37 28.05.2022
3427 Rain 26 1011 89 10000 2.06 80 10:38 28.05.2022
3428 Rain 25 1011 88 10000 1.03 100 09:54 28.05.2022
3429 Clouds 27 1011 83 10000 1.03 20 08:24 28.05.2022
3430 Clouds 26 1012 94 10000 1.03 0 06:34 28.05.2022
3431 Clouds 27 1012 89 10000 1.03 0 04:46 28.05.2022
3432 Rain 26 1011 89 10000 1.54 310 02:18 28.05.2022
3433 Rain 29 1010 79 10000 3.09 90 23:55 27.05.2022
3434 Clouds 31 1009 66 10000 4.12 70 22:38 27.05.2022
3435 Clouds 32 1009 66 10000 5.14 60 21:22 27.05.2022
3436 Clouds 32 1010 62 10000 4.12 90 20:43 27.05.2022
3437 Clouds 32 1010 62 10000 4.12 90 20:18 27.05.2022
3438 Clouds 32 1012 66 10000 3.09 40 19:37 27.05.2022
3439 Clouds 32 1012 66 10000 3.09 40 19:18 27.05.2022
3440 Clouds 30 1014 70 10000 3.6 20 16:53 27.05.2022
3441 Clouds 30 1014 70 10000 3.6 20 15:55 27.05.2022
3442 Clear 28 1014 74 10000 1.54 50 14:47 27.05.2022
3443 Clear 27 1013 78 10000 1.54 50 13:40 27.05.2022
3444 Clear 26 1012 83 10000 2.57 40 11:53 27.05.2022
3445 Clear 26 1012 83 10000 3.09 40 11:27 27.05.2022
3446 Clear 26 1012 83 10000 2.06 20 10:38 27.05.2022
3447 Clear 26 1012 83 10000 2.06 20 09:58 27.05.2022
3448 Clear 26 1012 83 10000 2.06 20 09:28 27.05.2022
3449 Clear 27 1012 74 10000 1.54 60 06:58 27.05.2022
3450 Clear 29 1013 70 10000 2.57 70 02:59 27.05.2022
3451 Clouds 29 1010 70 10000 3.6 80 00:57 27.05.2022
3452 Clouds 31 1010 66 10000 5.66 70 23:23 26.05.2022
3453 Clouds 32 1010 62 10000 6.69 70 21:48 26.05.2022
3454 Clouds 32 1010 62 10000 6.69 70 21:27 26.05.2022
3455 Clouds 32 1013 62 10000 6.69 80 19:34 26.05.2022
3456 Clouds 31 1014 66 10000 6.69 70 18:31 26.05.2022
3457 Clouds 31 1015 70 10000 5.14 60 17:34 26.05.2022
3458 Clear 30 1015 74 10000 4.63 50 15:58 26.05.2022
3459 Clear 29 1015 74 10000 4.63 50 15:19 26.05.2022
3460 Clear 28 1015 83 10000 2.57 60 13:56 26.05.2022
3461 Clear 26 1012 83 10000 1.54 90 11:49 26.05.2022
3462 Clear 26 1011 83 10000 2.06 80 10:39 26.05.2022
3463 Clear 26 1012 83 10000 2.06 70 09:38 26.05.2022
3464 Clear 26 1012 89 10000 2.06 80 08:38 26.05.2022
3465 Clear 27 1013 83 10000 2.57 70 05:26 26.05.2022
3466 Clear 28 1011 78 10000 3.09 70 02:19 26.05.2022
3467 Clouds 30 1010 66 10000 4.12 60 23:41 25.05.2022
3468 Clouds 31 1010 62 10000 3.09 80 22:51 25.05.2022
3469 Thunderstorm 32 1011 62 10000 4.63 70 21:41 25.05.2022
3470 Clouds 31 1012 66 10000 6.17 80 20:47 25.05.2022
3471 Clouds 31 1013 66 10000 4.63 60 19:32 25.05.2022
3472 Clouds 31 1014 70 10000 5.14 50 18:36 25.05.2022
3473 Clear 30 1015 66 10000 6.69 50 16:53 25.05.2022
3474 Clear 30 1015 66 10000 5.14 30 16:25 25.05.2022
3475 Clear 29 1015 70 10000 4.63 70 15:36 25.05.2022
3476 Clear 28 1014 74 10000 5.14 50 14:42 25.05.2022
3477 Clear 28 1014 74 10000 5.14 50 14:24 25.05.2022
3478 Clear 26 1014 83 10000 2.57 260 13:21 25.05.2022
3479 Clear 25 1012 88 10000 2.06 30 11:32 25.05.2022
3480 Clear 26 1012 83 10000 2.57 70 10:24 25.05.2022
3481 Clear 27 1012 78 10000 2.57 70 09:29 25.05.2022
3482 Clouds 23 1012 91 10000 1.66 62 07:26 25.05.2022
3483 Clear 26 1013 83 10000 1.03 50 05:27 25.05.2022
3484 Clouds 25 1011 87 10000 1.61 94 01:51 25.05.2022
3485 Clouds 30 1009 66 10000 4.63 70 23:48 24.05.2022
3486 Clouds 31 1010 62 10000 5.14 70 22:58 24.05.2022
3487 Clouds 31 1010 62 10000 4.63 90 21:47 24.05.2022
3488 Clouds 31 1010 62 10000 4.63 90 21:23 24.05.2022
3489 Clouds 31 1011 66 10000 4.12 50 20:59 24.05.2022
3490 Clouds 31 1012 66 10000 5.14 80 19:20 24.05.2022
3491 Clouds 30 1014 70 10000 3.6 40 17:50 24.05.2022
3492 Clear 29 1014 74 10000 3.6 20 16:36 24.05.2022
3493 Clear 27 1014 83 10000 3.09 70 15:27 24.05.2022
3494 Clear 27 1014 83 10000 2.57 50 14:37 24.05.2022
3495 Clear 25 1013 88 10000 1.54 30 13:35 24.05.2022
3496 Clear 24 1013 94 10000 1.54 50 12:18 24.05.2022
3497 Clear 25 1012 94 10000 2.06 40 09:50 24.05.2022
3498 Clear 25 1012 94 10000 1.54 40 08:51 24.05.2022
3499 Clear 25 1013 94 10000 2.06 60 07:32 24.05.2022
3500 Clear 25 1013 88 10000 2.06 60 06:34 24.05.2022
3501 Clear 26 1013 89 10000 1.03 0 03:32 24.05.2022
3502 Clear 27 1011 83 10000 1.03 180 01:46 24.05.2022
3503 Clouds 27 1011 83 10000 1.03 30 00:21 24.05.2022
3504 Clouds 29 1011 70 10000 2.57 70 22:24 23.05.2022
3505 Clouds 30 1011 66 10000 2.06 160 21:45 23.05.2022
3506 Clouds 30 1012 70 10000 2.06 150 20:46 23.05.2022
3507 Clouds 29 1014 70 10000 2.06 100 19:47 23.05.2022
3508 Clouds 29 1014 70 10000 2.06 100 19:22 23.05.2022
3509 Rain 26 1015 78 10000 2.06 340 18:40 23.05.2022
3510 Rain 25 1016 88 10000 3.09 50 17:56 23.05.2022
3511 Clouds 28 1016 78 10000 2.06 220 16:28 23.05.2022
3512 Clouds 27 1016 78 10000 2.57 360 14:18 23.05.2022
3513 Clear 25 1014 88 10000 2.57 340 11:52 23.05.2022
3514 Clear 25 1013 83 10000 1.03 320 10:47 23.05.2022
3515 Clear 25 1013 88 10000 1.54 10 09:47 23.05.2022
3516 Clear 25 1014 88 10000 2.06 20 08:46 23.05.2022
3517 Clear 25 1014 88 10000 2.06 20 08:46 23.05.2022
3518 Clear 26 1014 83 10000 2.06 360 07:24 23.05.2022
3519 Clear 26 1015 83 10000 2.06 10 06:39 23.05.2022
3520 Clear 27 1015 78 10000 1.54 10 03:27 23.05.2022
3521 Clear 26 1014 83 10000 0.51 200 01:52 23.05.2022
3522 Clear 26 1014 83 10000 0.51 200 01:29 23.05.2022
3523 Clouds 29 1013 70 10000 2.57 190 23:18 22.05.2022
3524 Rain 30 1013 66 10000 3.09 160 22:27 22.05.2022
3525 Rain 28 1013 74 10000 3.6 160 21:51 22.05.2022
3526 Clouds 30 1014 70 10000 2.06 190 20:43 22.05.2022
3527 Clouds 30 1014 70 10000 2.06 190 20:21 22.05.2022
3528 Clouds 30 1015 66 10000 2.57 160 19:19 22.05.2022
3529 Clouds 29 1017 65 10000 2.06 250 18:46 22.05.2022
3530 Clouds 29 1017 65 10000 2.06 250 18:21 22.05.2022
3531 Clouds 28 1018 74 10000 3.6 260 16:51 22.05.2022
3532 Clouds 28 1018 74 10000 1.54 290 15:25 22.05.2022
3533 Clouds 27 1018 78 10000 2.57 310 14:44 22.05.2022
3534 Clouds 26 1017 78 10000 1.54 320 12:54 22.05.2022
3535 Clouds 26 1016 78 10000 1.03 320 12:31 22.05.2022
3536 Clear 26 1015 83 10000 1.54 320 10:53 22.05.2022
3537 Clear 25 1015 88 10000 1.54 360 09:31 22.05.2022
3538 Clear 25 1015 88 10000 2.06 350 07:49 22.05.2022
3539 Clear 25 1015 88 10000 2.06 350 07:20 22.05.2022
3540 Clear 26 1016 83 10000 1.54 10 04:19 22.05.2022
3541 Clouds 26 1015 83 10000 1.54 170 00:59 22.05.2022
3542 Clouds 28 1014 74 10000 2.57 140 23:57 21.05.2022
3543 Clouds 28 1014 74 10000 2.57 140 23:29 21.05.2022
3544 Clouds 29 1014 65 10000 2.06 180 21:59 21.05.2022
3545 Clouds 29 1014 65 10000 2.06 180 21:38 21.05.2022
3546 Clouds 30 1015 62 10000 2.57 180 20:47 21.05.2022
3547 Clouds 30 1015 62 10000 2.57 180 19:55 21.05.2022
3548 Clouds 30 1016 62 10000 2.57 190 19:20 21.05.2022
3549 Clouds 28 1018 74 10000 1.03 0 17:23 21.05.2022
3550 Clear 26 1017 78 10000 1.03 220 14:51 21.05.2022
3551 Clear 26 1017 78 10000 1.03 220 14:19 21.05.2022
3552 Clear 25 1016 83 10000 1.03 210 13:25 21.05.2022
3553 Clear 24 1016 88 10000 1.54 240 12:39 21.05.2022
3554 Clear 24 1015 94 10000 1.03 240 11:38 21.05.2022
3555 Clear 24 1015 88 10000 1.03 310 10:21 21.05.2022
3556 Clear 25 1015 83 10000 1.03 200 08:59 21.05.2022
3557 Clear 25 1015 83 10000 1.03 200 08:38 21.05.2022
3558 Clouds 22 1015 82 10000 0.8 21 06:20 21.05.2022
3559 Clear 26 1015 69 10000 1.03 210 01:42 21.05.2022
3560 Clouds 28 1015 57 10000 2.06 190 23:36 20.05.2022
3561 Clouds 28 1015 57 10000 2.57 190 22:40 20.05.2022
3562 Clouds 28 1015 57 10000 2.57 190 21:58 20.05.2022
3563 Clouds 29 1015 58 10000 2.57 200 21:19 20.05.2022
3564 Clouds 28 1015 61 10000 3.09 160 20:47 20.05.2022
3565 Clouds 27 1016 65 10000 3.09 210 19:45 20.05.2022
3566 Clouds 27 1017 65 10000 2.57 200 18:53 20.05.2022
3567 Clouds 27 1017 65 10000 2.57 200 18:18 20.05.2022
3568 Clouds 25 1018 73 10000 2.06 190 16:23 20.05.2022
3569 Clouds 25 1018 73 10000 2.06 170 15:54 20.05.2022
3570 Clouds 25 1017 73 10000 1.54 200 14:44 20.05.2022
3571 Clouds 25 1017 73 10000 1.54 200 14:26 20.05.2022
3572 Clear 24 1015 83 10000 1.03 210 11:52 20.05.2022
3573 Clear 24 1015 78 10000 1.54 260 10:45 20.05.2022
3574 Clear 24 1015 78 10000 1.54 250 09:23 20.05.2022
3575 Clear 21 1015 94 10000 0 0 08:24 20.05.2022
3576 Clear 24 1016 73 10000 2.57 260 06:42 20.05.2022
3577 Clear 24 1016 83 10000 2.57 260 05:39 20.05.2022
3578 Rain 25 1010 69 10000 2.06 250 01:29 20.05.2022
3579 Clouds 26 1013 65 10000 2.06 200 23:46 19.05.2022
3580 Clouds 26 1013 61 10000 1.03 170 22:35 19.05.2022
3581 Clouds 26 1014 65 10000 2.06 210 21:50 19.05.2022
3582 Clouds 26 1014 65 10000 2.06 210 21:23 19.05.2022
3583 Rain 26 1015 61 10000 2.06 190 20:43 19.05.2022
3584 Clouds 26 1015 61 10000 1.54 160 19:54 19.05.2022
3585 Clouds 26 1016 61 10000 1.03 170 18:59 19.05.2022
3586 Clouds 25 1017 65 10000 3.09 120 17:36 19.05.2022
3587 Rain 24 1017 73 10000 2.57 160 15:43 19.05.2022
3588 Clouds 24 1017 73 10000 2.06 180 14:39 19.05.2022
3589 Clouds 24 1017 73 10000 2.06 180 14:19 19.05.2022
3590 Clouds 24 1014 78 10000 3.09 150 11:53 19.05.2022
3591 Rain 24 1014 83 10000 3.09 160 10:30 19.05.2022
3592 Clouds 25 1014 78 10000 3.09 160 08:39 19.05.2022
3593 Clouds 25 1015 83 10000 3.6 150 07:18 19.05.2022
3594 Clouds 25 1015 94 10000 1.54 250 03:26 19.05.2022
3595 Rain 26 1013 89 10000 3.6 250 00:57 19.05.2022
3596 Clouds 27 1013 78 10000 2.06 250 23:35 18.05.2022
3597 Rain 27 1013 78 10000 2.06 210 22:43 18.05.2022
3598 Clouds 27 1013 78 10000 2.57 190 21:42 18.05.2022
3599 Clouds 27 1013 78 10000 2.57 190 21:20 18.05.2022
3600 Clouds 27 1014 78 10000 1.54 200 20:19 18.05.2022
3601 Clouds 26 1015 83 10000 3.09 130 18:53 18.05.2022
3602 Clouds 26 1016 83 10000 1.54 70 17:42 18.05.2022
3603 Clouds 26 1016 83 10000 1.54 70 17:23 18.05.2022
3604 Clouds 25 1016 83 10000 3.09 90 16:52 18.05.2022
3605 Clouds 25 1016 83 10000 3.6 140 15:43 18.05.2022
3606 Clouds 25 1016 83 10000 3.6 140 15:19 18.05.2022
3607 Clouds 25 1015 88 10000 3.6 130 13:53 18.05.2022
3608 Clouds 25 1014 88 10000 3.09 140 12:53 18.05.2022
3609 Rain 25 1013 88 10000 4.12 140 11:47 18.05.2022
3610 Clouds 25 1013 88 10000 4.12 140 11:29 18.05.2022
3611 Clouds 25 1013 94 10000 3.6 150 10:36 18.05.2022
3612 Clouds 25 1013 100 10000 2.06 190 07:56 18.05.2022
3613 Clouds 25 1015 94 10000 1.54 190 06:52 18.05.2022
3614 Clouds 26 1014 94 8000 1.54 0 02:47 18.05.2022
3615 Rain 25 1012 100 10000 0 0 00:41 18.05.2022
3616 Rain 26 1011 94 10000 1.54 180 22:59 17.05.2022
3617 Clouds 25 1011 94 10000 4.12 120 21:21 17.05.2022
3618 Clouds 25 1011 94 10000 4.12 120 21:21 17.05.2022
3619 Clouds 26 1011 89 5000 4.12 150 20:38 17.05.2022
3620 Clouds 29 1013 79 10000 2.57 190 19:29 17.05.2022
3621 Clouds 28 1014 78 10000 3.09 150 18:22 17.05.2022
3622 Clouds 28 1015 78 10000 2.06 170 17:28 17.05.2022
3623 Rain 27 1015 83 10000 4.12 160 16:53 17.05.2022
3624 Rain 26 1015 94 10000 3.09 140 15:45 17.05.2022
3625 Clouds 26 1014 94 10000 2.57 150 14:48 17.05.2022
3626 Clouds 26 1014 94 10000 2.57 150 14:23 17.05.2022
3627 Clouds 25 1013 100 10000 1.54 180 12:32 17.05.2022
3628 Rain 25 1012 94 10000 3.09 180 10:23 17.05.2022
3629 Thunderstorm 26 1013 94 10000 2.57 170 08:45 17.05.2022
3630 Clouds 26 1013 94 10000 1.54 220 07:40 17.05.2022
3631 Clouds 26 1014 100 10000 1.03 200 04:33 17.05.2022
3632 Clouds 26 1010 100 10000 0.51 250 00:47 17.05.2022
3633 Rain 27 1010 94 10000 1.54 190 22:45 16.05.2022
3634 Rain 27 1010 94 10000 1.54 190 22:18 16.05.2022
3635 Rain 26 1011 100 10000 2.57 170 20:50 16.05.2022
3636 Rain 26 1012 100 10000 2.57 180 19:59 16.05.2022
3637 Rain 26 1013 100 10000 1.03 160 18:32 16.05.2022
3638 Rain 29 1014 79 10000 2.06 350 16:37 16.05.2022
3639 Rain 27 1013 89 10000 1.03 310 14:46 16.05.2022
3640 Rain 26 1013 94 10000 0.51 230 13:26 16.05.2022
3641 Rain 25 1011 100 10000 1.03 20 11:34 16.05.2022
3642 Fog 26 1011 94 10000 1.03 10 10:30 16.05.2022
3643 Rain 26 1012 94 10000 1.03 20 07:45 16.05.2022
3644 Clouds 26 1013 94 10000 1.54 30 05:40 16.05.2022
3645 Clouds 27 1009 89 10000 2.06 20 23:59 15.05.2022
3646 Rain 28 1008 83 10000 2.06 360 22:36 15.05.2022
3647 Rain 27 1009 89 10000 3.09 360 21:48 15.05.2022
3648 Rain 27 1009 89 10000 3.09 360 21:21 15.05.2022
3649 Clouds 27 1010 89 10000 4.12 30 20:34 15.05.2022
3650 Clouds 30 1012 74 10000 3.09 40 17:56 15.05.2022
3651 Clouds 29 1013 84 10000 3.09 40 16:36 15.05.2022
3652 Clouds 27 1012 94 10000 0 0 14:18 15.05.2022
3653 Fog 26 1012 100 10000 1.03 300 13:35 15.05.2022
3654 Clouds 25 1010 100 10000 0.51 210 11:55 15.05.2022
3655 Clouds 26 1010 94 10000 1.03 180 10:35 15.05.2022
3656 Clear 25 1010 100 10000 0.51 160 08:52 15.05.2022
3657 Clouds 25 1011 100 10000 1.03 110 06:59 15.05.2022
3658 Rain 25 1011 100 10000 1.03 110 06:39 15.05.2022
3659 Clouds 26 1011 94 10000 1.54 0 02:24 15.05.2022
3660 Rain 28 1008 83 10000 3.09 360 23:56 14.05.2022
3661 Rain 27 1008 89 10000 1.54 160 23:34 14.05.2022
3662 Rain 32 1007 66 10000 3.09 340 21:45 14.05.2022
3663 Rain 32 1007 66 10000 3.09 340 21:19 14.05.2022
3664 Clouds 32 1010 66 10000 3.09 80 19:40 14.05.2022
3665 Clouds 32 1010 66 10000 3.09 80 19:40 14.05.2022
3666 Clouds 32 1010 66 10000 3.09 80 19:20 14.05.2022
3667 Clouds 32 1011 66 10000 3.6 360 18:47 14.05.2022
3668 Clouds 31 1012 70 10000 3.6 50 17:36 14.05.2022
3669 Clouds 29 1012 79 10000 1.54 220 15:47 14.05.2022
3670 Clouds 29 1012 79 10000 0 0 14:36 14.05.2022
3671 Clear 26 1011 89 10000 1.03 10 12:51 14.05.2022
3672 Clear 25 1010 94 10000 1.54 350 11:37 14.05.2022
3673 Clear 25 1010 94 10000 0 0 10:23 14.05.2022
3674 Clear 25 1010 94 10000 0 0 09:54 14.05.2022
3675 Clear 26 1010 89 10000 1.03 20 08:59 14.05.2022
3676 Clear 26 1011 89 10000 1.54 20 07:20 14.05.2022
3677 Clear 27 1011 89 10000 1.54 40 03:41 14.05.2022
3678 Rain 28 1008 78 10000 1.54 40 23:48 13.05.2022
3679 Rain 28 1008 78 10000 1.54 40 23:22 13.05.2022
3680 Rain 28 1008 78 10000 1.54 40 22:51 13.05.2022
3681 Rain 28 1008 78 10000 1.54 40 22:19 13.05.2022
3682 Rain 30 1009 74 10000 3.6 60 20:49 13.05.2022
3683 Rain 30 1009 74 10000 3.6 60 20:27 13.05.2022
3684 Rain 29 1011 79 10000 3.6 350 19:40 13.05.2022
3685 Clouds 31 1012 70 10000 4.12 90 18:41 13.05.2022
3686 Clouds 31 1013 74 10000 3.6 10 17:29 13.05.2022
3687 Clouds 29 1013 79 10000 4.12 30 16:23 13.05.2022
3688 Clouds 30 1013 74 10000 3.09 70 15:39 13.05.2022
3689 Clouds 28 1013 78 10000 2.06 20 13:54 13.05.2022
3690 Clouds 25 1011 94 10000 1.54 30 12:33 13.05.2022
3691 Clear 25 1010 94 10000 1.03 70 11:23 13.05.2022
3692 Clear 25 1010 94 10000 1.03 50 09:35 13.05.2022
3693 Clear 26 1010 89 10000 1.54 10 08:50 13.05.2022
3694 Clear 26 1011 83 10000 3.6 360 07:48 13.05.2022
3695 Clear 27 1012 78 10000 3.09 360 06:34 13.05.2022
3696 Clear 29 1011 74 10000 2.06 0 03:34 13.05.2022
3697 Rain 29 1009 74 10000 1.03 60 00:39 13.05.2022
3698 Clouds 29 1008 74 10000 3.6 70 22:45 12.05.2022
3699 Clouds 29 1008 74 10000 4.12 90 21:58 12.05.2022
3700 Clouds 32 1009 62 10000 5.66 80 20:37 12.05.2022
3701 Clouds 32 1010 66 10000 6.17 60 19:18 12.05.2022
3702 Clouds 31 1012 70 10000 3.09 60 17:27 12.05.2022
3703 Clouds 30 1013 79 10000 2.06 80 16:23 12.05.2022
3704 Clouds 28 1012 83 10000 3.09 40 14:42 12.05.2022
3705 Clouds 27 1012 83 10000 3.09 70 13:47 12.05.2022
3706 Clear 26 1009 89 10000 2.57 70 10:52 12.05.2022
3707 Clear 27 1010 83 10000 2.06 70 09:30 12.05.2022
3708 Clear 27 1010 83 10000 2.06 70 08:51 12.05.2022
3709 Clear 27 1011 89 10000 1.54 70 07:40 12.05.2022
3710 Clear 27 1011 83 10000 1.54 80 06:34 12.05.2022
3711 Clear 28 1010 78 10000 2.06 80 02:58 12.05.2022
3712 Clouds 29 1008 74 10000 2.57 70 00:36 12.05.2022
3713 Clouds 31 1008 62 10000 2.06 80 22:36 11.05.2022
3714 Clouds 32 1009 62 10000 3.09 170 21:50 11.05.2022
3715 Clouds 32 1009 62 10000 3.09 170 21:24 11.05.2022
3716 Clouds 31 1012 66 10000 2.57 0 18:49 11.05.2022
3717 Clouds 30 1013 70 10000 3.6 20 16:55 11.05.2022
3718 Clouds 28 1014 78 10000 3.6 360 15:31 11.05.2022
3719 Clouds 27 1013 83 10000 4.12 50 14:39 11.05.2022
3720 Clouds 27 1013 83 10000 4.12 50 14:39 11.05.2022
3721 Clouds 27 1013 83 10000 4.12 50 14:18 11.05.2022
3722 Clouds 25 1011 88 10000 1.54 70 11:54 11.05.2022
3723 Clouds 25 1011 88 10000 1.54 70 11:19 11.05.2022
3724 Clear 26 1011 83 10000 2.06 20 08:40 11.05.2022
3725 Clear 26 1012 83 10000 2.06 20 05:28 11.05.2022
3726 Clouds 29 1009 70 10000 2.57 80 00:43 11.05.2022
3727 Clouds 32 1009 62 10000 3.09 80 22:32 10.05.2022
3728 Clouds 32 1009 62 10000 3.09 80 21:57 10.05.2022
3729 Clouds 32 1010 58 10000 2.57 110 20:57 10.05.2022
3730 Clouds 31 1011 66 10000 2.06 120 19:37 10.05.2022
3731 Clouds 30 1013 70 10000 3.09 60 17:58 10.05.2022
3732 Clouds 30 1013 70 10000 2.57 50 17:21 10.05.2022
3733 Clouds 29 1013 84 10000 3.09 50 15:28 10.05.2022
3734 Clouds 24 1012 100 10000 1.03 70 12:39 10.05.2022
3735 Clear 25 1011 100 10000 1.03 340 11:50 10.05.2022
3736 Clear 25 1011 100 10000 1.03 340 11:20 10.05.2022
3737 Clear 25 1011 100 10000 1.03 10 10:26 10.05.2022
3738 Clear 25 1011 100 10000 1.03 10 09:25 10.05.2022
3739 Clear 25 1012 94 10000 1.03 80 06:54 10.05.2022
3740 Clear 25 1012 94 10000 1.03 80 03:30 10.05.2022
3741 Clouds 27 1010 83 10000 2.06 80 00:38 10.05.2022
3742 Clouds 27 1010 83 10000 2.06 10 22:56 09.05.2022
3743 Clouds 26 1011 94 10000 3.6 50 21:50 09.05.2022
3744 Clouds 30 1012 74 10000 2.57 20 20:52 09.05.2022
3745 Clouds 28 1015 78 10000 3.09 360 18:43 09.05.2022
3746 Clouds 27 1015 83 10000 2.57 30 17:44 09.05.2022
3747 Rain 26 1016 83 10000 3.09 50 16:30 09.05.2022
3748 Rain 26 1016 83 10000 3.09 50 16:30 09.05.2022
3749 Rain 25 1016 94 10000 4.12 50 15:51 09.05.2022
3750 Rain 25 1016 94 10000 4.12 50 14:54 09.05.2022
3751 Rain 25 1015 88 10000 3.09 40 14:29 09.05.2022
3752 Clouds 25 1014 94 10000 2.57 60 13:40 09.05.2022
3753 Clouds 24 1013 94 10000 2.06 40 12:18 09.05.2022
3754 Clouds 24 1013 100 10000 2.06 50 10:55 09.05.2022
3755 Clouds 24 1012 100 10000 1.54 30 10:36 09.05.2022
3756 Clouds 25 1013 94 10000 1.54 340 08:31 09.05.2022
3757 Clear 25 1013 94 10000 2.06 360 07:49 09.05.2022
3758 Clear 25 1013 94 10000 1.54 30 02:55 09.05.2022
3759 Rain 25 1010 88 10000 2.06 10 23:34 08.05.2022
3760 Rain 25 1011 83 10000 2.06 50 22:51 08.05.2022
3761 Rain 24 1011 94 10000 2.57 50 21:48 08.05.2022
3762 Rain 24 1011 94 10000 2.57 50 21:48 08.05.2022
3763 Thunderstorm 26 1012 78 10000 6.69 30 20:33 08.05.2022
3764 Rain 30 1013 70 10000 2.06 290 19:43 08.05.2022
3765 Clouds 29 1014 79 10000 1.54 190 18:52 08.05.2022
3766 Rain 29 1015 79 10000 1.54 170 17:52 08.05.2022
3767 Clouds 28 1015 83 10000 1.03 190 16:33 08.05.2022
3768 Clouds 28 1015 78 10000 2.06 250 15:25 08.05.2022
3769 Clouds 27 1014 83 10000 1.03 290 14:27 08.05.2022
3770 Clouds 25 1013 94 10000 2.06 290 11:53 08.05.2022
3771 Clouds 25 1012 94 10000 2.57 280 10:27 08.05.2022
3772 Rain 25 1012 94 10000 2.57 280 09:55 08.05.2022
3773 Thunderstorm 25 1013 94 10000 1.54 220 08:52 08.05.2022
3774 Thunderstorm 26 1013 89 10000 3.09 320 06:51 08.05.2022
3775 Clouds 27 1014 89 10000 2.06 300 03:25 08.05.2022
3776 Clouds 26 1012 94 10000 2.06 290 01:25 08.05.2022
3777 Rain 26 1011 94 10000 1.54 350 00:20 08.05.2022
3778 Rain 29 1011 74 10000 1.03 0 23:46 07.05.2022
3779 Clouds 28 1011 78 10000 2.57 170 22:46 07.05.2022
3780 Clouds 28 1011 78 10000 2.57 170 21:57 07.05.2022
3781 Clouds 28 1011 78 10000 2.06 0 21:32 07.05.2022
3782 Clouds 27 1013 83 10000 2.57 170 20:27 07.05.2022
3783 Clouds 27 1014 83 10000 2.57 30 18:59 07.05.2022
3784 Rain 26 1015 89 10000 2.06 70 17:31 07.05.2022
3785 Rain 24 1015 100 9000 1.03 170 15:18 07.05.2022
3786 Thunderstorm 24 1014 94 3000 4.63 110 12:23 07.05.2022
3787 Rain 25 1013 94 10000 1.03 200 10:18 07.05.2022
3788 Rain 25 1013 94 10000 1.03 270 08:34 07.05.2022
3789 Clear 25 1013 94 10000 1.03 340 07:30 07.05.2022
3790 Rain 25 1013 94 10000 1.54 330 06:42 07.05.2022
3791 Thunderstorm 25 1014 100 5000 4.63 350 04:21 07.05.2022
3792 Clouds 28 1011 78 10000 1.54 20 00:49 07.05.2022
3793 Clouds 30 1010 70 10000 1.54 340 22:41 06.05.2022
3794 Clouds 30 1010 70 10000 1.54 340 22:21 06.05.2022
3795 Clouds 31 1010 66 10000 1.54 20 21:32 06.05.2022
3796 Clouds 29 1013 74 10000 2.57 70 19:49 06.05.2022
3797 Rain 29 1013 74 10000 2.57 70 19:27 06.05.2022
3798 Clouds 29 1014 79 10000 3.09 100 18:43 06.05.2022
3799 Clouds 28 1015 83 10000 3.09 90 17:37 06.05.2022
3800 Clouds 26 1014 94 10000 2.57 100 15:54 06.05.2022
3801 Clouds 26 1014 94 10000 2.57 100 15:30 06.05.2022
3802 Clouds 25 1014 100 9000 3.09 120 13:50 06.05.2022
3803 Rain 26 1013 94 10000 3.09 140 12:51 06.05.2022
3804 Clouds 26 1013 94 10000 2.06 170 11:58 06.05.2022
3805 Clear 26 1012 94 10000 1.03 190 11:24 06.05.2022
3806 Clear 26 1011 94 10000 1.54 150 09:47 06.05.2022
3807 Clear 26 1011 94 10000 1.54 150 09:18 06.05.2022
3808 Clear 26 1011 100 10000 1.03 180 07:54 06.05.2022
3809 Clear 26 1012 94 10000 1.03 250 06:26 06.05.2022
3810 Clouds 27 1012 89 10000 1.03 180 03:42 06.05.2022
3811 Clouds 27 1011 89 10000 1.03 190 02:38 06.05.2022
3812 Clouds 31 1009 66 10000 3.6 80 22:58 05.05.2022
3813 Clouds 31 1010 66 10000 3.09 210 21:50 05.05.2022
3814 Clouds 31 1011 70 10000 2.57 240 20:37 05.05.2022
3815 Clouds 30 1013 74 10000 3.6 190 18:56 05.05.2022
3816 Clouds 29 1014 79 10000 2.06 30 16:42 05.05.2022
3817 Clouds 28 1015 78 10000 1.54 10 15:30 05.05.2022
3818 Fog 25 1013 94 10000 1.54 20 13:30 05.05.2022
3819 Fog 24 1013 94 10000 1.03 10 12:56 05.05.2022
3820 Clouds 23 1012 100 10000 1.54 10 11:22 05.05.2022
3821 Clouds 24 1012 94 10000 1.03 50 09:40 05.05.2022
3822 Clouds 24 1012 100 10000 1.03 30 08:40 05.05.2022
3823 Clouds 24 1013 100 10000 1.03 180 06:24 05.05.2022
3824 Clouds 25 1012 94 10000 1.03 70 02:23 05.05.2022
3825 Clouds 25 1011 94 10000 0.51 140 01:40 05.05.2022
3826 Clouds 26 1010 83 10000 2.57 20 00:43 05.05.2022
3827 Clouds 26 1011 89 10000 2.06 310 22:57 04.05.2022
3828 Clouds 26 1013 83 10000 0 0 21:59 04.05.2022
3829 Clouds 26 1013 83 10000 1.03 270 21:34 04.05.2022
3830 Rain 26 1013 83 10000 1.54 310 20:42 04.05.2022
3831 Clouds 26 1013 83 10000 2.06 320 19:59 04.05.2022
3832 Rain 26 1014 83 10000 2.57 360 19:35 04.05.2022
3833 Rain 25 1015 88 10000 2.57 360 18:23 04.05.2022
3834 Rain 25 1015 88 10000 2.57 350 17:59 04.05.2022
3835 Rain 25 1015 94 10000 2.06 40 16:30 04.05.2022
3836 Clouds 23 1015 100 10000 3.09 50 15:32 04.05.2022
3837 Rain 23 1015 94 8000 2.57 70 14:38 04.05.2022
3838 Rain 23 1015 94 8000 2.57 70 14:18 04.05.2022
3839 Thunderstorm 23 1013 100 3000 2.57 60 12:34 04.05.2022
3840 Thunderstorm 23 1013 100 4000 1.54 0 11:25 04.05.2022
3841 Clouds 24 1013 88 3000 4.12 80 09:50 04.05.2022
3842 Clouds 25 1012 100 4000 3.6 250 08:56 04.05.2022
3843 Clouds 27 1012 89 10000 2.57 300 07:33 04.05.2022
3844 Clear 27 1012 89 10000 1.03 160 03:50 04.05.2022
3845 Clouds 27 1010 83 10000 1.03 150 01:41 04.05.2022
3846 Clouds 30 1009 66 10000 1.03 190 22:59 03.05.2022
3847 Clouds 31 1010 66 10000 2.06 220 21:47 03.05.2022
3848 Clouds 31 1010 66 10000 2.06 220 21:21 03.05.2022
3849 Clouds 31 1010 66 10000 2.06 220 21:21 03.05.2022
3850 Clouds 30 1011 74 10000 3.09 180 20:38 03.05.2022
3851 Clouds 30 1012 74 10000 3.09 240 19:21 03.05.2022
3852 Clouds 29 1014 79 10000 2.57 230 18:42 03.05.2022
3853 Clouds 30 1014 79 10000 2.06 320 17:20 03.05.2022
3854 Clouds 30 1014 79 10000 2.06 320 17:20 03.05.2022
3855 Clouds 27 1014 89 10000 1.54 340 15:48 03.05.2022
3856 Clouds 26 1014 94 10000 2.06 60 14:22 03.05.2022
3857 Clouds 25 1012 100 10000 1.03 30 12:35 03.05.2022
3858 Clouds 25 1013 94 10000 0.51 30 11:24 03.05.2022
3859 Clouds 24 1012 100 10000 0 0 10:25 03.05.2022
3860 Clouds 25 1012 100 10000 1.03 10 08:18 03.05.2022
3861 Clouds 25 1013 100 10000 0 0 06:45 03.05.2022
3862 Clouds 24 1011 100 10000 1.54 130 01:59 03.05.2022
3863 Clouds 27 1010 83 10000 1.03 90 22:56 02.05.2022
3864 Clouds 27 1010 83 10000 2.57 100 22:28 02.05.2022
3865 Clouds 27 1011 83 10000 3.09 80 21:27 02.05.2022
3866 Clouds 27 1013 78 10000 1.03 30 19:22 02.05.2022
3867 Clouds 26 1015 83 9000 2.57 20 18:25 02.05.2022
3868 Clouds 26 1016 89 9000 2.06 20 17:38 02.05.2022
3869 Clouds 26 1016 83 10000 2.06 40 16:37 02.05.2022
3870 Clouds 27 1015 83 10000 3.09 30 15:41 02.05.2022
3871 Clouds 25 1014 88 10000 1.03 30 14:20 02.05.2022
3872 Clouds 24 1013 94 10000 2.06 320 13:19 02.05.2022
3873 Rain 24 1012 94 10000 2.57 50 11:41 02.05.2022
3874 Clouds 25 1012 94 5000 2.57 40 09:32 02.05.2022
3875 Clouds 25 1012 94 10000 2.57 320 07:57 02.05.2022
3876 Rain 26 1013 89 10000 2.06 340 05:59 02.05.2022
3877 Clouds 27 1009 78 10000 2.57 330 00:44 02.05.2022
3878 Clouds 27 1009 78 10000 2.57 330 00:21 02.05.2022
3879 Clouds 29 1008 74 10000 2.57 360 22:53 01.05.2022
3880 Clouds 30 1009 74 10000 2.57 220 21:41 01.05.2022
3881 Rain 31 1009 70 10000 2.06 160 20:29 01.05.2022
3882 Clouds 30 1011 70 10000 2.57 50 19:21 01.05.2022
3883 Clouds 28 1012 78 10000 2.06 290 18:52 01.05.2022
3884 Clouds 28 1013 78 10000 2.06 360 17:49 01.05.2022
3885 Clouds 27 1013 89 10000 1.03 210 16:29 01.05.2022
3886 Clouds 28 1014 78 10000 1.54 300 15:45 01.05.2022
3887 Rain 26 1013 94 10000 1.03 120 14:45 01.05.2022
3888 Rain 24 1012 100 4000 1.54 80 12:23 01.05.2022
3889 Clouds 26 1011 94 10000 1.03 0 10:22 01.05.2022
3890 Mist 25 1011 100 10000 1.54 280 08:49 01.05.2022
3891 Clouds 25 1012 94 10000 0 0 06:31 01.05.2022
3892 Clear 27 1010 89 10000 2.06 300 01:56 01.05.2022
3893 Rain 29 1008 74 10000 3.09 360 22:18 30.04.2022
3894 Rain 31 1008 66 10000 1.54 100 21:32 30.04.2022
3895 Clouds 30 1011 74 10000 2.57 70 19:53 30.04.2022
3896 Clouds 29 1012 74 10000 3.09 70 18:52 30.04.2022
3897 Clouds 29 1013 79 10000 3.09 10 17:26 30.04.2022
3898 Clouds 28 1014 78 10000 1.54 90 15:51 30.04.2022
3899 Clouds 28 1014 78 10000 1.54 90 14:58 30.04.2022
3900 Clouds 24 1012 100 10000 1.54 30 13:41 30.04.2022
3901 Mist 24 1011 94 10000 1.03 30 11:41 30.04.2022
3902 Rain 24 1011 94 10000 1.03 30 10:56 30.04.2022
3903 Fog 24 1010 100 10000 1.03 360 09:54 30.04.2022
3904 Clear 24 1012 100 10000 1.54 20 07:36 30.04.2022
3905 Rain 25 1013 94 10000 1.03 340 03:58 30.04.2022
3906 Clouds 26 1010 89 10000 0 0 23:55 29.04.2022
3907 Clouds 26 1010 89 10000 2.57 300 22:37 29.04.2022
3908 Clouds 26 1010 94 10000 2.06 280 21:56 29.04.2022
3909 Rain 26 1010 94 10000 2.06 260 21:24 29.04.2022
3910 Rain 25 1012 100 10000 2.06 140 19:55 29.04.2022
3911 Rain 25 1012 100 10000 2.06 140 19:26 29.04.2022
3912 Rain 25 1013 100 10000 0.51 140 17:34 29.04.2022
3913 Rain 24 1014 100 10000 2.06 90 16:36 29.04.2022
3914 Rain 25 1012 94 5000 2.06 80 14:34 29.04.2022
3915 Rain 25 1011 94 10000 4.12 130 13:36 29.04.2022
3916 Rain 26 1010 89 9000 5.66 60 12:36 29.04.2022
3917 Clouds 26 1009 94 10000 1.03 80 10:29 29.04.2022
3918 Clouds 26 1010 94 10000 1.54 30 07:52 29.04.2022
3919 Clouds 26 1010 94 10000 1.54 30 07:25 29.04.2022
3920 Clouds 27 1011 89 10000 1.03 80 06:29 29.04.2022
3921 Rain 27 1008 83 10000 1.03 60 00:52 29.04.2022
3922 Rain 28 1007 78 10000 2.06 50 23:52 28.04.2022
3923 Rain 29 1007 79 10000 2.57 70 22:47 28.04.2022
3924 Rain 31 1008 66 10000 6.69 30 21:59 28.04.2022
3925 Rain 31 1008 66 10000 6.69 30 21:37 28.04.2022
3926 Clouds 32 1009 66 10000 4.12 60 20:41 28.04.2022
3927 Clouds 31 1011 66 10000 4.63 70 19:49 28.04.2022
3928 Clouds 31 1011 66 10000 4.63 70 19:23 28.04.2022
3929 Clouds 30 1012 70 10000 2.06 0 18:38 28.04.2022
3930 Clouds 30 1012 74 10000 3.09 20 17:32 28.04.2022
3931 Clouds 30 1013 70 10000 3.6 70 16:50 28.04.2022
3932 Clouds 30 1013 70 10000 3.6 70 16:20 28.04.2022
3933 Clouds 30 1013 70 10000 3.6 70 16:20 28.04.2022
3934 Clouds 29 1013 84 10000 3.09 40 15:41 28.04.2022
3935 Clouds 27 1012 89 10000 2.57 70 14:47 28.04.2022
3936 Clouds 26 1011 94 10000 1.54 40 13:23 28.04.2022
3937 Clouds 25 1010 94 10000 1.54 10 12:28 28.04.2022
3938 Clouds 25 1010 100 10000 1.03 30 10:51 28.04.2022
3939 Clouds 25 1010 100 10000 1.03 30 10:26 28.04.2022
3940 Clouds 25 1010 100 10000 1.03 30 09:43 28.04.2022
3941 Clear 25 1010 94 10000 1.54 60 07:40 28.04.2022
3942 Clear 25 1010 94 10000 2.06 10 06:38 28.04.2022
3943 Clear 25 1011 94 10000 1.54 30 05:40 28.04.2022
3944 Clear 25 1011 94 10000 2.06 40 04:42 28.04.2022
3945 Rain 27 1009 78 10000 1.54 10 00:51 28.04.2022
3946 Clouds 28 1009 74 10000 3.6 30 22:52 27.04.2022
3947 Clouds 29 1009 70 10000 2.06 30 21:58 27.04.2022
3948 Rain 29 1009 70 10000 2.06 30 21:32 27.04.2022
3949 Rain 28 1009 78 10000 4.63 30 20:44 27.04.2022
3950 Clouds 28 1011 83 10000 3.09 330 19:41 27.04.2022
3951 Clouds 28 1011 83 10000 3.09 330 19:22 27.04.2022
3952 Clouds 28 1011 83 10000 3.09 330 19:22 27.04.2022
3953 Clouds 28 1012 89 10000 2.06 280 18:38 27.04.2022
3954 Clouds 28 1013 89 10000 2.57 300 17:26 27.04.2022
3955 Clouds 28 1013 83 10000 3.09 270 15:56 27.04.2022
3956 Fog 25 1010 94 10000 2.06 340 12:50 27.04.2022
3957 Mist 25 1010 94 10000 2.57 330 11:23 27.04.2022
3958 Fog 25 1009 94 10000 2.57 310 10:26 27.04.2022
3959 Clear 26 1010 89 10000 2.57 340 07:41 27.04.2022
3960 Clouds 26 1011 89 10000 1.54 350 06:36 27.04.2022
3961 Rain 27 1010 78 10000 3.6 20 02:25 27.04.2022
3962 Rain 29 1009 74 10000 4.63 340 01:18 27.04.2022
3963 Clouds 29 1008 70 10000 2.57 10 00:27 27.04.2022
3964 Clouds 30 1007 66 10000 2.57 30 23:23 26.04.2022
3965 Clouds 31 1007 70 10000 2.06 40 22:43 26.04.2022
3966 Rain 31 1007 70 10000 2.06 40 21:57 26.04.2022
3967 Clouds 31 1007 70 10000 4.12 60 20:58 26.04.2022
3968 Clouds 32 1008 62 10000 3.6 70 20:36 26.04.2022
3969 Rain 32 1009 66 10000 1.54 150 19:35 26.04.2022
3970 Clouds 31 1010 66 10000 4.63 50 18:53 26.04.2022
3971 Clouds 31 1010 66 10000 4.63 50 18:19 26.04.2022
3972 Clouds 31 1012 70 10000 2.57 80 17:33 26.04.2022
3973 Clouds 29 1012 79 10000 2.06 70 14:58 26.04.2022
3974 Clear 26 1010 94 10000 0 0 13:34 26.04.2022
3975 Clear 24 1010 100 10000 0 0 12:34 26.04.2022
3976 Clear 25 1009 100 10000 1.03 0 10:46 26.04.2022
3977 Clear 25 1009 100 10000 1.03 0 09:50 26.04.2022
3978 Clear 25 1009 94 10000 1.03 310 08:28 26.04.2022
3979 Clear 26 1010 94 10000 1.54 100 04:37 26.04.2022
3980 Rain 27 1009 89 10000 2.57 90 02:40 26.04.2022
3981 Clouds 29 1007 74 10000 3.09 70 00:28 26.04.2022
3982 Clouds 31 1007 66 10000 4.12 40 22:50 25.04.2022
3983 Clouds 32 1007 58 10000 3.09 60 21:44 25.04.2022
3984 Clouds 32 1009 62 10000 5.14 70 20:45 25.04.2022
3985 Clouds 32 1010 66 10000 5.14 80 19:39 25.04.2022
3986 Clouds 31 1011 70 10000 4.63 90 18:25 25.04.2022
3987 Clouds 31 1012 70 10000 5.14 90 17:32 25.04.2022
3988 Clouds 29 1012 74 10000 3.09 20 15:30 25.04.2022
3989 Clouds 28 1012 83 10000 3.09 20 14:54 25.04.2022
3990 Clouds 27 1011 89 10000 1.03 90 13:43 25.04.2022
3991 Clouds 26 1009 94 10000 1.03 160 11:53 25.04.2022
3992 Clouds 25 1009 100 10000 1.03 200 10:27 25.04.2022
3993 Clouds 26 1009 100 10000 1.03 40 09:20 25.04.2022
3994 Clear 26 1011 100 10000 1.03 220 06:49 25.04.2022
3995 Clear 26 1011 100 10000 1.03 210 05:23 25.04.2022
3996 Clouds 28 1009 83 10000 1.03 0 00:58 25.04.2022
3997 Clouds 30 1008 70 10000 1.54 70 23:52 24.04.2022
3998 Clouds 31 1008 62 10000 2.06 0 22:49 24.04.2022
3999 Clouds 31 1008 62 10000 2.06 0 22:29 24.04.2022
4000 Clouds 32 1008 66 10000 2.06 220 21:41 24.04.2022
4001 Clouds 32 1008 66 10000 2.06 220 21:18 24.04.2022
4002 Rain 32 1009 66 10000 2.06 340 20:35 24.04.2022
4003 Rain 31 1011 70 10000 2.57 210 19:48 24.04.2022
4004 Clouds 30 1012 70 10000 2.57 70 18:20 24.04.2022
4005 Clouds 29 1013 79 10000 5.14 30 17:32 24.04.2022
4006 Rain 29 1013 74 10000 5.14 30 16:59 24.04.2022
4007 Clouds 29 1013 74 10000 3.09 80 16:35 24.04.2022
4008 Clouds 29 1013 74 10000 3.09 80 15:55 24.04.2022
4009 Clouds 28 1013 78 10000 3.09 40 15:31 24.04.2022
4010 Clouds 28 1013 78 10000 3.09 40 15:31 24.04.2022
4011 Clouds 26 1011 89 10000 3.6 30 13:57 24.04.2022
4012 Clouds 26 1011 89 10000 1.54 20 13:25 24.04.2022
4013 Clear 24 1011 94 10000 2.06 70 12:30 24.04.2022
4014 Rain 24 1010 94 10000 1.03 50 11:28 24.04.2022
4015 Clear 24 1010 88 10000 1.54 20 10:25 24.04.2022
4016 Clear 24 1009 88 10000 2.06 360 09:23 24.04.2022
4017 Clear 25 1011 88 10000 2.06 30 06:34 24.04.2022
4018 Clear 26 1009 83 10000 2.06 30 03:43 24.04.2022
4019 Clouds 28 1008 78 10000 2.57 340 01:38 24.04.2022
4020 Clouds 28 1007 89 10000 1.54 280 00:22 24.04.2022
4021 Clouds 29 1006 84 10000 1.03 90 23:26 23.04.2022
4022 Clouds 29 1006 84 10000 3.09 40 22:55 23.04.2022
4023 Clouds 32 1007 58 10000 1.54 130 21:51 23.04.2022
4024 Clouds 32 1007 58 10000 1.54 130 21:32 23.04.2022
4025 Clouds 32 1009 62 10000 3.6 40 20:36 23.04.2022
4026 Clouds 31 1010 66 10000 3.6 360 19:46 23.04.2022
4027 Rain 31 1010 66 10000 3.6 360 19:19 23.04.2022
4028 Clouds 31 1011 70 10000 2.57 0 18:46 23.04.2022
4029 Clouds 30 1012 74 10000 2.06 0 17:48 23.04.2022
4030 Clouds 29 1012 84 10000 2.57 0 16:50 23.04.2022
4031 Clouds 29 1012 84 10000 2.57 0 16:21 23.04.2022
4032 Clouds 26 1011 94 10000 2.57 60 14:27 23.04.2022
4033 Clouds 25 1009 100 10000 1.54 60 12:22 23.04.2022
4034 Clouds 25 1009 100 10000 1.03 50 10:40 23.04.2022
4035 Clouds 25 1009 100 10000 1.03 50 10:40 23.04.2022
4036 Clouds 24 1009 100 10000 1.03 60 08:42 23.04.2022
4037 Clear 25 1011 100 10000 2.06 20 05:45 23.04.2022
4038 Clear 25 1011 100 10000 1.54 60 03:54 23.04.2022
4039 Clouds 26 1008 94 10000 1.54 360 00:18 23.04.2022
4040 Clouds 27 1008 89 10000 2.06 80 23:25 22.04.2022
4041 Rain 27 1009 89 10000 1.03 80 21:59 22.04.2022
4042 Rain 27 1009 89 10000 1.03 80 21:40 22.04.2022
4043 Clouds 28 1010 83 10000 1.54 180 20:37 22.04.2022
4044 Clouds 28 1011 78 10000 1.54 230 19:39 22.04.2022
4045 Rain 28 1011 78 10000 1.54 230 19:18 22.04.2022
4046 Clouds 27 1012 83 10000 2.57 30 18:28 22.04.2022
4047 Rain 26 1012 89 10000 2.57 360 17:24 22.04.2022
4048 Rain 25 1013 94 8000 3.09 10 16:29 22.04.2022
4049 Rain 25 1013 94 9000 2.57 10 15:31 22.04.2022
4050 Rain 24 1013 100 9000 1.54 20 14:38 22.04.2022
4051 Rain 24 1013 100 9000 1.54 20 14:38 22.04.2022
4052 Rain 24 1013 100 8000 1.54 50 13:42 22.04.2022
4053 Rain 24 1013 94 8000 1.54 90 12:48 22.04.2022
4054 Rain 24 1011 100 10000 1.54 10 11:23 22.04.2022
4055 Rain 24 1011 100 8000 1.54 30 10:57 22.04.2022
4056 Rain 24 1011 100 8000 1.54 30 10:34 22.04.2022
4057 Clouds 25 1011 94 8000 1.54 40 09:59 22.04.2022
4058 Clouds 25 1011 94 8000 0.51 350 09:22 22.04.2022
4059 Clear 25 1010 94 10000 1.54 20 08:48 22.04.2022
4060 Clear 25 1011 94 10000 1.54 300 06:42 22.04.2022
4061 Clouds 25 1011 94 8000 2.06 300 01:34 22.04.2022
4062 Clouds 28 1009 78 10000 3.6 260 23:35 21.04.2022
4063 Clouds 28 1009 78 10000 4.63 280 22:47 21.04.2022
4064 Clouds 28 1010 78 10000 4.63 280 21:42 21.04.2022
4065 Clouds 28 1011 78 10000 4.12 260 20:31 21.04.2022
4066 Rain 27 1014 83 10000 2.06 270 18:49 21.04.2022
4067 Rain 27 1014 83 10000 2.06 270 18:28 21.04.2022
4068 Clouds 27 1015 78 10000 2.57 270 17:19 21.04.2022
4069 Clouds 26 1014 83 10000 4.12 270 15:25 21.04.2022
4070 Clouds 26 1014 83 10000 3.6 270 14:52 21.04.2022
4071 Clouds 26 1014 83 10000 3.6 270 14:18 21.04.2022
4072 Clouds 25 1013 94 10000 1.54 300 13:21 21.04.2022
4073 Clouds 24 1012 100 10000 4.12 260 12:25 21.04.2022
4074 Clouds 25 1011 94 10000 3.6 250 09:36 21.04.2022
4075 Clouds 25 1011 94 10000 2.06 270 08:46 21.04.2022
4076 Clouds 25 1012 94 10000 1.54 260 06:44 21.04.2022
4077 Rain 25 1012 100 10000 2.06 260 03:41 21.04.2022
4078 Rain 25 1012 100 10000 2.06 260 03:22 21.04.2022
4079 Clear 25 1012 94 10000 1.54 250 02:44 21.04.2022
4080 Clear 25 1012 94 10000 1.54 250 02:44 21.04.2022
4081 Clouds 26 1010 89 10000 1.54 240 00:35 21.04.2022
4082 Clouds 27 1009 78 10000 2.57 240 23:37 20.04.2022
4083 Clouds 27 1009 78 10000 2.57 240 23:18 20.04.2022
4084 Clouds 27 1009 83 10000 2.06 190 22:34 20.04.2022
4085 Rain 27 1009 83 10000 1.54 170 21:43 20.04.2022
4086 Clouds 27 1010 83 10000 2.57 180 20:44 20.04.2022
4087 Clouds 27 1010 83 10000 2.57 180 20:44 20.04.2022
4088 Rain 27 1010 83 10000 2.57 180 20:21 20.04.2022
4089 Rain 26 1012 89 10000 2.06 160 19:44 20.04.2022
4090 Rain 25 1014 94 7000 1.03 160 18:46 20.04.2022
4091 Rain 25 1014 100 6000 1.54 100 17:49 20.04.2022
4092 Rain 25 1015 100 4000 2.06 40 16:39 20.04.2022
4093 Clouds 25 1013 100 5000 1.03 10 14:58 20.04.2022
4094 Fog 24 1011 100 10000 1.03 310 12:22 20.04.2022
4095 Fog 24 1010 100 10000 1.54 250 11:42 20.04.2022
4096 Fog 25 1010 94 10000 1.54 230 10:43 20.04.2022
4097 Clouds 25 1010 88 10000 1.03 240 09:28 20.04.2022
4098 Clouds 25 1011 94 10000 1.54 300 08:29 20.04.2022
4099 Fog 25 1011 100 10000 2.57 240 07:53 20.04.2022
4100 Fog 25 1012 94 10000 2.06 260 06:18 20.04.2022
4101 Clear 25 1009 94 10000 1.54 220 01:37 20.04.2022
4102 Clouds 25 1009 94 10000 1.03 250 00:21 20.04.2022
4103 Clouds 26 1008 89 10000 2.06 270 22:53 19.04.2022
4104 Clouds 26 1008 89 10000 2.06 270 22:23 19.04.2022
4105 Clouds 26 1009 89 10000 2.06 250 21:49 19.04.2022
4106 Rain 25 1010 100 10000 1.54 270 20:57 19.04.2022
4107 Rain 25 1010 100 10000 1.54 270 20:37 19.04.2022
4108 Rain 24 1012 100 5000 2.06 190 19:32 19.04.2022
4109 Thunderstorm 24 1014 100 1000 1.54 140 18:30 19.04.2022
4110 Rain 25 1013 100 2000 2.57 230 16:50 19.04.2022
4111 Rain 25 1013 100 8000 1.54 220 16:25 19.04.2022
4112 Rain 26 1013 89 4000 2.06 360 15:59 19.04.2022
4113 Clouds 26 1012 94 10000 1.54 290 14:44 19.04.2022
4114 Clouds 25 1011 100 5000 0.51 250 12:53 19.04.2022
4115 Clouds 25 1011 100 5000 0.51 250 12:33 19.04.2022
4116 Clouds 24 1010 100 10000 0 0 11:34 19.04.2022
4117 Clear 25 1010 88 10000 1.54 330 09:35 19.04.2022
4118 Clouds 25 1011 83 10000 1.54 20 07:43 19.04.2022
4119 Thunderstorm 26 1012 94 10000 1.54 300 04:25 19.04.2022
4120 Clouds 27 1009 94 10000 2.06 130 01:42 19.04.2022
4121 Clouds 30 1007 70 10000 2.06 340 23:49 18.04.2022
4122 Clouds 32 1007 62 10000 1.54 140 22:46 18.04.2022
4123 Clouds 31 1008 66 10000 2.06 0 21:25 18.04.2022
4124 Clouds 30 1009 70 10000 2.06 0 20:39 18.04.2022
4125 Clouds 30 1009 70 10000 2.06 0 20:19 18.04.2022
4126 Clouds 30 1011 70 10000 2.06 0 19:33 18.04.2022
4127 Clouds 30 1013 74 10000 2.06 70 18:45 18.04.2022
4128 Clouds 30 1013 74 10000 1.54 30 17:49 18.04.2022
4129 Clouds 30 1013 74 10000 1.54 30 17:19 18.04.2022
4130 Clouds 29 1013 79 10000 1.54 0 16:39 18.04.2022
4131 Clouds 28 1014 83 10000 1.54 50 15:32 18.04.2022
4132 Clouds 26 1013 89 10000 1.03 60 14:27 18.04.2022
4133 Mist 24 1011 100 10000 0 0 12:56 18.04.2022
4134 Fog 24 1011 100 10000 1.54 20 12:24 18.04.2022
4135 Clouds 24 1011 100 10000 0.51 140 10:58 18.04.2022
4136 Clouds 24 1010 100 10000 1.54 170 09:53 18.04.2022
4137 Clouds 24 1010 94 10000 1.54 300 09:27 18.04.2022
4138 Clouds 24 1012 100 10000 1.54 90 07:25 18.04.2022
4139 Clouds 24 1010 100 10000 1.03 50 02:45 18.04.2022
4140 Rain 25 1009 94 10000 2.57 70 23:23 17.04.2022
4141 Clouds 26 1010 94 7000 2.57 100 22:37 17.04.2022
4142 Clouds 26 1011 89 10000 3.09 100 21:34 17.04.2022
4143 Rain 26 1011 89 10000 2.06 130 20:52 17.04.2022
4144 Clouds 26 1011 89 10000 2.06 130 20:19 17.04.2022
4145 Rain 26 1013 94 9000 2.06 170 18:58 17.04.2022
4146 Rain 26 1014 94 10000 1.54 160 17:31 17.04.2022
4147 Rain 25 1014 100 9000 1.03 140 15:37 17.04.2022
4148 Rain 24 1013 94 9000 1.54 160 14:45 17.04.2022
4149 Rain 25 1012 100 6000 1.54 60 13:29 17.04.2022
4150 Rain 25 1011 94 10000 3.09 340 12:49 17.04.2022
4151 Rain 25 1010 94 10000 1.03 190 10:58 17.04.2022
4152 Rain 25 1010 94 10000 0.51 210 10:29 17.04.2022
4153 Rain 25 1010 100 10000 1.54 220 09:51 17.04.2022
4154 Rain 25 1010 100 10000 1.54 220 09:20 17.04.2022
4155 Clouds 25 1010 100 10000 1.03 170 08:41 17.04.2022
4156 Clouds 25 1012 100 10000 1.54 100 06:29 17.04.2022
4157 Clouds 25 1010 94 10000 1.03 100 02:26 17.04.2022
4158 Rain 27 1009 83 10000 2.57 70 00:41 17.04.2022
4159 Rain 28 1008 78 10000 1.54 360 23:30 16.04.2022
4160 Clouds 27 1009 89 10000 2.57 310 21:47 16.04.2022
4161 Clouds 25 1010 100 8000 2.57 280 20:54 16.04.2022
4162 Clouds 28 1011 78 10000 4.12 260 19:24 16.04.2022
4163 Clouds 28 1012 78 10000 3.6 250 18:43 16.04.2022
4164 Clouds 27 1014 83 10000 3.09 260 17:20 16.04.2022
4165 Clouds 27 1014 78 10000 2.06 300 15:51 16.04.2022
4166 Clouds 25 1013 88 10000 1.54 320 14:58 16.04.2022
4167 Clouds 25 1013 88 10000 1.54 320 14:37 16.04.2022
4168 Clouds 24 1012 94 10000 1.03 360 13:49 16.04.2022
4169 Fog 24 1011 94 10000 2.06 350 12:43 16.04.2022
4170 Fog 24 1011 94 10000 1.54 360 11:43 16.04.2022
4171 Rain 24 1010 94 10000 1.54 340 10:33 16.04.2022
4172 Clouds 24 1010 94 10000 1.03 30 09:37 16.04.2022
4173 Clouds 24 1010 94 10000 1.03 50 08:51 16.04.2022
4174 Clouds 24 1010 94 10000 1.54 240 07:21 16.04.2022
4175 Clouds 24 1012 94 10000 1.54 290 04:58 16.04.2022
4176 Rain 24 1010 94 10000 3.09 340 01:23 16.04.2022
4177 Rain 25 1009 94 10000 3.6 350 23:52 15.04.2022
4178 Rain 24 1009 100 10000 4.12 330 22:48 15.04.2022
4179 Thunderstorm 24 1009 100 10000 4.12 330 22:28 15.04.2022
4180 Clouds 29 1009 79 10000 3.6 260 21:21 15.04.2022
4181 Clouds 30 1009 70 10000 3.09 250 20:38 15.04.2022
4182 Clouds 29 1010 74 10000 2.57 190 19:44 15.04.2022
4183 Clouds 28 1012 78 10000 2.57 190 18:59 15.04.2022
4184 Clouds 28 1012 78 10000 4.12 170 18:41 15.04.2022
4185 Clouds 28 1012 78 10000 4.12 170 18:21 15.04.2022
4186 Clouds 29 1013 74 10000 2.06 270 17:26 15.04.2022
4187 Clouds 28 1013 78 10000 2.57 250 16:25 15.04.2022
4188 Clouds 26 1013 89 10000 1.54 230 15:45 15.04.2022
4189 Clouds 25 1011 88 10000 1.03 170 13:55 15.04.2022
4190 Clouds 24 1011 100 10000 1.03 250 12:52 15.04.2022
4191 Rain 24 1011 100 10000 1.03 250 12:24 15.04.2022
4192 Clouds 24 1010 100 10000 1.03 210 11:50 15.04.2022
4193 Clouds 24 1010 94 10000 1.54 220 10:46 15.04.2022
4194 Clouds 24 1010 100 10000 1.54 220 09:59 15.04.2022
4195 Clouds 24 1010 100 10000 1.54 220 09:22 15.04.2022
4196 Rain 24 1010 100 10000 1.54 250 08:39 15.04.2022
4197 Thunderstorm 24 1012 100 8000 2.57 240 06:48 15.04.2022
4198 Thunderstorm 24 1012 100 1000 2.06 150 04:43 15.04.2022
4199 Clouds 28 1007 83 10000 2.06 10 00:34 15.04.2022
4200 Thunderstorm 28 1007 83 10000 2.06 220 23:22 14.04.2022
4201 Rain 29 1007 79 10000 3.6 280 22:45 14.04.2022
4202 Rain 29 1007 79 10000 3.6 280 22:26 14.04.2022
4203 Clouds 28 1007 83 10000 4.12 260 21:47 14.04.2022
4204 Rain 28 1011 83 10000 2.57 40 19:24 14.04.2022
4205 Rain 26 1012 89 10000 1.54 30 18:53 14.04.2022
4206 Clouds 24 1012 100 10000 1.03 70 17:45 14.04.2022
4207 Thunderstorm 23 1013 100 10000 2.06 80 16:51 14.04.2022
4208 Clouds 23 1013 100 5000 5.66 360 15:51 14.04.2022
4209 Clouds 26 1010 100 10000 1.03 300 13:53 14.04.2022
4210 Clouds 26 1010 100 10000 1.03 300 13:20 14.04.2022
4211 Clouds 25 1009 100 10000 2.57 300 12:32 14.04.2022
4212 Clouds 26 1009 100 10000 0.51 30 11:37 14.04.2022
4213 Clouds 26 1008 100 10000 1.03 160 10:58 14.04.2022
4214 Clouds 26 1008 100 10000 1.03 160 10:31 14.04.2022
4215 Clouds 26 1008 100 10000 0.51 220 09:28 14.04.2022
4216 Clear 26 1009 100 10000 0.51 230 08:23 14.04.2022
4217 Clear 26 1010 89 10000 1.54 80 05:52 14.04.2022
4218 Clouds 28 1007 83 10000 3.6 50 00:29 14.04.2022
4219 Clouds 31 1006 66 10000 5.14 40 22:37 13.04.2022
4220 Clouds 32 1007 62 10000 3.09 50 21:42 13.04.2022
4221 Clouds 32 1008 66 10000 2.57 40 20:39 13.04.2022
4222 Clouds 31 1009 66 10000 2.06 0 19:48 13.04.2022
4223 Clouds 31 1010 70 10000 4.12 30 18:37 13.04.2022
4224 Clouds 30 1011 74 10000 2.57 70 17:25 13.04.2022
4225 Clouds 29 1012 74 10000 3.09 10 16:52 13.04.2022
4226 Clouds 29 1012 79 10000 3.6 10 15:45 13.04.2022
4227 Clouds 29 1012 79 10000 3.6 10 15:23 13.04.2022
4228 Clouds 27 1011 83 10000 2.06 60 14:34 13.04.2022
4229 Clouds 25 1010 94 10000 1.54 20 13:37 13.04.2022
4230 Clouds 24 1009 100 10000 1.03 340 12:45 13.04.2022
4231 Clear 24 1009 100 10000 1.03 310 11:32 13.04.2022
4232 Clear 24 1009 94 10000 1.03 130 10:27 13.04.2022
4233 Clear 25 1009 94 10000 2.06 40 08:45 13.04.2022
4234 Clear 25 1010 94 10000 2.06 40 07:44 13.04.2022
4235 Clear 25 1011 88 10000 1.03 40 06:47 13.04.2022
4236 Clear 25 1011 88 10000 1.03 40 06:23 13.04.2022
4237 Clouds 26 1009 89 10000 1.03 50 00:52 13.04.2022
4238 Clouds 26 1009 89 10000 1.03 50 00:19 13.04.2022
4239 Rain 26 1008 94 10000 2.57 10 22:33 12.04.2022
4240 Rain 26 1009 89 10000 2.57 50 21:47 12.04.2022
4241 Rain 25 1010 94 10000 4.63 60 20:44 12.04.2022
4242 Rain 25 1010 94 10000 4.63 60 20:18 12.04.2022
4243 Rain 25 1010 100 9000 4.63 70 19:39 12.04.2022
4244 Rain 25 1011 100 9000 4.63 70 18:53 12.04.2022
4245 Rain 26 1013 94 10000 2.06 70 17:38 12.04.2022
4246 Rain 26 1013 94 10000 1.54 20 16:38 12.04.2022
4247 Clouds 28 1013 78 7000 2.57 10 15:34 12.04.2022
4248 Clouds 25 1012 94 10000 2.57 50 14:41 12.04.2022
4249 Clouds 25 1011 100 10000 1.54 30 13:45 12.04.2022
4250 Clouds 25 1011 100 10000 1.54 30 13:23 12.04.2022
4251 Clear 25 1009 94 10000 1.03 320 11:49 12.04.2022
4252 Clear 25 1009 94 10000 1.03 320 11:28 12.04.2022
4253 Clouds 26 1009 94 10000 1.03 320 09:47 12.04.2022
4254 Clouds 26 1009 94 10000 2.06 330 08:32 12.04.2022
4255 Clouds 26 1010 94 10000 1.54 330 06:34 12.04.2022
4256 Clear 26 1011 100 10000 2.57 360 05:38 12.04.2022
4257 Thunderstorm 26 1009 94 10000 1.54 310 01:48 12.04.2022
4258 Clouds 30 1007 70 10000 2.06 210 23:20 11.04.2022
4259 Clouds 30 1008 74 10000 1.54 220 21:51 11.04.2022
4260 Clouds 30 1008 74 10000 1.54 220 21:18 11.04.2022
4261 Clouds 29 1009 79 10000 1.54 180 20:30 11.04.2022
4262 Clouds 29 1009 79 10000 1.54 180 19:58 11.04.2022
4263 Rain 30 1010 74 10000 1.54 130 19:25 11.04.2022
4264 Clouds 30 1011 74 10000 1.54 80 18:52 11.04.2022
4265 Clouds 29 1012 79 10000 3.6 170 17:57 11.04.2022
4266 Clouds 29 1012 79 10000 1.54 120 17:30 11.04.2022
4267 Clouds 27 1013 89 10000 2.06 160 16:25 11.04.2022
4268 Clouds 26 1012 94 10000 2.06 330 14:40 11.04.2022
4269 Clouds 25 1011 94 10000 1.03 130 13:19 11.04.2022
4270 Clouds 25 1010 94 10000 1.03 210 12:36 11.04.2022
4271 Clouds 24 1010 100 10000 1.03 250 11:42 11.04.2022
4272 Clouds 24 1009 100 10000 1.03 280 10:35 11.04.2022
4273 Clouds 24 1010 100 10000 1.03 310 09:34 11.04.2022
4274 Clouds 24 1010 100 10000 0.51 320 07:24 11.04.2022
4275 Clouds 24 1009 100 10000 1.03 40 02:36 11.04.2022
4276 Clouds 25 1008 94 10000 2.57 70 22:58 10.04.2022
4277 Rain 26 1008 89 10000 2.06 70 22:26 10.04.2022
4278 Rain 25 1009 88 10000 3.09 30 21:35 10.04.2022
4279 Rain 25 1010 88 10000 3.09 10 20:39 10.04.2022
4280 Rain 24 1011 94 10000 2.57 30 19:46 10.04.2022
4281 Rain 24 1011 94 10000 2.57 30 19:25 10.04.2022
4282 Rain 24 1013 94 6000 4.12 20 18:45 10.04.2022
4283 Rain 24 1014 94 8000 5.66 70 17:56 10.04.2022
4284 Thunderstorm 24 1014 94 8000 5.66 70 17:56 10.04.2022
4285 Thunderstorm 24 1014 94 8000 7.2 60 17:37 10.04.2022
4286 Thunderstorm 24 1014 94 7000 4.63 70 16:44 10.04.2022
4287 Clouds 28 1013 78 10000 1.03 330 15:37 10.04.2022
4288 Clouds 27 1012 78 10000 2.06 310 14:25 10.04.2022
4289 Clouds 25 1011 88 10000 2.06 310 12:35 10.04.2022
4290 Clouds 25 1011 88 10000 2.06 310 11:56 10.04.2022
4291 Clouds 25 1010 88 10000 1.54 360 11:29 10.04.2022
4292 Clouds 25 1010 88 10000 1.54 360 10:56 10.04.2022
4293 Clear 25 1010 88 10000 1.54 310 09:59 10.04.2022
4294 Clear 25 1010 88 10000 1.03 320 09:38 10.04.2022
4295 Clear 25 1010 88 10000 1.54 290 08:23 10.04.2022
4296 Clear 24 1011 94 10000 1.03 260 07:35 10.04.2022
4297 Clear 25 1011 88 10000 1.54 10 05:50 10.04.2022
4298 Clouds 26 1009 83 10000 1.54 360 02:25 10.04.2022
4299 Clouds 27 1009 78 10000 1.54 60 00:27 10.04.2022
4300 Clouds 28 1009 74 10000 3.09 50 23:48 09.04.2022
4301 Clouds 29 1009 70 10000 3.09 60 22:47 09.04.2022
4302 Clouds 28 1010 78 10000 2.57 350 21:35 09.04.2022
4303 Clouds 28 1011 74 10000 2.57 360 20:48 09.04.2022
4304 Clouds 28 1011 74 10000 2.57 360 20:25 09.04.2022
4305 Clouds 28 1013 74 10000 3.09 30 19:41 09.04.2022
4306 Clouds 28 1013 74 10000 3.09 30 18:55 09.04.2022
4307 Clouds 27 1014 78 10000 3.09 350 18:19 09.04.2022
4308 Clouds 25 1015 94 10000 2.57 60 17:39 09.04.2022
4309 Clouds 25 1015 94 10000 2.57 60 17:39 09.04.2022
4310 Rain 24 1015 94 8000 3.6 50 16:50 09.04.2022
4311 Clouds 23 1015 100 3000 4.12 40 15:55 09.04.2022
4312 Rain 23 1015 100 3000 4.12 40 15:29 09.04.2022
4313 Clouds 23 1015 100 2000 4.63 40 14:27 09.04.2022
4314 Clouds 23 1014 100 1000 5.14 50 13:54 09.04.2022
4315 Clouds 24 1013 100 10000 4.12 50 12:59 09.04.2022
4316 Clouds 24 1012 100 10000 1.54 50 12:34 09.04.2022
4317 Clear 24 1011 100 10000 1.03 50 11:21 09.04.2022
4318 Clear 24 1011 100 10000 1.03 20 10:20 09.04.2022
4319 Clouds 24 1011 100 10000 1.03 10 09:37 09.04.2022
4320 Clouds 24 1011 100 10000 1.03 40 08:50 09.04.2022
4321 Clear 24 1012 100 10000 1.03 330 05:58 09.04.2022
4322 Clouds 24 1009 100 10000 1.54 30 00:38 09.04.2022
4323 Rain 25 1009 94 10000 1.03 80 23:25 08.04.2022
4324 Rain 24 1008 94 9000 1.54 360 21:57 08.04.2022
4325 Rain 24 1010 94 4000 3.6 30 20:47 08.04.2022
4326 Rain 24 1011 94 3000 4.12 40 19:58 08.04.2022
4327 Rain 23 1012 100 4000 4.12 40 19:18 08.04.2022
4328 Clouds 24 1013 94 1000 7.2 60 18:25 08.04.2022
4329 Clouds 27 1013 94 10000 2.57 270 17:38 08.04.2022
4330 Clouds 27 1013 94 10000 2.57 270 17:19 08.04.2022
4331 Clouds 27 1014 94 10000 2.57 190 16:35 08.04.2022
4332 Clouds 28 1013 78 10000 1.54 290 15:39 08.04.2022
4333 Clouds 27 1013 89 10000 2.57 350 14:52 08.04.2022
4334 Clouds 27 1013 89 10000 2.57 350 14:21 08.04.2022
4335 Fog 26 1012 94 10000 1.54 350 13:41 08.04.2022
4336 Fog 26 1012 94 10000 1.54 350 13:22 08.04.2022
4337 Clouds 25 1010 100 10000 1.54 310 11:43 08.04.2022
4338 Clouds 25 1010 100 10000 0.51 140 10:26 08.04.2022
4339 Clear 26 1010 100 10000 1.03 190 09:25 08.04.2022
4340 Clear 26 1010 89 10000 1.03 190 08:25 08.04.2022
4341 Clear 26 1011 94 10000 1.03 160 06:47 08.04.2022
4342 Clear 26 1010 89 10000 1.54 260 03:48 08.04.2022
4343 Rain 28 1008 78 10000 1.03 60 00:32 08.04.2022
4344 Rain 29 1007 74 10000 2.06 30 23:53 07.04.2022
4345 Rain 29 1007 79 10000 1.54 70 22:57 07.04.2022
4346 Rain 29 1007 79 10000 1.54 70 22:37 07.04.2022
4347 Rain 29 1007 79 10000 3.09 220 22:19 07.04.2022
4348 Clouds 31 1007 74 10000 4.12 350 21:33 07.04.2022
4349 Clouds 31 1007 74 10000 3.09 190 20:56 07.04.2022
4350 Clouds 31 1009 70 10000 3.09 190 20:26 07.04.2022
4351 Clouds 30 1013 74 10000 2.06 10 17:45 07.04.2022
4352 Clouds 30 1013 74 10000 2.06 10 17:23 07.04.2022
4353 Clouds 28 1013 83 10000 3.09 20 16:42 07.04.2022
4354 Clouds 28 1013 83 10000 2.57 60 15:58 07.04.2022
4355 Clouds 26 1013 94 10000 2.06 50 14:28 07.04.2022
4356 Clouds 24 1012 100 10000 0.51 70 13:41 07.04.2022
4357 Clouds 24 1011 94 10000 1.03 140 12:28 07.04.2022
4358 Clouds 24 1011 94 10000 1.03 140 12:28 07.04.2022
4359 Clouds 24 1010 100 10000 0.51 10 10:57 07.04.2022
4360 Clouds 24 1009 100 10000 1.03 270 09:34 07.04.2022
4361 Clouds 24 1010 100 10000 1.03 60 08:27 07.04.2022
4362 Clouds 24 1011 100 10000 1.54 30 06:18 07.04.2022
4363 Clear 24 1010 100 10000 1.03 20 02:38 07.04.2022
4364 Clouds 26 1009 89 10000 1.54 150 00:47 07.04.2022
4365 Clouds 27 1009 83 10000 1.54 140 23:53 06.04.2022
4366 Clouds 26 1009 89 10000 1.03 180 22:45 06.04.2022
4367 Clouds 26 1009 89 10000 1.03 180 22:24 06.04.2022
4368 Rain 26 1009 89 10000 1.03 90 21:18 06.04.2022
4369 Rain 26 1010 89 10000 2.06 360 20:27 06.04.2022
4370 Rain 25 1012 100 10000 1.03 200 19:52 06.04.2022
4371 Rain 25 1013 100 9000 2.57 360 18:49 06.04.2022
4372 Rain 25 1014 100 7000 2.57 60 17:51 06.04.2022
4373 Rain 25 1014 100 7000 2.57 60 17:21 06.04.2022
4374 Clouds 25 1014 100 4000 2.06 70 16:34 06.04.2022
4375 Clouds 25 1013 100 9000 2.57 10 15:46 06.04.2022
4376 Clouds 25 1012 94 10000 1.54 20 13:57 06.04.2022
4377 Fog 25 1011 94 10000 2.06 10 12:37 06.04.2022
4378 Fog 24 1011 100 10000 1.03 10 11:48 06.04.2022
4379 Rain 24 1011 100 10000 1.03 10 10:42 06.04.2022
4380 Fog 24 1011 100 10000 1.03 10 10:18 06.04.2022
4381 Fog 24 1010 100 10000 1.54 360 09:26 06.04.2022
4382 Fog 24 1010 100 10000 0.51 60 08:26 06.04.2022
4383 Fog 25 1011 94 10000 1.03 340 07:37 06.04.2022
4384 Rain 25 1011 88 10000 1.54 30 02:19 06.04.2022
4385 Clouds 27 1007 83 10000 2.06 310 23:50 05.04.2022
4386 Rain 27 1009 83 10000 3.09 330 22:20 05.04.2022
4387 Rain 27 1010 83 10000 3.6 360 21:18 05.04.2022
4388 Rain 27 1010 83 10000 3.6 360 21:18 05.04.2022
4389 Rain 27 1010 83 10000 3.6 360 21:18 05.04.2022
4390 Rain 27 1010 83 10000 3.6 360 21:18 05.04.2022
4391 Rain 29 1010 79 10000 3.09 70 20:25 05.04.2022
4392 Clouds 30 1012 74 10000 2.57 170 18:53 05.04.2022
4393 Rain 30 1013 74 10000 1.54 140 17:30 05.04.2022
4394 Clouds 29 1013 74 10000 1.54 130 16:45 05.04.2022
4395 Clouds 27 1013 89 10000 1.54 170 15:52 05.04.2022
4396 Clouds 27 1013 89 10000 1.54 170 15:31 05.04.2022
4397 Clouds 25 1012 100 10000 0.51 110 13:59 05.04.2022
4398 Clouds 25 1011 100 10000 1.03 360 12:41 05.04.2022
4399 Clouds 25 1011 100 10000 0 0 11:43 05.04.2022
4400 Clouds 25 1011 100 10000 0 0 11:25 05.04.2022
4401 Clouds 25 1010 100 10000 0 0 09:41 05.04.2022
4402 Clouds 25 1011 94 10000 1.54 60 08:52 05.04.2022
4403 Rain 26 1012 94 10000 2.06 60 05:28 05.04.2022
4404 Clouds 27 1008 83 10000 2.06 80 23:51 04.04.2022
4405 Rain 28 1008 83 10000 4.12 350 22:41 04.04.2022
4406 Rain 28 1008 83 10000 3.09 70 21:57 04.04.2022
4407 Rain 30 1009 66 10000 1.54 80 21:21 04.04.2022
4408 Rain 31 1010 66 10000 2.06 350 20:48 04.04.2022
4409 Clouds 30 1011 66 10000 2.06 200 19:39 04.04.2022
4410 Clouds 30 1011 66 10000 2.06 200 18:59 04.04.2022
4411 Clouds 29 1014 74 10000 2.57 180 17:54 04.04.2022
4412 Clouds 29 1014 70 10000 1.54 100 16:36 04.04.2022
4413 Clouds 29 1014 70 10000 1.54 100 16:36 04.04.2022
4414 Clouds 28 1014 74 10000 1.03 130 15:34 04.04.2022
4415 Clouds 28 1014 74 10000 1.03 130 14:58 04.04.2022
4416 Clouds 26 1013 78 10000 1.54 40 14:40 04.04.2022
4417 Clouds 25 1012 83 10000 1.03 330 13:21 04.04.2022
4418 Clouds 24 1011 94 10000 1.03 10 11:48 04.04.2022
4419 Clouds 24 1011 94 10000 1.03 10 11:27 04.04.2022
4420 Clear 25 1012 94 10000 1.54 20 07:46 04.04.2022
4421 Clear 25 1012 94 10000 1.54 20 07:46 04.04.2022
4422 Clouds 26 1011 89 10000 1.03 0 03:19 04.04.2022
4423 Rain 26 1009 89 10000 0.51 140 00:25 04.04.2022
4424 Rain 28 1009 78 10000 3.09 340 22:31 03.04.2022
4425 Rain 29 1009 74 10000 2.06 170 21:37 03.04.2022
4426 Clouds 30 1010 70 10000 3.09 200 20:41 03.04.2022
4427 Clouds 30 1012 70 10000 3.09 190 19:45 03.04.2022
4428 Clouds 28 1013 78 10000 2.57 160 18:31 03.04.2022
4429 Clouds 27 1014 83 10000 1.54 130 17:44 03.04.2022
4430 Clouds 27 1014 83 10000 2.06 200 16:50 03.04.2022
4431 Clouds 27 1014 83 10000 2.06 200 16:31 03.04.2022
4432 Clouds 25 1013 94 10000 1.03 210 14:32 03.04.2022
4433 Mist 24 1012 100 10000 0.51 200 13:45 03.04.2022
4434 Fog 24 1011 94 10000 1.03 180 12:21 03.04.2022
4435 Fog 24 1010 94 10000 0.51 230 10:54 03.04.2022
4436 Fog 24 1011 94 10000 0.51 350 09:36 03.04.2022
4437 Rain 24 1012 94 10000 1.03 70 07:37 03.04.2022
4438 Rain 24 1014 94 10000 1.54 260 04:18 03.04.2022
4439 Rain 25 1012 94 6000 3.09 320 00:41 03.04.2022
4440 Rain 25 1011 94 6000 5.66 280 22:54 02.04.2022
4441 Rain 26 1010 89 10000 4.63 300 21:57 02.04.2022
4442 Rain 27 1011 83 10000 4.12 300 21:36 02.04.2022
4443 Rain 27 1011 83 10000 4.12 290 20:52 02.04.2022
4444 Rain 27 1012 83 10000 4.12 260 19:32 02.04.2022
4445 Rain 27 1013 89 10000 2.06 270 18:21 02.04.2022
4446 Rain 25 1014 100 8000 2.06 240 17:52 02.04.2022
4447 Thunderstorm 24 1015 94 1000 4.63 110 16:23 02.04.2022
4448 Thunderstorm 24 1014 94 1200 2.06 190 15:21 02.04.2022
4449 Rain 25 1014 94 1200 2.57 230 14:47 02.04.2022
4450 Rain 25 1012 94 5000 3.6 230 13:35 02.04.2022
4451 Rain 25 1012 100 10000 2.06 230 12:37 02.04.2022
4452 Rain 25 1011 100 10000 1.54 220 10:58 02.04.2022
4453 Rain 25 1011 100 10000 1.03 300 08:49 02.04.2022
4454 Rain 26 1012 94 10000 0.51 70 06:50 02.04.2022
4455 Clouds 27 1012 83 10000 2.57 20 03:45 02.04.2022
4456 Thunderstorm 28 1008 74 10000 4.63 40 23:56 01.04.2022
4457 Thunderstorm 28 1008 74 10000 6.69 130 23:18 01.04.2022
4458 Clouds 32 1007 66 10000 3.6 330 21:33 01.04.2022
4459 Clouds 32 1009 62 10000 3.09 50 20:51 01.04.2022
4460 Clouds 32 1009 62 10000 3.09 50 19:57 01.04.2022
4461 Clouds 31 1010 62 10000 3.6 30 19:31 01.04.2022
4462 Clouds 31 1012 66 10000 3.6 40 18:45 01.04.2022
4463 Clouds 30 1013 70 10000 5.14 60 17:46 01.04.2022
4464 Clouds 30 1014 70 10000 4.63 50 16:48 01.04.2022
4465 Clouds 28 1013 83 10000 5.66 40 15:36 01.04.2022
4466 Clouds 28 1013 89 10000 3.09 50 14:20 01.04.2022
4467 Clouds 25 1012 100 10000 1.54 40 13:33 01.04.2022
4468 Clouds 25 1011 100 10000 1.54 50 12:32 01.04.2022
4469 Clouds 24 1011 100 10000 1.03 70 11:37 01.04.2022
4470 Clouds 24 1011 100 10000 1.54 100 10:18 01.04.2022
4471 Clear 25 1010 94 10000 1.54 60 08:30 01.04.2022
4472 Clear 25 1011 94 10000 1.54 60 06:54 01.04.2022
4473 Clear 25 1012 94 10000 2.06 60 04:49 01.04.2022
4474 Clear 25 1012 94 10000 2.06 60 04:30 01.04.2022
4475 Clouds 25 1009 88 10000 2.06 80 01:56 01.04.2022
4476 Clouds 28 1008 74 10000 3.6 50 22:58 31.03.2022
4477 Clouds 30 1009 70 10000 2.06 0 21:50 31.03.2022
4478 Clouds 30 1009 70 10000 2.06 0 21:31 31.03.2022
4479 Clouds 28 1010 83 10000 1.54 170 20:29 31.03.2022
4480 Clouds 28 1012 78 10000 1.54 120 19:48 31.03.2022
4481 Rain 27 1013 83 10000 2.57 50 18:43 31.03.2022
4482 Rain 28 1013 78 10000 1.54 70 17:41 31.03.2022
4483 Clouds 27 1013 89 10000 2.06 90 16:37 31.03.2022
4484 Clouds 27 1013 89 10000 2.57 90 15:37 31.03.2022
4485 Clouds 26 1013 94 10000 2.57 90 15:19 31.03.2022
4486 Clouds 25 1012 100 10000 1.54 70 14:34 31.03.2022
4487 Clouds 24 1010 100 10000 1.03 30 11:34 31.03.2022
4488 Rain 24 1010 100 10000 0.51 50 10:41 31.03.2022
4489 Rain 24 1010 100 10000 0.51 50 09:44 31.03.2022
4490 Rain 25 1012 94 10000 6.17 100 07:53 31.03.2022
4491 Clouds 24 1012 100 10000 1.03 70 04:42 31.03.2022
4492 Rain 25 1009 94 10000 0.51 120 23:34 30.03.2022
4493 Rain 25 1009 94 8000 1.54 250 22:23 30.03.2022
4494 Clouds 24 1010 100 5000 0.51 20 21:33 30.03.2022
4495 Thunderstorm 24 1010 100 4000 1.54 280 20:44 30.03.2022
4496 Rain 26 1010 89 10000 2.57 150 19:59 30.03.2022
4497 Rain 26 1012 94 3000 2.06 10 18:50 30.03.2022
4498 Rain 27 1013 83 10000 1.03 160 17:53 30.03.2022
4499 Clouds 27 1013 83 10000 1.03 160 17:34 30.03.2022
4500 Rain 27 1013 83 10000 1.03 270 16:51 30.03.2022
4501 Clouds 27 1013 83 10000 1.03 270 16:30 30.03.2022
4502 Clouds 26 1013 89 10000 2.06 250 14:55 30.03.2022
4503 Clouds 24 1012 100 10000 0.51 220 13:32 30.03.2022
4504 Clouds 24 1010 100 10000 1.54 320 12:36 30.03.2022
4505 Clouds 24 1010 94 10000 2.06 310 10:54 30.03.2022
4506 Clouds 24 1010 100 10000 2.06 330 09:58 30.03.2022
4507 Clouds 24 1010 94 8000 1.54 310 08:29 30.03.2022
4508 Clouds 24 1011 94 8000 1.54 300 07:29 30.03.2022
4509 Rain 23 1012 100 9000 1.03 290 05:40 30.03.2022
4510 Rain 23 1012 100 10000 1.03 10 03:20 30.03.2022
4511 Rain 24 1010 94 2000 5.14 10 22:56 29.03.2022
4512 Rain 25 1010 100 3500 4.63 340 21:58 29.03.2022
4513 Rain 25 1010 100 3500 3.6 310 21:37 29.03.2022
4514 Rain 25 1011 100 1000 3.09 310 20:30 29.03.2022
4515 Rain 25 1012 100 10000 2.57 270 19:34 29.03.2022
4516 Rain 25 1013 100 10000 2.06 260 18:54 29.03.2022
4517 Rain 25 1014 100 8000 1.54 250 17:57 29.03.2022
4518 Rain 25 1014 100 8000 1.54 250 17:19 29.03.2022
4519 Rain 25 1015 94 5000 1.03 350 16:53 29.03.2022
4520 Rain 25 1014 94 10000 1.54 290 15:41 29.03.2022
4521 Rain 24 1013 94 10000 2.57 300 14:43 29.03.2022
4522 Rain 24 1013 94 10000 2.57 300 14:43 29.03.2022
4523 Rain 24 1012 94 5000 2.06 330 13:35 29.03.2022
4524 Rain 24 1012 94 10000 2.57 330 12:39 29.03.2022
4525 Rain 24 1011 94 10000 2.06 330 11:18 29.03.2022
4526 Rain 24 1011 100 10000 2.06 330 10:20 29.03.2022
4527 Rain 24 1012 100 10000 1.03 350 08:44 29.03.2022
4528 Rain 25 1012 94 10000 2.06 270 06:53 29.03.2022
4529 Clear 24 1011 94 10000 1.03 330 02:52 29.03.2022
4530 Clouds 25 1009 88 10000 0.51 120 23:37 28.03.2022
4531 Rain 25 1009 88 10000 2.06 30 22:57 28.03.2022
4532 Rain 25 1009 88 10000 2.06 30 22:31 28.03.2022
4533 Rain 25 1010 88 10000 2.06 60 21:43 28.03.2022
4534 Rain 25 1011 94 10000 2.57 10 20:35 28.03.2022
4535 Rain 24 1012 94 10000 3.09 60 19:48 28.03.2022
4536 Rain 24 1012 94 10000 3.09 60 19:30 28.03.2022
4537 Rain 23 1013 100 10000 2.06 80 18:50 28.03.2022
4538 Rain 23 1015 100 10000 2.57 100 17:41 28.03.2022
4539 Rain 23 1015 100 7000 2.06 300 16:48 28.03.2022
4540 Rain 26 1013 94 8000 6.17 20 14:56 28.03.2022
4541 Clouds 26 1013 94 8000 2.06 160 14:23 28.03.2022
4542 Clouds 25 1012 100 10000 2.06 180 13:18 28.03.2022
4543 Clouds 25 1011 100 10000 1.03 160 11:43 28.03.2022
4544 Clouds 25 1011 100 10000 0 0 09:55 28.03.2022
4545 Clouds 25 1010 100 10000 0 0 09:21 28.03.2022
4546 Clouds 25 1011 100 10000 1.54 20 08:23 28.03.2022
4547 Clouds 25 1011 100 10000 1.54 20 07:59 28.03.2022
4548 Clouds 25 1011 100 10000 0 0 06:30 28.03.2022
4549 Clouds 28 1009 83 8000 1.54 200 00:19 28.03.2022
4550 Clouds 29 1008 79 10000 3.6 70 22:34 27.03.2022
4551 Rain 29 1009 79 10000 2.06 40 21:42 27.03.2022
4552 Rain 29 1009 79 10000 2.06 40 20:58 27.03.2022
4553 Rain 30 1010 74 10000 2.06 190 20:18 27.03.2022
4554 Rain 30 1011 74 10000 2.57 180 19:36 27.03.2022
4555 Clouds 30 1012 70 10000 2.06 30 18:30 27.03.2022
4556 Clouds 30 1012 70 10000 2.06 30 17:55 27.03.2022
4557 Clouds 28 1013 78 10000 1.54 60 17:35 27.03.2022
4558 Clouds 28 1013 74 10000 1.54 320 15:46 27.03.2022
4559 Rain 25 1011 94 10000 1.54 240 13:57 27.03.2022
4560 Rain 25 1010 94 10000 1.03 330 12:50 27.03.2022
4561 Clouds 25 1010 94 10000 2.06 350 11:30 27.03.2022
4562 Mist 25 1009 94 10000 1.54 300 09:32 27.03.2022
4563 Clear 26 1011 89 10000 1.54 10 06:54 27.03.2022
4564 Clear 25 1010 94 10000 1.54 20 01:55 27.03.2022
4565 Clouds 27 1007 83 10000 2.57 340 00:25 27.03.2022
4566 Clouds 28 1006 74 10000 2.06 20 22:45 26.03.2022
4567 Clouds 28 1006 83 10000 2.57 50 21:50 26.03.2022
4568 Clouds 28 1006 83 10000 2.57 50 21:26 26.03.2022
4569 Rain 26 1008 94 10000 2.06 20 19:31 26.03.2022
4570 Thunderstorm 30 1009 74 10000 2.06 180 18:24 26.03.2022
4571 Clouds 29 1010 79 10000 2.06 200 17:33 26.03.2022
4572 Clouds 28 1011 83 10000 2.06 200 16:27 26.03.2022
4573 Clouds 28 1012 83 10000 1.54 350 15:23 26.03.2022
4574 Rain 26 1011 94 10000 1.03 220 13:54 26.03.2022
4575 Rain 26 1011 94 10000 1.03 220 13:19 26.03.2022
4576 Rain 25 1009 100 10000 1.03 210 11:41 26.03.2022
4577 Clouds 25 1009 100 10000 1.03 250 10:29 26.03.2022
4578 Clouds 26 1008 94 10000 2.06 280 08:44 26.03.2022
4579 Clear 26 1009 94 10000 2.57 360 06:25 26.03.2022
4580 Clear 31 1010 89 10000 1.54 310 05:28 26.03.2022
4581 Clouds 26 1007 89 10000 1.03 100 00:30 26.03.2022
4582 Clouds 30 1006 70 10000 2.06 80 21:51 25.03.2022
4583 Clouds 30 1008 70 10000 1.03 120 20:46 25.03.2022
4584 Clouds 30 1008 70 10000 1.03 120 20:20 25.03.2022
4585 Clouds 28 1010 83 10000 3.09 80 18:47 25.03.2022
4586 Clouds 27 1011 83 10000 4.63 60 17:47 25.03.2022
4587 Clouds 27 1011 83 10000 4.63 60 17:27 25.03.2022
4588 Clouds 28 1011 78 10000 3.09 70 16:18 25.03.2022
4589 Rain 24 1012 100 6000 2.06 30 14:26 25.03.2022
4590 Rain 24 1012 94 4000 2.57 70 12:57 25.03.2022
4591 Clouds 24 1010 100 800 4.63 50 10:22 25.03.2022
4592 Clouds 24 1009 100 10000 1.03 70 09:28 25.03.2022
4593 Clouds 24 1009 100 10000 1.03 110 08:24 25.03.2022
4594 Clouds 24 1010 94 10000 1.54 70 07:28 25.03.2022
4595 Clouds 24 1011 94 10000 1.54 90 05:55 25.03.2022
4596 Clouds 25 1009 93 10000 1.58 67 01:18 25.03.2022
4597 Clouds 26 1007 89 10000 2.06 360 22:51 24.03.2022
4598 Clouds 27 1008 83 10000 3.09 20 21:45 24.03.2022
4599 Rain 25 1009 88 10000 3.6 30 20:26 24.03.2022
4600 Clouds 25 1011 94 3000 5.14 360 19:47 24.03.2022
4601 Clouds 28 1012 83 10000 2.06 80 17:47 24.03.2022
4602 Clouds 30 1011 68 10000 1.99 60 17:19 24.03.2022
4603 Clouds 29 1013 79 10000 2.06 80 15:21 24.03.2022
4604 Clouds 28 1013 74 10000 2.06 300 14:47 24.03.2022
4605 Clouds 28 1013 74 10000 2.06 300 14:18 24.03.2022
4606 Clouds 25 1011 100 10000 1.03 120 12:52 24.03.2022
4607 Clouds 25 1010 94 10000 1.03 330 11:44 24.03.2022
4608 Clouds 24 1010 100 10000 0.51 240 09:53 24.03.2022
4609 Clouds 24 1010 100 10000 1.03 300 08:41 24.03.2022
4610 Clouds 24 1011 100 10000 1.03 270 06:48 24.03.2022
4611 Clouds 25 1010 94 10000 2.06 20 02:18 24.03.2022
4612 Rain 27 1009 89 10000 2.06 330 23:18 23.03.2022
4613 Thunderstorm 26 1008 94 2000 3.6 40 21:27 23.03.2022
4614 Rain 29 1008 74 10000 3.09 300 20:49 23.03.2022
4615 Rain 30 1009 70 10000 4.12 320 19:45 23.03.2022
4616 Rain 30 1010 74 10000 3.6 30 18:30 23.03.2022
4617 Clouds 30 1012 74 10000 2.57 10 17:36 23.03.2022
4618 Clouds 30 1013 79 10000 2.06 350 16:21 23.03.2022
4619 Clouds 29 1013 79 10000 2.57 30 14:50 23.03.2022
4620 Clouds 29 1013 79 10000 2.57 30 14:21 23.03.2022
4621 Clouds 25 1011 94 10000 0 0 12:24 23.03.2022
4622 Clouds 25 1009 88 10000 2.06 40 09:38 23.03.2022
4623 Clouds 25 1010 94 10000 2.06 50 06:40 23.03.2022
4624 Clouds 25 1011 100 10000 2.06 50 03:58 23.03.2022
4625 Clouds 28 1007 78 10000 2.06 360 00:29 23.03.2022
4626 Clouds 30 1006 70 10000 1.03 110 22:26 22.03.2022
4627 Clouds 31 1007 62 10000 1.54 200 21:29 22.03.2022
4628 Clouds 32 1007 62 10000 1.03 210 20:39 22.03.2022
4629 Clouds 32 1009 62 10000 3.09 30 19:39 22.03.2022
4630 Clouds 32 1009 62 10000 3.09 30 19:18 22.03.2022
4631 Clouds 31 1012 66 10000 3.09 80 17:58 22.03.2022
4632 Clouds 31 1012 66 10000 3.09 80 17:25 22.03.2022
4633 Clouds 30 1013 74 10000 2.06 100 15:54 22.03.2022
4634 Clouds 30 1013 74 10000 2.06 100 15:22 22.03.2022
4635 Clouds 28 1013 78 10000 3.09 40 14:46 22.03.2022
4636 Clouds 28 1013 78 10000 3.09 40 14:25 22.03.2022
4637 Clouds 24 1011 94 10000 2.06 40 12:46 22.03.2022
4638 Rain 24 1011 94 10000 1.54 20 11:36 22.03.2022
4639 Clouds 24 1010 94 10000 1.54 20 10:23 22.03.2022
4640 Clear 24 1010 94 10000 2.06 350 07:48 22.03.2022
4641 Clear 24 1012 88 10000 2.57 10 05:19 22.03.2022
4642 Clouds 25 1011 83 10000 2.57 10 03:38 22.03.2022
4643 Rain 25 1008 88 10000 2.06 340 23:41 21.03.2022
4644 Clouds 25 1008 88 10000 4.12 340 21:51 21.03.2022
4645 Rain 27 1009 83 10000 5.14 360 20:45 21.03.2022
4646 Clouds 27 1009 83 10000 5.14 360 20:26 21.03.2022
4647 Clouds 29 1010 70 10000 3.09 340 19:53 21.03.2022
4648 Clouds 29 1010 70 10000 3.09 340 19:23 21.03.2022
4649 Clouds 28 1013 78 10000 1.54 170 17:45 21.03.2022
4650 Clouds 28 1013 78 10000 1.54 170 17:18 21.03.2022
4651 Clouds 28 1014 78 10000 2.06 320 16:37 21.03.2022
4652 Clouds 27 1014 74 10000 1.54 20 15:46 21.03.2022
4653 Clouds 27 1013 78 10000 1.03 70 14:48 21.03.2022
4654 Clouds 25 1012 94 10000 2.06 30 13:35 21.03.2022
4655 Fog 23 1011 100 10000 1.54 20 12:31 21.03.2022
4656 Fog 23 1010 100 10000 1.03 20 11:39 21.03.2022
4657 Clouds 24 1010 94 10000 1.03 330 09:54 21.03.2022
4658 Clouds 24 1010 94 10000 1.54 240 08:26 21.03.2022
4659 Clouds 24 1012 94 10000 1.03 220 06:31 21.03.2022
4660 Clouds 23 1012 100 10000 2.06 220 02:33 21.03.2022
4661 Clouds 24 1009 100 10000 1.03 250 23:32 20.03.2022
4662 Rain 24 1008 94 10000 1.54 280 22:42 20.03.2022
4663 Rain 24 1009 94 8000 2.06 310 21:49 20.03.2022
4664 Rain 24 1009 94 8000 2.06 310 20:59 20.03.2022
4665 Rain 24 1009 94 8000 2.06 310 20:59 20.03.2022
4666 Rain 23 1010 100 5000 3.09 310 20:39 20.03.2022
4667 Rain 23 1011 100 3000 2.57 320 19:56 20.03.2022
4668 Rain 23 1011 100 3000 2.57 320 19:25 20.03.2022
4669 Thunderstorm 23 1013 100 600 4.12 360 17:50 20.03.2022
4670 Thunderstorm 23 1013 100 600 4.12 360 17:28 20.03.2022
4671 Rain 28 1012 78 10000 3.09 230 16:41 20.03.2022
4672 Clouds 27 1013 83 10000 2.06 290 14:54 20.03.2022
4673 Clouds 26 1012 89 10000 1.54 290 13:46 20.03.2022
4674 Clouds 26 1011 89 10000 1.54 310 12:21 20.03.2022
4675 Clear 25 1010 88 10000 1.54 290 10:39 20.03.2022
4676 Clear 26 1009 83 10000 1.54 320 08:35 20.03.2022
4677 Clear 25 1011 88 10000 1.54 10 06:40 20.03.2022
4678 Clear 26 1011 89 10000 3.09 360 03:27 20.03.2022
4679 Clouds 27 1008 83 10000 2.57 360 00:59 20.03.2022
4680 Clouds 27 1008 83 10000 2.57 360 00:35 20.03.2022
4681 Clouds 29 1007 74 10000 3.09 10 22:42 19.03.2022
4682 Rain 29 1008 74 10000 2.57 30 21:27 19.03.2022
4683 Clouds 28 1011 83 10000 2.57 10 19:42 19.03.2022
4684 Rain 25 1012 100 10000 3.09 50 18:44 19.03.2022
4685 Clouds 25 1012 100 10000 3.09 50 17:57 19.03.2022
4686 Clouds 28 1013 78 10000 5.14 40 17:33 19.03.2022
4687 Clouds 27 1014 89 10000 2.06 160 15:41 19.03.2022
4688 Rain 26 1014 94 10000 1.54 170 14:21 19.03.2022
4689 Clouds 25 1012 94 10000 1.03 230 12:56 19.03.2022
4690 Rain 25 1012 94 10000 1.03 230 12:37 19.03.2022
4691 Rain 24 1011 100 10000 1.54 290 11:47 19.03.2022
4692 Rain 24 1011 100 4000 3.09 40 09:55 19.03.2022
4693 Rain 25 1013 94 3500 2.06 60 05:48 19.03.2022
4694 Clouds 27 1011 89 10000 2.57 30 02:37 19.03.2022
4695 Clouds 27 1009 83 10000 2.06 200 00:54 19.03.2022
4696 Clouds 29 1008 74 10000 2.57 40 23:19 18.03.2022
4697 Rain 29 1008 74 10000 1.54 230 22:22 18.03.2022
4698 Clouds 30 1008 74 10000 3.6 240 20:40 18.03.2022
4699 Clouds 30 1009 70 10000 2.06 280 19:48 18.03.2022
4700 Clouds 30 1009 70 10000 2.06 280 19:19 18.03.2022
4701 Clouds 28 1013 83 10000 3.6 70 17:27 18.03.2022
4702 Rain 30 1014 74 10000 3.09 300 16:42 18.03.2022
4703 Clouds 28 1014 83 10000 1.54 20 14:30 18.03.2022
4704 Clouds 27 1013 83 10000 2.06 30 13:41 18.03.2022
4705 Clouds 25 1012 94 10000 1.03 10 12:18 18.03.2022
4706 Clouds 25 1010 100 10000 1.03 50 10:27 18.03.2022
4707 Clouds 25 1010 94 10000 1.03 80 09:20 18.03.2022
4708 Clouds 25 1011 100 10000 1.03 30 07:43 18.03.2022
4709 Clouds 25 1012 94 10000 2.06 60 05:20 18.03.2022
4710 Clouds 25 1011 94 10000 2.06 20 01:55 18.03.2022
4711 Rain 25 1010 94 10000 2.57 270 00:21 18.03.2022
4712 Rain 29 1008 65 10000 2.57 360 22:54 17.03.2022
4713 Rain 29 1008 65 10000 2.57 360 22:20 17.03.2022
4714 Rain 30 1008 66 10000 2.06 350 21:46 17.03.2022
4715 Rain 29 1008 70 10000 3.6 330 20:58 17.03.2022
4716 Clouds 29 1008 70 10000 3.6 330 20:29 17.03.2022
4717 Clouds 29 1009 70 10000 4.12 320 19:39 17.03.2022
4718 Clouds 29 1009 70 10000 4.12 320 18:55 17.03.2022
4719 Rain 29 1013 70 10000 3.6 330 17:47 17.03.2022
4720 Rain 28 1014 74 10000 3.09 360 16:29 17.03.2022
4721 Clouds 27 1014 78 10000 3.09 330 15:43 17.03.2022
4722 Clouds 27 1014 78 10000 3.09 330 15:18 17.03.2022
4723 Clouds 25 1012 88 10000 2.57 340 13:47 17.03.2022
4724 Clouds 24 1011 94 10000 3.09 330 12:47 17.03.2022
4725 Clouds 24 1011 94 10000 2.06 320 11:36 17.03.2022
4726 Clouds 24 1011 94 10000 2.06 320 10:58 17.03.2022
4727 Clouds 24 1010 94 10000 2.57 310 09:40 17.03.2022
4728 Clear 24 1010 94 10000 3.09 310 08:20 17.03.2022
4729 Clear 25 1012 88 10000 3.09 330 05:53 17.03.2022
4730 Clear 25 1012 88 10000 3.09 330 05:23 17.03.2022
4731 Clouds 25 1009 94 10000 3.09 340 00:27 17.03.2022
4732 Rain 25 1008 94 10000 2.57 10 22:57 16.03.2022
4733 Rain 25 1008 94 10000 2.57 10 22:36 16.03.2022
4734 Rain 25 1008 94 10000 2.57 360 21:56 16.03.2022
4735 Rain 25 1009 94 2500 4.63 340 20:47 16.03.2022
4736 Rain 27 1010 83 10000 4.12 290 19:24 16.03.2022
4737 Thunderstorm 26 1010 89 8000 3.09 330 18:43 16.03.2022
4738 Rain 28 1012 74 10000 7.2 340 17:50 16.03.2022
4739 Thunderstorm 28 1012 74 10000 7.2 340 17:31 16.03.2022
4740 Clouds 29 1012 74 10000 2.06 80 16:35 16.03.2022
4741 Clouds 28 1013 78 10000 2.57 10 14:58 16.03.2022
4742 Clouds 26 1012 89 10000 1.03 90 13:36 16.03.2022
4743 Clouds 25 1011 88 10000 1.54 60 12:55 16.03.2022
4744 Clouds 25 1010 94 10000 2.57 300 11:23 16.03.2022
4745 Clear 25 1009 94 10000 2.06 30 10:32 16.03.2022
4746 Clear 25 1009 94 10000 2.06 30 09:56 16.03.2022
4747 Clear 26 1010 89 10000 2.06 60 07:43 16.03.2022
4748 Clear 25 1011 100 10000 0 0 02:46 16.03.2022
4749 Clouds 27 1009 83 10000 1.03 20 22:56 15.03.2022
4750 Clouds 30 1008 62 10000 1.54 80 22:35 15.03.2022
4751 Clouds 30 1008 66 10000 2.57 90 20:59 15.03.2022
4752 Clouds 31 1010 62 10000 1.54 170 19:39 15.03.2022
4753 Clouds 30 1013 70 10000 2.57 210 17:46 15.03.2022
4754 Clouds 28 1014 78 10000 1.54 120 16:38 15.03.2022
4755 Clouds 28 1014 78 10000 2.57 90 15:38 15.03.2022
4756 Clouds 26 1014 89 10000 2.06 60 14:54 15.03.2022
4757 Clouds 24 1013 100 10000 1.54 40 13:56 15.03.2022
4758 Clouds 24 1013 100 10000 1.54 40 13:22 15.03.2022
4759 Clouds 23 1011 100 10000 1.54 20 11:33 15.03.2022
4760 Rain 24 1011 100 10000 1.03 10 10:27 15.03.2022
4761 Rain 24 1010 100 10000 1.03 20 09:20 15.03.2022
4762 Rain 24 1010 94 10000 1.54 10 08:21 15.03.2022
4763 Rain 24 1010 94 10000 1.03 40 07:36 15.03.2022
4764 Mist 24 1010 100 10000 1.54 20 05:55 15.03.2022
4765 Rain 24 1011 100 10000 1.03 350 00:31 15.03.2022
4766 Clouds 24 1011 100 10000 1.03 30 23:29 14.03.2022
4767 Clouds 24 1011 94 5000 2.06 70 22:49 14.03.2022
4768 Rain 23 1011 100 3000 1.03 100 21:51 14.03.2022
4769 Rain 28 1011 78 10000 2.57 260 20:55 14.03.2022
4770 Rain 28 1011 78 10000 4.12 210 20:24 14.03.2022
4771 Rain 27 1012 78 10000 2.57 180 19:22 14.03.2022
4772 Rain 27 1013 78 10000 1.54 180 17:55 14.03.2022
4773 Rain 26 1014 89 10000 2.06 140 17:33 14.03.2022
4774 Rain 26 1014 94 6000 2.06 160 16:28 14.03.2022
4775 Clouds 26 1010 89 10000 1.54 310 14:47 14.03.2022
4776 Clouds 25 1013 88 10000 1.03 270 13:20 14.03.2022
4777 Rain 24 1010 100 10000 1.03 20 10:59 14.03.2022
4778 Rain 24 1010 94 10000 1.03 360 09:56 14.03.2022
4779 Rain 24 1010 94 10000 1.03 360 09:24 14.03.2022
4780 Rain 24 1010 94 10000 1.03 360 08:57 14.03.2022
4781 Rain 24 1010 94 10000 1.03 330 08:24 14.03.2022
4782 Rain 24 1012 94 10000 2.06 290 05:51 14.03.2022
4783 Rain 24 1012 100 10000 2.57 250 02:57 14.03.2022
4784 Rain 24 1012 94 10000 4.12 280 01:33 14.03.2022
4785 Rain 24 1010 94 7000 5.14 270 23:25 13.03.2022
4786 Thunderstorm 25 1009 94 1500 5.14 260 21:40 13.03.2022
4787 Thunderstorm 25 1009 94 1500 5.14 260 21:19 13.03.2022
4788 Thunderstorm 25 1009 94 3000 2.57 60 20:43 13.03.2022
4789 Thunderstorm 25 1008 94 5000 4.63 10 20:20 13.03.2022
4790 Thunderstorm 31 1008 66 10000 3.09 290 19:40 13.03.2022
4791 Rain 31 1008 66 10000 4.12 340 19:20 13.03.2022
4792 Rain 32 1009 70 10000 5.14 240 18:40 13.03.2022
4793 Clouds 31 1011 70 10000 3.6 220 17:48 13.03.2022
4794 Clouds 31 1011 70 10000 3.6 220 17:22 13.03.2022
4795 Clouds 30 1012 74 10000 2.06 180 16:43 13.03.2022
4796 Clouds 30 1011 65 10000 1.42 106 16:20 13.03.2022
4797 Clouds 29 1013 74 10000 2.06 170 15:33 13.03.2022
4798 Clouds 27 1012 89 10000 1.54 180 13:53 13.03.2022
4799 Clouds 27 1012 89 10000 1.54 180 13:19 13.03.2022
4800 Clouds 26 1011 94 10000 2.06 230 12:20 13.03.2022
4801 Clouds 25 1010 100 10000 1.54 170 11:36 13.03.2022
4802 Clear 25 1009 94 10000 2.06 100 10:48 13.03.2022
4803 Clear 25 1009 94 10000 2.06 100 10:25 13.03.2022
4804 Clouds 25 1009 94 10000 1.03 180 09:41 13.03.2022
4805 Clouds 25 1009 94 10000 1.03 180 09:41 13.03.2022
4806 Clear 26 1009 89 10000 1.54 160 08:47 13.03.2022
4807 Clouds 25 1009 100 10000 1.54 90 07:47 13.03.2022
4808 Clouds 26 1011 94 10000 1.03 160 05:48 13.03.2022
4809 Clouds 27 1010 89 10000 1.03 80 02:50 13.03.2022
4810 Rain 28 1008 78 10000 2.06 70 00:20 13.03.2022
4811 Clouds 30 1006 70 10000 3.09 70 22:37 12.03.2022
4812 Clouds 32 1007 66 10000 2.57 20 20:54 12.03.2022
4813 Rain 32 1009 62 10000 2.57 340 19:50 12.03.2022
4814 Clouds 32 1009 62 10000 2.57 340 19:32 12.03.2022
4815 Clouds 31 1010 66 10000 2.57 90 18:27 12.03.2022
4816 Clouds 31 1011 70 10000 3.6 60 17:34 12.03.2022
4817 Clouds 30 1012 74 10000 3.6 20 16:24 12.03.2022
4818 Clouds 29 1012 74 10000 4.63 50 15:24 12.03.2022
4819 Clouds 28 1012 83 10000 3.6 60 14:50 12.03.2022
4820 Clouds 26 1011 94 10000 2.57 80 13:32 12.03.2022
4821 Clouds 25 1010 100 10000 1.54 100 11:56 12.03.2022
4822 Clouds 23 1010 100 10000 0.51 50 11:38 12.03.2022
4823 Clouds 23 1010 100 10000 0.51 50 10:58 12.03.2022
4824 Clouds 24 1010 100 10000 1.03 110 09:45 12.03.2022
4825 Clouds 24 1010 100 10000 1.03 110 08:56 12.03.2022
4826 Clear 24 1010 100 10000 0.51 40 07:27 12.03.2022
4827 Clouds 25 1011 94 10000 1.54 180 03:36 12.03.2022
4828 Rain 25 1008 88 8000 2.57 60 23:56 11.03.2022
4829 Clouds 25 1008 88 8000 2.57 60 23:18 11.03.2022
4830 Rain 31 1008 74 10000 5.14 10 21:35 11.03.2022
4831 Rain 29 1008 79 10000 2.57 110 20:55 11.03.2022
4832 Rain 29 1008 79 10000 4.12 80 20:34 11.03.2022
4833 Rain 30 1009 79 10000 3.09 30 19:49 11.03.2022
4834 Rain 30 1009 79 10000 3.09 30 19:22 11.03.2022
4835 Rain 29 1012 74 10000 4.12 20 17:30 11.03.2022
4836 Rain 28 1013 83 10000 2.57 10 16:27 11.03.2022
4837 Clouds 28 1013 78 10000 2.57 10 15:53 11.03.2022
4838 Clouds 27 1013 89 10000 2.06 30 14:19 11.03.2022
4839 Clear 25 1011 94 10000 2.06 20 12:44 11.03.2022
4840 Clear 25 1011 94 10000 2.06 20 12:21 11.03.2022
4841 Clear 24 1010 94 10000 2.06 30 11:51 11.03.2022
4842 Clear 24 1009 100 10000 2.06 10 09:40 11.03.2022
4843 Clear 24 1010 94 10000 1.54 30 08:47 11.03.2022
4844 Clear 24 1010 94 10000 1.03 50 07:53 11.03.2022
4845 Clear 24 1010 94 10000 1.03 50 07:28 11.03.2022
4846 Clear 24 1011 100 10000 0 0 05:44 11.03.2022
4847 Clear 24 1012 100 10000 0.51 190 03:41 11.03.2022
4848 Clouds 25 1008 94 10000 2.06 40 23:31 10.03.2022
4849 Clouds 25 1008 88 10000 3.09 50 22:29 10.03.2022
4850 Rain 26 1008 78 10000 3.6 10 21:27 10.03.2022
4851 Rain 28 1010 78 10000 4.12 30 20:49 10.03.2022
4852 Clouds 29 1010 70 10000 2.06 180 19:23 10.03.2022
4853 Clouds 30 1012 70 10000 2.06 260 18:39 10.03.2022
4854 Clouds 28 1014 78 10000 1.54 50 16:54 10.03.2022
4855 Clouds 27 1014 78 10000 1.03 20 15:41 10.03.2022
4856 Clouds 26 1010 89 10000 1.54 300 14:23 10.03.2022
4857 Clouds 25 1012 88 10000 1.54 70 12:49 10.03.2022
4858 Rain 24 1011 94 10000 1.54 60 11:39 10.03.2022
4859 Rain 24 1010 94 10000 2.06 70 10:19 10.03.2022
4860 Rain 24 1011 100 10000 2.57 70 08:48 10.03.2022
4861 Rain 25 1012 94 10000 2.06 70 05:50 10.03.2022
4862 Rain 25 1011 94 10000 1.03 30 03:33 10.03.2022
4863 Rain 25 1009 94 10000 0.51 20 00:23 10.03.2022
4864 Rain 26 1009 89 10000 1.03 330 22:45 09.03.2022
4865 Rain 27 1009 83 10000 1.03 100 21:48 09.03.2022
4866 Rain 27 1010 89 10000 2.06 120 20:59 09.03.2022
4867 Rain 26 1011 89 10000 2.06 320 19:28 09.03.2022
4868 Rain 27 1011 83 10000 2.06 310 17:57 09.03.2022
4869 Rain 26 1012 83 10000 2.06 310 17:23 09.03.2022
4870 Rain 26 1014 89 10000 2.06 360 15:42 09.03.2022
4871 Rain 25 1013 94 8000 1.54 350 14:27 09.03.2022
4872 Rain 25 1012 94 8000 1.03 310 13:50 09.03.2022
4873 Rain 25 1011 94 10000 1.54 320 12:25 09.03.2022
4874 Rain 24 1010 94 10000 1.03 320 11:48 09.03.2022
4875 Rain 24 1010 94 10000 1.03 320 10:55 09.03.2022
4876 Rain 24 1008 94 9000 1.03 100 09:28 09.03.2022
4877 Rain 24 1009 94 10000 1.03 190 08:44 09.03.2022
4878 Rain 24 1010 94 10000 2.06 20 06:25 09.03.2022
4879 Rain 24 1010 100 10000 1.54 180 00:58 09.03.2022
4880 Rain 25 1009 94 10000 2.06 200 23:48 08.03.2022
4881 Rain 25 1009 94 10000 2.06 160 22:46 08.03.2022
4882 Rain 25 1008 100 10000 3.6 160 21:47 08.03.2022
4883 Rain 25 1008 100 10000 2.06 180 21:19 08.03.2022
4884 Rain 26 1008 94 7000 5.14 180 20:19 08.03.2022
4885 Rain 29 1010 79 10000 5.14 250 18:57 08.03.2022
4886 Rain 29 1010 79 10000 5.14 250 18:21 08.03.2022
4887 Rain 28 1012 74 10000 2.57 230 16:40 08.03.2022
4888 Rain 26 1012 89 10000 2.06 240 14:55 08.03.2022
4889 Clouds 26 1011 89 10000 2.06 220 13:39 08.03.2022
4890 Clouds 24 1010 100 10000 1.03 70 12:20 08.03.2022
4891 Clouds 24 1010 94 10000 1.54 290 11:42 08.03.2022
4892 Clouds 24 1010 94 7000 1.03 340 10:28 08.03.2022
4893 Clear 24 1009 94 10000 1.03 350 08:54 08.03.2022
4894 Rain 23 1010 94 10000 2.57 30 05:49 08.03.2022
4895 Rain 23 1009 100 10000 0.51 360 01:49 08.03.2022
4896 Rain 24 1007 94 10000 2.06 30 22:41 07.03.2022
4897 Rain 24 1007 94 5000 3.09 350 21:36 07.03.2022
4898 Rain 24 1009 100 5000 3.09 20 20:55 07.03.2022
4899 Rain 24 1009 100 5000 3.09 20 20:29 07.03.2022
4900 Rain 25 1009 94 5000 3.09 10 19:48 07.03.2022
4901 Thunderstorm 25 1011 94 5000 3.09 350 18:48 07.03.2022
4902 Thunderstorm 25 1011 94 5000 3.09 350 18:25 07.03.2022
4903 Clouds 25 1012 94 4000 4.12 70 16:56 07.03.2022
4904 Clouds 25 1011 94 7000 5.66 40 16:37 07.03.2022
4905 Clouds 27 1012 89 10000 2.57 190 14:41 07.03.2022
4906 Clouds 25 1009 94 10000 1.54 190 12:34 07.03.2022
4907 Clouds 26 1009 94 10000 1.54 190 10:48 07.03.2022
4908 Clouds 26 1009 94 10000 1.54 190 10:25 07.03.2022
4909 Clear 26 1009 94 10000 1.54 200 07:24 07.03.2022
4910 Clouds 27 1006 78 10000 1.03 110 00:24 07.03.2022
4911 Clouds 27 1006 78 10000 1.03 110 23:58 06.03.2022
4912 Clouds 30 1006 70 10000 1.54 220 23:18 06.03.2022
4913 Clouds 31 1006 62 10000 1.54 180 22:24 06.03.2022
4914 Clouds 31 1006 66 10000 2.06 170 20:56 06.03.2022
4915 Clouds 31 1007 62 10000 1.54 110 20:28 06.03.2022
4916 Clouds 31 1009 58 10000 2.57 190 19:31 06.03.2022
4917 Clouds 30 1010 66 10000 2.06 300 18:25 06.03.2022
4918 Clouds 29 1011 70 10000 2.57 80 17:22 06.03.2022
4919 Clouds 28 1013 74 10000 2.57 20 16:44 06.03.2022
4920 Clouds 28 1013 74 10000 2.57 20 16:20 06.03.2022
4921 Clouds 27 1013 78 10000 2.57 60 14:57 06.03.2022
4922 Clouds 26 1013 83 10000 1.54 60 14:38 06.03.2022
4923 Clouds 25 1012 83 10000 1.54 30 13:36 06.03.2022
4924 Clouds 24 1011 88 10000 2.06 10 12:35 06.03.2022
4925 Clouds 23 1010 94 10000 2.06 10 11:27 06.03.2022
4926 Clear 23 1010 94 10000 1.54 40 10:29 06.03.2022
4927 Clouds 24 1010 88 10000 2.57 50 08:40 06.03.2022
4928 Clouds 24 1010 88 10000 2.57 50 08:20 06.03.2022
4929 Rain 24 1010 94 10000 3.09 60 06:22 06.03.2022
4930 Clouds 25 1010 88 10000 5.14 40 01:32 06.03.2022
4931 Clouds 27 1009 83 10000 4.12 30 00:33 06.03.2022
4932 Clouds 27 1008 78 10000 1.54 40 23:41 05.03.2022
4933 Clouds 27 1008 78 10000 1.54 40 23:18 05.03.2022
4934 Clouds 28 1007 74 10000 2.57 320 22:25 05.03.2022
4935 Clouds 28 1007 78 10000 2.06 30 21:24 05.03.2022
4936 Clouds 28 1009 78 10000 2.06 70 19:53 05.03.2022
4937 Rain 28 1011 83 10000 2.57 60 18:56 05.03.2022
4938 Rain 28 1011 83 10000 3.09 70 18:27 05.03.2022
4939 Clouds 28 1012 78 10000 2.06 180 16:52 05.03.2022
4940 Clouds 27 1013 83 10000 1.03 100 15:40 05.03.2022
4941 Clouds 26 1012 89 10000 1.54 170 14:52 05.03.2022
4942 Clouds 26 1012 89 10000 1.54 170 14:33 05.03.2022
4943 Clouds 26 1011 89 10000 1.54 170 13:22 05.03.2022
4944 Clouds 25 1009 94 10000 1.03 170 11:49 05.03.2022
4945 Clouds 25 1009 94 10000 1.03 170 11:19 05.03.2022
4946 Clouds 25 1009 94 10000 1.03 160 10:20 05.03.2022
4947 Clouds 25 1009 94 10000 1.03 170 09:26 05.03.2022
4948 Clouds 25 1010 94 10000 1.54 170 07:51 05.03.2022
4949 Clouds 25 1011 100 10000 2.06 240 05:43 05.03.2022
4950 Rain 26 1012 89 10000 1.54 190 04:33 05.03.2022
4951 Rain 25 1008 94 10000 1.03 100 23:38 04.03.2022
4952 Rain 26 1008 83 10000 2.06 10 22:44 04.03.2022
4953 Rain 26 1008 83 10000 2.06 10 22:23 04.03.2022
4954 Rain 28 1008 78 10000 5.66 360 20:57 04.03.2022
4955 Rain 30 1008 74 10000 2.57 290 20:27 04.03.2022
4956 Rain 31 1009 66 10000 2.06 330 19:36 04.03.2022
4957 Rain 29 1011 70 10000 4.12 350 18:45 04.03.2022
4958 Rain 28 1012 78 10000 2.57 50 17:48 04.03.2022
4959 Rain 28 1012 78 10000 2.57 50 17:28 04.03.2022
4960 Clouds 28 1013 78 10000 1.54 170 15:30 04.03.2022
4961 Clouds 28 1012 83 10000 2.57 180 14:33 04.03.2022
4962 Clouds 27 1012 94 10000 1.54 120 13:26 04.03.2022
4963 Clouds 24 1010 100 10000 1.03 140 11:54 04.03.2022
4964 Clouds 24 1010 100 10000 1.03 140 10:55 04.03.2022
4965 Clouds 25 1010 100 10000 1.03 230 09:58 04.03.2022
4966 Clouds 24 1009 100 10000 0 0 08:40 04.03.2022
4967 Clouds 24 1009 100 10000 0 0 08:40 04.03.2022
4968 Clouds 25 1010 94 10000 1.03 90 07:38 04.03.2022
4969 Clouds 26 1011 94 10000 3.09 280 04:31 04.03.2022
4970 Clouds 27 1007 78 10000 1.54 10 00:38 04.03.2022
4971 Clouds 29 1008 70 10000 4.12 30 22:39 03.03.2022
4972 Clouds 29 1008 70 10000 3.6 50 21:50 03.03.2022
4973 Clouds 29 1008 70 10000 3.6 50 21:29 03.03.2022
4974 Clouds 31 1008 66 10000 4.63 50 20:18 03.03.2022
4975 Clouds 31 1009 58 10000 5.14 60 18:55 03.03.2022
4976 Clouds 32 1010 66 10000 2.57 80 18:24 03.03.2022
4977 Clouds 31 1012 70 10000 2.57 30 17:31 03.03.2022
4978 Clouds 31 1013 70 10000 4.12 60 16:25 03.03.2022
4979 Clouds 29 1013 79 10000 2.57 50 15:24 03.03.2022
4980 Clouds 28 1013 83 10000 3.09 60 14:43 03.03.2022
4981 Clouds 28 1013 83 10000 3.09 60 14:20 03.03.2022
4982 Clouds 28 1013 83 10000 3.09 60 14:20 03.03.2022
4983 Clouds 25 1012 100 10000 1.54 110 12:23 03.03.2022
4984 Clouds 25 1010 94 10000 1.03 160 10:48 03.03.2022
4985 Clouds 25 1010 100 10000 1.03 180 09:41 03.03.2022
4986 Clouds 25 1010 100 10000 1.03 200 07:50 03.03.2022
4987 Clear 26 1009 94 10000 1.03 170 06:37 03.03.2022
4988 Clouds 26 1011 89 10000 1.03 70 03:21 03.03.2022
4989 Clouds 27 1008 78 10000 2.06 80 23:39 02.03.2022
4990 Clouds 27 1008 78 10000 4.12 70 22:52 02.03.2022
4991 Clouds 27 1008 78 10000 4.12 60 21:35 02.03.2022
4992 Clouds 29 1009 74 10000 3.6 60 20:55 02.03.2022
4993 Clouds 29 1009 74 10000 3.6 60 20:24 02.03.2022
4994 Clouds 26 1010 89 8000 6.69 20 19:36 02.03.2022
4995 Clouds 29 1011 79 8000 4.12 40 18:48 02.03.2022
4996 Clouds 30 1012 74 10000 3.6 350 18:19 02.03.2022
4997 Clouds 29 1013 79 10000 3.6 30 17:34 02.03.2022
4998 Clouds 29 1014 79 10000 3.6 50 16:51 02.03.2022
4999 Clouds 27 1015 83 10000 2.57 60 14:49 02.03.2022
5000 Clouds 25 1013 94 10000 3.09 60 13:29 02.03.2022
5001 Mist 24 1012 100 9000 1.54 20 12:44 02.03.2022
5002 Fog 24 1011 100 6000 1.54 60 11:53 02.03.2022
5003 Mist 24 1011 94 2000 1.03 80 11:25 02.03.2022
5004 Fog 23 1010 100 900 1.03 110 10:25 02.03.2022
5005 Fog 24 1009 94 10000 1.54 310 09:25 02.03.2022
5006 Fog 24 1010 100 10000 1.54 10 07:52 02.03.2022
5007 Fog 24 1010 100 10000 2.06 310 06:57 02.03.2022
5008 Rain 24 1012 100 10000 1.03 110 02:54 02.03.2022
5009 Rain 24 1010 94 10000 1.03 160 00:33 02.03.2022
5010 Rain 23 1009 100 6000 2.06 30 22:50 01.03.2022
5011 Rain 23 1009 100 6000 2.06 30 22:31 01.03.2022
5012 Thunderstorm 23 1010 100 4000 5.14 30 21:25 01.03.2022
5013 Thunderstorm 23 1010 100 2000 7.2 40 20:32 01.03.2022
5014 Clouds 25 1010 94 1000 6.17 360 19:45 01.03.2022
5015 Clouds 30 1011 70 10000 3.09 180 18:51 01.03.2022
5016 Clouds 30 1011 70 10000 3.09 180 18:21 01.03.2022
5017 Clouds 30 1012 74 10000 2.06 120 17:30 01.03.2022
5018 Clouds 29 1013 79 10000 1.03 130 16:35 01.03.2022
5019 Clouds 28 1014 83 10000 2.06 360 15:42 01.03.2022
5020 Clouds 28 1014 83 10000 1.03 120 14:41 01.03.2022
5021 Clouds 28 1014 83 10000 1.03 120 14:23 01.03.2022
5022 Clouds 27 1012 78 10000 1.54 200 13:25 01.03.2022
5023 Clear 24 1011 100 10000 1.03 210 12:34 01.03.2022
5024 Clouds 23 1010 100 10000 1.03 240 10:37 01.03.2022
5025 Clouds 24 1010 94 10000 1.54 330 09:18 01.03.2022
5026 Clouds 24 1011 94 9000 0.51 130 07:54 01.03.2022
5027 Clear 25 1012 88 10000 1.54 350 06:26 01.03.2022
5028 Rain 24 1011 94 10000 0.51 190 02:44 01.03.2022
5029 Clear 24 1009 88 10000 0.51 70 00:36 01.03.2022
5030 Rain 25 1008 83 10000 2.57 10 23:31 28.02.2022
5031 Rain 25 1008 88 10000 2.57 30 22:18 28.02.2022
5032 Rain 25 1009 88 10000 2.57 30 21:39 28.02.2022
5033 Clouds 25 1009 83 10000 4.12 10 19:59 28.02.2022
5034 Rain 24 1010 94 10000 5.66 340 19:40 28.02.2022
5035 Clouds 26 1010 89 8000 4.63 340 18:44 28.02.2022
5036 Clouds 28 1012 78 10000 4.12 240 17:33 28.02.2022
5037 Clouds 28 1013 78 10000 3.09 260 16:43 28.02.2022
5038 Clouds 28 1013 78 10000 3.6 260 15:27 28.02.2022
5039 Clouds 27 1013 83 10000 3.09 280 14:32 28.02.2022
5040 Clouds 26 1012 89 10000 4.12 290 13:48 28.02.2022
5041 Clouds 25 1011 94 10000 1.54 310 12:48 28.02.2022
5042 Clouds 25 1010 94 10000 2.57 310 11:58 28.02.2022
5043 Clouds 25 1010 94 10000 2.57 310 10:49 28.02.2022
5044 Clouds 25 1010 94 10000 2.57 310 10:21 28.02.2022
5045 Clouds 25 1010 94 8000 2.06 300 09:33 28.02.2022
5046 Clouds 25 1010 94 10000 2.06 310 08:32 28.02.2022
5047 Clouds 25 1010 94 10000 2.57 300 07:35 28.02.2022
5048 Rain 26 1011 89 10000 2.57 350 05:21 28.02.2022
5049 Rain 26 1012 94 10000 2.57 30 04:27 28.02.2022
5050 Rain 26 1008 89 10000 1.54 240 23:44 27.02.2022
5051 Rain 26 1007 89 10000 1.03 200 22:35 27.02.2022
5052 Rain 26 1007 89 10000 2.57 320 21:52 27.02.2022
5053 Clouds 26 1007 89 10000 2.57 320 21:21 27.02.2022
5054 Thunderstorm 28 1008 83 8000 6.17 10 20:32 27.02.2022
5055 Clouds 31 1008 66 10000 7.72 110 19:58 27.02.2022
5056 Clouds 31 1008 66 10000 2.57 190 19:27 27.02.2022
5057 Clouds 30 1010 70 10000 3.09 160 18:47 27.02.2022
5058 Clouds 27 1011 94 8000 1.54 210 17:56 27.02.2022
5059 Clouds 29 1011 79 10000 3.09 240 17:20 27.02.2022
5060 Clouds 27 1013 83 10000 2.06 270 16:22 27.02.2022
5061 Clouds 26 1013 94 10000 1.54 250 13:40 27.02.2022
5062 Clouds 25 1012 100 10000 1.54 250 12:33 27.02.2022
5063 Clouds 25 1011 100 10000 1.03 220 11:27 27.02.2022
5064 Clouds 25 1010 94 10000 1.03 230 10:20 27.02.2022
5065 Clouds 25 1010 100 10000 1.54 230 09:50 27.02.2022
5066 Clouds 25 1010 100 10000 1.54 230 09:20 27.02.2022
5067 Clouds 25 1010 100 10000 2.57 250 08:20 27.02.2022
5068 Clouds 25 1010 100 10000 2.57 250 08:20 27.02.2022
5069 Rain 26 1012 94 10000 2.06 330 05:38 27.02.2022
5070 Thunderstorm 26 1011 94 10000 1.54 260 02:35 27.02.2022
5071 Clouds 27 1009 83 9000 1.54 300 23:30 26.02.2022
5072 Clouds 27 1009 83 9000 1.54 300 23:30 26.02.2022
5073 Clouds 30 1008 70 10000 2.06 260 22:31 26.02.2022
5074 Clouds 30 1009 70 10000 2.57 90 21:19 26.02.2022
5075 Clouds 29 1010 74 10000 4.12 80 20:27 26.02.2022
5076 Clouds 28 1011 78 10000 3.09 60 19:52 26.02.2022
5077 Clouds 28 1011 78 10000 3.09 60 19:29 26.02.2022
5078 Clouds 27 1012 78 10000 2.06 70 17:55 26.02.2022
5079 Clouds 26 1013 89 10000 3.09 70 17:29 26.02.2022
5080 Clouds 26 1013 89 10000 3.09 70 17:29 26.02.2022
5081 Rain 25 1015 94 9000 3.09 30 16:33 26.02.2022
5082 Clouds 25 1015 100 8000 3.6 10 15:26 26.02.2022
5083 Clouds 25 1015 100 8000 2.57 50 14:57 26.02.2022
5084 Rain 24 1014 100 8000 1.03 10 14:38 26.02.2022
5085 Thunderstorm 24 1014 100 8000 2.57 70 13:40 26.02.2022
5086 Thunderstorm 24 1013 100 5000 2.57 20 12:52 26.02.2022
5087 Clouds 26 1012 94 1000 2.06 360 11:38 26.02.2022
5088 Clouds 26 1010 89 10000 1.03 300 10:56 26.02.2022
5089 Clouds 26 1010 94 10000 1.54 240 09:21 26.02.2022
5090 Clouds 26 1010 94 10000 1.54 250 07:57 26.02.2022
5091 Clouds 26 1012 94 10000 0.51 210 03:21 26.02.2022
5092 Clouds 28 1009 83 10000 1.54 80 23:32 25.02.2022
5093 Clouds 31 1009 66 10000 2.06 300 21:49 25.02.2022
5094 Rain 31 1009 66 10000 2.06 300 21:29 25.02.2022
5095 Thunderstorm 31 1010 70 10000 3.6 240 20:33 25.02.2022
5096 Clouds 29 1011 74 10000 1.03 120 19:41 25.02.2022
5097 Clouds 28 1013 78 10000 3.09 10 17:48 25.02.2022
5098 Clouds 28 1013 78 10000 4.12 30 16:46 25.02.2022
5099 Rain 29 1014 79 10000 4.12 40 15:49 25.02.2022
5100 Rain 29 1014 79 10000 4.12 40 15:23 25.02.2022
5101 Clouds 27 1013 83 10000 3.09 70 14:49 25.02.2022
5102 Clouds 27 1013 83 10000 3.09 70 14:18 25.02.2022
5103 Clouds 26 1012 89 10000 4.63 40 13:20 25.02.2022
5104 Clouds 26 1012 89 10000 4.63 40 13:20 25.02.2022
5105 Clouds 25 1011 88 10000 2.57 50 11:39 25.02.2022
5106 Clouds 25 1011 88 10000 2.57 50 11:18 25.02.2022
5107 Clouds 25 1009 88 10000 2.06 60 10:23 25.02.2022
5108 Clouds 25 1010 88 10000 1.03 50 09:36 25.02.2022
5109 Rain 25 1010 88 10000 1.03 70 07:47 25.02.2022
5110 Clouds 26 1010 83 10000 3.09 40 06:45 25.02.2022
5111 Clouds 26 1011 83 10000 2.06 300 05:37 25.02.2022
5112 Clouds 27 1009 83 10000 2.06 350 00:31 25.02.2022
5113 Clouds 29 1007 79 10000 2.57 290 22:29 24.02.2022
5114 Rain 31 1007 66 10000 2.06 90 21:43 24.02.2022
5115 Rain 31 1007 66 10000 2.06 90 21:43 24.02.2022
5116 Rain 31 1007 66 10000 2.06 90 21:21 24.02.2022
5117 Clouds 31 1007 70 10000 3.09 190 20:42 24.02.2022
5118 Clouds 31 1009 70 10000 2.06 70 19:19 24.02.2022
5119 Clouds 30 1011 74 10000 2.57 80 18:20 24.02.2022
5120 Clouds 29 1012 79 10000 2.57 30 17:46 24.02.2022
5121 Clouds 29 1013 79 10000 3.09 60 16:57 24.02.2022
5122 Clouds 29 1013 79 10000 3.09 60 16:25 24.02.2022
5123 Rain 27 1013 89 10000 2.57 70 15:31 24.02.2022
5124 Clouds 27 1013 83 10000 0.51 90 14:43 24.02.2022
5125 Clouds 25 1012 94 10000 1.03 190 13:45 24.02.2022
5126 Clouds 25 1012 94 10000 1.03 190 13:27 24.02.2022
5127 Clouds 23 1010 100 10000 0.51 200 10:50 24.02.2022
5128 Clouds 24 1009 100 10000 1.03 220 09:42 24.02.2022
5129 Clouds 24 1010 100 10000 1.03 230 08:43 24.02.2022
5130 Clouds 24 1010 100 10000 1.03 230 08:43 24.02.2022
5131 Clear 24 1011 94 10000 1.03 260 06:27 24.02.2022
5132 Rain 24 1012 94 10000 1.03 360 05:36 24.02.2022
5133 Clouds 23 1008 100 10000 1.03 50 00:30 24.02.2022
5134 Clouds 26 1008 83 10000 2.06 110 21:56 23.02.2022
5135 Rain 24 1010 94 10000 1.03 80 20:43 23.02.2022
5136 Rain 24 1010 94 10000 1.03 80 20:19 23.02.2022
5137 Rain 24 1011 100 5000 1.03 140 19:23 23.02.2022
5138 Rain 24 1013 94 7000 2.57 80 17:56 23.02.2022
5139 Rain 23 1014 100 2500 4.63 50 16:18 23.02.2022
5140 Clouds 25 1013 94 10000 1.54 200 13:36 23.02.2022
5141 Clouds 25 1011 94 10000 2.57 180 12:29 23.02.2022
5142 Rain 25 1009 94 10000 2.57 240 10:55 23.02.2022
5143 Clouds 25 1009 100 10000 2.06 240 09:38 23.02.2022
5144 Rain 25 1010 100 10000 2.57 260 08:36 23.02.2022
5145 Clouds 26 1010 94 10000 2.06 220 07:47 23.02.2022
5146 Clouds 26 1011 89 10000 1.03 240 02:23 23.02.2022
5147 Clouds 28 1007 74 10000 2.57 10 23:50 22.02.2022
5148 Clouds 28 1007 74 10000 2.57 10 23:31 22.02.2022
5149 Rain 28 1007 78 10000 3.6 20 22:28 22.02.2022
5150 Rain 29 1007 74 10000 2.57 20 21:44 22.02.2022
5151 Rain 29 1007 74 10000 2.57 20 21:20 22.02.2022
5152 Rain 28 1007 78 10000 3.6 20 20:31 22.02.2022
5153 Clouds 31 1009 74 10000 3.09 340 19:56 22.02.2022
5154 Clouds 31 1009 74 10000 3.09 340 19:33 22.02.2022
5155 Clouds 30 1010 74 10000 2.06 180 18:35 22.02.2022
5156 Clouds 29 1011 84 10000 4.12 40 17:27 22.02.2022
5157 Clouds 28 1012 83 10000 3.09 60 16:55 22.02.2022
5158 Rain 28 1012 83 10000 3.09 60 16:20 22.02.2022
5159 Rain 27 1013 89 10000 1.54 100 15:21 22.02.2022
5160 Clouds 26 1013 94 10000 2.06 100 14:19 22.02.2022
5161 Clouds 25 1010 100 10000 0 0 11:38 22.02.2022
5162 Clouds 25 1010 100 10000 0 0 09:44 22.02.2022
5163 Clear 26 1011 94 10000 1.03 310 07:30 22.02.2022
5164 Clear 25 1011 100 10000 0 0 06:54 22.02.2022
5165 Clear 28 1010 78 10000 1.54 30 02:50 22.02.2022
5166 Clouds 29 1008 74 10000 1.54 350 23:18 21.02.2022
5167 Clouds 29 1007 70 10000 4.12 40 22:36 21.02.2022
5168 Clouds 31 1008 66 10000 7.2 30 20:52 21.02.2022
5169 Clouds 30 1011 74 10000 3.6 80 18:47 21.02.2022
5170 Clouds 30 1011 74 10000 3.6 80 18:19 21.02.2022
5171 Clouds 30 1013 70 10000 6.69 30 16:23 21.02.2022
5172 Clouds 28 1012 78 10000 4.12 20 14:23 21.02.2022
5173 Clouds 26 1011 83 10000 4.63 40 13:31 21.02.2022
5174 Clouds 25 1010 94 10000 2.06 50 12:46 21.02.2022
5175 Clouds 25 1010 94 10000 2.06 50 12:21 21.02.2022
5176 Clouds 25 1010 100 10000 1.54 60 10:27 21.02.2022
5177 Clouds 25 1010 100 10000 1.03 160 07:48 21.02.2022
5178 Clouds 26 1009 83 10000 1.54 20 00:35 21.02.2022
5179 Clouds 28 1008 74 10000 2.57 40 22:32 20.02.2022
5180 Clouds 28 1008 78 10000 3.09 40 21:44 20.02.2022
5181 Clouds 28 1008 78 10000 3.09 40 21:24 20.02.2022
5182 Clouds 27 1009 89 10000 5.66 30 20:43 20.02.2022
5183 Clouds 27 1010 83 10000 5.14 70 19:49 20.02.2022
5184 Clouds 27 1010 83 10000 5.14 70 18:55 20.02.2022
5185 Clouds 30 1011 70 10000 3.6 60 18:36 20.02.2022
5186 Clouds 29 1012 74 10000 5.14 50 17:55 20.02.2022
5187 Clouds 29 1012 74 10000 5.14 50 16:59 20.02.2022
5188 Clouds 26 1012 89 10000 4.63 40 14:55 20.02.2022
5189 Clouds 25 1012 94 10000 3.6 40 13:58 20.02.2022
5190 Clouds 25 1011 94 10000 2.06 80 12:42 20.02.2022
5191 Clouds 24 1010 100 10000 1.54 60 11:30 20.02.2022
5192 Clouds 24 1010 100 10000 1.54 30 10:20 20.02.2022
5193 Clouds 24 1010 100 10000 1.54 80 09:24 20.02.2022
5194 Clouds 25 1010 88 10000 1.54 60 02:54 20.02.2022
5195 Clouds 26 1008 83 10000 1.54 30 00:31 20.02.2022
5196 Clouds 27 1007 78 10000 2.06 40 23:30 19.02.2022
5197 Clouds 27 1007 78 10000 3.09 30 22:23 19.02.2022
5198 Rain 28 1008 78 10000 2.06 60 21:45 19.02.2022
5199 Rain 27 1009 83 10000 2.06 70 20:25 19.02.2022
5200 Rain 27 1009 83 10000 2.06 70 20:25 19.02.2022
5201 Rain 27 1009 83 10000 2.06 70 20:24 19.02.2022
5202 Rain 27 1010 83 10000 2.57 80 19:34 19.02.2022
5203 Rain 28 1011 74 10000 2.57 50 18:38 19.02.2022
5204 Rain 27 1012 78 10000 2.06 20 17:37 19.02.2022
5205 Rain 27 1013 78 10000 2.06 30 16:47 19.02.2022
5206 Clouds 26 1014 83 10000 1.54 30 15:20 19.02.2022
5207 Clouds 25 1013 88 10000 2.06 20 14:53 19.02.2022
5208 Clouds 24 1012 94 10000 0 0 13:50 19.02.2022
5209 Rain 23 1011 100 10000 0.51 310 11:40 19.02.2022
5210 Rain 23 1010 100 10000 0.51 30 10:30 19.02.2022
5211 Rain 23 1010 100 10000 1.03 20 08:54 19.02.2022
5212 Rain 23 1011 100 10000 1.03 10 06:45 19.02.2022
5213 Rain 24 1009 100 10000 3.6 10 23:55 18.02.2022
5214 Clouds 24 1009 100 8000 3.09 360 22:24 18.02.2022
5215 Clouds 24 1009 100 1000 5.66 10 20:57 18.02.2022
5216 Clouds 27 1010 83 10000 4.63 330 19:55 18.02.2022
5217 Clouds 27 1011 89 10000 3.09 10 18:50 18.02.2022
5218 Clouds 27 1011 89 10000 3.09 10 18:24 18.02.2022
5219 Clouds 26 1012 89 6000 2.57 340 17:55 18.02.2022
5220 Rain 24 1013 100 3000 1.54 350 15:23 18.02.2022
5221 Clouds 24 1012 94 2000 2.57 310 13:56 18.02.2022
5222 Clouds 24 1012 94 2000 2.57 310 13:25 18.02.2022
5223 Clouds 25 1011 94 10000 1.03 340 12:40 18.02.2022
5224 Clouds 24 1010 94 10000 1.03 290 11:40 18.02.2022
5225 Clouds 25 1010 88 10000 1.54 300 10:23 18.02.2022
5226 Fog 25 1010 94 10000 1.54 340 06:57 18.02.2022
5227 Rain 24 1012 100 10000 0.51 220 05:41 18.02.2022
5228 Rain 24 1010 100 8000 1.03 340 23:43 17.02.2022
5229 Thunderstorm 24 1009 94 1500 4.12 350 21:46 17.02.2022
5230 Thunderstorm 25 1009 94 1000 5.14 350 21:20 17.02.2022
5231 Clouds 25 1009 94 3500 5.14 300 20:39 17.02.2022
5232 Clouds 28 1010 78 10000 3.6 290 19:50 17.02.2022
5233 Clouds 30 1010 70 10000 3.09 110 18:52 17.02.2022
5234 Clouds 29 1012 74 10000 3.09 110 17:55 17.02.2022
5235 Clouds 28 1013 78 10000 3.09 100 16:42 17.02.2022
5236 Clouds 26 1013 89 10000 2.57 60 15:38 17.02.2022
5237 Clouds 25 1013 94 9000 4.12 90 14:28 17.02.2022
5238 Clouds 25 1012 94 10000 3.09 60 12:43 17.02.2022
5239 Clouds 25 1011 100 10000 2.06 90 11:27 17.02.2022
5240 Clouds 25 1011 100 10000 1.03 70 09:18 17.02.2022
5241 Clear 26 1013 89 10000 2.06 70 04:20 17.02.2022
5242 Clouds 28 1009 78 10000 1.54 70 23:21 16.02.2022
5243 Clouds 30 1009 66 10000 3.09 300 21:44 16.02.2022
5244 Clouds 30 1010 66 10000 1.54 220 19:57 16.02.2022
5245 Clouds 31 1013 66 10000 2.57 340 18:39 16.02.2022
5246 Clouds 30 1014 70 10000 3.6 350 17:53 16.02.2022
5247 Clouds 28 1015 74 10000 4.63 10 15:39 16.02.2022
5248 Clouds 28 1015 74 10000 4.63 10 15:18 16.02.2022
5249 Clouds 23 1013 100 10000 2.57 330 12:59 16.02.2022
5250 Fog 23 1013 100 10000 1.54 30 12:19 16.02.2022
5251 Clouds 22 1012 100 10000 1.03 320 11:26 16.02.2022
5252 Clouds 22 1012 100 10000 1.54 20 10:33 16.02.2022
5253 Clear 23 1012 94 10000 2.57 20 07:54 16.02.2022
5254 Clear 23 1012 94 10000 1.54 20 06:26 16.02.2022
5255 Clouds 26 1010 89 10000 5.66 350 23:45 15.02.2022
5256 Rain 26 1010 94 10000 4.12 70 22:29 15.02.2022
5257 Rain 25 1010 94 8000 3.6 60 21:47 15.02.2022
5258 Rain 25 1010 94 8000 3.6 60 21:27 15.02.2022
5259 Rain 25 1010 94 3000 3.6 40 20:56 15.02.2022
5260 Clouds 28 1010 78 10000 1.54 340 19:57 15.02.2022
5261 Clouds 28 1012 78 7000 1.54 360 18:56 15.02.2022
5262 Clouds 28 1013 83 10000 1.54 360 18:21 15.02.2022
5263 Clouds 28 1014 78 10000 1.54 170 17:49 15.02.2022
5264 Clouds 27 1014 83 10000 1.03 130 16:38 15.02.2022
5265 Clouds 26 1014 89 10000 1.03 10 15:26 15.02.2022
5266 Clouds 25 1012 94 10000 1.03 150 13:27 15.02.2022
5267 Clouds 24 1011 100 10000 1.03 100 11:58 15.02.2022
5268 Clouds 24 1011 100 10000 1.54 130 11:27 15.02.2022
5269 Rain 24 1011 100 10000 1.03 170 09:31 15.02.2022
5270 Rain 24 1013 100 10000 1.54 220 06:52 15.02.2022
5271 Rain 24 1013 100 10000 1.54 270 03:55 15.02.2022
5272 Rain 24 1010 94 10000 2.06 340 22:36 14.02.2022
5273 Rain 24 1010 94 10000 3.6 360 21:35 14.02.2022
5274 Rain 23 1011 100 8000 3.09 10 20:30 14.02.2022
5275 Rain 23 1012 100 4000 2.57 360 19:32 14.02.2022
5276 Thunderstorm 23 1012 94 3000 5.14 140 18:30 14.02.2022
5277 Clouds 25 1013 94 10000 3.6 260 17:58 14.02.2022
5278 Clouds 25 1013 94 10000 3.6 260 17:24 14.02.2022
5279 Rain 24 1013 100 9000 3.6 210 15:59 14.02.2022
5280 Rain 24 1012 100 9000 2.57 250 13:44 14.02.2022
5281 Rain 24 1012 100 9000 2.57 250 13:23 14.02.2022
5282 Rain 24 1010 94 10000 2.06 250 12:32 14.02.2022
5283 Clouds 24 1010 94 10000 2.06 250 11:54 14.02.2022
5284 Clouds 25 1009 100 10000 2.06 200 10:31 14.02.2022
5285 Clouds 25 1009 100 10000 3.09 100 08:37 14.02.2022
5286 Rain 26 1010 94 10000 1.03 180 07:27 14.02.2022
5287 Clouds 26 1007 89 10000 2.06 100 23:41 13.02.2022
5288 Clouds 26 1007 94 10000 2.06 140 22:42 13.02.2022
5289 Clouds 26 1007 94 10000 2.06 140 22:23 13.02.2022
5290 Clouds 27 1007 83 3000 1.54 60 21:28 13.02.2022
5291 Clouds 27 1007 83 10000 2.06 180 20:32 13.02.2022
5292 Rain 27 1009 83 10000 1.03 180 19:24 13.02.2022
5293 Rain 27 1011 78 10000 1.54 190 18:42 13.02.2022
5294 Rain 27 1012 78 10000 1.54 220 17:54 13.02.2022
5295 Rain 24 1013 94 10000 2.57 180 15:54 13.02.2022
5296 Rain 24 1013 94 10000 2.57 180 15:54 13.02.2022
5297 Rain 26 1013 89 10000 4.63 180 14:58 13.02.2022
5298 Rain 25 1012 94 10000 1.54 150 13:59 13.02.2022
5299 Rain 25 1012 94 10000 1.54 150 13:59 13.02.2022
5300 Rain 24 1011 100 10000 2.57 110 12:50 13.02.2022
5301 Rain 24 1010 94 10000 2.06 80 11:26 13.02.2022
5302 Rain 24 1009 94 10000 2.57 40 10:30 13.02.2022
5303 Clouds 25 1009 88 10000 3.09 20 09:45 13.02.2022
5304 Rain 25 1009 83 10000 3.09 30 07:21 13.02.2022
5305 Clouds 27 1008 89 10000 1.54 310 00:35 13.02.2022
5306 Clouds 28 1006 83 10000 2.57 10 23:39 12.02.2022
5307 Clouds 30 1006 66 10000 2.57 70 22:33 12.02.2022
5308 Clouds 32 1006 62 10000 5.66 80 21:20 12.02.2022
5309 Clouds 32 1007 66 10000 2.06 160 20:32 12.02.2022
5310 Clouds 32 1008 62 10000 2.57 70 19:21 12.02.2022
5311 Clouds 31 1010 66 10000 2.57 70 18:52 12.02.2022
5312 Clouds 31 1010 66 10000 2.57 70 18:34 12.02.2022
5313 Clouds 30 1011 70 10000 2.57 80 16:56 12.02.2022
5314 Clouds 29 1012 74 10000 1.54 120 16:25 12.02.2022
5315 Clouds 28 1012 78 10000 1.54 30 15:50 12.02.2022
5316 Clouds 26 1012 89 10000 2.06 80 14:31 12.02.2022
5317 Clouds 25 1012 94 10000 1.03 50 12:58 12.02.2022
5318 Rain 24 1009 100 10000 2.06 110 10:40 12.02.2022
5319 Clouds 24 1009 100 10000 1.03 60 09:39 12.02.2022
5320 Clouds 24 1009 100 10000 1.54 70 08:50 12.02.2022
5321 Rain 24 1009 100 10000 1.54 70 07:53 12.02.2022
5322 Clouds 25 1011 94 10000 2.06 30 05:33 12.02.2022
5323 Clouds 25 1011 100 10000 1.54 30 04:27 12.02.2022
5324 Clear 25 1009 94 10000 1.03 160 02:18 12.02.2022
5325 Clouds 26 1007 83 10000 1.54 200 22:28 11.02.2022
5326 Clouds 27 1008 78 10000 1.03 190 21:51 11.02.2022
5327 Rain 26 1009 89 10000 1.54 210 20:40 11.02.2022
5328 Rain 26 1010 83 10000 2.57 180 19:40 11.02.2022
5329 Rain 26 1010 83 10000 2.57 180 19:20 11.02.2022
5330 Rain 26 1012 89 10000 2.06 90 17:48 11.02.2022
5331 Rain 26 1012 89 10000 2.06 90 17:22 11.02.2022
5332 Rain 25 1013 94 10000 0.51 160 15:56 11.02.2022
5333 Rain 24 1012 100 10000 2.57 110 14:43 11.02.2022
5334 Rain 24 1012 100 10000 2.57 110 14:21 11.02.2022
5335 Rain 24 1012 100 10000 2.57 110 13:57 11.02.2022
5336 Rain 24 1012 100 10000 3.09 110 13:39 11.02.2022
5337 Rain 24 1009 100 10000 2.57 80 11:41 11.02.2022
5338 Clouds 24 1008 94 10000 2.06 60 09:57 11.02.2022
5339 Clouds 25 1008 94 10000 3.09 20 08:42 11.02.2022
5340 Clouds 25 1008 94 10000 3.09 20 08:42 11.02.2022
5341 Clouds 25 1008 94 10000 3.09 20 08:22 11.02.2022
5342 Clouds 25 1009 94 10000 2.06 50 06:33 11.02.2022
5343 Clouds 26 1009 89 10000 1.54 70 02:26 11.02.2022
5344 Clouds 26 1007 89 10000 2.57 60 00:51 11.02.2022
5345 Clouds 28 1006 78 10000 1.54 30 22:49 10.02.2022
5346 Clouds 28 1006 78 10000 1.03 140 21:45 10.02.2022
5347 Clouds 28 1006 78 10000 1.03 140 20:57 10.02.2022
5348 Rain 27 1009 83 10000 1.03 160 20:30 10.02.2022
5349 Rain 26 1008 83 10000 3.6 30 19:25 10.02.2022
5350 Rain 28 1010 83 10000 5.14 50 18:44 10.02.2022
5351 Clouds 28 1011 83 10000 2.57 30 17:26 10.02.2022
5352 Clouds 28 1011 78 10000 3.09 60 16:50 10.02.2022
5353 Clouds 28 1012 83 10000 2.06 80 15:47 10.02.2022
5354 Clouds 28 1012 83 10000 2.06 80 15:28 10.02.2022
5355 Clouds 28 1012 83 10000 2.06 70 14:46 10.02.2022
5356 Clouds 28 1012 83 10000 2.06 70 14:23 10.02.2022
5357 Clouds 27 1011 89 10000 0.51 70 13:22 10.02.2022
5358 Clouds 26 1010 94 10000 0 0 12:23 10.02.2022
5359 Clouds 25 1010 100 10000 0.51 60 11:33 10.02.2022
5360 Clouds 25 1009 100 10000 0.51 90 10:43 10.02.2022
5361 Clouds 25 1009 100 10000 0 0 09:50 10.02.2022
5362 Clouds 25 1009 100 10000 0 0 09:18 10.02.2022
5363 Clouds 26 1010 94 10000 2.06 80 06:50 10.02.2022
5364 Clouds 26 1011 94 10000 1.54 330 03:55 10.02.2022
5365 Clouds 28 1009 69 10000 1.54 280 01:43 10.02.2022
5366 Clouds 28 1008 74 10000 2.57 280 00:42 10.02.2022
5367 Clouds 28 1008 74 10000 2.57 280 00:24 10.02.2022
5368 Rain 29 1008 65 10000 3.6 270 22:58 09.02.2022
5369 Clouds 30 1007 66 10000 3.09 290 22:33 09.02.2022
5370 Clouds 30 1007 74 10000 3.6 250 21:49 09.02.2022
5371 Clouds 30 1007 74 10000 3.6 250 21:28 09.02.2022
5372 Clouds 29 1008 74 10000 5.14 270 20:45 09.02.2022
5373 Clouds 29 1008 74 10000 5.14 270 20:23 09.02.2022
5374 Clouds 28 1009 78 10000 3.09 10 19:43 09.02.2022
5375 Clouds 28 1010 78 10000 3.09 10 18:55 09.02.2022
5376 Clouds 30 1011 66 10000 2.06 170 17:24 09.02.2022
5377 Clouds 29 1012 70 10000 3.09 170 16:25 09.02.2022
5378 Clouds 28 1013 78 10000 1.54 200 15:27 09.02.2022
5379 Clouds 26 1012 94 10000 1.54 190 13:32 09.02.2022
5380 Clouds 24 1010 94 10000 1.03 210 11:52 09.02.2022
5381 Clear 25 1010 94 10000 1.03 240 10:37 09.02.2022
5382 Clear 25 1010 94 10000 1.03 240 09:56 09.02.2022
5383 Clear 24 1010 88 10000 1.03 170 09:22 09.02.2022
5384 Clear 24 1010 88 10000 1.03 80 08:46 09.02.2022
5385 Clear 24 1011 94 10000 1.03 70 06:56 09.02.2022
5386 Clouds 25 1012 88 10000 1.54 10 04:36 09.02.2022
5387 Clouds 25 1012 88 10000 2.06 20 03:49 09.02.2022
5388 Clouds 26 1008 83 10000 3.09 360 23:45 08.02.2022
5389 Clouds 26 1008 83 10000 3.09 360 23:19 08.02.2022
5390 Clouds 26 1008 83 10000 3.09 360 23:19 08.02.2022
5391 Rain 25 1008 94 10000 4.63 350 22:38 08.02.2022
5392 Rain 25 1008 94 10000 4.63 350 22:38 08.02.2022
5393 Rain 25 1008 94 10000 4.63 350 22:20 08.02.2022
5394 Thunderstorm 25 1008 94 9000 7.72 70 21:22 08.02.2022
5395 Clouds 25 1008 94 9000 10.8 70 20:58 08.02.2022
5396 Clouds 30 1008 70 9000 8.23 80 20:38 08.02.2022
5397 Clouds 31 1009 66 10000 3.09 160 19:28 08.02.2022
5398 Clouds 30 1010 70 10000 2.57 190 18:24 08.02.2022
5399 Clouds 29 1012 70 10000 2.57 170 17:30 08.02.2022
5400 Clouds 28 1013 83 10000 2.57 160 15:47 08.02.2022
5401 Clouds 28 1013 83 10000 2.57 160 15:27 08.02.2022
5402 Clouds 26 1012 94 10000 1.54 200 13:50 08.02.2022
5403 Fog 26 1011 100 10000 1.54 220 12:24 08.02.2022
5404 Mist 26 1010 94 10000 1.54 260 10:49 08.02.2022
5405 Mist 26 1009 94 10000 1.03 220 09:49 08.02.2022
5406 Mist 26 1010 94 10000 1.54 250 08:39 08.02.2022
5407 Clouds 26 1010 100 10000 1.03 240 06:38 08.02.2022
5408 Clouds 27 1011 89 10000 1.03 210 04:40 08.02.2022
5409 Clouds 27 1011 89 10000 1.03 210 04:22 08.02.2022
5410 Clouds 27 1011 89 10000 1.03 220 03:36 08.02.2022
5411 Clouds 27 1011 89 10000 1.03 220 03:18 08.02.2022
5412 Clouds 27 1011 89 10000 1.03 220 02:59 08.02.2022
5413 Clouds 26 1010 94 10000 1.54 250 02:36 08.02.2022
5414 Clouds 26 1010 94 10000 1.54 250 02:18 08.02.2022
5415 Clouds 26 1009 94 10000 1.03 180 01:44 08.02.2022
5416 Clouds 26 1009 94 10000 1.03 180 01:25 08.02.2022
5417 Clouds 26 1009 94 10000 1.03 180 01:25 08.02.2022
5418 Clouds 26 1009 94 10000 1.54 250 00:55 08.02.2022
5419 Clouds 26 1009 94 10000 1.54 250 00:21 08.02.2022
5420 Clouds 27 1008 83 10000 2.06 160 23:44 07.02.2022
5421 Clouds 27 1008 83 10000 2.06 160 23:18 07.02.2022
5422 Clouds 27 1008 83 10000 2.06 160 22:59 07.02.2022
5423 Rain 29 1008 74 10000 1.54 360 22:19 07.02.2022
5424 Thunderstorm 30 1008 66 10000 2.57 40 21:50 07.02.2022
5425 Thunderstorm 30 1008 66 10000 2.57 40 21:27 07.02.2022
5426 Thunderstorm 31 1009 62 10000 1.54 130 20:43 07.02.2022
5427 Thunderstorm 31 1009 62 10000 1.54 130 20:24 07.02.2022
5428 Clouds 30 1010 66 10000 2.06 70 19:47 07.02.2022
5429 Clouds 31 1011 62 10000 3.09 330 18:34 07.02.2022
5430 Clouds 30 1014 74 10000 2.06 80 16:53 07.02.2022
5431 Clouds 30 1014 74 10000 2.06 80 16:24 07.02.2022
5432 Clouds 29 1014 79 10000 2.57 30 15:48 07.02.2022
5433 Clouds 26 1012 89 10000 1.03 70 13:39 07.02.2022
5434 Clouds 26 1012 89 10000 1.03 70 13:21 07.02.2022
5435 Clouds 25 1012 94 10000 1.03 310 11:58 07.02.2022
5436 Clouds 24 1011 100 10000 2.06 20 11:38 07.02.2022
5437 Clouds 24 1011 100 10000 2.06 20 10:53 07.02.2022
5438 Clear 24 1010 100 10000 2.06 40 10:33 07.02.2022
5439 Clear 24 1010 100 10000 2.06 40 09:53 07.02.2022
5440 Clear 24 1011 100 10000 2.06 40 09:18 07.02.2022
5441 Clear 25 1011 94 10000 2.57 30 08:44 07.02.2022
5442 Clouds 25 1012 94 10000 1.03 50 07:30 07.02.2022
5443 Clouds 25 1012 100 10000 2.06 70 06:34 07.02.2022
5444 Rain 25 1012 94 10000 1.03 330 03:49 07.02.2022
5445 Clouds 27 1009 89 10000 2.57 270 00:54 07.02.2022
5446 Clouds 27 1008 83 10000 2.57 270 23:50 06.02.2022
5447 Clouds 27 1008 83 10000 2.57 270 23:50 06.02.2022
5448 Clouds 27 1008 83 10000 2.57 270 23:19 06.02.2022
5449 Clouds 28 1008 78 10000 2.57 230 22:34 06.02.2022
5450 Clouds 28 1008 78 10000 2.06 230 21:36 06.02.2022
5451 Clouds 28 1009 83 10000 2.06 250 20:58 06.02.2022
5452 Clouds 28 1009 83 10000 2.06 250 20:36 06.02.2022
5453 Clouds 26 1011 89 10000 3.09 330 19:46 06.02.2022
5454 Clouds 26 1012 89 10000 4.12 20 18:50 06.02.2022
5455 Clouds 28 1012 74 4000 6.17 360 18:24 06.02.2022
5456 Clouds 30 1013 74 10000 3.09 60 17:26 06.02.2022
5457 Clouds 29 1014 74 10000 1.54 120 16:48 06.02.2022
5458 Rain 27 1014 83 10000 0.51 10 15:50 06.02.2022
5459 Clouds 27 1014 83 10000 0.51 10 15:27 06.02.2022
5460 Clouds 26 1013 89 10000 1.03 220 14:50 06.02.2022
5461 Clouds 24 1013 100 10000 1.54 260 13:51 06.02.2022
5462 Clouds 24 1013 100 10000 1.54 260 13:20 06.02.2022
5463 Thunderstorm 23 1011 100 10000 1.03 250 11:39 06.02.2022
5464 Thunderstorm 23 1011 100 5000 2.06 180 10:31 06.02.2022
5465 Thunderstorm 23 1011 100 5000 2.06 180 10:31 06.02.2022
5466 Thunderstorm 25 1011 94 5000 2.06 30 09:25 06.02.2022
5467 Rain 25 1011 94 10000 1.03 340 08:40 06.02.2022
5468 Clouds 26 1012 89 10000 2.57 340 05:36 06.02.2022
5469 Clouds 26 1011 89 10000 2.06 10 03:31 06.02.2022
5470 Clouds 27 1010 83 10000 1.54 350 02:24 06.02.2022
5471 Clouds 27 1009 78 10000 1.03 30 00:30 06.02.2022
5472 Clouds 27 1008 83 10000 1.03 30 23:18 05.02.2022
5473 Clouds 30 1008 70 10000 1.03 90 21:33 05.02.2022
5474 Clouds 31 1009 66 10000 1.54 100 20:25 05.02.2022
5475 Clouds 29 1010 74 10000 2.06 80 19:49 05.02.2022
5476 Clouds 29 1010 74 10000 2.06 80 19:18 05.02.2022
5477 Clouds 30 1012 70 10000 2.57 80 18:23 05.02.2022
5478 Clouds 29 1013 74 10000 1.54 230 17:31 05.02.2022
5479 Clouds 27 1014 83 10000 1.54 210 15:42 05.02.2022
5480 Clouds 27 1014 83 10000 1.54 210 15:24 05.02.2022
5481 Clouds 25 1013 88 10000 1.54 240 12:54 05.02.2022
5482 Clouds 24 1012 100 10000 1.03 320 12:33 05.02.2022
5483 Clouds 24 1011 100 10000 1.03 240 10:53 05.02.2022
5484 Clouds 24 1011 100 10000 1.03 240 10:25 05.02.2022
5485 Clouds 24 1011 100 10000 1.54 240 09:46 05.02.2022
5486 Clouds 24 1011 100 10000 1.54 250 08:20 05.02.2022
5487 Clouds 24 1012 100 10000 1.54 220 06:57 05.02.2022
5488 Rain 24 1013 100 10000 0.51 250 04:30 05.02.2022
5489 Clouds 24 1010 94 10000 1.54 280 01:19 05.02.2022
5490 Rain 24 1009 94 10000 2.57 320 00:53 05.02.2022
5491 Rain 25 1009 94 10000 1.03 50 23:46 04.02.2022
5492 Rain 25 1009 94 10000 1.03 50 23:28 04.02.2022
5493 Clouds 25 1008 94 10000 1.54 70 21:59 04.02.2022
5494 Rain 24 1009 100 8000 1.54 40 21:36 04.02.2022
5495 Rain 24 1009 100 8000 1.54 40 21:18 04.02.2022
5496 Rain 23 1010 100 5000 1.03 130 20:20 04.02.2022
5497 Clouds 28 1013 78 10000 5.66 40 17:43 04.02.2022
5498 Clouds 28 1013 83 10000 1.03 110 15:42 04.02.2022
5499 Clouds 28 1013 83 10000 1.03 110 14:55 04.02.2022
5500 Clouds 27 1013 83 10000 1.54 130 13:39 04.02.2022
5501 Clouds 25 1012 94 10000 1.54 320 12:43 04.02.2022
5502 Fog 25 1011 94 10000 1.54 340 11:42 04.02.2022
5503 Fog 25 1010 94 10000 2.06 320 10:36 04.02.2022
5504 Fog 25 1010 94 10000 2.06 320 10:36 04.02.2022
5505 Fog 26 1010 83 10000 1.54 340 08:42 04.02.2022
5506 Clear 26 1010 83 10000 2.06 350 06:57 04.02.2022
5507 Clouds 26 1010 83 10000 2.06 10 02:46 04.02.2022
5508 Clouds 26 1009 89 10000 1.54 30 01:52 04.02.2022
5509 Rain 28 1008 78 10000 2.57 270 23:29 03.02.2022
5510 Rain 28 1008 69 10000 3.09 70 22:33 03.02.2022
5511 Rain 30 1008 70 10000 2.06 20 21:49 03.02.2022
5512 Clouds 30 1009 66 10000 1.03 180 20:39 03.02.2022
5513 Clouds 30 1009 66 10000 1.03 180 20:18 03.02.2022
5514 Clouds 30 1010 74 10000 2.06 70 19:30 03.02.2022
5515 Clouds 28 1011 78 10000 1.03 10 18:35 03.02.2022
5516 Clouds 29 1012 74 10000 2.06 40 17:32 03.02.2022
5517 Clouds 28 1013 78 10000 2.06 10 16:26 03.02.2022
5518 Clouds 25 1013 94 9000 4.63 280 14:45 03.02.2022
5519 Rain 25 1012 100 3000 1.54 160 12:52 03.02.2022
5520 Fog 24 1011 100 10000 0.51 360 10:58 03.02.2022
5521 Fog 24 1010 100 10000 1.03 20 08:36 03.02.2022
5522 Clouds 24 1012 100 10000 1.54 80 04:27 03.02.2022
5523 Clouds 23 1009 100 10000 0.51 90 00:31 03.02.2022
5524 Clouds 24 1009 94 10000 0.51 70 23:36 02.02.2022
5525 Rain 23 1009 100 10000 2.57 10 21:54 02.02.2022
5526 Rain 23 1009 100 10000 2.57 10 21:30 02.02.2022
5527 Rain 23 1010 100 7000 1.54 50 20:38 02.02.2022
5528 Rain 24 1010 94 5000 1.03 60 19:55 02.02.2022
5529 Thunderstorm 24 1012 94 5000 3.6 160 19:26 02.02.2022
5530 Thunderstorm 24 1012 100 3000 4.12 170 18:34 02.02.2022
5531 Thunderstorm 25 1012 100 3500 3.6 170 17:38 02.02.2022
5532 Rain 26 1013 100 5000 2.06 170 17:19 02.02.2022
5533 Rain 27 1012 83 10000 1.54 40 16:31 02.02.2022
5534 Clouds 26 1011 89 10000 2.06 350 12:55 02.02.2022
5535 Clouds 26 1011 89 10000 2.06 350 12:18 02.02.2022
5536 Clouds 25 1010 94 10000 1.54 10 11:31 02.02.2022
5537 Clear 26 1009 83 10000 1.54 20 09:46 02.02.2022
5538 Clear 26 1010 83 10000 2.57 30 07:32 02.02.2022
5539 Clouds 30 1007 70 10000 3.09 60 22:46 01.02.2022
5540 Clouds 32 1007 62 10000 2.57 90 21:36 01.02.2022
5541 Clouds 32 1009 62 10000 2.57 70 19:57 01.02.2022
5542 Clouds 30 1011 70 10000 3.6 70 17:38 01.02.2022
5543 Clouds 30 1012 74 10000 3.6 60 16:33 01.02.2022
5544 Clear 27 1012 83 10000 2.06 40 13:28 01.02.2022
5545 Clear 24 1011 94 10000 1.54 30 12:30 01.02.2022
5546 Clear 24 1010 94 10000 1.54 40 10:44 01.02.2022
5547 Clear 26 1011 83 10000 2.06 30 02:30 01.02.2022
5548 Clouds 28 1008 74 10000 2.06 80 23:40 31.01.2022
5549 Clouds 28 1008 74 10000 2.06 80 22:43 31.01.2022
5550 Clouds 29 1008 74 10000 3.09 70 21:38 31.01.2022
5551 Clouds 28 1009 74 10000 3.09 70 20:44 31.01.2022
5552 Clouds 28 1009 74 10000 3.09 70 20:24 31.01.2022
5553 Clouds 28 1011 78 10000 5.14 60 18:54 31.01.2022
5554 Clouds 28 1011 78 10000 5.14 60 18:18 31.01.2022
5555 Clouds 28 1012 78 10000 5.14 100 17:24 31.01.2022
5556 Clouds 27 1012 83 10000 5.14 80 16:25 31.01.2022
5557 Clouds 27 1012 89 10000 3.09 60 14:54 31.01.2022
5558 Clouds 26 1012 94 10000 3.09 60 13:43 31.01.2022
5559 Clouds 25 1011 94 10000 1.54 40 12:38 31.01.2022
5560 Rain 24 1010 100 10000 1.54 60 11:31 31.01.2022
5561 Clouds 24 1009 100 10000 1.54 40 10:48 31.01.2022
5562 Clouds 25 1009 94 10000 1.03 60 09:38 31.01.2022
5563 Clouds 25 1009 94 10000 1.03 60 08:56 31.01.2022
5564 Clouds 24 1010 100 10000 1.03 60 08:20 31.01.2022
5565 Rain 24 1010 100 10000 0 0 07:43 31.01.2022
5566 Rain 24 1012 100 10000 0 0 05:33 31.01.2022
5567 Clouds 25 1010 94 10000 1.54 80 00:36 31.01.2022
5568 Clouds 25 1009 94 10000 2.57 80 22:33 30.01.2022
5569 Clouds 28 1008 83 10000 1.03 70 21:46 30.01.2022
5570 Clouds 28 1008 83 10000 1.03 70 21:26 30.01.2022
5571 Clouds 28 1009 83 10000 1.03 90 20:54 30.01.2022
5572 Clouds 28 1009 83 10000 1.03 90 20:31 30.01.2022
5573 Clouds 28 1010 78 10000 2.06 70 19:56 30.01.2022
5574 Clouds 27 1011 83 10000 3.09 70 18:52 30.01.2022
5575 Clouds 27 1011 83 10000 3.09 70 18:22 30.01.2022
5576 Clouds 27 1012 83 10000 3.09 70 17:31 30.01.2022
5577 Clouds 27 1012 83 10000 3.09 70 17:31 30.01.2022
5578 Clouds 27 1012 83 10000 3.09 70 17:31 30.01.2022
5579 Clouds 26 1013 89 10000 2.57 70 16:44 30.01.2022
5580 Clouds 26 1013 89 10000 2.57 70 16:23 30.01.2022
5581 Clouds 25 1013 94 10000 2.06 80 15:55 30.01.2022
5582 Clouds 25 1013 94 10000 2.06 80 15:33 30.01.2022
5583 Clouds 25 1013 94 10000 2.06 70 14:48 30.01.2022
5584 Clouds 25 1012 94 10000 1.03 180 13:49 30.01.2022
5585 Clouds 24 1011 100 10000 0.51 310 12:46 30.01.2022
5586 Rain 24 1010 100 10000 0.51 160 11:23 30.01.2022
5587 Clouds 24 1010 100 10000 1.03 30 10:26 30.01.2022
5588 Clouds 24 1009 100 10000 0.51 340 09:26 30.01.2022
5589 Rain 24 1009 100 10000 1.54 70 08:32 30.01.2022
5590 Rain 24 1010 100 10000 4.12 80 02:55 30.01.2022
5591 Rain 24 1010 94 10000 2.06 60 01:54 30.01.2022
5592 Rain 24 1008 94 10000 1.03 100 23:49 29.01.2022
5593 Rain 24 1008 94 10000 1.03 300 22:58 29.01.2022
5594 Rain 24 1008 94 10000 3.09 340 21:35 29.01.2022
5595 Thunderstorm 23 1009 100 4000 2.06 300 20:59 29.01.2022
5596 Thunderstorm 23 1009 100 4000 2.06 300 20:20 29.01.2022
5597 Thunderstorm 23 1010 94 5000 2.06 340 19:33 29.01.2022
5598 Thunderstorm 23 1010 100 5000 2.57 320 18:44 29.01.2022
5599 Clouds 27 1011 83 1000 5.14 330 17:55 29.01.2022
5600 Clouds 28 1012 78 10000 2.57 40 16:59 29.01.2022
5601 Clouds 27 1012 83 10000 1.54 70 15:27 29.01.2022
5602 Clouds 26 1010 89 10000 2.57 60 13:48 29.01.2022
5603 Clouds 26 1010 89 10000 2.57 60 13:27 29.01.2022
5604 Clouds 26 1010 89 10000 2.57 60 12:58 29.01.2022
5605 Clouds 24 1009 100 10000 1.54 50 11:39 29.01.2022
5606 Clouds 24 1008 100 10000 1.54 80 10:33 29.01.2022
5607 Clouds 24 1008 100 10000 1.54 60 08:19 29.01.2022
5608 Clouds 25 1010 94 10000 1.54 40 02:26 29.01.2022
5609 Clouds 25 1007 88 10000 2.06 20 00:32 29.01.2022
5610 Clouds 26 1007 83 10000 3.6 30 23:29 28.01.2022
5611 Clouds 28 1006 78 10000 2.06 80 22:46 28.01.2022
5612 Clouds 28 1006 78 10000 2.06 80 22:19 28.01.2022
5613 Rain 28 1007 78 10000 1.54 190 20:41 28.01.2022
5614 Rain 28 1009 78 10000 1.03 180 19:56 28.01.2022
5615 Rain 27 1010 83 10000 1.54 60 18:52 28.01.2022
5616 Rain 27 1012 89 10000 1.03 100 17:52 28.01.2022
5617 Rain 25 1012 100 3000 1.54 70 15:52 28.01.2022
5618 Rain 25 1012 94 5000 1.54 140 14:50 28.01.2022
5619 Rain 25 1011 100 10000 1.03 60 12:41 28.01.2022
5620 Clouds 25 1010 94 10000 1.54 50 11:43 28.01.2022
5621 Clouds 25 1009 94 10000 1.03 20 10:26 28.01.2022
5622 Clouds 25 1009 94 10000 1.54 360 09:46 28.01.2022
5623 Clouds 25 1009 100 10000 1.54 70 07:41 28.01.2022
5624 Rain 25 1011 100 10000 1.03 10 05:31 28.01.2022
5625 Clouds 26 1011 94 10000 1.03 210 03:50 28.01.2022
5626 Rain 25 1011 100 10000 1.03 350 02:24 28.01.2022
5627 Thunderstorm 25 1010 100 7000 1.03 60 01:35 28.01.2022
5628 Thunderstorm 25 1009 100 3000 4.12 350 00:33 28.01.2022
5629 Clouds 30 1008 70 10000 1.54 100 21:58 27.01.2022
5630 Clouds 30 1008 70 10000 1.54 100 21:34 27.01.2022
5631 Clouds 31 1009 70 10000 1.54 80 20:55 27.01.2022
5632 Clouds 28 1010 83 8000 1.03 100 19:35 27.01.2022
5633 Clouds 25 1011 94 4000 3.6 260 17:58 27.01.2022
5634 Clouds 28 1013 83 10000 1.03 100 15:43 27.01.2022
5635 Clouds 25 1012 94 10000 1.03 40 13:39 27.01.2022
5636 Clouds 24 1011 100 10000 1.03 50 12:46 27.01.2022
5637 Clouds 24 1010 94 10000 1.54 10 10:59 27.01.2022
5638 Clouds 24 1010 94 10000 1.03 20 09:27 27.01.2022
5639 Clouds 24 1010 94 10000 1.54 60 08:38 27.01.2022
5640 Clouds 24 1011 94 10000 1.03 350 07:23 27.01.2022
5641 Rain 24 1012 100 10000 2.57 50 02:59 27.01.2022
5642 Rain 24 1010 100 10000 1.54 80 23:45 26.01.2022
5643 Rain 24 1009 100 5000 1.54 80 22:27 26.01.2022
5644 Thunderstorm 25 1009 100 3000 3.09 70 21:41 26.01.2022
5645 Clouds 29 1009 74 10000 1.03 190 20:41 26.01.2022
5646 Clouds 29 1009 74 10000 1.03 190 20:23 26.01.2022
5647 Clouds 28 1010 78 10000 2.06 170 19:27 26.01.2022
5648 Clouds 27 1011 83 10000 2.06 210 18:46 26.01.2022
5649 Clouds 28 1012 78 10000 2.57 200 17:51 26.01.2022
5650 Rain 28 1012 78 10000 2.57 200 17:24 26.01.2022
5651 Rain 27 1013 83 10000 2.06 190 16:35 26.01.2022
5652 Rain 26 1013 89 10000 1.03 190 15:49 26.01.2022
5653 Rain 25 1012 94 10000 1.03 190 14:21 26.01.2022
5654 Clouds 25 1010 94 10000 1.03 220 11:54 26.01.2022
5655 Clouds 25 1010 100 10000 0 0 10:43 26.01.2022
5656 Clouds 25 1009 100 7000 0.51 20 09:48 26.01.2022
5657 Clouds 25 1009 100 10000 0 0 08:27 26.01.2022
5658 Clouds 25 1010 100 10000 0 0 05:42 26.01.2022
5659 Clouds 27 1007 89 10000 3.09 70 23:58 25.01.2022
5660 Clouds 27 1007 89 10000 3.09 70 23:20 25.01.2022
5661 Clouds 26 1006 94 10000 1.54 80 22:26 25.01.2022
5662 Clouds 28 1007 78 6000 4.63 50 21:59 25.01.2022
5663 Clouds 30 1007 74 10000 1.54 80 20:59 25.01.2022
5664 Clouds 30 1007 74 10000 1.54 80 20:40 25.01.2022
5665 Clouds 30 1008 74 10000 1.54 80 19:53 25.01.2022
5666 Clouds 30 1010 66 10000 3.09 30 18:38 25.01.2022
5667 Clouds 29 1011 70 10000 3.6 20 17:45 25.01.2022
5668 Clouds 28 1012 74 10000 2.06 70 16:45 25.01.2022
5669 Clouds 28 1012 74 10000 2.06 70 16:21 25.01.2022
5670 Rain 27 1012 78 10000 1.54 80 15:38 25.01.2022
5671 Clouds 27 1012 78 10000 1.54 80 14:57 25.01.2022
5672 Clouds 25 1011 88 10000 2.57 60 13:42 25.01.2022
5673 Clouds 25 1010 88 10000 2.57 40 10:51 25.01.2022
5674 Clear 24 1009 94 10000 2.57 50 08:37 25.01.2022
5675 Clear 25 1009 88 10000 1.54 90 07:29 25.01.2022
5676 Clear 25 1009 88 10000 2.06 30 06:49 25.01.2022
5677 Clear 25 1009 88 10000 3.6 50 05:22 25.01.2022
5678 Clouds 27 1007 83 10000 2.06 80 23:37 24.01.2022
5679 Clouds 27 1007 83 10000 2.06 80 23:18 24.01.2022
5680 Clouds 29 1007 79 10000 2.06 80 22:59 24.01.2022
5681 Clouds 29 1007 79 10000 2.06 80 22:41 24.01.2022
5682 Clouds 29 1007 74 10000 3.09 80 21:53 24.01.2022
5683 Clouds 29 1007 74 10000 3.09 80 21:53 24.01.2022
5684 Clouds 29 1007 74 10000 3.09 80 21:29 24.01.2022
5685 Clouds 30 1008 70 10000 2.06 80 20:30 24.01.2022
5686 Clouds 29 1009 74 10000 2.06 80 19:50 24.01.2022
5687 Clouds 29 1009 74 10000 2.06 80 19:24 24.01.2022
5688 Rain 27 1011 78 10000 1.54 70 17:59 24.01.2022
5689 Rain 26 1011 83 10000 0.51 170 17:24 24.01.2022
5690 Rain 24 1012 100 5000 2.06 360 16:52 24.01.2022
5691 Rain 24 1012 100 5000 2.06 360 16:19 24.01.2022
5692 Rain 24 1013 100 10000 1.03 30 14:38 24.01.2022
5693 Thunderstorm 24 1011 100 4000 3.6 20 12:58 24.01.2022
5694 Rain 24 1011 100 4000 3.09 40 12:23 24.01.2022
5695 Rain 25 1009 88 10000 1.03 120 10:30 24.01.2022
5696 Clouds 25 1009 94 10000 1.03 140 09:48 24.01.2022
5697 Clouds 25 1009 94 10000 1.54 80 08:34 24.01.2022
5698 Clouds 26 1010 94 10000 1.03 80 06:40 24.01.2022
5699 Rain 27 1009 83 10000 1.54 80 01:30 24.01.2022
5700 Clear 26 1008 89 10000 1.03 80 00:36 24.01.2022
5701 Clear 28 1008 78 10000 1.03 80 23:52 23.01.2022
5702 Clouds 30 1007 70 10000 1.54 80 22:32 23.01.2022
5703 Clouds 29 1008 74 10000 0.51 90 21:49 23.01.2022
5704 Clouds 29 1008 74 10000 0.51 90 21:25 23.01.2022
5705 Clouds 29 1009 70 10000 1.03 170 20:44 23.01.2022
5706 Clouds 29 1010 70 10000 1.54 190 19:44 23.01.2022
5707 Clouds 28 1011 78 10000 2.06 200 18:51 23.01.2022
5708 Clouds 28 1012 78 10000 1.03 200 17:44 23.01.2022
5709 Clouds 27 1013 83 10000 1.03 220 16:47 23.01.2022
5710 Clouds 25 1013 94 10000 2.06 100 14:59 23.01.2022
5711 Clouds 25 1013 94 10000 2.06 100 14:25 23.01.2022
5712 Clouds 25 1013 94 10000 2.06 100 14:25 23.01.2022
5713 Clouds 24 1011 94 10000 1.54 340 12:54 23.01.2022
5714 Clouds 24 1011 94 10000 1.54 340 12:22 23.01.2022
5715 Clouds 24 1011 94 10000 1.54 340 12:22 23.01.2022
5716 Clouds 24 1011 94 10000 1.03 70 11:52 23.01.2022
5717 Clouds 24 1011 94 10000 1.03 70 11:18 23.01.2022
5718 Clouds 24 1010 100 10000 1.54 10 10:27 23.01.2022
5719 Clouds 24 1010 94 10000 1.54 40 09:51 23.01.2022
5720 Clouds 24 1010 94 10000 1.54 10 08:53 23.01.2022
5721 Rain 25 1011 94 10000 1.54 20 05:56 23.01.2022
5722 Rain 25 1010 94 10000 2.06 260 01:52 23.01.2022
5723 Clouds 25 1010 94 10000 2.06 260 01:26 23.01.2022
5724 Rain 25 1010 94 10000 2.57 280 00:23 23.01.2022
5725 Rain 25 1009 88 10000 2.06 330 23:56 22.01.2022
5726 Rain 26 1007 83 10000 3.6 320 22:46 22.01.2022
5727 Rain 26 1008 89 10000 4.12 320 21:36 22.01.2022
5728 Thunderstorm 26 1009 89 10000 4.12 20 19:51 22.01.2022
5729 Clouds 25 1009 94 8000 5.66 20 18:50 22.01.2022
5730 Clouds 32 1010 70 10000 1.54 120 18:18 22.01.2022
5731 Clouds 30 1011 74 10000 2.06 180 17:40 22.01.2022
5732 Clouds 30 1012 74 10000 2.06 170 16:56 22.01.2022
5733 Clouds 29 1012 79 10000 2.06 170 15:50 22.01.2022
5734 Clouds 28 1012 83 10000 2.06 160 14:58 22.01.2022
5735 Clouds 26 1012 94 10000 1.54 170 13:42 22.01.2022
5736 Clouds 26 1011 94 10000 1.54 170 12:50 22.01.2022
5737 Clouds 26 1011 94 10000 1.54 170 12:28 22.01.2022
5738 Rain 26 1009 94 10000 1.03 200 10:56 22.01.2022
5739 Rain 26 1009 94 10000 1.03 200 10:29 22.01.2022
5740 Rain 25 1009 100 10000 0 0 09:58 22.01.2022
5741 Clouds 26 1009 94 10000 1.03 300 08:51 22.01.2022
5742 Rain 26 1010 94 10000 1.03 80 07:34 22.01.2022
5743 Clouds 26 1011 100 10000 1.03 220 04:52 22.01.2022
5744 Clouds 26 1011 100 10000 1.03 220 04:52 22.01.2022
5745 Clouds 27 1009 89 10000 2.57 250 01:34 22.01.2022
5746 Rain 26 1007 94 10000 1.54 110 23:38 21.01.2022
5747 Rain 27 1007 94 10000 1.03 120 22:27 21.01.2022
5748 Clouds 31 1007 74 10000 2.06 80 20:20 21.01.2022
5749 Clouds 31 1010 70 10000 4.12 60 18:39 21.01.2022
5750 Clouds 31 1011 70 10000 3.6 70 17:28 21.01.2022
5751 Clouds 29 1013 84 10000 1.54 140 15:30 21.01.2022
5752 Clouds 27 1012 89 10000 1.54 170 13:29 21.01.2022
5753 Clouds 27 1011 94 10000 1.03 160 12:37 21.01.2022
5754 Clouds 26 1010 94 10000 1.03 130 11:27 21.01.2022
5755 Clouds 24 1010 100 10000 1.03 90 10:19 21.01.2022
5756 Clouds 26 1010 100 10000 1.03 130 08:23 21.01.2022
5757 Clear 26 1011 94 10000 1.03 20 04:49 21.01.2022
5758 Clear 26 1011 94 10000 1.03 20 04:49 21.01.2022
5759 Clouds 27 1007 94 10000 1.03 40 23:31 20.01.2022
5760 Clouds 28 1007 83 4000 2.57 40 22:21 20.01.2022
5761 Clouds 32 1007 62 10000 1.03 80 21:42 20.01.2022
5762 Clouds 32 1008 62 10000 2.06 70 20:43 20.01.2022
5763 Clouds 31 1010 70 10000 3.09 70 19:19 20.01.2022
5764 Clouds 29 1011 74 10000 3.09 80 18:44 20.01.2022
5765 Clouds 28 1013 78 10000 2.06 60 16:58 20.01.2022
5766 Clouds 25 1014 94 10000 3.09 20 15:41 20.01.2022
5767 Clouds 24 1014 94 6000 6.17 50 14:41 20.01.2022
5768 Clouds 26 1013 89 3000 3.09 60 13:33 20.01.2022
5769 Clouds 26 1012 89 10000 2.06 70 12:32 20.01.2022
5770 Clouds 25 1011 94 10000 2.57 60 11:50 20.01.2022
5771 Clear 25 1011 94 10000 1.03 50 10:38 20.01.2022
5772 Clear 25 1011 94 10000 1.54 60 09:36 20.01.2022
5773 Clear 26 1011 94 10000 1.54 90 07:50 20.01.2022
5774 Clouds 28 1010 78 10000 2.06 40 00:44 20.01.2022
5775 Clouds 30 1009 70 10000 2.57 80 22:54 19.01.2022
5776 Clouds 31 1010 66 10000 2.57 80 21:48 19.01.2022
5777 Clouds 31 1010 66 10000 2.57 80 21:23 19.01.2022
5778 Clouds 31 1011 66 10000 2.06 90 20:46 19.01.2022
5779 Clouds 31 1012 66 10000 2.06 70 19:42 19.01.2022
5780 Clouds 30 1013 70 10000 4.12 70 17:55 19.01.2022
5781 Clouds 29 1014 74 10000 4.12 70 17:35 19.01.2022
5782 Clouds 28 1015 78 10000 2.57 70 16:27 19.01.2022
5783 Clouds 26 1015 94 10000 1.54 20 13:42 19.01.2022
5784 Clouds 25 1014 100 10000 1.03 80 12:41 19.01.2022
5785 Clouds 25 1013 100 10000 1.54 120 11:39 19.01.2022
5786 Clouds 25 1012 100 10000 1.03 100 10:20 19.01.2022
5787 Clouds 24 1012 100 10000 1.03 70 09:33 19.01.2022
5788 Clear 24 1012 100 10000 1.54 90 06:35 19.01.2022
5789 Clear 25 1012 88 10000 2.06 10 01:55 19.01.2022
5790 Clouds 26 1010 83 10000 2.06 40 23:19 18.01.2022
5791 Clouds 26 1010 83 10000 3.6 60 22:18 18.01.2022
5792 Rain 27 1011 78 10000 2.57 40 20:55 18.01.2022
5793 Rain 27 1011 78 10000 5.14 50 19:54 18.01.2022
5794 Clouds 31 1011 66 10000 4.63 80 19:35 18.01.2022
5795 Clouds 31 1012 70 10000 1.54 130 18:36 18.01.2022
5796 Clouds 30 1013 74 10000 2.06 80 17:51 18.01.2022
5797 Clouds 30 1014 74 10000 2.06 60 16:35 18.01.2022
5798 Clouds 28 1015 78 10000 1.03 130 15:39 18.01.2022
5799 Clouds 28 1015 78 10000 1.03 130 15:19 18.01.2022
5800 Fog 23 1011 100 10000 2.06 360 11:53 18.01.2022
5801 Fog 23 1010 100 10000 2.06 10 10:43 18.01.2022
5802 Mist 23 1011 100 10000 1.03 20 08:49 18.01.2022
5803 Clouds 24 1011 100 10000 1.54 310 07:46 18.01.2022
5804 Clouds 25 1013 94 10000 1.54 180 02:31 18.01.2022
5805 Clouds 25 1010 94 10000 1.03 70 23:22 17.01.2022
5806 Clouds 25 1010 94 10000 1.03 90 22:19 17.01.2022
5807 Clouds 25 1010 88 10000 1.54 50 21:32 17.01.2022
5808 Clouds 23 1012 100 8000 1.03 70 19:51 17.01.2022
5809 Thunderstorm 23 1014 100 4000 1.54 160 18:28 17.01.2022
5810 Thunderstorm 23 1015 100 4000 1.03 90 17:24 17.01.2022
5811 Thunderstorm 22 1015 100 5000 3.09 70 16:27 17.01.2022
5812 Thunderstorm 24 1015 94 1000 6.17 80 14:59 17.01.2022
5813 Rain 25 1013 100 5000 3.09 170 14:33 17.01.2022
5814 Clouds 26 1013 94 10000 1.54 180 13:20 17.01.2022
5815 Clouds 25 1012 100 10000 1.54 240 12:52 17.01.2022
5816 Clouds 25 1011 94 10000 1.03 280 11:47 17.01.2022
5817 Clouds 25 1011 100 10000 1.03 300 10:21 17.01.2022
5818 Clouds 26 1010 83 10000 1.54 260 08:44 17.01.2022
5819 Clear 26 1011 83 10000 2.06 290 07:22 17.01.2022
5820 Rain 28 1011 74 10000 2.57 340 02:20 17.01.2022
5821 Rain 27 1010 78 10000 2.57 30 00:43 17.01.2022
5822 Clouds 32 1008 66 10000 2.06 70 21:26 16.01.2022
5823 Clouds 32 1009 62 10000 2.06 80 20:30 16.01.2022
5824 Clouds 31 1012 66 10000 2.06 100 18:48 16.01.2022
5825 Clouds 30 1013 70 10000 2.06 80 17:51 16.01.2022
5826 Clouds 30 1013 70 10000 2.06 80 16:55 16.01.2022
5827 Clouds 29 1015 79 10000 1.54 80 15:43 16.01.2022
5828 Clouds 27 1015 83 10000 1.03 180 14:29 16.01.2022
5829 Clouds 25 1014 94 10000 1.54 170 13:33 16.01.2022
5830 Clouds 25 1013 94 10000 1.54 170 12:21 16.01.2022
5831 Clouds 24 1012 100 10000 1.03 170 11:27 16.01.2022
5832 Clouds 25 1012 94 10000 1.54 170 10:27 16.01.2022
5833 Clouds 25 1012 94 10000 1.54 170 09:57 16.01.2022
5834 Clouds 25 1012 94 10000 2.06 170 09:23 16.01.2022
5835 Clear 25 1011 94 10000 0 0 08:53 16.01.2022
5836 Clear 25 1013 100 10000 1.03 130 06:35 16.01.2022
5837 Clouds 26 1011 83 10000 1.54 50 00:19 16.01.2022
5838 Thunderstorm 26 1010 89 10000 3.09 30 22:49 15.01.2022
5839 Rain 29 1010 74 10000 3.6 360 21:21 15.01.2022
5840 Clouds 32 1010 66 10000 2.06 70 20:44 15.01.2022
5841 Clouds 32 1010 66 10000 2.06 70 20:18 15.01.2022
5842 Clouds 32 1012 66 10000 1.54 130 19:25 15.01.2022
5843 Clouds 31 1017 70 10000 1.54 90 17:52 15.01.2022
5844 Clouds 29 1015 79 10000 1.54 100 16:43 15.01.2022
5845 Clouds 26 1015 94 10000 2.06 170 14:32 15.01.2022
5846 Mist 25 1014 94 10000 1.03 210 12:38 15.01.2022
5847 Mist 24 1012 100 10000 1.03 230 11:20 15.01.2022
5848 Clouds 24 1012 100 10000 0.51 20 09:35 15.01.2022
5849 Rain 26 1013 89 10000 1.54 350 01:25 15.01.2022
5850 Clouds 26 1011 83 10000 2.06 70 21:57 14.01.2022
5851 Clouds 26 1012 89 10000 2.06 20 20:54 14.01.2022
5852 Clouds 25 1013 94 10000 1.54 350 20:23 14.01.2022
5853 Clouds 24 1014 94 10000 1.03 80 19:49 14.01.2022
5854 Rain 24 1015 100 8000 1.03 80 18:33 14.01.2022
5855 Thunderstorm 23 1017 100 5000 3.6 70 16:51 14.01.2022
5856 Thunderstorm 23 1017 100 5000 3.6 70 16:33 14.01.2022
5857 Rain 23 1017 100 4000 3.09 70 14:49 14.01.2022
5858 Rain 23 1015 100 4000 1.03 170 13:48 14.01.2022
5859 Thunderstorm 23 1015 100 3000 4.63 260 12:34 14.01.2022
5860 Clouds 24 1013 100 1000 4.12 210 11:29 14.01.2022
5861 Clouds 24 1012 100 10000 1.54 30 09:51 14.01.2022
5862 Clouds 24 1012 100 10000 1.54 70 08:52 14.01.2022
5863 Rain 24 1012 100 9000 1.03 130 07:21 14.01.2022
5864 Clear 27 1011 83 10000 1.54 20 01:37 14.01.2022
5865 Clouds 28 1010 78 10000 2.57 80 23:36 13.01.2022
5866 Clouds 29 1009 79 10000 1.54 90 21:41 13.01.2022
5867 Clouds 29 1009 79 10000 1.54 90 21:23 13.01.2022
5868 Clouds 30 1011 74 10000 2.57 80 19:41 13.01.2022
5869 Clouds 30 1011 74 10000 2.57 80 19:22 13.01.2022
5870 Clouds 29 1013 79 10000 3.09 70 17:54 13.01.2022
5871 Clouds 28 1014 78 10000 4.63 60 16:22 13.01.2022
5872 Clouds 27 1014 89 10000 4.12 60 15:37 13.01.2022
5873 Clouds 26 1014 94 10000 3.6 70 14:49 13.01.2022
5874 Clouds 25 1012 100 10000 2.06 70 12:46 13.01.2022
5875 Clouds 25 1011 94 10000 0.51 220 10:25 13.01.2022
5876 Clouds 25 1011 94 10000 2.57 80 09:20 13.01.2022
5877 Clouds 25 1011 94 10000 1.03 50 08:27 13.01.2022
5878 Clouds 25 1011 100 10000 1.03 160 07:24 13.01.2022
5879 Clouds 25 1011 100 10000 1.03 160 05:59 13.01.2022
5880 Clouds 25 1012 100 10000 0 0 05:19 13.01.2022
5881 Clouds 25 1011 100 10000 0 0 02:33 13.01.2022
5882 Clouds 26 1010 89 10000 1.54 20 00:55 13.01.2022
5883 Clouds 26 1009 94 10000 1.54 240 23:49 12.01.2022
5884 Clouds 26 1009 94 10000 1.54 240 23:49 12.01.2022
5885 Clouds 26 1009 94 10000 1.54 240 23:20 12.01.2022
5886 Rain 25 1009 94 10000 1.03 140 21:57 12.01.2022
5887 Rain 25 1008 94 10000 1.54 90 21:23 12.01.2022
5888 Clouds 26 1010 89 10000 6.69 360 20:56 12.01.2022
5889 Clouds 26 1009 89 5000 3.09 20 19:45 12.01.2022
5890 Clouds 31 1011 66 10000 2.57 70 18:42 12.01.2022
5891 Clouds 31 1012 66 10000 1.03 100 17:38 12.01.2022
5892 Clouds 29 1013 70 10000 2.06 80 16:33 12.01.2022
5893 Clouds 28 1013 74 10000 3.6 70 14:48 12.01.2022
5894 Clouds 27 1013 89 10000 2.57 60 13:24 12.01.2022
5895 Clouds 25 1011 94 10000 1.54 90 10:56 12.01.2022
5896 Clouds 24 1010 100 10000 1.03 110 08:43 12.01.2022
5897 Clouds 25 1011 94 10000 1.54 80 07:50 12.01.2022
5898 Clouds 25 1011 94 10000 1.54 80 07:31 12.01.2022
5899 Rain 28 1009 83 10000 2.06 240 23:53 11.01.2022
5900 Clouds 29 1009 79 10000 2.57 230 22:56 11.01.2022
5901 Clouds 29 1009 79 10000 2.57 230 22:23 11.01.2022
5902 Clouds 30 1009 74 10000 3.09 230 20:56 11.01.2022
5903 Rain 30 1009 74 10000 2.57 240 20:20 11.01.2022
5904 Clouds 31 1011 66 10000 4.63 250 18:32 11.01.2022
5905 Clouds 31 1012 66 10000 4.12 250 17:26 11.01.2022
5906 Clouds 29 1013 70 10000 3.09 240 16:38 11.01.2022
5907 Clouds 31 1013 66 10000 1.03 70 15:47 11.01.2022
5908 Clear 30 1013 66 10000 0.51 360 14:42 11.01.2022
5909 Clear 30 1013 66 10000 0.51 360 13:56 11.01.2022
5910 Clear 28 1012 78 10000 0 0 13:36 11.01.2022
5911 Clear 27 1011 83 10000 1.54 30 12:48 11.01.2022
5912 Clear 25 1010 94 10000 1.03 10 11:45 11.01.2022
5913 Clear 25 1009 94 10000 0.51 50 09:39 11.01.2022
5914 Clear 26 1010 83 10000 1.03 60 07:18 11.01.2022
5915 Clouds 29 1009 70 10000 2.57 70 00:32 11.01.2022
5916 Clouds 30 1008 66 10000 1.54 80 23:43 10.01.2022
5917 Clouds 30 1008 66 10000 1.54 80 23:24 10.01.2022
5918 Clouds 31 1008 62 10000 1.03 80 22:19 10.01.2022
5919 Clouds 33 1008 52 10000 1.03 60 21:54 10.01.2022
5920 Clouds 33 1008 52 10000 1.03 60 21:20 10.01.2022
5921 Clouds 32 1009 55 10000 2.06 140 20:57 10.01.2022
5922 Clouds 32 1009 55 10000 2.06 140 20:28 10.01.2022
5923 Clouds 32 1010 58 10000 3.09 170 19:44 10.01.2022
5924 Clouds 32 1010 58 10000 3.09 170 19:21 10.01.2022
5925 Clouds 31 1011 66 10000 1.54 90 18:49 10.01.2022
5926 Clouds 31 1012 66 10000 1.54 80 17:42 10.01.2022
5927 Clouds 31 1013 66 10000 1.54 120 16:42 10.01.2022
5928 Clouds 29 1013 74 10000 1.54 80 15:49 10.01.2022
5929 Clouds 28 1013 83 10000 2.06 70 14:34 10.01.2022
5930 Clouds 26 1012 94 10000 1.03 80 12:18 10.01.2022
5931 Clouds 25 1011 94 10000 1.03 20 11:25 10.01.2022
5932 Clear 25 1010 94 10000 0 0 09:52 10.01.2022
5933 Clear 24 1011 100 10000 0 0 07:31 10.01.2022
5934 Clear 25 1012 94 10000 0.51 110 05:49 10.01.2022
5935 Clear 26 1011 89 10000 0.51 150 01:31 10.01.2022
5936 Clouds 27 1011 83 10000 1.54 200 00:25 10.01.2022
5937 Clouds 28 1011 78 10000 1.54 180 23:40 09.01.2022
5938 Clouds 29 1010 70 10000 1.54 180 22:38 09.01.2022
5939 Clouds 28 1011 74 10000 2.06 180 21:46 09.01.2022
5940 Clouds 28 1011 74 10000 2.06 180 21:24 09.01.2022
5941 Clouds 29 1011 70 10000 2.06 200 20:52 09.01.2022
5942 Clouds 29 1011 70 10000 2.06 200 20:34 09.01.2022
5943 Clouds 28 1012 74 10000 2.06 190 19:45 09.01.2022
5944 Clouds 28 1012 74 10000 2.06 190 19:23 09.01.2022
5945 Clouds 28 1012 74 10000 2.06 190 18:56 09.01.2022
5946 Clouds 28 1013 78 10000 2.06 190 18:34 09.01.2022
5947 Clouds 27 1014 78 10000 1.54 180 17:40 09.01.2022
5948 Clouds 27 1014 78 10000 1.54 180 17:20 09.01.2022
5949 Clouds 27 1015 78 10000 1.54 140 15:58 09.01.2022
5950 Clouds 27 1015 78 10000 1.54 140 15:35 09.01.2022
5951 Clouds 25 1015 88 10000 1.54 150 14:40 09.01.2022
5952 Clouds 25 1014 88 10000 1.54 180 13:51 09.01.2022
5953 Clouds 25 1014 88 10000 1.54 180 13:22 09.01.2022
5954 Clouds 24 1014 94 10000 1.54 170 11:55 09.01.2022
5955 Clouds 24 1013 100 10000 1.54 160 10:53 09.01.2022
5956 Clouds 24 1012 94 10000 0 0 09:50 09.01.2022
5957 Clouds 23 1012 100 10000 0.51 80 08:52 09.01.2022
5958 Clouds 24 1014 88 10000 1.03 50 05:38 09.01.2022
5959 Clouds 25 1012 83 10000 2.06 330 01:24 09.01.2022
5960 Clouds 25 1011 78 10000 4.12 350 23:47 08.01.2022
5961 Rain 25 1011 78 10000 4.12 350 23:26 08.01.2022
5962 Clouds 25 1011 78 10000 6.69 360 22:30 08.01.2022
5963 Clouds 26 1011 78 10000 6.17 360 21:26 08.01.2022
5964 Clouds 26 1011 78 10000 7.2 10 20:42 08.01.2022
5965 Clouds 26 1011 78 10000 7.2 10 20:21 08.01.2022
5966 Clouds 25 1013 88 5000 5.66 360 18:45 08.01.2022
5967 Clouds 25 1013 88 8000 5.14 10 17:22 08.01.2022
5968 Clouds 27 1014 78 10000 4.12 20 15:58 08.01.2022
5969 Clouds 26 1014 83 10000 3.6 10 14:46 08.01.2022
5970 Clouds 25 1013 88 10000 2.57 360 13:29 08.01.2022
5971 Clouds 24 1011 94 10000 2.57 340 11:28 08.01.2022
5972 Clouds 23 1010 94 10000 2.57 330 10:30 08.01.2022
5973 Fog 23 1010 94 10000 2.06 320 09:48 08.01.2022
5974 Fog 23 1010 94 10000 2.06 320 09:28 08.01.2022
5975 Clouds 24 1012 88 10000 2.57 30 03:44 08.01.2022
5976 Rain 25 1010 94 10000 3.6 30 00:57 08.01.2022
5977 Clouds 25 1009 94 10000 1.54 40 22:54 07.01.2022
5978 Clouds 24 1009 100 10000 1.54 180 21:21 07.01.2022
5979 Rain 24 1010 100 5000 2.57 230 20:20 07.01.2022
5980 Rain 25 1011 88 1000 5.14 280 19:25 07.01.2022
5981 Rain 26 1012 89 9000 1.54 350 18:45 07.01.2022
5982 Rain 26 1012 94 7000 2.57 50 17:28 07.01.2022
5983 Clouds 27 1013 83 10000 2.06 40 16:41 07.01.2022
5984 Rain 25 1013 100 8000 1.03 80 14:37 07.01.2022
5985 Rain 25 1012 94 7000 2.06 80 13:41 07.01.2022
5986 Rain 25 1012 94 2000 3.09 70 12:50 07.01.2022
5987 Clouds 26 1008 89 10000 1.54 90 09:46 07.01.2022
5988 Clouds 28 1010 78 10000 2.06 80 02:57 07.01.2022
5989 Clouds 28 1010 78 10000 2.06 80 02:19 07.01.2022
5990 Clouds 25 1009 100 10000 1.03 80 01:41 07.01.2022
5991 Clouds 25 1009 100 10000 1.03 80 01:20 07.01.2022
5992 Clouds 27 1008 83 10000 2.06 220 00:28 07.01.2022
5993 Clouds 31 1007 58 10000 3.09 10 21:39 06.01.2022
5994 Clouds 33 1007 55 10000 2.06 10 20:25 06.01.2022
5995 Clouds 32 1008 51 10000 4.12 360 19:45 06.01.2022
5996 Clouds 33 1009 55 10000 3.6 40 18:59 06.01.2022
5997 Clouds 31 1011 58 10000 4.12 20 17:42 06.01.2022
5998 Clouds 31 1011 58 10000 4.12 20 17:42 06.01.2022
5999 Clouds 31 1011 58 10000 4.12 20 16:58 06.01.2022
6000 Clear 32 1012 58 10000 2.57 40 15:49 06.01.2022
6001 Clear 32 1012 58 10000 2.57 40 15:27 06.01.2022
6002 Clear 29 1012 70 10000 2.57 30 14:55 06.01.2022
6003 Clear 29 1012 70 10000 2.57 30 14:19 06.01.2022
6004 Clear 28 1011 74 10000 3.09 40 12:56 06.01.2022
6005 Clear 26 1009 83 10000 1.54 40 11:43 06.01.2022
6006 Clear 26 1009 83 10000 1.54 40 11:23 06.01.2022
6007 Clear 27 1008 83 10000 0.51 120 08:59 06.01.2022
6008 Clear 28 1009 69 10000 1.54 40 01:37 06.01.2022
6009 Clouds 30 1007 66 10000 1.54 40 23:40 05.01.2022
6010 Clouds 30 1007 66 10000 1.54 40 22:59 05.01.2022
6011 Clouds 32 1006 58 10000 1.54 50 22:33 05.01.2022
6012 Clouds 31 1007 62 10000 1.03 90 21:52 05.01.2022
6013 Clouds 31 1007 62 10000 1.03 90 21:21 05.01.2022
6014 Clouds 30 1007 70 10000 1.54 90 20:19 05.01.2022
6015 Clouds 31 1010 66 10000 1.54 70 18:50 05.01.2022
6016 Clouds 31 1011 58 10000 3.09 70 17:44 05.01.2022
6017 Clouds 31 1011 58 10000 4.12 40 16:51 05.01.2022
6018 Clouds 30 1009 62 10000 4.12 20 15:43 05.01.2022
6019 Clouds 28 1009 74 10000 3.09 30 14:24 05.01.2022
6020 Clouds 26 1011 83 10000 2.06 60 13:25 05.01.2022
6021 Clear 25 1009 88 10000 2.57 40 11:36 05.01.2022
6022 Clear 26 1009 89 10000 2.06 70 07:47 05.01.2022
6023 Clear 26 1009 83 10000 2.57 50 06:25 05.01.2022
6024 Clouds 28 1008 74 10000 2.06 70 00:59 05.01.2022
6025 Clouds 29 1007 70 10000 2.06 80 23:28 04.01.2022
6026 Clouds 30 1007 66 10000 2.57 70 22:55 04.01.2022
6027 Clouds 31 1007 66 10000 1.54 70 21:31 04.01.2022
6028 Clouds 30 1009 66 10000 3.09 80 19:20 04.01.2022
6029 Clouds 31 1009 66 10000 3.09 70 17:52 04.01.2022
6030 Clouds 30 1011 70 10000 3.09 60 16:44 04.01.2022
6031 Clouds 30 1011 70 10000 3.09 60 16:24 04.01.2022
6032 Clouds 29 1012 74 10000 3.09 60 14:54 04.01.2022
6033 Clouds 27 1012 83 10000 3.09 70 14:34 04.01.2022
6034 Clouds 27 1012 83 10000 3.09 60 13:27 04.01.2022
6035 Clear 25 1010 88 10000 2.06 60 10:41 04.01.2022
6036 Clear 25 1009 88 10000 1.54 30 09:20 04.01.2022
6037 Clear 26 1009 83 10000 2.06 20 08:32 04.01.2022
6038 Clear 29 1011 70 10000 2.57 20 02:32 04.01.2022
6039 Clouds 29 1009 70 10000 1.54 30 00:41 04.01.2022
6040 Clouds 30 1008 70 10000 2.57 30 23:26 03.01.2022
6041 Clouds 31 1008 62 10000 3.09 10 21:52 03.01.2022
6042 Clouds 31 1008 62 10000 3.09 10 21:33 03.01.2022
6043 Clouds 32 1009 58 10000 2.57 360 20:22 03.01.2022
6044 Clouds 30 1012 70 10000 3.6 20 18:54 03.01.2022
6045 Clouds 30 1012 70 10000 3.6 20 18:28 03.01.2022
6046 Clouds 30 1013 66 10000 3.6 10 16:58 03.01.2022
6047 Clouds 29 1014 70 10000 3.6 10 15:39 03.01.2022
6048 Clouds 28 1013 74 10000 2.06 20 14:30 03.01.2022
6049 Clear 26 1012 89 10000 1.03 310 12:46 03.01.2022
6050 Clouds 25 1011 94 10000 0.51 20 11:35 03.01.2022
6051 Clouds 26 1012 89 10000 2.06 20 10:36 03.01.2022
6052 Clear 25 1012 88 10000 2.57 30 08:47 03.01.2022
6053 Clear 26 1011 83 10000 1.54 20 07:34 03.01.2022
6054 Clouds 28 1010 78 10000 2.06 30 23:56 02.01.2022
6055 Clouds 29 1010 70 10000 1.54 30 23:22 02.01.2022
6056 Clouds 29 1009 70 10000 2.57 10 22:53 02.01.2022
6057 Clouds 31 1009 66 10000 3.09 30 21:42 02.01.2022
6058 Clouds 30 1009 66 10000 3.6 50 20:33 02.01.2022
6059 Clouds 29 1010 84 10000 1.54 70 19:55 02.01.2022
6060 Clouds 29 1010 84 10000 1.54 70 19:30 02.01.2022
6061 Clouds 31 1011 66 10000 3.6 40 18:46 02.01.2022
6062 Clouds 31 1011 66 10000 3.6 40 17:54 02.01.2022
6063 Clouds 30 1012 74 10000 2.06 70 17:36 02.01.2022
6064 Clouds 30 1012 74 10000 2.06 70 17:18 02.01.2022
6065 Clouds 30 1013 66 10000 3.6 30 16:25 02.01.2022
6066 Clouds 29 1013 74 10000 3.6 40 14:22 02.01.2022
6067 Clear 25 1011 94 10000 1.54 50 12:49 02.01.2022
6068 Clear 25 1011 94 10000 1.54 50 11:58 02.01.2022
6069 Clear 24 1010 94 10000 1.54 20 11:26 02.01.2022
6070 Clear 25 1009 88 10000 2.06 300 10:45 02.01.2022
6071 Clear 25 1009 94 10000 1.03 30 08:46 02.01.2022
6072 Clouds 26 1011 89 10000 1.03 50 03:49 02.01.2022
6073 Rain 28 1009 78 10000 1.54 340 00:58 02.01.2022
6074 Clouds 28 1009 78 10000 2.57 20 23:39 01.01.2022
6075 Clouds 28 1009 78 10000 2.57 20 23:39 01.01.2022
6076 Clouds 28 1009 78 10000 2.57 20 22:55 01.01.2022
6077 Clouds 29 1008 74 10000 3.6 30 22:21 01.01.2022
6078 Clouds 28 1009 78 10000 2.57 40 21:43 01.01.2022
6079 Rain 28 1009 74 10000 4.12 60 20:53 01.01.2022
6080 Clouds 28 1009 74 10000 4.12 60 19:55 01.01.2022
6081 Clouds 28 1011 78 10000 5.14 10 18:58 01.01.2022
6082 Clouds 28 1011 78 10000 5.14 10 17:58 01.01.2022
6083 Clouds 29 1012 79 10000 4.63 30 16:37 01.01.2022
6084 Clouds 29 1012 79 10000 4.63 30 16:19 01.01.2022
6085 Clouds 27 1013 83 10000 3.09 60 15:22 01.01.2022
6086 Clouds 24 1012 100 10000 3.09 30 13:46 01.01.2022
6087 Clouds 24 1012 100 10000 3.09 30 13:46 01.01.2022
6088 Rain 23 1012 100 4000 2.57 50 12:49 01.01.2022
6089 Rain 23 1011 100 3000 3.6 50 11:51 01.01.2022
6090 Rain 23 1011 100 3000 3.6 50 11:22 01.01.2022
6091 Rain 24 1010 100 5000 2.57 60 10:26 01.01.2022
6092 Clouds 25 1009 100 10000 1.03 20 09:41 01.01.2022
6093 Clouds 25 1009 100 10000 1.54 20 08:25 01.01.2022
6094 Mist 25 1010 100 10000 1.03 60 07:43 01.01.2022
6095 Fog 25 1010 100 10000 1.03 160 06:46 01.01.2022
6096 Clouds 25 1011 100 10000 1.03 80 05:26 01.01.2022
6097 Clouds 25 1011 100 10000 1.03 110 04:37 01.01.2022
6098 Clouds 24 1010 100 8000 1.03 120 01:28 01.01.2022
6099 Clouds 29 1008 74 10000 1.54 270 23:35 31.12.2021
6100 Clouds 31 1007 62 10000 3.09 260 21:52 31.12.2021
6101 Clouds 31 1008 62 10000 3.09 340 20:33 31.12.2021
6102 Clouds 30 1009 74 10000 2.57 240 19:30 31.12.2021
6103 Clouds 29 1010 70 10000 1.54 260 18:32 31.12.2021
6104 Clouds 28 1011 78 10000 2.06 220 17:38 31.12.2021
6105 Clouds 28 1011 78 10000 2.06 220 17:18 31.12.2021
6106 Clouds 27 1012 83 9000 1.03 170 16:24 31.12.2021
6107 Clouds 26 1013 89 10000 1.54 210 15:56 31.12.2021
6108 Clouds 26 1013 89 10000 1.54 210 15:28 31.12.2021
6109 Clouds 26 1012 89 10000 1.03 90 14:47 31.12.2021
6110 Clouds 26 1012 89 10000 1.03 90 14:28 31.12.2021
6111 Clouds 25 1012 94 10000 1.03 170 13:36 31.12.2021
6112 Clouds 24 1011 100 10000 0.51 190 12:45 31.12.2021
6113 Clouds 24 1010 100 10000 1.54 170 11:43 31.12.2021
6114 Clouds 24 1010 100 10000 1.54 170 11:24 31.12.2021
6115 Clouds 24 1009 100 10000 1.03 170 10:34 31.12.2021
6116 Clouds 24 1008 100 10000 1.54 190 09:52 31.12.2021
6117 Clouds 24 1008 100 10000 1.54 190 09:32 31.12.2021
6118 Clouds 24 1008 100 10000 1.03 200 08:27 31.12.2021
6119 Clouds 23 1008 100 10000 1.03 100 07:30 31.12.2021
6120 Clouds 25 1010 94 10000 2.06 310 23:23 30.12.2021
6121 Clouds 25 1010 94 10000 3.09 260 22:33 30.12.2021
6122 Clouds 25 1010 94 10000 3.09 260 22:33 30.12.2021
6123 Rain 25 1010 94 10000 3.09 260 21:56 30.12.2021
6124 Rain 24 1010 100 9000 2.57 240 21:36 30.12.2021
6125 Rain 24 1010 94 9000 3.09 280 20:46 30.12.2021
6126 Rain 24 1010 94 9000 3.09 280 20:25 30.12.2021
6127 Rain 24 1010 100 5000 1.03 290 19:45 30.12.2021
6128 Rain 24 1011 94 5000 0.51 90 18:45 30.12.2021
6129 Thunderstorm 24 1011 94 3000 2.57 360 18:18 30.12.2021
6130 Rain 25 1012 100 3000 3.09 260 16:19 30.12.2021
6131 Rain 26 1012 89 10000 2.06 290 15:51 30.12.2021
6132 Clouds 25 1011 94 10000 2.06 340 14:39 30.12.2021
6133 Clouds 25 1012 100 5000 4.12 10 13:49 30.12.2021
6134 Clouds 26 1010 89 10000 1.54 290 12:40 30.12.2021
6135 Clear 26 1010 83 10000 2.57 330 10:58 30.12.2021
6136 Clear 27 1009 83 10000 1.54 260 09:58 30.12.2021
6137 Clear 26 1008 94 10000 2.06 280 08:58 30.12.2021
6138 Clear 26 1011 94 10000 0 0 06:52 30.12.2021
6139 Clouds 26 1011 89 9000 1.03 350 03:43 30.12.2021
6140 Clouds 26 1010 89 10000 2.57 80 02:47 30.12.2021
6141 Clouds 29 1007 74 10000 1.54 30 23:50 29.12.2021
6142 Rain 29 1007 74 10000 1.54 30 23:23 29.12.2021
6143 Clouds 31 1007 62 10000 2.06 30 22:21 29.12.2021
6144 Clouds 30 1007 79 10000 4.12 40 21:43 29.12.2021
6145 Rain 30 1007 74 10000 1.54 60 20:39 29.12.2021
6146 Clouds 31 1009 66 10000 2.06 340 19:48 29.12.2021
6147 Clouds 32 1010 66 10000 1.54 80 18:52 29.12.2021
6148 Clouds 32 1010 66 10000 1.54 80 17:56 29.12.2021
6149 Clouds 32 1011 66 10000 3.09 70 17:28 29.12.2021
6150 Clouds 31 1011 70 10000 3.09 70 16:41 29.12.2021
6151 Clouds 31 1011 70 10000 3.09 70 15:59 29.12.2021
6152 Clouds 29 1012 79 10000 3.6 70 14:24 29.12.2021
6153 Clear 26 1011 94 10000 2.57 60 12:39 29.12.2021
6154 Clear 25 1011 94 10000 2.57 60 11:43 29.12.2021
6155 Clear 25 1010 94 10000 2.57 50 09:59 29.12.2021
6156 Clear 25 1010 94 10000 1.54 60 07:52 29.12.2021
6157 Clear 25 1010 94 10000 1.54 60 07:52 29.12.2021
6158 Clear 26 1011 89 10000 2.06 40 06:40 29.12.2021
6159 Clear 26 1011 89 10000 2.06 40 06:22 29.12.2021
6160 Clear 26 1011 83 10000 3.09 60 05:39 29.12.2021
6161 Clear 27 1011 78 10000 3.09 20 02:48 29.12.2021
6162 Clouds 28 1009 74 10000 2.06 30 00:23 29.12.2021
6163 Clouds 29 1009 74 10000 2.57 40 23:35 28.12.2021
6164 Clouds 30 1008 70 10000 2.57 30 22:42 28.12.2021
6165 Clouds 30 1008 70 10000 2.57 30 22:24 28.12.2021
6166 Clouds 31 1008 70 10000 2.57 90 21:38 28.12.2021
6167 Clouds 31 1009 70 10000 1.54 140 20:40 28.12.2021
6168 Clouds 32 1010 70 10000 1.54 320 19:31 28.12.2021
6169 Clouds 31 1011 70 10000 2.06 80 18:41 28.12.2021
6170 Clouds 31 1011 70 10000 2.06 80 17:59 28.12.2021
6171 Clouds 29 1012 74 10000 1.54 90 16:34 28.12.2021
6172 Clouds 27 1013 83 10000 1.54 80 15:50 28.12.2021
6173 Clouds 27 1013 83 10000 1.54 80 15:22 28.12.2021
6174 Clouds 26 1013 83 10000 1.54 80 14:50 28.12.2021
6175 Clouds 26 1013 83 10000 1.54 80 14:21 28.12.2021
6176 Clouds 24 1012 100 10000 1.03 70 13:42 28.12.2021
6177 Clouds 24 1012 100 10000 1.03 70 13:24 28.12.2021
6178 Clouds 23 1012 100 10000 0.51 70 12:49 28.12.2021
6179 Clouds 23 1011 100 10000 0 0 11:46 28.12.2021
6180 Clouds 23 1009 94 10000 1.03 250 08:35 28.12.2021
6181 Clouds 23 1009 94 10000 1.03 250 06:42 28.12.2021
6182 Clouds 23 1008 100 10000 1.54 70 23:44 27.12.2021
6183 Clouds 23 1008 100 10000 1.54 70 23:24 27.12.2021
6184 Rain 23 1008 94 10000 2.57 80 21:42 27.12.2021
6185 Rain 23 1008 94 10000 2.57 80 21:21 27.12.2021
6186 Rain 23 1008 100 10000 3.09 50 20:23 27.12.2021
6187 Rain 23 1010 100 8000 3.09 20 19:41 27.12.2021
6188 Rain 23 1011 94 5000 2.06 340 18:34 27.12.2021
6189 Rain 23 1013 94 4000 2.06 10 17:48 27.12.2021
6190 Rain 23 1003 94 400 2.06 30 16:40 27.12.2021
6191 Rain 22 1013 100 5000 2.57 20 15:52 27.12.2021
6192 Thunderstorm 22 1014 94 800 6.17 190 14:33 27.12.2021
6193 Clear 28 1011 83 10000 2.57 30 13:39 27.12.2021
6194 Clear 27 1010 89 10000 2.06 30 12:36 27.12.2021
6195 Clear 27 1009 89 10000 2.06 20 10:31 27.12.2021
6196 Clouds 26 1009 89 10000 1.54 360 09:47 27.12.2021
6197 Clear 27 1008 89 10000 1.54 30 07:50 27.12.2021
6198 Clear 27 1008 89 10000 1.54 30 07:29 27.12.2021
6199 Clear 27 1010 89 10000 2.06 40 02:21 27.12.2021
6200 Clouds 28 1008 78 10000 3.09 20 23:58 26.12.2021
6201 Clouds 30 1008 70 10000 3.09 10 23:38 26.12.2021
6202 Clouds 31 1007 66 10000 2.57 20 22:34 26.12.2021
6203 Clouds 31 1007 70 10000 3.09 340 20:59 26.12.2021
6204 Clouds 30 1009 74 10000 2.06 230 19:47 26.12.2021
6205 Clouds 32 1010 62 10000 1.54 20 18:24 26.12.2021
6206 Clouds 32 1011 62 10000 3.09 350 17:24 26.12.2021
6207 Clouds 29 1012 74 10000 4.63 40 14:29 26.12.2021
6208 Clear 28 1012 78 10000 3.09 30 13:40 26.12.2021
6209 Clear 28 1012 78 10000 3.09 30 13:20 26.12.2021
6210 Clear 25 1011 94 10000 2.06 30 12:33 26.12.2021
6211 Clear 25 1010 94 10000 1.03 340 10:42 26.12.2021
6212 Clear 25 1010 88 10000 1.54 30 09:26 26.12.2021
6213 Clear 25 1010 94 10000 2.57 10 08:44 26.12.2021
6214 Clear 25 1010 94 10000 2.57 10 07:58 26.12.2021
6215 Clear 26 1010 94 10000 1.03 100 01:30 26.12.2021
6216 Clouds 27 1009 83 10000 1.03 90 23:58 25.12.2021
6217 Clouds 29 1008 74 10000 2.57 30 23:27 25.12.2021
6218 Clouds 30 1008 70 10000 3.09 40 22:28 25.12.2021
6219 Clouds 31 1008 66 10000 2.57 20 21:00 25.12.2021
6220 Clouds 29 1009 84 10000 1.54 50 19:28 25.12.2021
6221 Rain 28 1011 83 10000 1.03 120 18:56 25.12.2021
6222 Rain 28 1012 83 10000 1.54 160 17:38 25.12.2021
6223 Rain 28 1013 83 10000 1.54 170 16:41 25.12.2021
6224 Clouds 27 1013 83 10000 0.51 180 15:26 25.12.2021
6225 Clouds 25 1012 94 10000 1.03 10 13:41 25.12.2021
6226 Clouds 25 1010 94 10000 1.54 120 11:53 25.12.2021
6227 Mist 24 1009 100 4000 1.54 20 09:57 25.12.2021
6228 Mist 24 1009 100 4000 1.54 20 09:37 25.12.2021
6229 Rain 25 1012 94 10000 1.54 10 04:36 25.12.2021
6230 Rain 24 1010 100 10000 1.03 50 01:27 25.12.2021
6231 Thunderstorm 24 1009 94 7000 1.54 330 23:47 24.12.2021
6232 Clouds 30 1009 74 10000 2.06 200 19:50 24.12.2021
6233 Rain 30 1009 74 10000 2.06 200 19:24 24.12.2021
6234 Clouds 30 1011 74 10000 3.09 250 16:59 24.12.2021
6235 Clouds 29 1012 79 10000 3.09 270 16:23 24.12.2021
6236 Clouds 28 1012 83 10000 2.57 260 15:48 24.12.2021
6237 Clouds 28 1012 83 10000 2.57 260 15:19 24.12.2021
6238 Clouds 27 1013 89 10000 1.54 300 14:31 24.12.2021
6239 Clouds 26 1012 100 10000 1.54 310 13:42 24.12.2021
6240 Mist 26 1011 94 8000 1.54 260 12:49 24.12.2021
6241 Fog 26 1011 94 8000 1.54 260 12:21 24.12.2021
6242 Fog 26 1010 100 7000 1.54 240 11:40 24.12.2021
6243 Fog 26 1010 100 7000 1.54 240 11:18 24.12.2021
6244 Fog 26 1010 94 10000 1.03 300 10:33 24.12.2021
6245 Fog 26 1010 94 10000 1.54 230 08:36 24.12.2021
6246 Fog 26 1010 94 10000 1.54 230 07:58 24.12.2021
6247 Clear 25 1010 100 10000 1.54 10 06:18 24.12.2021
6248 Rain 26 1009 94 10000 1.03 310 00:20 24.12.2021
6249 Rain 26 1008 94 10000 1.03 30 23:33 23.12.2021
6250 Rain 26 1009 94 10000 1.03 10 22:44 23.12.2021
6251 Rain 26 1009 94 10000 1.03 10 22:22 23.12.2021
6252 Rain 26 1009 94 10000 1.54 300 21:38 23.12.2021
6253 Thunderstorm 25 1010 94 3000 3.09 20 20:21 23.12.2021
6254 Thunderstorm 28 1010 89 3000 1.03 170 19:27 23.12.2021
6255 Rain 28 1012 83 10000 2.57 180 17:58 23.12.2021
6256 Rain 28 1012 83 10000 1.54 180 17:18 23.12.2021
6257 Rain 27 1013 89 10000 2.57 230 16:26 23.12.2021
6258 Clouds 27 1013 89 10000 1.03 180 15:32 23.12.2021
6259 Rain 27 1013 94 10000 1.03 170 14:56 23.12.2021
6260 Rain 27 1013 94 10000 1.03 170 14:38 23.12.2021
6261 Clouds 26 1011 94 10000 2.06 170 13:23 23.12.2021
6262 Rain 25 1010 100 10000 1.03 210 10:54 23.12.2021
6263 Clouds 25 1009 100 10000 1.03 180 09:52 23.12.2021
6264 Rain 25 1009 100 10000 1.03 180 09:32 23.12.2021
6265 Rain 25 1009 100 10000 1.03 150 08:25 23.12.2021
6266 Rain 26 1011 89 8000 4.12 40 04:39 23.12.2021
6267 Clouds 28 1008 83 10000 1.54 20 00:34 23.12.2021
6268 Clouds 30 1006 74 10000 1.54 270 22:49 22.12.2021
6269 Clouds 30 1006 74 10000 1.54 270 21:57 22.12.2021
6270 Clouds 30 1006 74 10000 1.03 220 21:30 22.12.2021
6271 Clouds 29 1007 79 10000 1.54 80 20:53 22.12.2021
6272 Clouds 29 1007 79 10000 1.54 80 20:33 22.12.2021
6273 Thunderstorm 33 1007 62 10000 1.54 120 19:37 22.12.2021
6274 Clouds 33 1009 66 10000 1.54 120 18:19 22.12.2021
6275 Clouds 32 1010 70 10000 3.09 60 17:37 22.12.2021
6276 Clouds 30 1011 79 10000 1.54 130 15:49 22.12.2021
6277 Clouds 27 1010 94 10000 1.03 200 13:57 22.12.2021
6278 Clouds 26 1009 100 10000 1.03 200 12:47 22.12.2021
6279 Clouds 26 1008 100 10000 0.51 160 11:37 22.12.2021
6280 Clouds 26 1007 100 10000 1.03 200 09:43 22.12.2021
6281 Clear 26 1008 100 10000 0 0 07:55 22.12.2021
6282 Clear 27 1008 89 10000 2.06 70 05:51 22.12.2021
6283 Clear 27 1008 89 10000 2.06 70 05:31 22.12.2021
6284 Clear 26 1008 94 10000 2.06 80 04:55 22.12.2021
6285 Clear 26 1008 94 10000 2.06 80 04:31 22.12.2021
6286 Clear 26 1008 100 10000 1.54 80 03:34 22.12.2021
6287 Clear 26 1008 94 10000 1.54 80 01:37 22.12.2021
6288 Rain 27 1007 83 10000 1.54 300 23:33 21.12.2021
6289 Rain 27 1006 83 10000 1.54 320 22:29 21.12.2021
6290 Rain 28 1006 83 10000 1.54 340 21:51 21.12.2021
6291 Rain 28 1006 83 10000 1.54 340 21:26 21.12.2021
6292 Rain 28 1006 83 10000 1.03 10 20:23 21.12.2021
6293 Clouds 26 1008 94 9000 2.57 320 19:52 21.12.2021
6294 Clouds 26 1008 94 9000 2.57 320 19:26 21.12.2021
6295 Thunderstorm 32 1008 74 10000 1.54 110 18:22 21.12.2021
6296 Clouds 30 1009 79 10000 2.06 150 17:51 21.12.2021
6297 Clouds 29 1010 79 10000 1.54 140 16:39 21.12.2021
6298 Clouds 28 1010 83 10000 1.03 110 15:29 21.12.2021
6299 Clouds 27 1010 89 10000 1.03 130 13:51 21.12.2021
6300 Clouds 27 1010 89 10000 1.03 130 13:31 21.12.2021
6301 Clouds 25 1008 100 10000 0.51 190 11:57 21.12.2021
6302 Clouds 25 1008 100 10000 0 0 10:37 21.12.2021
6303 Clouds 26 1008 94 10000 1.03 80 09:35 21.12.2021
6304 Clouds 26 1008 94 10000 1.54 60 08:30 21.12.2021
6305 Clear 26 1008 94 10000 0.51 70 07:32 21.12.2021
6306 Clouds 26 1009 94 10000 0 0 06:54 21.12.2021
6307 Clouds 26 1009 100 10000 0.51 70 03:20 21.12.2021
6308 Rain 28 1007 83 10000 2.57 80 00:46 21.12.2021
6309 Thunderstorm 29 1006 79 10000 2.57 80 23:34 20.12.2021
6310 Rain 30 1005 79 10000 1.03 130 22:33 20.12.2021
6311 Rain 31 1005 74 10000 1.03 150 21:48 20.12.2021
6312 Rain 31 1005 74 10000 1.03 150 21:24 20.12.2021
6313 Clouds 30 1006 79 10000 1.03 90 20:48 20.12.2021
6314 Clouds 30 1006 79 10000 1.03 90 19:55 20.12.2021
6315 Clouds 31 1007 70 10000 1.54 170 19:32 20.12.2021
6316 Clouds 31 1007 70 10000 1.54 170 18:55 20.12.2021
6317 Clouds 30 1009 79 10000 1.54 90 17:55 20.12.2021
6318 Clouds 30 1009 79 10000 1.54 90 17:37 20.12.2021
6319 Clouds 30 1010 74 10000 2.06 80 16:42 20.12.2021
6320 Clouds 29 1011 84 10000 1.54 80 15:51 20.12.2021
6321 Clouds 29 1011 84 10000 1.54 80 14:53 20.12.2021
6322 Clouds 27 1010 89 10000 0.51 180 13:18 20.12.2021
6323 Clouds 26 1008 94 10000 1.03 180 11:23 20.12.2021
6324 Clouds 25 1008 94 10000 1.54 210 09:51 20.12.2021
6325 Rain 25 1008 94 10000 1.54 210 09:31 20.12.2021
6326 Rain 25 1008 94 10000 1.54 230 08:42 20.12.2021
6327 Rain 25 1009 88 10000 1.54 240 07:50 20.12.2021
6328 Rain 25 1009 88 10000 1.54 240 07:50 20.12.2021
6329 Rain 25 1009 88 10000 1.54 240 07:30 20.12.2021
6330 Clouds 26 1010 94 10000 2.06 250 04:36 20.12.2021
6331 Rain 27 1007 89 10000 1.54 160 23:59 19.12.2021
6332 Clouds 27 1006 89 10000 1.03 180 22:52 19.12.2021
6333 Rain 28 1006 89 10000 1.54 160 21:50 19.12.2021
6334 Rain 28 1006 89 10000 1.54 160 21:30 19.12.2021
6335 Rain 29 1007 84 10000 1.54 220 20:32 19.12.2021
6336 Rain 29 1007 84 10000 0 0 19:51 19.12.2021
6337 Rain 29 1007 84 10000 0 0 19:22 19.12.2021
6338 Rain 29 1009 84 10000 2.06 250 18:29 19.12.2021
6339 Rain 29 1009 84 10000 2.06 250 18:29 19.12.2021
6340 Rain 30 1009 79 10000 1.54 30 17:53 19.12.2021
6341 Rain 30 1009 79 10000 1.54 30 17:19 19.12.2021
6342 Rain 30 1010 79 10000 1.54 60 16:26 19.12.2021
6343 Rain 30 1010 79 10000 1.54 60 16:26 19.12.2021
6344 Rain 29 1011 84 10000 1.54 70 15:42 19.12.2021
6345 Clouds 29 1011 84 10000 1.54 70 15:20 19.12.2021
6346 Clouds 29 1011 84 10000 0.51 30 14:41 19.12.2021
6347 Clouds 28 1010 89 10000 0.51 70 13:22 19.12.2021
6348 Clouds 27 1010 94 10000 0 0 12:36 19.12.2021
6349 Clouds 27 1010 94 10000 0 0 12:18 19.12.2021
6350 Clouds 26 1009 100 10000 0.51 180 11:18 19.12.2021
6351 Clouds 26 1008 100 10000 1.03 200 10:25 19.12.2021
6352 Mist 26 1008 94 10000 1.54 120 09:37 19.12.2021
6353 Clouds 25 1007 100 10000 1.03 40 08:25 19.12.2021
6354 Rain 26 1010 94 10000 1.03 20 04:45 19.12.2021
6355 Rain 26 1010 94 10000 1.03 20 04:45 19.12.2021
6356 Clouds 26 1009 94 10000 0.51 290 01:19 19.12.2021
6357 Clouds 26 1007 89 10000 2.06 40 00:52 19.12.2021
6358 Rain 27 1007 83 10000 1.54 20 22:36 18.12.2021
6359 Rain 27 1006 83 10000 3.6 10 21:57 18.12.2021
6360 Clouds 27 1006 83 10000 3.6 10 21:35 18.12.2021
6361 Thunderstorm 26 1007 94 10000 3.6 20 20:44 18.12.2021
6362 Clouds 27 1008 89 10000 4.12 20 19:59 18.12.2021
6363 Rain 29 1008 74 10000 4.63 70 19:20 18.12.2021
6364 Clouds 30 1009 79 10000 1.54 80 18:21 18.12.2021
6365 Clouds 30 1010 79 10000 2.57 90 17:48 18.12.2021
6366 Clouds 29 1011 79 10000 2.06 90 16:26 18.12.2021
6367 Clouds 29 1012 84 10000 1.03 130 15:26 18.12.2021
6368 Clouds 27 1012 89 10000 2.06 160 14:32 18.12.2021
6369 Clouds 26 1012 94 10000 1.54 170 13:20 18.12.2021
6370 Clouds 25 1009 100 10000 0.51 160 11:21 18.12.2021
6371 Clouds 25 1008 100 10000 0.51 70 09:39 18.12.2021
6372 Clouds 25 1008 100 10000 0.51 70 08:46 18.12.2021
6373 Clouds 25 1008 100 10000 0.51 70 08:19 18.12.2021
6374 Rain 26 1010 94 10000 0 0 02:20 18.12.2021
6375 Rain 27 1008 83 10000 1.54 270 00:27 18.12.2021
6376 Rain 27 1008 83 10000 3.09 310 23:39 17.12.2021
6377 Clouds 27 1007 83 10000 3.09 350 21:56 17.12.2021
6378 Clouds 27 1006 89 5000 3.09 20 20:51 17.12.2021
6379 Clouds 27 1006 89 5000 3.09 20 20:31 17.12.2021
6380 Clouds 31 1009 70 10000 2.06 60 18:58 17.12.2021
6381 Clouds 31 1009 70 10000 2.06 60 18:38 17.12.2021
6382 Clouds 31 1009 70 10000 2.57 70 17:26 17.12.2021
6383 Clouds 29 1011 79 10000 3.09 60 16:44 17.12.2021
6384 Clouds 29 1011 79 10000 3.09 60 16:19 17.12.2021
6385 Clouds 28 1012 83 10000 2.57 70 15:19 17.12.2021
6386 Clouds 27 1011 89 9000 3.09 70 14:34 17.12.2021
6387 Clouds 25 1010 100 10000 1.54 70 12:46 17.12.2021
6388 Clouds 25 1009 100 10000 1.54 20 11:22 17.12.2021
6389 Clouds 26 1007 94 10000 1.54 60 09:55 17.12.2021
6390 Clouds 26 1007 94 10000 2.57 70 08:58 17.12.2021
6391 Clouds 26 1007 94 10000 2.57 70 08:20 17.12.2021
6392 Clouds 27 1010 89 10000 1.03 80 05:25 17.12.2021
6393 Clouds 27 1009 83 10000 2.57 50 02:52 17.12.2021
6394 Thunderstorm 29 1006 79 10000 4.63 360 22:52 16.12.2021
6395 -273 0 0 0 0 0 22:23 16.12.2021
6396 Thunderstorm 29 1006 79 10000 4.63 360 22:22 16.12.2021
6397 Thunderstorm 31 1005 70 10000 1.03 140 21:44 16.12.2021
6398 Clouds 31 1005 70 10000 1.54 180 20:48 16.12.2021
6399 Clouds 31 1005 70 10000 1.54 180 20:22 16.12.2021
6400 Clouds 31 1007 70 10000 1.54 200 19:31 16.12.2021
6401 Clouds 30 1008 74 10000 2.06 180 18:36 16.12.2021
6402 Clouds 30 1010 74 10000 1.54 140 17:48 16.12.2021
6403 Clouds 28 1011 83 10000 1.54 160 16:37 16.12.2021
6404 Rain 28 1011 83 10000 1.54 160 16:18 16.12.2021
6405 Clouds 27 1011 83 10000 1.03 120 13:47 16.12.2021
6406 Clouds 25 1009 94 10000 1.03 220 12:30 16.12.2021
6407 Clouds 25 1008 94 10000 1.03 200 11:19 16.12.2021
6408 Clouds 25 1009 94 10000 1.54 130 10:41 16.12.2021
6409 Clouds 25 1009 94 10000 1.54 110 09:50 16.12.2021
6410 Rain 25 1010 94 10000 0.51 150 07:18 16.12.2021
6411 Rain 25 1010 94 10000 0.51 120 06:18 16.12.2021
6412 Clouds 25 1007 94 10000 1.54 90 23:59 15.12.2021
6413 Rain 25 1007 94 10000 1.54 90 23:18 15.12.2021
6414 Rain 27 1006 83 10000 1.03 130 22:21 15.12.2021
6415 Rain 27 1007 89 10000 1.03 150 21:44 15.12.2021
6416 Rain 27 1007 89 10000 1.03 150 21:24 15.12.2021
6417 Rain 26 1009 94 10000 1.54 150 19:54 15.12.2021
6418 Rain 26 1009 94 10000 1.54 150 19:18 15.12.2021
6419 Rain 26 1010 94 10000 0.51 60 18:20 15.12.2021
6420 Rain 25 1011 100 10000 1.54 80 17:45 15.12.2021
6421 Rain 25 1011 100 10000 1.54 80 17:21 15.12.2021
6422 Thunderstorm 24 1012 100 2000 3.6 40 15:49 15.12.2021
6423 Thunderstorm 25 1012 100 10000 1.03 190 15:30 15.12.2021
6424 Rain 26 1012 94 10000 1.54 160 14:48 15.12.2021
6425 Thunderstorm 27 1010 89 10000 1.54 30 13:34 15.12.2021
6426 Clouds 26 1009 100 10000 0.51 250 11:52 15.12.2021
6427 Clouds 26 1008 100 10000 0 0 10:20 15.12.2021
6428 Clouds 24 1008 100 10000 0.51 280 08:25 15.12.2021
6429 Clouds 26 1010 100 10000 0.51 80 05:51 15.12.2021
6430 Clear 26 1007 94 10000 0 0 00:37 15.12.2021
6431 Clouds 28 1006 78 10000 0 0 23:27 14.12.2021
6432 Clouds 29 1006 79 10000 1.03 90 22:44 14.12.2021
6433 Clouds 30 1006 74 10000 1.54 70 21:40 14.12.2021
6434 Clouds 30 1007 74 10000 1.03 140 20:21 14.12.2021
6435 Clouds 29 1009 79 10000 2.57 170 19:26 14.12.2021
6436 Clouds 29 1010 79 10000 1.54 150 18:38 14.12.2021
6437 Clouds 29 1010 79 10000 1.54 150 17:53 14.12.2021
6438 Clouds 28 1011 83 10000 1.54 130 16:43 14.12.2021
6439 Clouds 28 1011 83 10000 1.54 130 16:43 14.12.2021
6440 Clouds 27 1011 89 10000 1.03 110 16:18 14.12.2021
6441 Rain 25 1010 94 10000 1.03 180 13:58 14.12.2021
6442 Clouds 25 1009 94 10000 1.03 160 12:48 14.12.2021
6443 Rain 25 1008 94 10000 0.51 40 11:25 14.12.2021
6444 Rain 25 1009 94 10000 1.54 90 10:45 14.12.2021
6445 Rain 25 1009 94 10000 2.06 70 09:54 14.12.2021
6446 Rain 25 1009 100 10000 1.54 90 08:48 14.12.2021
6447 Rain 25 1009 100 10000 1.54 90 08:21 14.12.2021
6448 Rain 25 1009 100 10000 1.54 80 06:40 14.12.2021
6449 Thunderstorm 25 1008 94 5000 1.03 100 23:51 13.12.2021
6450 Rain 29 1007 74 10000 1.54 10 22:24 13.12.2021
6451 Rain 30 1007 74 10000 1.54 90 21:34 13.12.2021
6452 Clouds 29 1007 79 10000 1.03 80 20:51 13.12.2021
6453 Clouds 29 1007 79 10000 1.03 80 20:20 13.12.2021
6454 Rain 31 1008 70 10000 2.57 90 19:49 13.12.2021
6455 Clouds 30 1010 74 10000 1.03 70 17:27 13.12.2021
6456 Clouds 29 1011 79 10000 1.54 90 16:32 13.12.2021
6457 Clouds 28 1011 83 10000 2.57 160 15:43 13.12.2021
6458 Clouds 27 1011 89 10000 1.03 160 14:30 13.12.2021
6459 Clouds 26 1011 94 10000 1.54 200 13:36 13.12.2021
6460 Clouds 25 1010 100 10000 1.03 170 12:39 13.12.2021
6461 Clouds 25 1010 100 10000 0 0 11:50 13.12.2021
6462 Clouds 24 1009 100 10000 1.03 220 11:29 13.12.2021
6463 Clouds 24 1008 100 10000 0 0 10:21 13.12.2021
6464 Rain 24 1007 100 10000 1.03 360 08:43 13.12.2021
6465 Rain 24 1008 100 10000 2.06 20 06:54 13.12.2021
6466 Clouds 24 1009 100 10000 1.03 30 04:52 13.12.2021
6467 Rain 24 1006 100 10000 3.09 360 23:55 12.12.2021
6468 Thunderstorm 24 1006 100 8000 3.09 10 21:57 12.12.2021
6469 Thunderstorm 25 1006 100 3000 4.63 30 20:50 12.12.2021
6470 Rain 31 1006 74 9000 2.57 80 19:35 12.12.2021
6471 Clouds 29 1008 79 5000 2.06 60 17:58 12.12.2021
6472 Clouds 29 1010 79 10000 1.54 60 16:29 12.12.2021
6473 Clouds 28 1010 83 10000 1.54 70 15:54 12.12.2021
6474 Clouds 28 1010 83 10000 1.54 70 15:28 12.12.2021
6475 Clouds 28 1010 78 10000 1.03 40 14:42 12.12.2021
6476 Clouds 26 1010 89 10000 1.54 330 13:56 12.12.2021
6477 Fog 25 1009 94 10000 1.54 340 12:48 12.12.2021
6478 Fog 24 1008 100 10000 1.03 360 11:45 12.12.2021
6479 Fog 24 1008 100 10000 1.03 360 11:25 12.12.2021
6480 Mist 25 1007 94 10000 1.03 340 10:43 12.12.2021
6481 Clouds 25 1006 94 10000 1.03 350 09:48 12.12.2021
6482 Clouds 25 1006 94 10000 1.03 10 08:42 12.12.2021
6483 Clouds 25 1008 94 10000 1.03 350 06:38 12.12.2021
6484 Clouds 25 1008 94 10000 1.54 360 05:28 12.12.2021
6485 Clouds 25 1008 100 10000 1.03 360 04:18 12.12.2021
6486 Rain 25 1006 94 10000 1.03 230 00:45 12.12.2021
6487 Clouds 25 1005 94 10000 2.06 20 22:42 11.12.2021
6488 Clouds 25 1005 94 10000 2.06 20 22:20 11.12.2021
6489 Clouds 25 1005 94 10000 2.06 360 21:25 11.12.2021
6490 Clouds 26 1006 94 10000 1.03 90 19:46 11.12.2021
6491 Rain 26 1006 94 10000 1.03 90 19:20 11.12.2021
6492 Rain 26 1007 94 10000 1.03 250 18:39 11.12.2021
6493 Thunderstorm 25 1008 100 8000 2.06 170 17:41 11.12.2021
6494 Rain 27 1009 94 3000 1.54 180 15:57 11.12.2021
6495 Rain 27 1009 89 5000 1.54 180 15:37 11.12.2021
6496 Rain 27 1009 89 10000 1.54 190 14:21 11.12.2021
6497 Clouds 27 1008 89 10000 0.51 10 12:20 11.12.2021
6498 Clouds 26 1007 94 10000 2.06 310 10:43 11.12.2021
6499 Clouds 26 1006 94 10000 0.51 330 09:38 11.12.2021
6500 Clouds 27 1008 89 10000 2.06 10 03:26 11.12.2021
6501 Clouds 28 1005 83 10000 1.54 40 00:45 11.12.2021
6502 Clouds 29 1004 79 10000 1.54 30 23:40 10.12.2021
6503 Clouds 29 1004 79 10000 1.54 40 22:33 10.12.2021
6504 Clouds 30 1005 74 10000 2.06 10 21:40 10.12.2021
6505 Clouds 30 1005 74 10000 2.57 10 20:22 10.12.2021
6506 Clouds 31 1006 70 10000 1.54 90 19:18 10.12.2021
6507 Clouds 30 1009 74 10000 1.54 130 17:31 10.12.2021
6508 Clouds 29 1011 74 10000 1.03 110 16:34 10.12.2021
6509 Clouds 29 1011 74 10000 1.54 90 15:43 10.12.2021
6510 Clouds 29 1011 74 10000 1.54 90 15:23 10.12.2021
6511 Clouds 28 1010 83 10000 1.03 80 13:53 10.12.2021
6512 Clouds 28 1010 83 10000 1.03 80 13:31 10.12.2021
6513 Clouds 26 1009 94 10000 0.51 80 12:51 10.12.2021
6514 Clouds 25 1009 94 10000 0 0 11:34 10.12.2021
6515 Clouds 25 1009 94 10000 1.03 310 10:50 10.12.2021
6516 Clouds 25 1010 94 10000 1.03 310 09:33 10.12.2021
6517 Clouds 25 1009 94 10000 1.03 320 07:24 10.12.2021
6518 Clouds 25 1010 100 10000 0 0 02:53 10.12.2021
6519 Clouds 25 1009 94 10000 1.03 80 01:32 10.12.2021
6520 Clouds 26 1007 89 10000 1.03 80 23:38 09.12.2021
6521 Clouds 28 1006 78 10000 2.57 40 22:41 09.12.2021
6522 Clouds 28 1006 78 10000 2.57 40 22:20 09.12.2021
6523 Clouds 30 1006 74 10000 3.09 50 21:20 09.12.2021
6524 Clouds 27 1008 83 10000 2.57 60 20:34 09.12.2021
6525 Clouds 28 1010 83 10000 2.57 150 19:22 09.12.2021
6526 Clouds 28 1010 83 10000 2.57 150 18:53 09.12.2021
6527 Rain 26 1012 89 10000 2.57 180 17:57 09.12.2021
6528 Rain 26 1012 89 10000 2.57 180 17:28 09.12.2021
6529 Rain 26 1013 94 10000 2.57 170 16:57 09.12.2021
6530 Rain 26 1013 94 10000 2.57 170 16:20 09.12.2021
6531 Drizzle 26 1012 89 10000 0.51 10 14:52 09.12.2021
6532 Rain 26 1012 94 10000 1.03 50 13:50 09.12.2021
6533 Clouds 26 1011 94 10000 1.03 50 12:47 09.12.2021
6534 Clouds 25 1010 94 10000 0.51 130 11:25 09.12.2021
6535 Clouds 25 1010 94 10000 1.03 30 10:19 09.12.2021
6536 Rain 26 1010 89 10000 2.06 360 06:51 09.12.2021
6537 Clouds 26 1011 83 10000 2.06 10 03:49 09.12.2021
6538 Clouds 28 1008 78 10000 3.09 320 23:50 08.12.2021
6539 Clouds 28 1008 78 10000 3.09 320 23:31 08.12.2021
6540 Clouds 28 1008 78 10000 3.09 320 22:53 08.12.2021
6541 Clouds 30 1007 74 10000 3.6 30 21:50 08.12.2021
6542 Clouds 30 1007 74 10000 3.6 30 21:31 08.12.2021
6543 Clouds 31 1007 66 10000 1.03 140 20:30 08.12.2021
6544 Clouds 31 1008 66 10000 3.09 60 19:48 08.12.2021
6545 Clouds 31 1008 66 10000 3.09 60 18:54 08.12.2021
6546 Clouds 30 1010 74 10000 1.54 80 18:21 08.12.2021
6547 Clouds 29 1012 79 10000 1.03 20 16:44 08.12.2021
6548 Clouds 28 1012 78 10000 1.54 20 15:40 08.12.2021
6549 Clouds 28 1012 78 10000 1.54 20 15:21 08.12.2021
6550 Clouds 26 1012 89 10000 2.57 10 13:21 08.12.2021
6551 Clouds 25 1010 94 10000 2.57 340 10:36 08.12.2021
6552 Clouds 25 1010 94 10000 2.06 330 09:31 08.12.2021
6553 Rain 26 1010 89 10000 2.57 240 07:37 08.12.2021
6554 Clouds 26 1011 94 10000 1.54 350 04:58 08.12.2021
6555 Clouds 26 1009 94 10000 0 0 23:56 07.12.2021
6556 Clouds 25 1009 100 10000 2.06 180 22:37 07.12.2021
6557 Thunderstorm 28 1008 83 10000 1.54 170 21:24 07.12.2021
6558 Clouds 29 1008 79 10000 2.06 170 20:25 07.12.2021
6559 Clouds 29 1010 79 10000 2.57 190 18:56 07.12.2021
6560 Clouds 29 1010 79 10000 2.57 190 18:18 07.12.2021
6561 Clouds 29 1011 74 10000 2.57 200 17:20 07.12.2021
6562 Clouds 29 1012 74 10000 1.54 190 16:36 07.12.2021
6563 Clouds 27 1013 83 10000 1.03 200 15:35 07.12.2021
6564 Clouds 26 1013 83 10000 2.57 260 14:36 07.12.2021
6565 Clouds 25 1013 88 10000 2.57 250 13:19 07.12.2021
6566 Clouds 24 1012 94 10000 2.57 250 12:21 07.12.2021
6567 Clouds 24 1011 100 10000 2.06 280 10:44 07.12.2021
6568 Thunderstorm 23 1010 100 8000 1.54 40 08:46 07.12.2021
6569 Clouds 25 1011 100 10000 1.03 170 06:22 07.12.2021
6570 Clouds 25 1012 100 10000 2.06 230 05:42 07.12.2021
6571 Rain 26 1010 94 10000 2.06 230 00:54 07.12.2021
6572 Clouds 26 1009 94 10000 1.54 230 23:18 06.12.2021
6573 Clouds 27 1008 89 10000 2.57 230 22:39 06.12.2021
6574 Clouds 27 1008 89 10000 2.57 230 21:54 06.12.2021
6575 Rain 27 1009 89 10000 3.09 250 20:44 06.12.2021
6576 Rain 27 1009 89 10000 3.09 250 20:26 06.12.2021
6577 Rain 26 1010 94 10000 3.09 250 19:23 06.12.2021
6578 Rain 26 1011 94 10000 2.06 250 18:29 06.12.2021
6579 Thunderstorm 25 1012 94 5000 1.54 40 17:51 06.12.2021
6580 Rain 24 1013 100 2000 4.12 30 16:56 06.12.2021
6581 Rain 28 1013 89 10000 3.09 30 15:45 06.12.2021
6582 Clouds 27 1012 89 10000 1.03 40 13:47 06.12.2021
6583 Clouds 26 1012 94 10000 1.54 360 12:40 06.12.2021
6584 Clouds 25 1011 100 10000 2.06 350 11:48 06.12.2021
6585 Fog 26 1010 100 10000 2.06 260 09:20 06.12.2021
6586 Clear 27 1011 83 10000 1.54 310 06:43 06.12.2021
6587 Clouds 27 1008 89 10000 0 0 23:52 05.12.2021
6588 Clouds 28 1007 83 10000 1.54 80 21:52 05.12.2021
6589 Clouds 28 1007 83 10000 1.54 80 21:24 05.12.2021
6590 Clouds 28 1008 83 10000 1.03 90 20:19 05.12.2021
6591 Clouds 26 1009 94 10000 1.03 30 19:36 05.12.2021
6592 Clouds 26 1009 94 10000 1.03 30 19:18 05.12.2021
6593 Rain 25 1011 94 10000 3.09 70 18:20 05.12.2021
6594 Thunderstorm 24 1012 100 2000 5.66 40 17:48 05.12.2021
6595 Clouds 30 1013 74 10000 2.57 70 16:50 05.12.2021
6596 Clouds 30 1013 74 10000 2.57 70 16:27 05.12.2021
6597 Clouds 29 1013 74 10000 3.09 70 15:49 05.12.2021
6598 Clouds 28 1013 83 10000 3.09 60 14:43 05.12.2021
6599 Clouds 28 1013 83 10000 3.09 60 14:25 05.12.2021
6600 Clouds 27 1013 83 10000 3.09 50 13:22 05.12.2021
6601 Clouds 26 1012 94 10000 2.06 70 12:40 05.12.2021
6602 Clouds 26 1012 94 10000 2.06 70 12:18 05.12.2021
6603 Clouds 25 1011 94 10000 2.06 40 11:30 05.12.2021
6604 Clouds 25 1009 94 10000 1.54 10 09:59 05.12.2021
6605 Clouds 25 1010 94 10000 0 0 08:29 05.12.2021
6606 Clear 25 1012 100 10000 2.06 20 03:39 05.12.2021
6607 Rain 25 1009 94 10000 2.06 30 23:45 04.12.2021
6608 Clouds 25 1008 94 7000 4.63 10 21:55 04.12.2021
6609 Clouds 29 1008 79 10000 1.03 90 20:57 04.12.2021
6610 Clouds 29 1008 79 10000 1.03 90 20:27 04.12.2021
6611 Clouds 28 1010 83 10000 1.03 70 19:32 04.12.2021
6612 Clouds 29 1011 74 10000 1.54 150 18:21 04.12.2021
6613 Clouds 28 1011 78 10000 1.54 240 17:40 04.12.2021
6614 Clouds 28 1012 74 6000 1.54 220 16:52 04.12.2021
6615 Clouds 28 1013 78 10000 2.06 190 16:31 04.12.2021
6616 Clouds 27 1013 83 10000 1.54 150 15:57 04.12.2021
6617 Mist 25 1011 88 10000 1.54 170 11:54 04.12.2021
6618 Mist 25 1010 94 10000 1.54 170 11:32 04.12.2021
6619 Mist 25 1010 94 10000 1.54 170 10:56 04.12.2021
6620 Fog 25 1009 94 10000 1.03 220 08:49 04.12.2021
6621 Clouds 25 1010 94 10000 1.03 210 06:42 04.12.2021
6622 Clouds 25 1011 94 10000 1.03 210 04:42 04.12.2021
6623 Clouds 25 1009 100 10000 0.51 140 00:35 04.12.2021
6624 Clouds 25 1008 100 10000 0 0 23:27 03.12.2021
6625 Clouds 26 1007 94 10000 1.54 90 22:47 03.12.2021
6626 Clouds 25 1007 94 10000 1.03 90 21:26 03.12.2021
6627 Thunderstorm 25 1008 94 8000 3.09 60 20:55 03.12.2021
6628 Thunderstorm 25 1008 94 8000 3.09 60 20:26 03.12.2021
6629 Thunderstorm 28 1009 83 10000 1.03 70 18:44 03.12.2021
6630 Rain 30 1010 70 10000 1.03 190 17:59 03.12.2021
6631 Clouds 28 1011 78 10000 1.03 220 16:33 03.12.2021
6632 Clouds 25 1011 94 8000 2.06 240 12:59 03.12.2021
6633 Drizzle 25 1011 94 4000 1.03 240 12:20 03.12.2021
6634 Clouds 25 1009 88 10000 2.57 310 10:56 03.12.2021
6635 Clouds 25 1008 88 10000 2.06 330 08:29 03.12.2021
6636 Clouds 26 1009 83 10000 2.06 330 07:43 03.12.2021
6637